<?xml version="1.0" encoding="UTF-8" standalone="no" ?>
<gpx xmlns="http://www.topografix.com/GPX/1/1" xmlns:xsi="http://www.w3.org/2001/XMLSchema-instance" xsi:schemaLocation="http://www.topografix.com/GPX/1/1 http://www.topografix.com/GPX/1/1/gpx.xsd" version="1.1" creator="VisuGPX - https://www.visugpx.com">
  <metadata>
    <name>Vassieux / Mens</name>
    <desc><![CDATA[De Vassieux à Mens par les cols de St Alexis, Rousset, Grimone, La Croix Haute et le Banchet]]></desc>
  </metadata>
  <wpt lat="44.89538" lon="5.37081">
    <ele>1058</ele>
    <name><![CDATA[Vassieux / Mens par Grimone]]></name>
  </wpt>
  <trk>
    <name><![CDATA[Vassieux / Mens par Grimone]]></name>
    <trkseg>
      <trkpt lat="44.89538" lon="5.37081">
        <ele>1058</ele>
        <time>2018-05-23T09:46:11Z</time>
      </trkpt>
      <trkpt lat="44.89512" lon="5.37128">
        <ele>1058</ele>
        <time>2018-05-23T09:46:13Z</time>
      </trkpt>
      <trkpt lat="44.89454" lon="5.37236">
        <ele>1058</ele>
        <time>2018-05-23T09:46:17Z</time>
      </trkpt>
      <trkpt lat="44.89431" lon="5.37281">
        <ele>1059</ele>
        <time>2018-05-23T09:46:28Z</time>
      </trkpt>
      <trkpt lat="44.89416" lon="5.37304">
        <ele>1059</ele>
        <time>2018-05-23T09:46:41Z</time>
      </trkpt>
      <trkpt lat="44.89401" lon="5.37332">
        <ele>1058</ele>
        <time>2018-05-23T09:46:55Z</time>
      </trkpt>
      <trkpt lat="44.89364" lon="5.37404">
        <ele>1059</ele>
        <time>2018-05-23T09:46:58Z</time>
      </trkpt>
      <trkpt lat="44.89323" lon="5.37477">
        <ele>1057</ele>
        <time>2018-05-23T09:47:18Z</time>
      </trkpt>
      <trkpt lat="44.89222" lon="5.37663">
        <ele>1056</ele>
        <time>2018-05-23T09:47:31Z</time>
      </trkpt>
      <trkpt lat="44.89214" lon="5.37682">
        <ele>1058</ele>
        <time>2018-05-23T09:47:42Z</time>
      </trkpt>
      <trkpt lat="44.89208" lon="5.37702">
        <ele>1058</ele>
        <time>2018-05-23T09:47:50Z</time>
      </trkpt>
      <trkpt lat="44.89204" lon="5.37758">
        <ele>1060</ele>
        <time>2018-05-23T09:47:59Z</time>
      </trkpt>
      <trkpt lat="44.89202" lon="5.37776">
        <ele>1060</ele>
        <time>2018-05-23T09:48:12Z</time>
      </trkpt>
      <trkpt lat="44.89196" lon="5.37797">
        <ele>1060</ele>
        <time>2018-05-23T09:48:25Z</time>
      </trkpt>
      <trkpt lat="44.89183" lon="5.37825">
        <ele>1061</ele>
        <time>2018-05-23T09:48:36Z</time>
      </trkpt>
      <trkpt lat="44.89163" lon="5.37863">
        <ele>1065</ele>
        <time>2018-05-23T09:48:50Z</time>
      </trkpt>
      <trkpt lat="44.89151" lon="5.37886">
        <ele>1066</ele>
        <time>2018-05-23T09:48:53Z</time>
      </trkpt>
      <trkpt lat="44.89145" lon="5.37903">
        <ele>1066</ele>
        <time>2018-05-23T09:49:11Z</time>
      </trkpt>
      <trkpt lat="44.89139" lon="5.37937">
        <ele>1067</ele>
        <time>2018-05-23T09:49:31Z</time>
      </trkpt>
      <trkpt lat="44.89134" lon="5.38008">
        <ele>1067</ele>
        <time>2018-05-23T09:49:34Z</time>
      </trkpt>
      <trkpt lat="44.89132" lon="5.38031">
        <ele>1067</ele>
        <time>2018-05-23T09:49:36Z</time>
      </trkpt>
      <trkpt lat="44.89128" lon="5.38048">
        <ele>1067</ele>
        <time>2018-05-23T09:49:45Z</time>
      </trkpt>
      <trkpt lat="44.89055" lon="5.38222">
        <ele>1070</ele>
        <time>2018-05-23T09:50:02Z</time>
      </trkpt>
      <trkpt lat="44.88998" lon="5.3836">
        <ele>1074</ele>
        <time>2018-05-23T09:50:15Z</time>
      </trkpt>
      <trkpt lat="44.88985" lon="5.38389">
        <ele>1073</ele>
        <time>2018-05-23T09:50:26Z</time>
      </trkpt>
      <trkpt lat="44.88976" lon="5.38406">
        <ele>1073</ele>
        <time>2018-05-23T09:50:37Z</time>
      </trkpt>
      <trkpt lat="44.8896" lon="5.38424">
        <ele>1071</ele>
        <time>2018-05-23T09:50:54Z</time>
      </trkpt>
      <trkpt lat="44.88916" lon="5.38466">
        <ele>1073</ele>
        <time>2018-05-23T09:50:59Z</time>
      </trkpt>
      <trkpt lat="44.88896" lon="5.38481">
        <ele>1073</ele>
        <time>2018-05-23T09:51:14Z</time>
      </trkpt>
      <trkpt lat="44.88867" lon="5.38498">
        <ele>1073</ele>
        <time>2018-05-23T09:51:26Z</time>
      </trkpt>
      <trkpt lat="44.88774" lon="5.38549">
        <ele>1074</ele>
        <time>2018-05-23T09:51:28Z</time>
      </trkpt>
      <trkpt lat="44.88757" lon="5.38563">
        <ele>1074</ele>
        <time>2018-05-23T09:51:37Z</time>
      </trkpt>
      <trkpt lat="44.88737" lon="5.38583">
        <ele>1075</ele>
        <time>2018-05-23T09:51:42Z</time>
      </trkpt>
      <trkpt lat="44.88615" lon="5.3874">
        <ele>1079</ele>
        <time>2018-05-23T09:51:47Z</time>
      </trkpt>
      <trkpt lat="44.88527" lon="5.38853">
        <ele>1080</ele>
        <time>2018-05-23T09:51:52Z</time>
      </trkpt>
      <trkpt lat="44.88474" lon="5.38916">
        <ele>1080</ele>
        <time>2018-05-23T09:51:56Z</time>
      </trkpt>
      <trkpt lat="44.88398" lon="5.38998">
        <ele>1079</ele>
        <time>2018-05-23T09:52:03Z</time>
      </trkpt>
      <trkpt lat="44.88322" lon="5.39078">
        <ele>1083</ele>
        <time>2018-05-23T09:52:20Z</time>
      </trkpt>
      <trkpt lat="44.88304" lon="5.39098">
        <ele>1087</ele>
        <time>2018-05-23T09:52:36Z</time>
      </trkpt>
      <trkpt lat="44.88294" lon="5.39114">
        <ele>1088</ele>
        <time>2018-05-23T09:52:45Z</time>
      </trkpt>
      <trkpt lat="44.8828" lon="5.3914">
        <ele>1089</ele>
        <time>2018-05-23T09:52:47Z</time>
      </trkpt>
      <trkpt lat="44.88251" lon="5.39205">
        <ele>1098</ele>
        <time>2018-05-23T09:53:05Z</time>
      </trkpt>
      <trkpt lat="44.88241" lon="5.39228">
        <ele>1095</ele>
        <time>2018-05-23T09:53:11Z</time>
      </trkpt>
      <trkpt lat="44.88234" lon="5.39256">
        <ele>1099</ele>
        <time>2018-05-23T09:53:31Z</time>
      </trkpt>
      <trkpt lat="44.8822" lon="5.3942">
        <ele>1109</ele>
        <time>2018-05-23T09:53:36Z</time>
      </trkpt>
      <trkpt lat="44.88213" lon="5.39467">
        <ele>1110</ele>
        <time>2018-05-23T09:53:47Z</time>
      </trkpt>
      <trkpt lat="44.88205" lon="5.39485">
        <ele>1110</ele>
        <time>2018-05-23T09:53:56Z</time>
      </trkpt>
      <trkpt lat="44.88198" lon="5.39497">
        <ele>1110</ele>
        <time>2018-05-23T09:54:05Z</time>
      </trkpt>
      <trkpt lat="44.88182" lon="5.39516">
        <ele>1116</ele>
        <time>2018-05-23T09:54:11Z</time>
      </trkpt>
      <trkpt lat="44.8816" lon="5.39537">
        <ele>1112</ele>
        <time>2018-05-23T09:54:13Z</time>
      </trkpt>
      <trkpt lat="44.88138" lon="5.39555">
        <ele>1114</ele>
        <time>2018-05-23T09:54:22Z</time>
      </trkpt>
      <trkpt lat="44.881" lon="5.39583">
        <ele>1116</ele>
        <time>2018-05-23T09:54:32Z</time>
      </trkpt>
      <trkpt lat="44.88052" lon="5.39635">
        <ele>1121</ele>
        <time>2018-05-23T09:54:38Z</time>
      </trkpt>
      <trkpt lat="44.88016" lon="5.39664">
        <ele>1119</ele>
        <time>2018-05-23T09:54:53Z</time>
      </trkpt>
      <trkpt lat="44.88005" lon="5.39676">
        <ele>1125</ele>
        <time>2018-05-23T09:55:04Z</time>
      </trkpt>
      <trkpt lat="44.87989" lon="5.39704">
        <ele>1122</ele>
        <time>2018-05-23T09:55:07Z</time>
      </trkpt>
      <trkpt lat="44.87974" lon="5.39729">
        <ele>1124</ele>
        <time>2018-05-23T09:55:19Z</time>
      </trkpt>
      <trkpt lat="44.8796" lon="5.39748">
        <ele>1124</ele>
        <time>2018-05-23T09:55:27Z</time>
      </trkpt>
      <trkpt lat="44.8793" lon="5.39781">
        <ele>1133</ele>
        <time>2018-05-23T09:55:32Z</time>
      </trkpt>
      <trkpt lat="44.87884" lon="5.39825">
        <ele>1128</ele>
        <time>2018-05-23T09:55:49Z</time>
      </trkpt>
      <trkpt lat="44.87867" lon="5.39842">
        <ele>1141</ele>
        <time>2018-05-23T09:56:04Z</time>
      </trkpt>
      <trkpt lat="44.87852" lon="5.39864">
        <ele>1143</ele>
        <time>2018-05-23T09:56:09Z</time>
      </trkpt>
      <trkpt lat="44.87835" lon="5.39881">
        <ele>1147</ele>
        <time>2018-05-23T09:56:29Z</time>
      </trkpt>
      <trkpt lat="44.87814" lon="5.39897">
        <ele>1145</ele>
        <time>2018-05-23T09:56:32Z</time>
      </trkpt>
      <trkpt lat="44.87793" lon="5.39908">
        <ele>1143</ele>
        <time>2018-05-23T09:56:45Z</time>
      </trkpt>
      <trkpt lat="44.87763" lon="5.39918">
        <ele>1156</ele>
        <time>2018-05-23T09:56:55Z</time>
      </trkpt>
      <trkpt lat="44.87739" lon="5.39922">
        <ele>1153</ele>
        <time>2018-05-23T09:57:00Z</time>
      </trkpt>
      <trkpt lat="44.87722" lon="5.39923">
        <ele>1156</ele>
        <time>2018-05-23T09:57:03Z</time>
      </trkpt>
      <trkpt lat="44.87698" lon="5.39921">
        <ele>1156</ele>
        <time>2018-05-23T09:57:08Z</time>
      </trkpt>
      <trkpt lat="44.87684" lon="5.39923">
        <ele>1154</ele>
        <time>2018-05-23T09:57:23Z</time>
      </trkpt>
      <trkpt lat="44.8766" lon="5.3993">
        <ele>1153</ele>
        <time>2018-05-23T09:57:43Z</time>
      </trkpt>
      <trkpt lat="44.87628" lon="5.39944">
        <ele>1158</ele>
        <time>2018-05-23T09:57:58Z</time>
      </trkpt>
      <trkpt lat="44.87578" lon="5.39968">
        <ele>1162</ele>
        <time>2018-05-23T09:58:16Z</time>
      </trkpt>
      <trkpt lat="44.87556" lon="5.39983">
        <ele>1163</ele>
        <time>2018-05-23T09:58:25Z</time>
      </trkpt>
      <trkpt lat="44.87542" lon="5.3999">
        <ele>1163</ele>
        <time>2018-05-23T09:58:29Z</time>
      </trkpt>
      <trkpt lat="44.87529" lon="5.3999">
        <ele>1163</ele>
        <time>2018-05-23T09:58:39Z</time>
      </trkpt>
      <trkpt lat="44.87515" lon="5.39981">
        <ele>1164</ele>
        <time>2018-05-23T09:58:44Z</time>
      </trkpt>
      <trkpt lat="44.87505" lon="5.39966">
        <ele>1163</ele>
        <time>2018-05-23T09:58:48Z</time>
      </trkpt>
      <trkpt lat="44.87494" lon="5.39934">
        <ele>1168</ele>
        <time>2018-05-23T09:59:05Z</time>
      </trkpt>
      <trkpt lat="44.87482" lon="5.39898">
        <ele>1172</ele>
        <time>2018-05-23T09:59:10Z</time>
      </trkpt>
      <trkpt lat="44.87476" lon="5.39895">
        <ele>1174</ele>
        <time>2018-05-23T09:59:18Z</time>
      </trkpt>
      <trkpt lat="44.8747" lon="5.39896">
        <ele>1174</ele>
        <time>2018-05-23T09:59:32Z</time>
      </trkpt>
      <trkpt lat="44.87468" lon="5.39899">
        <ele>1174</ele>
        <time>2018-05-23T09:59:42Z</time>
      </trkpt>
      <trkpt lat="44.87461" lon="5.39943">
        <ele>1172</ele>
        <time>2018-05-23T09:59:44Z</time>
      </trkpt>
      <trkpt lat="44.87454" lon="5.39968">
        <ele>1172</ele>
        <time>2018-05-23T09:59:47Z</time>
      </trkpt>
      <trkpt lat="44.87441" lon="5.39997">
        <ele>1173</ele>
        <time>2018-05-23T09:59:57Z</time>
      </trkpt>
      <trkpt lat="44.87429" lon="5.4003">
        <ele>1174</ele>
        <time>2018-05-23T10:00:09Z</time>
      </trkpt>
      <trkpt lat="44.87425" lon="5.40052">
        <ele>1176</ele>
        <time>2018-05-23T10:00:28Z</time>
      </trkpt>
      <trkpt lat="44.87426" lon="5.40077">
        <ele>1178</ele>
        <time>2018-05-23T10:00:46Z</time>
      </trkpt>
      <trkpt lat="44.87431" lon="5.40098">
        <ele>1181</ele>
        <time>2018-05-23T10:01:05Z</time>
      </trkpt>
      <trkpt lat="44.87442" lon="5.40118">
        <ele>1181</ele>
        <time>2018-05-23T10:01:12Z</time>
      </trkpt>
      <trkpt lat="44.87458" lon="5.4014">
        <ele>1182</ele>
        <time>2018-05-23T10:01:31Z</time>
      </trkpt>
      <trkpt lat="44.87464" lon="5.40151">
        <ele>1181</ele>
        <time>2018-05-23T10:01:38Z</time>
      </trkpt>
      <trkpt lat="44.87469" lon="5.40168">
        <ele>1186</ele>
        <time>2018-05-23T10:01:55Z</time>
      </trkpt>
      <trkpt lat="44.87471" lon="5.40189">
        <ele>1186</ele>
        <time>2018-05-23T10:02:00Z</time>
      </trkpt>
      <trkpt lat="44.8747" lon="5.40216">
        <ele>1187</ele>
        <time>2018-05-23T10:02:17Z</time>
      </trkpt>
      <trkpt lat="44.87466" lon="5.40246">
        <ele>1188</ele>
        <time>2018-05-23T10:02:28Z</time>
      </trkpt>
      <trkpt lat="44.87461" lon="5.40268">
        <ele>1192</ele>
        <time>2018-05-23T10:02:46Z</time>
      </trkpt>
      <trkpt lat="44.87448" lon="5.40312">
        <ele>1195</ele>
        <time>2018-05-23T10:03:04Z</time>
      </trkpt>
      <trkpt lat="44.87444" lon="5.4033">
        <ele>1196</ele>
        <time>2018-05-23T10:03:16Z</time>
      </trkpt>
      <trkpt lat="44.87446" lon="5.40343">
        <ele>1198</ele>
        <time>2018-05-23T10:03:18Z</time>
      </trkpt>
      <trkpt lat="44.87453" lon="5.40361">
        <ele>1197</ele>
        <time>2018-05-23T10:03:35Z</time>
      </trkpt>
      <trkpt lat="44.87467" lon="5.40392">
        <ele>1196</ele>
        <time>2018-05-23T10:03:47Z</time>
      </trkpt>
      <trkpt lat="44.87471" lon="5.4041">
        <ele>1196</ele>
        <time>2018-05-23T10:03:53Z</time>
      </trkpt>
      <trkpt lat="44.87481" lon="5.40451">
        <ele>1200</ele>
        <time>2018-05-23T10:04:09Z</time>
      </trkpt>
      <trkpt lat="44.87488" lon="5.40474">
        <ele>1201</ele>
        <time>2018-05-23T10:04:11Z</time>
      </trkpt>
      <trkpt lat="44.87497" lon="5.40491">
        <ele>1201</ele>
        <time>2018-05-23T10:04:13Z</time>
      </trkpt>
      <trkpt lat="44.87516" lon="5.4051">
        <ele>1204</ele>
        <time>2018-05-23T10:04:25Z</time>
      </trkpt>
      <trkpt lat="44.87541" lon="5.40531">
        <ele>1205</ele>
        <time>2018-05-23T10:04:41Z</time>
      </trkpt>
      <trkpt lat="44.87557" lon="5.40548">
        <ele>1206</ele>
        <time>2018-05-23T10:04:58Z</time>
      </trkpt>
      <trkpt lat="44.87575" lon="5.4056">
        <ele>1207</ele>
        <time>2018-05-23T10:05:11Z</time>
      </trkpt>
      <trkpt lat="44.87591" lon="5.40565">
        <ele>1203</ele>
        <time>2018-05-23T10:05:16Z</time>
      </trkpt>
      <trkpt lat="44.87609" lon="5.40571">
        <ele>1202</ele>
        <time>2018-05-23T10:05:19Z</time>
      </trkpt>
      <trkpt lat="44.87622" lon="5.4058">
        <ele>1201</ele>
        <time>2018-05-23T10:05:23Z</time>
      </trkpt>
      <trkpt lat="44.87657" lon="5.40611">
        <ele>1212</ele>
        <time>2018-05-23T10:05:36Z</time>
      </trkpt>
      <trkpt lat="44.87667" lon="5.40624">
        <ele>1207</ele>
        <time>2018-05-23T10:05:41Z</time>
      </trkpt>
      <trkpt lat="44.87666" lon="5.40635">
        <ele>1215</ele>
        <time>2018-05-23T10:06:01Z</time>
      </trkpt>
      <trkpt lat="44.87657" lon="5.40637">
        <ele>1216</ele>
        <time>2018-05-23T10:06:17Z</time>
      </trkpt>
      <trkpt lat="44.87641" lon="5.40627">
        <ele>1215</ele>
        <time>2018-05-23T10:06:20Z</time>
      </trkpt>
      <trkpt lat="44.87624" lon="5.40612">
        <ele>1215</ele>
        <time>2018-05-23T10:06:23Z</time>
      </trkpt>
      <trkpt lat="44.87605" lon="5.40602">
        <ele>1214</ele>
        <time>2018-05-23T10:06:33Z</time>
      </trkpt>
      <trkpt lat="44.87589" lon="5.406">
        <ele>1213</ele>
        <time>2018-05-23T10:06:49Z</time>
      </trkpt>
      <trkpt lat="44.87566" lon="5.40597">
        <ele>1221</ele>
        <time>2018-05-23T10:07:03Z</time>
      </trkpt>
      <trkpt lat="44.87528" lon="5.40583">
        <ele>1212</ele>
        <time>2018-05-23T10:07:17Z</time>
      </trkpt>
      <trkpt lat="44.87509" lon="5.40578">
        <ele>1217</ele>
        <time>2018-05-23T10:07:22Z</time>
      </trkpt>
      <trkpt lat="44.87494" lon="5.40578">
        <ele>1220</ele>
        <time>2018-05-23T10:07:25Z</time>
      </trkpt>
      <trkpt lat="44.87456" lon="5.40587">
        <ele>1231</ele>
        <time>2018-05-23T10:07:41Z</time>
      </trkpt>
      <trkpt lat="44.8744" lon="5.40591">
        <ele>1230</ele>
        <time>2018-05-23T10:07:45Z</time>
      </trkpt>
      <trkpt lat="44.8742" lon="5.40591">
        <ele>1227</ele>
        <time>2018-05-23T10:08:00Z</time>
      </trkpt>
      <trkpt lat="44.87401" lon="5.40592">
        <ele>1228</ele>
        <time>2018-05-23T10:08:19Z</time>
      </trkpt>
      <trkpt lat="44.87385" lon="5.40598">
        <ele>1230</ele>
        <time>2018-05-23T10:08:36Z</time>
      </trkpt>
      <trkpt lat="44.87363" lon="5.40607">
        <ele>1231</ele>
        <time>2018-05-23T10:08:53Z</time>
      </trkpt>
      <trkpt lat="44.87345" lon="5.40617">
        <ele>1231</ele>
        <time>2018-05-23T10:09:07Z</time>
      </trkpt>
      <trkpt lat="44.87283" lon="5.40665">
        <ele>1235</ele>
        <time>2018-05-23T10:09:10Z</time>
      </trkpt>
      <trkpt lat="44.87251" lon="5.40702">
        <ele>1236</ele>
        <time>2018-05-23T10:09:26Z</time>
      </trkpt>
      <trkpt lat="44.8724" lon="5.40715">
        <ele>1235</ele>
        <time>2018-05-23T10:09:44Z</time>
      </trkpt>
      <trkpt lat="44.87229" lon="5.40724">
        <ele>1235</ele>
        <time>2018-05-23T10:09:47Z</time>
      </trkpt>
      <trkpt lat="44.87155" lon="5.40751">
        <ele>1224</ele>
        <time>2018-05-23T10:09:54Z</time>
      </trkpt>
      <trkpt lat="44.87127" lon="5.40759">
        <ele>1218</ele>
        <time>2018-05-23T10:10:06Z</time>
      </trkpt>
      <trkpt lat="44.87115" lon="5.4076">
        <ele>1218</ele>
        <time>2018-05-23T10:10:15Z</time>
      </trkpt>
      <trkpt lat="44.87101" lon="5.40758">
        <ele>1221</ele>
        <time>2018-05-23T10:10:27Z</time>
      </trkpt>
      <trkpt lat="44.87066" lon="5.4075">
        <ele>1239</ele>
        <time>2018-05-23T10:10:43Z</time>
      </trkpt>
      <trkpt lat="44.87019" lon="5.40746">
        <ele>1239</ele>
        <time>2018-05-23T10:11:01Z</time>
      </trkpt>
      <trkpt lat="44.86983" lon="5.40744">
        <ele>1236</ele>
        <time>2018-05-23T10:11:15Z</time>
      </trkpt>
      <trkpt lat="44.86958" lon="5.4074">
        <ele>1238</ele>
        <time>2018-05-23T10:11:27Z</time>
      </trkpt>
      <trkpt lat="44.86897" lon="5.40727">
        <ele>1230</ele>
        <time>2018-05-23T10:11:33Z</time>
      </trkpt>
      <trkpt lat="44.8687" lon="5.40717">
        <ele>1232</ele>
        <time>2018-05-23T10:11:48Z</time>
      </trkpt>
      <trkpt lat="44.86847" lon="5.40705">
        <ele>1234</ele>
        <time>2018-05-23T10:12:05Z</time>
      </trkpt>
      <trkpt lat="44.86829" lon="5.40695">
        <ele>1232</ele>
        <time>2018-05-23T10:12:12Z</time>
      </trkpt>
      <trkpt lat="44.86819" lon="5.40684">
        <ele>1235</ele>
        <time>2018-05-23T10:12:21Z</time>
      </trkpt>
      <trkpt lat="44.86806" lon="5.40674">
        <ele>1235</ele>
        <time>2018-05-23T10:12:32Z</time>
      </trkpt>
      <trkpt lat="44.8679" lon="5.40667">
        <ele>1234</ele>
        <time>2018-05-23T10:12:49Z</time>
      </trkpt>
      <trkpt lat="44.86777" lon="5.40663">
        <ele>1260</ele>
        <time>2018-05-23T10:13:06Z</time>
      </trkpt>
      <trkpt lat="44.86763" lon="5.40663">
        <ele>1256</ele>
        <time>2018-05-23T10:13:17Z</time>
      </trkpt>
      <trkpt lat="44.86743" lon="5.40668">
        <ele>1241</ele>
        <time>2018-05-23T10:13:22Z</time>
      </trkpt>
      <trkpt lat="44.86714" lon="5.40678">
        <ele>1229</ele>
        <time>2018-05-23T10:13:37Z</time>
      </trkpt>
      <trkpt lat="44.86695" lon="5.40681">
        <ele>1228</ele>
        <time>2018-05-23T10:13:53Z</time>
      </trkpt>
      <trkpt lat="44.86654" lon="5.40676">
        <ele>1229</ele>
        <time>2018-05-23T10:13:58Z</time>
      </trkpt>
      <trkpt lat="44.86606" lon="5.40671">
        <ele>1220</ele>
        <time>2018-05-23T10:14:08Z</time>
      </trkpt>
      <trkpt lat="44.86588" lon="5.40665">
        <ele>1231</ele>
        <time>2018-05-23T10:14:14Z</time>
      </trkpt>
      <trkpt lat="44.86573" lon="5.40656">
        <ele>1232</ele>
        <time>2018-05-23T10:14:16Z</time>
      </trkpt>
      <trkpt lat="44.86553" lon="5.4064">
        <ele>1238</ele>
        <time>2018-05-23T10:14:35Z</time>
      </trkpt>
      <trkpt lat="44.86534" lon="5.40626">
        <ele>1240</ele>
        <time>2018-05-23T10:14:53Z</time>
      </trkpt>
      <trkpt lat="44.86514" lon="5.40618">
        <ele>1242</ele>
        <time>2018-05-23T10:15:02Z</time>
      </trkpt>
      <trkpt lat="44.86475" lon="5.40603">
        <ele>1238</ele>
        <time>2018-05-23T10:15:15Z</time>
      </trkpt>
      <trkpt lat="44.86455" lon="5.40605">
        <ele>1235</ele>
        <time>2018-05-23T10:15:27Z</time>
      </trkpt>
      <trkpt lat="44.86427" lon="5.40609">
        <ele>1236</ele>
        <time>2018-05-23T10:15:42Z</time>
      </trkpt>
      <trkpt lat="44.86402" lon="5.40607">
        <ele>1230</ele>
        <time>2018-05-23T10:15:49Z</time>
      </trkpt>
      <trkpt lat="44.86361" lon="5.40596">
        <ele>1227</ele>
        <time>2018-05-23T10:15:59Z</time>
      </trkpt>
      <trkpt lat="44.8632" lon="5.40582">
        <ele>1243</ele>
        <time>2018-05-23T10:16:02Z</time>
      </trkpt>
      <trkpt lat="44.86285" lon="5.40575">
        <ele>1245</ele>
        <time>2018-05-23T10:16:17Z</time>
      </trkpt>
      <trkpt lat="44.86223" lon="5.40561">
        <ele>1238</ele>
        <time>2018-05-23T10:16:32Z</time>
      </trkpt>
      <trkpt lat="44.86179" lon="5.40542">
        <ele>1242</ele>
        <time>2018-05-23T10:16:52Z</time>
      </trkpt>
      <trkpt lat="44.86153" lon="5.40534">
        <ele>1235</ele>
        <time>2018-05-23T10:17:08Z</time>
      </trkpt>
      <trkpt lat="44.8613" lon="5.40525">
        <ele>1235</ele>
        <time>2018-05-23T10:17:15Z</time>
      </trkpt>
      <trkpt lat="44.8609" lon="5.40503">
        <ele>1240</ele>
        <time>2018-05-23T10:17:27Z</time>
      </trkpt>
      <trkpt lat="44.86067" lon="5.40502">
        <ele>1229</ele>
        <time>2018-05-23T10:17:47Z</time>
      </trkpt>
      <trkpt lat="44.86044" lon="5.40501">
        <ele>1222</ele>
        <time>2018-05-23T10:17:53Z</time>
      </trkpt>
      <trkpt lat="44.86026" lon="5.40496">
        <ele>1245</ele>
        <time>2018-05-23T10:18:07Z</time>
      </trkpt>
      <trkpt lat="44.8602" lon="5.40492">
        <ele>1244</ele>
        <time>2018-05-23T10:18:09Z</time>
      </trkpt>
      <trkpt lat="44.86005" lon="5.40482">
        <ele>1243</ele>
        <time>2018-05-23T10:18:15Z</time>
      </trkpt>
      <trkpt lat="44.8599" lon="5.40467">
        <ele>1244</ele>
        <time>2018-05-23T10:18:27Z</time>
      </trkpt>
      <trkpt lat="44.85978" lon="5.4046">
        <ele>1246</ele>
        <time>2018-05-23T10:18:36Z</time>
      </trkpt>
      <trkpt lat="44.85956" lon="5.40456">
        <ele>1247</ele>
        <time>2018-05-23T10:18:44Z</time>
      </trkpt>
      <trkpt lat="44.85951" lon="5.40456">
        <ele>1246</ele>
        <time>2018-05-23T10:18:51Z</time>
      </trkpt>
      <trkpt lat="44.85875" lon="5.40459">
        <ele>1239</ele>
        <time>2018-05-23T10:19:05Z</time>
      </trkpt>
      <trkpt lat="44.85849" lon="5.40459">
        <ele>1237</ele>
        <time>2018-05-23T10:19:12Z</time>
      </trkpt>
      <trkpt lat="44.85836" lon="5.40455">
        <ele>1239</ele>
        <time>2018-05-23T10:19:20Z</time>
      </trkpt>
      <trkpt lat="44.85821" lon="5.40444">
        <ele>1239</ele>
        <time>2018-05-23T10:19:38Z</time>
      </trkpt>
      <trkpt lat="44.85807" lon="5.40437">
        <ele>1240</ele>
        <time>2018-05-23T10:19:50Z</time>
      </trkpt>
      <trkpt lat="44.85791" lon="5.40436">
        <ele>1239</ele>
        <time>2018-05-23T10:19:53Z</time>
      </trkpt>
      <trkpt lat="44.85754" lon="5.40446">
        <ele>1237</ele>
        <time>2018-05-23T10:20:11Z</time>
      </trkpt>
      <trkpt lat="44.85724" lon="5.40451">
        <ele>1228</ele>
        <time>2018-05-23T10:20:14Z</time>
      </trkpt>
      <trkpt lat="44.85709" lon="5.40449">
        <ele>1227</ele>
        <time>2018-05-23T10:20:24Z</time>
      </trkpt>
      <trkpt lat="44.85696" lon="5.40444">
        <ele>1228</ele>
        <time>2018-05-23T10:20:43Z</time>
      </trkpt>
      <trkpt lat="44.8569" lon="5.4044">
        <ele>1229</ele>
        <time>2018-05-23T10:20:57Z</time>
      </trkpt>
      <trkpt lat="44.85666" lon="5.40414">
        <ele>1244</ele>
        <time>2018-05-23T10:21:15Z</time>
      </trkpt>
      <trkpt lat="44.85653" lon="5.40406">
        <ele>1254</ele>
        <time>2018-05-23T10:21:32Z</time>
      </trkpt>
      <trkpt lat="44.85638" lon="5.40401">
        <ele>1258</ele>
        <time>2018-05-23T10:21:35Z</time>
      </trkpt>
      <trkpt lat="44.85623" lon="5.40403">
        <ele>1258</ele>
        <time>2018-05-23T10:21:54Z</time>
      </trkpt>
      <trkpt lat="44.85583" lon="5.40425">
        <ele>1233</ele>
        <time>2018-05-23T10:22:10Z</time>
      </trkpt>
      <trkpt lat="44.85557" lon="5.40437">
        <ele>1228</ele>
        <time>2018-05-23T10:22:18Z</time>
      </trkpt>
      <trkpt lat="44.85526" lon="5.40446">
        <ele>1229</ele>
        <time>2018-05-23T10:22:34Z</time>
      </trkpt>
      <trkpt lat="44.85493" lon="5.40452">
        <ele>1233</ele>
        <time>2018-05-23T10:22:48Z</time>
      </trkpt>
      <trkpt lat="44.85469" lon="5.40454">
        <ele>1231</ele>
        <time>2018-05-23T10:23:01Z</time>
      </trkpt>
      <trkpt lat="44.85442" lon="5.40451">
        <ele>1232</ele>
        <time>2018-05-23T10:23:12Z</time>
      </trkpt>
      <trkpt lat="44.85405" lon="5.40442">
        <ele>1231</ele>
        <time>2018-05-23T10:23:16Z</time>
      </trkpt>
      <trkpt lat="44.85377" lon="5.40433">
        <ele>1230</ele>
        <time>2018-05-23T10:23:29Z</time>
      </trkpt>
      <trkpt lat="44.85354" lon="5.40431">
        <ele>1230</ele>
        <time>2018-05-23T10:23:43Z</time>
      </trkpt>
      <trkpt lat="44.85329" lon="5.40431">
        <ele>1228</ele>
        <time>2018-05-23T10:23:58Z</time>
      </trkpt>
      <trkpt lat="44.85307" lon="5.40431">
        <ele>1223</ele>
        <time>2018-05-23T10:24:01Z</time>
      </trkpt>
      <trkpt lat="44.85287" lon="5.40424">
        <ele>1221</ele>
        <time>2018-05-23T10:24:17Z</time>
      </trkpt>
      <trkpt lat="44.85272" lon="5.40414">
        <ele>1246</ele>
        <time>2018-05-23T10:24:24Z</time>
      </trkpt>
      <trkpt lat="44.85258" lon="5.40405">
        <ele>1243</ele>
        <time>2018-05-23T10:24:44Z</time>
      </trkpt>
      <trkpt lat="44.85243" lon="5.40402">
        <ele>1245</ele>
        <time>2018-05-23T10:25:00Z</time>
      </trkpt>
      <trkpt lat="44.85227" lon="5.4041">
        <ele>1248</ele>
        <time>2018-05-23T10:25:20Z</time>
      </trkpt>
      <trkpt lat="44.85191" lon="5.40436">
        <ele>1223</ele>
        <time>2018-05-23T10:25:27Z</time>
      </trkpt>
      <trkpt lat="44.85172" lon="5.40444">
        <ele>1223</ele>
        <time>2018-05-23T10:25:32Z</time>
      </trkpt>
      <trkpt lat="44.85147" lon="5.40451">
        <ele>1227</ele>
        <time>2018-05-23T10:25:34Z</time>
      </trkpt>
      <trkpt lat="44.85084" lon="5.40459">
        <ele>1228</ele>
        <time>2018-05-23T10:25:54Z</time>
      </trkpt>
      <trkpt lat="44.85001" lon="5.40465">
        <ele>1225</ele>
        <time>2018-05-23T10:26:09Z</time>
      </trkpt>
      <trkpt lat="44.84962" lon="5.40466">
        <ele>1225</ele>
        <time>2018-05-23T10:26:13Z</time>
      </trkpt>
      <trkpt lat="44.84931" lon="5.40463">
        <ele>1226</ele>
        <time>2018-05-23T10:26:20Z</time>
      </trkpt>
      <trkpt lat="44.84904" lon="5.40458">
        <ele>1228</ele>
        <time>2018-05-23T10:26:35Z</time>
      </trkpt>
      <trkpt lat="44.84887" lon="5.40456">
        <ele>1229</ele>
        <time>2018-05-23T10:26:43Z</time>
      </trkpt>
      <trkpt lat="44.84864" lon="5.40455">
        <ele>1229</ele>
        <time>2018-05-23T10:26:49Z</time>
      </trkpt>
      <trkpt lat="44.84829" lon="5.40463">
        <ele>1226</ele>
        <time>2018-05-23T10:26:52Z</time>
      </trkpt>
      <trkpt lat="44.84805" lon="5.40462">
        <ele>1227</ele>
        <time>2018-05-23T10:27:06Z</time>
      </trkpt>
      <trkpt lat="44.84784" lon="5.40458">
        <ele>1228</ele>
        <time>2018-05-23T10:27:09Z</time>
      </trkpt>
      <trkpt lat="44.84766" lon="5.40448">
        <ele>1230</ele>
        <time>2018-05-23T10:27:22Z</time>
      </trkpt>
      <trkpt lat="44.84754" lon="5.40447">
        <ele>1231</ele>
        <time>2018-05-23T10:27:39Z</time>
      </trkpt>
      <trkpt lat="44.84747" lon="5.40448">
        <ele>1233</ele>
        <time>2018-05-23T10:27:42Z</time>
      </trkpt>
      <trkpt lat="44.84732" lon="5.40459">
        <ele>1230</ele>
        <time>2018-05-23T10:27:55Z</time>
      </trkpt>
      <trkpt lat="44.84716" lon="5.40462">
        <ele>1230</ele>
        <time>2018-05-23T10:28:08Z</time>
      </trkpt>
      <trkpt lat="44.847" lon="5.40459">
        <ele>1231</ele>
        <time>2018-05-23T10:28:17Z</time>
      </trkpt>
      <trkpt lat="44.84684" lon="5.40457">
        <ele>1232</ele>
        <time>2018-05-23T10:28:35Z</time>
      </trkpt>
      <trkpt lat="44.84676" lon="5.40459">
        <ele>1232</ele>
        <time>2018-05-23T10:28:43Z</time>
      </trkpt>
      <trkpt lat="44.84668" lon="5.40465">
        <ele>1230</ele>
        <time>2018-05-23T10:29:02Z</time>
      </trkpt>
      <trkpt lat="44.84661" lon="5.40473">
        <ele>1233</ele>
        <time>2018-05-23T10:29:16Z</time>
      </trkpt>
      <trkpt lat="44.84629" lon="5.40478">
        <ele>1235</ele>
        <time>2018-05-23T10:29:20Z</time>
      </trkpt>
      <trkpt lat="44.84563" lon="5.40488">
        <ele>1240</ele>
        <time>2018-05-23T10:29:25Z</time>
      </trkpt>
      <trkpt lat="44.84519" lon="5.40494">
        <ele>1241</ele>
        <time>2018-05-23T10:29:32Z</time>
      </trkpt>
      <trkpt lat="44.84468" lon="5.40495">
        <ele>1249</ele>
        <time>2018-05-23T10:29:44Z</time>
      </trkpt>
      <trkpt lat="44.84383" lon="5.4051">
        <ele>1239</ele>
        <time>2018-05-23T10:29:56Z</time>
      </trkpt>
      <trkpt lat="44.84356" lon="5.40512">
        <ele>1241</ele>
        <time>2018-05-23T10:30:13Z</time>
      </trkpt>
      <trkpt lat="44.84312" lon="5.40512">
        <ele>1245</ele>
        <time>2018-05-23T10:30:25Z</time>
      </trkpt>
      <trkpt lat="44.84276" lon="5.40516">
        <ele>1247</ele>
        <time>2018-05-23T10:30:44Z</time>
      </trkpt>
      <trkpt lat="44.84253" lon="5.40522">
        <ele>1248</ele>
        <time>2018-05-23T10:31:00Z</time>
      </trkpt>
      <trkpt lat="44.84226" lon="5.40529">
        <ele>1252</ele>
        <time>2018-05-23T10:31:05Z</time>
      </trkpt>
      <trkpt lat="44.84201" lon="5.40535">
        <ele>1252</ele>
        <time>2018-05-23T10:31:20Z</time>
      </trkpt>
      <trkpt lat="44.84171" lon="5.40547">
        <ele>1252</ele>
        <time>2018-05-23T10:31:40Z</time>
      </trkpt>
      <trkpt lat="44.84126" lon="5.40566">
        <ele>1258</ele>
        <time>2018-05-23T10:31:58Z</time>
      </trkpt>
      <trkpt lat="44.84089" lon="5.40582">
        <ele>1254</ele>
        <time>2018-05-23T10:32:09Z</time>
      </trkpt>
      <trkpt lat="44.84082" lon="5.40582">
        <ele>1253</ele>
        <time>2018-05-23T10:32:17Z</time>
      </trkpt>
      <trkpt lat="44.84063" lon="5.40585">
        <ele>1254</ele>
        <time>2018-05-23T10:32:20Z</time>
      </trkpt>
      <trkpt lat="44.84061" lon="5.40582">
        <ele>1260</ele>
        <time>2018-05-23T10:32:36Z</time>
      </trkpt>
      <trkpt lat="44.84058" lon="5.4058">
        <ele>1261</ele>
        <time>2018-05-23T10:32:52Z</time>
      </trkpt>
      <trkpt lat="44.84046" lon="5.40549">
        <ele>1266</ele>
        <time>2018-05-23T10:33:09Z</time>
      </trkpt>
      <trkpt lat="44.84042" lon="5.40543">
        <ele>1268</ele>
        <time>2018-05-23T10:33:24Z</time>
      </trkpt>
      <trkpt lat="44.84023" lon="5.40476">
        <ele>1297</ele>
        <time>2018-05-23T10:33:34Z</time>
      </trkpt>
      <trkpt lat="44.83964" lon="5.40263">
        <ele>1385</ele>
        <time>2018-05-23T10:33:40Z</time>
      </trkpt>
      <trkpt lat="44.8392" lon="5.40124">
        <ele>1429</ele>
        <time>2018-05-23T10:33:55Z</time>
      </trkpt>
      <trkpt lat="44.83836" lon="5.39827">
        <ele>1302</ele>
        <time>2018-05-23T10:34:09Z</time>
      </trkpt>
      <trkpt lat="44.83832" lon="5.39812">
        <ele>1278</ele>
        <time>2018-05-23T10:34:16Z</time>
      </trkpt>
      <trkpt lat="44.83813" lon="5.39733">
        <ele>1253</ele>
        <time>2018-05-23T10:34:32Z</time>
      </trkpt>
      <trkpt lat="44.83811" lon="5.3971">
        <ele>1248</ele>
        <time>2018-05-23T10:34:36Z</time>
      </trkpt>
      <trkpt lat="44.83811" lon="5.39659">
        <ele>1240</ele>
        <time>2018-05-23T10:34:56Z</time>
      </trkpt>
      <trkpt lat="44.83814" lon="5.39628">
        <ele>1234</ele>
        <time>2018-05-23T10:35:00Z</time>
      </trkpt>
      <trkpt lat="44.8382" lon="5.3961">
        <ele>1234</ele>
        <time>2018-05-23T10:35:02Z</time>
      </trkpt>
      <trkpt lat="44.8383" lon="5.39589">
        <ele>1240</ele>
        <time>2018-05-23T10:35:04Z</time>
      </trkpt>
      <trkpt lat="44.83847" lon="5.39542">
        <ele>1248</ele>
        <time>2018-05-23T10:35:23Z</time>
      </trkpt>
      <trkpt lat="44.83857" lon="5.39517">
        <ele>1244</ele>
        <time>2018-05-23T10:35:25Z</time>
      </trkpt>
      <trkpt lat="44.8387" lon="5.39492">
        <ele>1235</ele>
        <time>2018-05-23T10:35:38Z</time>
      </trkpt>
      <trkpt lat="44.83894" lon="5.39456">
        <ele>1238</ele>
        <time>2018-05-23T10:35:43Z</time>
      </trkpt>
      <trkpt lat="44.83907" lon="5.39427">
        <ele>1239</ele>
        <time>2018-05-23T10:35:47Z</time>
      </trkpt>
      <trkpt lat="44.83914" lon="5.39404">
        <ele>1235</ele>
        <time>2018-05-23T10:35:50Z</time>
      </trkpt>
      <trkpt lat="44.83918" lon="5.39385">
        <ele>1256</ele>
        <time>2018-05-23T10:36:10Z</time>
      </trkpt>
      <trkpt lat="44.83916" lon="5.3937">
        <ele>1232</ele>
        <time>2018-05-23T10:36:16Z</time>
      </trkpt>
      <trkpt lat="44.83912" lon="5.39356">
        <ele>1233</ele>
        <time>2018-05-23T10:36:29Z</time>
      </trkpt>
      <trkpt lat="44.83899" lon="5.39332">
        <ele>1239</ele>
        <time>2018-05-23T10:36:44Z</time>
      </trkpt>
      <trkpt lat="44.83889" lon="5.39314">
        <ele>1237</ele>
        <time>2018-05-23T10:36:50Z</time>
      </trkpt>
      <trkpt lat="44.8387" lon="5.39288">
        <ele>1236</ele>
        <time>2018-05-23T10:36:53Z</time>
      </trkpt>
      <trkpt lat="44.83843" lon="5.39257">
        <ele>1231</ele>
        <time>2018-05-23T10:37:09Z</time>
      </trkpt>
      <trkpt lat="44.8381" lon="5.39226">
        <ele>1229</ele>
        <time>2018-05-23T10:37:13Z</time>
      </trkpt>
      <trkpt lat="44.83771" lon="5.39191">
        <ele>1228</ele>
        <time>2018-05-23T10:37:21Z</time>
      </trkpt>
      <trkpt lat="44.83728" lon="5.39153">
        <ele>1239</ele>
        <time>2018-05-23T10:37:26Z</time>
      </trkpt>
      <trkpt lat="44.8371" lon="5.39134">
        <ele>1245</ele>
        <time>2018-05-23T10:37:40Z</time>
      </trkpt>
      <trkpt lat="44.83699" lon="5.39117">
        <ele>1251</ele>
        <time>2018-05-23T10:38:00Z</time>
      </trkpt>
      <trkpt lat="44.83691" lon="5.39115">
        <ele>1250</ele>
        <time>2018-05-23T10:38:04Z</time>
      </trkpt>
      <trkpt lat="44.83687" lon="5.3912">
        <ele>1247</ele>
        <time>2018-05-23T10:38:21Z</time>
      </trkpt>
      <trkpt lat="44.83686" lon="5.39128">
        <ele>1242</ele>
        <time>2018-05-23T10:38:28Z</time>
      </trkpt>
      <trkpt lat="44.83688" lon="5.39131">
        <ele>1240</ele>
        <time>2018-05-23T10:38:44Z</time>
      </trkpt>
      <trkpt lat="44.83698" lon="5.39139">
        <ele>1239</ele>
        <time>2018-05-23T10:38:48Z</time>
      </trkpt>
      <trkpt lat="44.83727" lon="5.3917">
        <ele>1204</ele>
        <time>2018-05-23T10:38:56Z</time>
      </trkpt>
      <trkpt lat="44.83793" lon="5.39249">
        <ele>1223</ele>
        <time>2018-05-23T10:39:14Z</time>
      </trkpt>
      <trkpt lat="44.83837" lon="5.39308">
        <ele>1225</ele>
        <time>2018-05-23T10:39:28Z</time>
      </trkpt>
      <trkpt lat="44.8385" lon="5.39333">
        <ele>1221</ele>
        <time>2018-05-23T10:39:34Z</time>
      </trkpt>
      <trkpt lat="44.83858" lon="5.39361">
        <ele>1221</ele>
        <time>2018-05-23T10:39:36Z</time>
      </trkpt>
      <trkpt lat="44.83858" lon="5.39377">
        <ele>1221</ele>
        <time>2018-05-23T10:39:42Z</time>
      </trkpt>
      <trkpt lat="44.8385" lon="5.39398">
        <ele>1218</ele>
        <time>2018-05-23T10:40:01Z</time>
      </trkpt>
      <trkpt lat="44.83837" lon="5.39425">
        <ele>1215</ele>
        <time>2018-05-23T10:40:18Z</time>
      </trkpt>
      <trkpt lat="44.8381" lon="5.39461">
        <ele>1198</ele>
        <time>2018-05-23T10:40:34Z</time>
      </trkpt>
      <trkpt lat="44.8379" lon="5.39494">
        <ele>1196</ele>
        <time>2018-05-23T10:40:53Z</time>
      </trkpt>
      <trkpt lat="44.83773" lon="5.39522">
        <ele>1203</ele>
        <time>2018-05-23T10:40:56Z</time>
      </trkpt>
      <trkpt lat="44.83758" lon="5.39539">
        <ele>1204</ele>
        <time>2018-05-23T10:41:05Z</time>
      </trkpt>
      <trkpt lat="44.83744" lon="5.39558">
        <ele>1181</ele>
        <time>2018-05-23T10:41:10Z</time>
      </trkpt>
      <trkpt lat="44.83732" lon="5.39587">
        <ele>1191</ele>
        <time>2018-05-23T10:41:22Z</time>
      </trkpt>
      <trkpt lat="44.83721" lon="5.39625">
        <ele>1187</ele>
        <time>2018-05-23T10:41:42Z</time>
      </trkpt>
      <trkpt lat="44.83715" lon="5.39658">
        <ele>1188</ele>
        <time>2018-05-23T10:41:57Z</time>
      </trkpt>
      <trkpt lat="44.8371" lon="5.39697">
        <ele>1196</ele>
        <time>2018-05-23T10:42:07Z</time>
      </trkpt>
      <trkpt lat="44.83703" lon="5.39709">
        <ele>1195</ele>
        <time>2018-05-23T10:42:13Z</time>
      </trkpt>
      <trkpt lat="44.83695" lon="5.39717">
        <ele>1193</ele>
        <time>2018-05-23T10:42:19Z</time>
      </trkpt>
      <trkpt lat="44.83689" lon="5.39723">
        <ele>1192</ele>
        <time>2018-05-23T10:42:22Z</time>
      </trkpt>
      <trkpt lat="44.83683" lon="5.39736">
        <ele>1189</ele>
        <time>2018-05-23T10:42:42Z</time>
      </trkpt>
      <trkpt lat="44.83678" lon="5.39752">
        <ele>1193</ele>
        <time>2018-05-23T10:42:51Z</time>
      </trkpt>
      <trkpt lat="44.83674" lon="5.39765">
        <ele>1197</ele>
        <time>2018-05-23T10:43:00Z</time>
      </trkpt>
      <trkpt lat="44.83668" lon="5.3977">
        <ele>1198</ele>
        <time>2018-05-23T10:43:11Z</time>
      </trkpt>
      <trkpt lat="44.83663" lon="5.39768">
        <ele>1178</ele>
        <time>2018-05-23T10:43:16Z</time>
      </trkpt>
      <trkpt lat="44.83659" lon="5.39761">
        <ele>1178</ele>
        <time>2018-05-23T10:43:18Z</time>
      </trkpt>
      <trkpt lat="44.8366" lon="5.39751">
        <ele>1179</ele>
        <time>2018-05-23T10:43:32Z</time>
      </trkpt>
      <trkpt lat="44.83666" lon="5.39739">
        <ele>1171</ele>
        <time>2018-05-23T10:43:37Z</time>
      </trkpt>
      <trkpt lat="44.83686" lon="5.39706">
        <ele>1190</ele>
        <time>2018-05-23T10:43:56Z</time>
      </trkpt>
      <trkpt lat="44.83695" lon="5.3969">
        <ele>1190</ele>
        <time>2018-05-23T10:44:12Z</time>
      </trkpt>
      <trkpt lat="44.83697" lon="5.39669">
        <ele>1189</ele>
        <time>2018-05-23T10:44:22Z</time>
      </trkpt>
      <trkpt lat="44.837" lon="5.39608">
        <ele>1180</ele>
        <time>2018-05-23T10:44:27Z</time>
      </trkpt>
      <trkpt lat="44.83705" lon="5.39576">
        <ele>1170</ele>
        <time>2018-05-23T10:44:43Z</time>
      </trkpt>
      <trkpt lat="44.83714" lon="5.39546">
        <ele>1171</ele>
        <time>2018-05-23T10:44:56Z</time>
      </trkpt>
      <trkpt lat="44.83739" lon="5.39496">
        <ele>1170</ele>
        <time>2018-05-23T10:45:04Z</time>
      </trkpt>
      <trkpt lat="44.83756" lon="5.39459">
        <ele>1186</ele>
        <time>2018-05-23T10:45:16Z</time>
      </trkpt>
      <trkpt lat="44.83767" lon="5.39431">
        <ele>1182</ele>
        <time>2018-05-23T10:45:30Z</time>
      </trkpt>
      <trkpt lat="44.83774" lon="5.39415">
        <ele>1179</ele>
        <time>2018-05-23T10:45:34Z</time>
      </trkpt>
      <trkpt lat="44.83783" lon="5.39384">
        <ele>1184</ele>
        <time>2018-05-23T10:45:42Z</time>
      </trkpt>
      <trkpt lat="44.83785" lon="5.39369">
        <ele>1185</ele>
        <time>2018-05-23T10:46:01Z</time>
      </trkpt>
      <trkpt lat="44.83783" lon="5.39355">
        <ele>1184</ele>
        <time>2018-05-23T10:46:06Z</time>
      </trkpt>
      <trkpt lat="44.83771" lon="5.39334">
        <ele>1179</ele>
        <time>2018-05-23T10:46:09Z</time>
      </trkpt>
      <trkpt lat="44.83745" lon="5.39305">
        <ele>1167</ele>
        <time>2018-05-23T10:46:11Z</time>
      </trkpt>
      <trkpt lat="44.83696" lon="5.39259">
        <ele>1163</ele>
        <time>2018-05-23T10:46:30Z</time>
      </trkpt>
      <trkpt lat="44.83652" lon="5.39216">
        <ele>1156</ele>
        <time>2018-05-23T10:46:41Z</time>
      </trkpt>
      <trkpt lat="44.83615" lon="5.39178">
        <ele>1154</ele>
        <time>2018-05-23T10:46:45Z</time>
      </trkpt>
      <trkpt lat="44.83568" lon="5.39128">
        <ele>1152</ele>
        <time>2018-05-23T10:47:00Z</time>
      </trkpt>
      <trkpt lat="44.83527" lon="5.39084">
        <ele>1149</ele>
        <time>2018-05-23T10:47:09Z</time>
      </trkpt>
      <trkpt lat="44.83503" lon="5.39061">
        <ele>1190</ele>
        <time>2018-05-23T10:47:23Z</time>
      </trkpt>
      <trkpt lat="44.83443" lon="5.39007">
        <ele>1170</ele>
        <time>2018-05-23T10:47:28Z</time>
      </trkpt>
      <trkpt lat="44.83424" lon="5.38997">
        <ele>1181</ele>
        <time>2018-05-23T10:47:48Z</time>
      </trkpt>
      <trkpt lat="44.83404" lon="5.38997">
        <ele>1179</ele>
        <time>2018-05-23T10:47:50Z</time>
      </trkpt>
      <trkpt lat="44.83393" lon="5.39004">
        <ele>1146</ele>
        <time>2018-05-23T10:47:56Z</time>
      </trkpt>
      <trkpt lat="44.83382" lon="5.39015">
        <ele>1143</ele>
        <time>2018-05-23T10:48:04Z</time>
      </trkpt>
      <trkpt lat="44.83361" lon="5.39041">
        <ele>1137</ele>
        <time>2018-05-23T10:48:23Z</time>
      </trkpt>
      <trkpt lat="44.83351" lon="5.39047">
        <ele>1135</ele>
        <time>2018-05-23T10:48:37Z</time>
      </trkpt>
      <trkpt lat="44.83342" lon="5.39048">
        <ele>1134</ele>
        <time>2018-05-23T10:48:40Z</time>
      </trkpt>
      <trkpt lat="44.83329" lon="5.39042">
        <ele>1135</ele>
        <time>2018-05-23T10:48:50Z</time>
      </trkpt>
      <trkpt lat="44.83316" lon="5.39027">
        <ele>1141</ele>
        <time>2018-05-23T10:48:53Z</time>
      </trkpt>
      <trkpt lat="44.83303" lon="5.39016">
        <ele>1142</ele>
        <time>2018-05-23T10:49:13Z</time>
      </trkpt>
      <trkpt lat="44.83288" lon="5.39014">
        <ele>1140</ele>
        <time>2018-05-23T10:49:20Z</time>
      </trkpt>
      <trkpt lat="44.83274" lon="5.39016">
        <ele>1139</ele>
        <time>2018-05-23T10:49:32Z</time>
      </trkpt>
      <trkpt lat="44.83255" lon="5.39024">
        <ele>1137</ele>
        <time>2018-05-23T10:49:51Z</time>
      </trkpt>
      <trkpt lat="44.83233" lon="5.39035">
        <ele>1133</ele>
        <time>2018-05-23T10:49:55Z</time>
      </trkpt>
      <trkpt lat="44.8321" lon="5.39048">
        <ele>1131</ele>
        <time>2018-05-23T10:50:02Z</time>
      </trkpt>
      <trkpt lat="44.83188" lon="5.39055">
        <ele>1130</ele>
        <time>2018-05-23T10:50:19Z</time>
      </trkpt>
      <trkpt lat="44.83152" lon="5.39065">
        <ele>1129</ele>
        <time>2018-05-23T10:50:30Z</time>
      </trkpt>
      <trkpt lat="44.83129" lon="5.39068">
        <ele>1131</ele>
        <time>2018-05-23T10:50:49Z</time>
      </trkpt>
      <trkpt lat="44.83094" lon="5.39059">
        <ele>1130</ele>
        <time>2018-05-23T10:51:09Z</time>
      </trkpt>
      <trkpt lat="44.83053" lon="5.39059">
        <ele>1128</ele>
        <time>2018-05-23T10:51:15Z</time>
      </trkpt>
      <trkpt lat="44.83025" lon="5.39053">
        <ele>1128</ele>
        <time>2018-05-23T10:51:32Z</time>
      </trkpt>
      <trkpt lat="44.83003" lon="5.39047">
        <ele>1128</ele>
        <time>2018-05-23T10:51:41Z</time>
      </trkpt>
      <trkpt lat="44.82938" lon="5.39025">
        <ele>1117</ele>
        <time>2018-05-23T10:51:55Z</time>
      </trkpt>
      <trkpt lat="44.82908" lon="5.39017">
        <ele>1111</ele>
        <time>2018-05-23T10:52:14Z</time>
      </trkpt>
      <trkpt lat="44.82877" lon="5.39015">
        <ele>1105</ele>
        <time>2018-05-23T10:52:29Z</time>
      </trkpt>
      <trkpt lat="44.82854" lon="5.39017">
        <ele>1106</ele>
        <time>2018-05-23T10:52:35Z</time>
      </trkpt>
      <trkpt lat="44.82835" lon="5.39017">
        <ele>1108</ele>
        <time>2018-05-23T10:52:50Z</time>
      </trkpt>
      <trkpt lat="44.82816" lon="5.39015">
        <ele>1100</ele>
        <time>2018-05-23T10:53:05Z</time>
      </trkpt>
      <trkpt lat="44.82783" lon="5.39006">
        <ele>1095</ele>
        <time>2018-05-23T10:53:08Z</time>
      </trkpt>
      <trkpt lat="44.82752" lon="5.38997">
        <ele>1109</ele>
        <time>2018-05-23T10:53:20Z</time>
      </trkpt>
      <trkpt lat="44.82728" lon="5.38986">
        <ele>1106</ele>
        <time>2018-05-23T10:53:22Z</time>
      </trkpt>
      <trkpt lat="44.82695" lon="5.38962">
        <ele>1104</ele>
        <time>2018-05-23T10:53:33Z</time>
      </trkpt>
      <trkpt lat="44.82683" lon="5.38948">
        <ele>1105</ele>
        <time>2018-05-23T10:53:52Z</time>
      </trkpt>
      <trkpt lat="44.82662" lon="5.38909">
        <ele>1101</ele>
        <time>2018-05-23T10:54:09Z</time>
      </trkpt>
      <trkpt lat="44.82611" lon="5.38815">
        <ele>1099</ele>
        <time>2018-05-23T10:54:26Z</time>
      </trkpt>
      <trkpt lat="44.82601" lon="5.38788">
        <ele>1099</ele>
        <time>2018-05-23T10:54:46Z</time>
      </trkpt>
      <trkpt lat="44.826" lon="5.38765">
        <ele>1096</ele>
        <time>2018-05-23T10:54:50Z</time>
      </trkpt>
      <trkpt lat="44.82602" lon="5.38737">
        <ele>1101</ele>
        <time>2018-05-23T10:55:03Z</time>
      </trkpt>
      <trkpt lat="44.826" lon="5.38704">
        <ele>1106</ele>
        <time>2018-05-23T10:55:09Z</time>
      </trkpt>
      <trkpt lat="44.82596" lon="5.38681">
        <ele>1102</ele>
        <time>2018-05-23T10:55:16Z</time>
      </trkpt>
      <trkpt lat="44.82587" lon="5.38645">
        <ele>1109</ele>
        <time>2018-05-23T10:55:19Z</time>
      </trkpt>
      <trkpt lat="44.82578" lon="5.38594">
        <ele>1089</ele>
        <time>2018-05-23T10:55:33Z</time>
      </trkpt>
      <trkpt lat="44.82565" lon="5.38537">
        <ele>1096</ele>
        <time>2018-05-23T10:55:38Z</time>
      </trkpt>
      <trkpt lat="44.82546" lon="5.385">
        <ele>1108</ele>
        <time>2018-05-23T10:55:46Z</time>
      </trkpt>
      <trkpt lat="44.82531" lon="5.3848">
        <ele>1104</ele>
        <time>2018-05-23T10:55:53Z</time>
      </trkpt>
      <trkpt lat="44.82517" lon="5.38468">
        <ele>1102</ele>
        <time>2018-05-23T10:55:59Z</time>
      </trkpt>
      <trkpt lat="44.82501" lon="5.38463">
        <ele>1101</ele>
        <time>2018-05-23T10:56:02Z</time>
      </trkpt>
      <trkpt lat="44.82489" lon="5.38456">
        <ele>1076</ele>
        <time>2018-05-23T10:56:10Z</time>
      </trkpt>
      <trkpt lat="44.82482" lon="5.38447">
        <ele>1077</ele>
        <time>2018-05-23T10:56:12Z</time>
      </trkpt>
      <trkpt lat="44.82475" lon="5.38434">
        <ele>1078</ele>
        <time>2018-05-23T10:56:30Z</time>
      </trkpt>
      <trkpt lat="44.82469" lon="5.38427">
        <ele>1077</ele>
        <time>2018-05-23T10:56:49Z</time>
      </trkpt>
      <trkpt lat="44.82463" lon="5.38428">
        <ele>1075</ele>
        <time>2018-05-23T10:57:05Z</time>
      </trkpt>
      <trkpt lat="44.82461" lon="5.3843">
        <ele>1074</ele>
        <time>2018-05-23T10:57:09Z</time>
      </trkpt>
      <trkpt lat="44.82458" lon="5.38439">
        <ele>1072</ele>
        <time>2018-05-23T10:57:12Z</time>
      </trkpt>
      <trkpt lat="44.82462" lon="5.38451">
        <ele>1072</ele>
        <time>2018-05-23T10:57:26Z</time>
      </trkpt>
      <trkpt lat="44.8247" lon="5.3846">
        <ele>1073</ele>
        <time>2018-05-23T10:57:43Z</time>
      </trkpt>
      <trkpt lat="44.82486" lon="5.38472">
        <ele>1074</ele>
        <time>2018-05-23T10:57:51Z</time>
      </trkpt>
      <trkpt lat="44.82515" lon="5.38489">
        <ele>1095</ele>
        <time>2018-05-23T10:57:59Z</time>
      </trkpt>
      <trkpt lat="44.82528" lon="5.38505">
        <ele>1088</ele>
        <time>2018-05-23T10:58:06Z</time>
      </trkpt>
      <trkpt lat="44.82539" lon="5.38528">
        <ele>1090</ele>
        <time>2018-05-23T10:58:11Z</time>
      </trkpt>
      <trkpt lat="44.82547" lon="5.38557">
        <ele>1088</ele>
        <time>2018-05-23T10:58:19Z</time>
      </trkpt>
      <trkpt lat="44.82559" lon="5.3863">
        <ele>1074</ele>
        <time>2018-05-23T10:58:26Z</time>
      </trkpt>
      <trkpt lat="44.82567" lon="5.38706">
        <ele>1064</ele>
        <time>2018-05-23T10:58:44Z</time>
      </trkpt>
      <trkpt lat="44.82567" lon="5.38739">
        <ele>1066</ele>
        <time>2018-05-23T10:58:48Z</time>
      </trkpt>
      <trkpt lat="44.82554" lon="5.38798">
        <ele>1053</ele>
        <time>2018-05-23T10:58:58Z</time>
      </trkpt>
      <trkpt lat="44.82554" lon="5.38817">
        <ele>1054</ele>
        <time>2018-05-23T10:59:05Z</time>
      </trkpt>
      <trkpt lat="44.82564" lon="5.38848">
        <ele>1051</ele>
        <time>2018-05-23T10:59:25Z</time>
      </trkpt>
      <trkpt lat="44.82601" lon="5.38927">
        <ele>1061</ele>
        <time>2018-05-23T10:59:30Z</time>
      </trkpt>
      <trkpt lat="44.82619" lon="5.38976">
        <ele>1060</ele>
        <time>2018-05-23T10:59:39Z</time>
      </trkpt>
      <trkpt lat="44.82643" lon="5.39024">
        <ele>1045</ele>
        <time>2018-05-23T10:59:45Z</time>
      </trkpt>
      <trkpt lat="44.82656" lon="5.39044">
        <ele>1042</ele>
        <time>2018-05-23T10:59:58Z</time>
      </trkpt>
      <trkpt lat="44.8267" lon="5.39056">
        <ele>1058</ele>
        <time>2018-05-23T11:00:05Z</time>
      </trkpt>
      <trkpt lat="44.82739" lon="5.39094">
        <ele>1043</ele>
        <time>2018-05-23T11:00:14Z</time>
      </trkpt>
      <trkpt lat="44.82777" lon="5.39116">
        <ele>1044</ele>
        <time>2018-05-23T11:00:23Z</time>
      </trkpt>
      <trkpt lat="44.82812" lon="5.39143">
        <ele>1039</ele>
        <time>2018-05-23T11:00:29Z</time>
      </trkpt>
      <trkpt lat="44.82827" lon="5.39156">
        <ele>1034</ele>
        <time>2018-05-23T11:00:47Z</time>
      </trkpt>
      <trkpt lat="44.82846" lon="5.3916">
        <ele>1040</ele>
        <time>2018-05-23T11:01:00Z</time>
      </trkpt>
      <trkpt lat="44.82877" lon="5.39159">
        <ele>1049</ele>
        <time>2018-05-23T11:01:03Z</time>
      </trkpt>
      <trkpt lat="44.82892" lon="5.39164">
        <ele>1049</ele>
        <time>2018-05-23T11:01:23Z</time>
      </trkpt>
      <trkpt lat="44.82914" lon="5.39175">
        <ele>1035</ele>
        <time>2018-05-23T11:01:35Z</time>
      </trkpt>
      <trkpt lat="44.82957" lon="5.39201">
        <ele>1036</ele>
        <time>2018-05-23T11:01:39Z</time>
      </trkpt>
      <trkpt lat="44.83002" lon="5.3923">
        <ele>1039</ele>
        <time>2018-05-23T11:01:42Z</time>
      </trkpt>
      <trkpt lat="44.83028" lon="5.39248">
        <ele>1041</ele>
        <time>2018-05-23T11:01:51Z</time>
      </trkpt>
      <trkpt lat="44.83045" lon="5.39251">
        <ele>1019</ele>
        <time>2018-05-23T11:02:01Z</time>
      </trkpt>
      <trkpt lat="44.83058" lon="5.3925">
        <ele>1022</ele>
        <time>2018-05-23T11:02:05Z</time>
      </trkpt>
      <trkpt lat="44.83072" lon="5.39254">
        <ele>1027</ele>
        <time>2018-05-23T11:02:10Z</time>
      </trkpt>
      <trkpt lat="44.8309" lon="5.39267">
        <ele>1028</ele>
        <time>2018-05-23T11:02:21Z</time>
      </trkpt>
      <trkpt lat="44.83116" lon="5.39281">
        <ele>1022</ele>
        <time>2018-05-23T11:02:27Z</time>
      </trkpt>
      <trkpt lat="44.83136" lon="5.39286">
        <ele>1022</ele>
        <time>2018-05-23T11:02:29Z</time>
      </trkpt>
      <trkpt lat="44.83155" lon="5.39288">
        <ele>1022</ele>
        <time>2018-05-23T11:02:44Z</time>
      </trkpt>
      <trkpt lat="44.83172" lon="5.39292">
        <ele>1022</ele>
        <time>2018-05-23T11:02:51Z</time>
      </trkpt>
      <trkpt lat="44.8319" lon="5.393">
        <ele>1020</ele>
        <time>2018-05-23T11:03:07Z</time>
      </trkpt>
      <trkpt lat="44.83205" lon="5.39307">
        <ele>1019</ele>
        <time>2018-05-23T11:03:10Z</time>
      </trkpt>
      <trkpt lat="44.83217" lon="5.39309">
        <ele>1018</ele>
        <time>2018-05-23T11:03:22Z</time>
      </trkpt>
      <trkpt lat="44.83231" lon="5.39305">
        <ele>1018</ele>
        <time>2018-05-23T11:03:35Z</time>
      </trkpt>
      <trkpt lat="44.83242" lon="5.39299">
        <ele>1020</ele>
        <time>2018-05-23T11:03:40Z</time>
      </trkpt>
      <trkpt lat="44.83255" lon="5.39287">
        <ele>1022</ele>
        <time>2018-05-23T11:03:48Z</time>
      </trkpt>
      <trkpt lat="44.83266" lon="5.39284">
        <ele>1023</ele>
        <time>2018-05-23T11:04:07Z</time>
      </trkpt>
      <trkpt lat="44.83275" lon="5.39285">
        <ele>1023</ele>
        <time>2018-05-23T11:04:15Z</time>
      </trkpt>
      <trkpt lat="44.83288" lon="5.39293">
        <ele>1021</ele>
        <time>2018-05-23T11:04:23Z</time>
      </trkpt>
      <trkpt lat="44.83298" lon="5.393">
        <ele>1019</ele>
        <time>2018-05-23T11:04:40Z</time>
      </trkpt>
      <trkpt lat="44.83312" lon="5.39305">
        <ele>1018</ele>
        <time>2018-05-23T11:04:48Z</time>
      </trkpt>
      <trkpt lat="44.83341" lon="5.3931">
        <ele>1020</ele>
        <time>2018-05-23T11:05:06Z</time>
      </trkpt>
      <trkpt lat="44.83356" lon="5.39308">
        <ele>1024</ele>
        <time>2018-05-23T11:05:22Z</time>
      </trkpt>
      <trkpt lat="44.83371" lon="5.39312">
        <ele>1026</ele>
        <time>2018-05-23T11:05:38Z</time>
      </trkpt>
      <trkpt lat="44.83381" lon="5.39322">
        <ele>1026</ele>
        <time>2018-05-23T11:05:56Z</time>
      </trkpt>
      <trkpt lat="44.83389" lon="5.39336">
        <ele>1014</ele>
        <time>2018-05-23T11:06:05Z</time>
      </trkpt>
      <trkpt lat="44.83396" lon="5.39366">
        <ele>1013</ele>
        <time>2018-05-23T11:06:23Z</time>
      </trkpt>
      <trkpt lat="44.83394" lon="5.39388">
        <ele>1011</ele>
        <time>2018-05-23T11:06:28Z</time>
      </trkpt>
      <trkpt lat="44.83388" lon="5.39427">
        <ele>1008</ele>
        <time>2018-05-23T11:06:36Z</time>
      </trkpt>
      <trkpt lat="44.83382" lon="5.39453">
        <ele>1007</ele>
        <time>2018-05-23T11:06:47Z</time>
      </trkpt>
      <trkpt lat="44.83373" lon="5.39473">
        <ele>1006</ele>
        <time>2018-05-23T11:07:00Z</time>
      </trkpt>
      <trkpt lat="44.83346" lon="5.39519">
        <ele>1008</ele>
        <time>2018-05-23T11:07:15Z</time>
      </trkpt>
      <trkpt lat="44.83305" lon="5.3957">
        <ele>990</ele>
        <time>2018-05-23T11:07:23Z</time>
      </trkpt>
      <trkpt lat="44.83292" lon="5.39591">
        <ele>999</ele>
        <time>2018-05-23T11:07:32Z</time>
      </trkpt>
      <trkpt lat="44.83278" lon="5.39618">
        <ele>999</ele>
        <time>2018-05-23T11:07:46Z</time>
      </trkpt>
      <trkpt lat="44.83269" lon="5.39633">
        <ele>1000</ele>
        <time>2018-05-23T11:08:06Z</time>
      </trkpt>
      <trkpt lat="44.83259" lon="5.39642">
        <ele>999</ele>
        <time>2018-05-23T11:08:20Z</time>
      </trkpt>
      <trkpt lat="44.83232" lon="5.39656">
        <ele>983</ele>
        <time>2018-05-23T11:08:31Z</time>
      </trkpt>
      <trkpt lat="44.83221" lon="5.39665">
        <ele>980</ele>
        <time>2018-05-23T11:08:39Z</time>
      </trkpt>
      <trkpt lat="44.83207" lon="5.39687">
        <ele>996</ele>
        <time>2018-05-23T11:08:55Z</time>
      </trkpt>
      <trkpt lat="44.83198" lon="5.39699">
        <ele>997</ele>
        <time>2018-05-23T11:09:13Z</time>
      </trkpt>
      <trkpt lat="44.83191" lon="5.39704">
        <ele>997</ele>
        <time>2018-05-23T11:09:19Z</time>
      </trkpt>
      <trkpt lat="44.83166" lon="5.39705">
        <ele>981</ele>
        <time>2018-05-23T11:09:34Z</time>
      </trkpt>
      <trkpt lat="44.83147" lon="5.39707">
        <ele>980</ele>
        <time>2018-05-23T11:09:44Z</time>
      </trkpt>
      <trkpt lat="44.83131" lon="5.39712">
        <ele>979</ele>
        <time>2018-05-23T11:10:00Z</time>
      </trkpt>
      <trkpt lat="44.83096" lon="5.39737">
        <ele>980</ele>
        <time>2018-05-23T11:10:20Z</time>
      </trkpt>
      <trkpt lat="44.83072" lon="5.3976">
        <ele>985</ele>
        <time>2018-05-23T11:10:28Z</time>
      </trkpt>
      <trkpt lat="44.83053" lon="5.39773">
        <ele>985</ele>
        <time>2018-05-23T11:10:33Z</time>
      </trkpt>
      <trkpt lat="44.8301" lon="5.39793">
        <ele>982</ele>
        <time>2018-05-23T11:10:36Z</time>
      </trkpt>
      <trkpt lat="44.82978" lon="5.39808">
        <ele>967</ele>
        <time>2018-05-23T11:10:44Z</time>
      </trkpt>
      <trkpt lat="44.82952" lon="5.39819">
        <ele>963</ele>
        <time>2018-05-23T11:10:46Z</time>
      </trkpt>
      <trkpt lat="44.8294" lon="5.3983">
        <ele>961</ele>
        <time>2018-05-23T11:10:55Z</time>
      </trkpt>
      <trkpt lat="44.82931" lon="5.39833">
        <ele>959</ele>
        <time>2018-05-23T11:11:05Z</time>
      </trkpt>
      <trkpt lat="44.82928" lon="5.39832">
        <ele>959</ele>
        <time>2018-05-23T11:11:21Z</time>
      </trkpt>
      <trkpt lat="44.82922" lon="5.39824">
        <ele>958</ele>
        <time>2018-05-23T11:11:37Z</time>
      </trkpt>
      <trkpt lat="44.82924" lon="5.39814">
        <ele>958</ele>
        <time>2018-05-23T11:11:47Z</time>
      </trkpt>
      <trkpt lat="44.82929" lon="5.39808">
        <ele>959</ele>
        <time>2018-05-23T11:11:58Z</time>
      </trkpt>
      <trkpt lat="44.82937" lon="5.39805">
        <ele>959</ele>
        <time>2018-05-23T11:12:04Z</time>
      </trkpt>
      <trkpt lat="44.82953" lon="5.39801">
        <ele>961</ele>
        <time>2018-05-23T11:12:22Z</time>
      </trkpt>
      <trkpt lat="44.82966" lon="5.39794">
        <ele>962</ele>
        <time>2018-05-23T11:12:29Z</time>
      </trkpt>
      <trkpt lat="44.83016" lon="5.39762">
        <ele>974</ele>
        <time>2018-05-23T11:12:35Z</time>
      </trkpt>
      <trkpt lat="44.83038" lon="5.39746">
        <ele>959</ele>
        <time>2018-05-23T11:12:42Z</time>
      </trkpt>
      <trkpt lat="44.83054" lon="5.39732">
        <ele>961</ele>
        <time>2018-05-23T11:12:53Z</time>
      </trkpt>
      <trkpt lat="44.83099" lon="5.39682">
        <ele>965</ele>
        <time>2018-05-23T11:12:55Z</time>
      </trkpt>
      <trkpt lat="44.83134" lon="5.39653">
        <ele>952</ele>
        <time>2018-05-23T11:13:09Z</time>
      </trkpt>
      <trkpt lat="44.83167" lon="5.39634">
        <ele>968</ele>
        <time>2018-05-23T11:13:25Z</time>
      </trkpt>
      <trkpt lat="44.83174" lon="5.39626">
        <ele>967</ele>
        <time>2018-05-23T11:13:40Z</time>
      </trkpt>
      <trkpt lat="44.83182" lon="5.39612">
        <ele>964</ele>
        <time>2018-05-23T11:13:48Z</time>
      </trkpt>
      <trkpt lat="44.83222" lon="5.39557">
        <ele>957</ele>
        <time>2018-05-23T11:14:01Z</time>
      </trkpt>
      <trkpt lat="44.83234" lon="5.39537">
        <ele>957</ele>
        <time>2018-05-23T11:14:09Z</time>
      </trkpt>
      <trkpt lat="44.83239" lon="5.39519">
        <ele>957</ele>
        <time>2018-05-23T11:14:11Z</time>
      </trkpt>
      <trkpt lat="44.83239" lon="5.39501">
        <ele>958</ele>
        <time>2018-05-23T11:14:22Z</time>
      </trkpt>
      <trkpt lat="44.83234" lon="5.39485">
        <ele>959</ele>
        <time>2018-05-23T11:14:34Z</time>
      </trkpt>
      <trkpt lat="44.83224" lon="5.3947">
        <ele>959</ele>
        <time>2018-05-23T11:14:41Z</time>
      </trkpt>
      <trkpt lat="44.8321" lon="5.39461">
        <ele>959</ele>
        <time>2018-05-23T11:14:44Z</time>
      </trkpt>
      <trkpt lat="44.83189" lon="5.39459">
        <ele>958</ele>
        <time>2018-05-23T11:14:46Z</time>
      </trkpt>
      <trkpt lat="44.83161" lon="5.39451">
        <ele>951</ele>
        <time>2018-05-23T11:14:54Z</time>
      </trkpt>
      <trkpt lat="44.83094" lon="5.39431">
        <ele>950</ele>
        <time>2018-05-23T11:15:02Z</time>
      </trkpt>
      <trkpt lat="44.83062" lon="5.39409">
        <ele>962</ele>
        <time>2018-05-23T11:15:07Z</time>
      </trkpt>
      <trkpt lat="44.83048" lon="5.39403">
        <ele>962</ele>
        <time>2018-05-23T11:15:24Z</time>
      </trkpt>
      <trkpt lat="44.83027" lon="5.39397">
        <ele>960</ele>
        <time>2018-05-23T11:15:26Z</time>
      </trkpt>
      <trkpt lat="44.8298" lon="5.39384">
        <ele>952</ele>
        <time>2018-05-23T11:15:30Z</time>
      </trkpt>
      <trkpt lat="44.82961" lon="5.3938">
        <ele>952</ele>
        <time>2018-05-23T11:15:41Z</time>
      </trkpt>
      <trkpt lat="44.82942" lon="5.39381">
        <ele>949</ele>
        <time>2018-05-23T11:16:00Z</time>
      </trkpt>
      <trkpt lat="44.82928" lon="5.39382">
        <ele>947</ele>
        <time>2018-05-23T11:16:05Z</time>
      </trkpt>
      <trkpt lat="44.82912" lon="5.39381">
        <ele>938</ele>
        <time>2018-05-23T11:16:10Z</time>
      </trkpt>
      <trkpt lat="44.82875" lon="5.39364">
        <ele>942</ele>
        <time>2018-05-23T11:16:12Z</time>
      </trkpt>
      <trkpt lat="44.82862" lon="5.39362">
        <ele>941</ele>
        <time>2018-05-23T11:16:22Z</time>
      </trkpt>
      <trkpt lat="44.82835" lon="5.39371">
        <ele>938</ele>
        <time>2018-05-23T11:16:36Z</time>
      </trkpt>
      <trkpt lat="44.82814" lon="5.39371">
        <ele>928</ele>
        <time>2018-05-23T11:16:40Z</time>
      </trkpt>
      <trkpt lat="44.82784" lon="5.39355">
        <ele>929</ele>
        <time>2018-05-23T11:16:45Z</time>
      </trkpt>
      <trkpt lat="44.82762" lon="5.39346">
        <ele>931</ele>
        <time>2018-05-23T11:16:55Z</time>
      </trkpt>
      <trkpt lat="44.82745" lon="5.39332">
        <ele>939</ele>
        <time>2018-05-23T11:17:02Z</time>
      </trkpt>
      <trkpt lat="44.82725" lon="5.3931">
        <ele>944</ele>
        <time>2018-05-23T11:17:22Z</time>
      </trkpt>
      <trkpt lat="44.8271" lon="5.39302">
        <ele>945</ele>
        <time>2018-05-23T11:17:42Z</time>
      </trkpt>
      <trkpt lat="44.82696" lon="5.39298">
        <ele>944</ele>
        <time>2018-05-23T11:17:54Z</time>
      </trkpt>
      <trkpt lat="44.82681" lon="5.39303">
        <ele>940</ele>
        <time>2018-05-23T11:17:57Z</time>
      </trkpt>
      <trkpt lat="44.82666" lon="5.3932">
        <ele>924</ele>
        <time>2018-05-23T11:18:06Z</time>
      </trkpt>
      <trkpt lat="44.82659" lon="5.3933">
        <ele>922</ele>
        <time>2018-05-23T11:18:20Z</time>
      </trkpt>
      <trkpt lat="44.82649" lon="5.39337">
        <ele>907</ele>
        <time>2018-05-23T11:18:40Z</time>
      </trkpt>
      <trkpt lat="44.82634" lon="5.39339">
        <ele>902</ele>
        <time>2018-05-23T11:18:48Z</time>
      </trkpt>
      <trkpt lat="44.8262" lon="5.39332">
        <ele>922</ele>
        <time>2018-05-23T11:18:59Z</time>
      </trkpt>
      <trkpt lat="44.82598" lon="5.39313">
        <ele>921</ele>
        <time>2018-05-23T11:19:16Z</time>
      </trkpt>
      <trkpt lat="44.82585" lon="5.39304">
        <ele>922</ele>
        <time>2018-05-23T11:19:21Z</time>
      </trkpt>
      <trkpt lat="44.82552" lon="5.39276">
        <ele>911</ele>
        <time>2018-05-23T11:19:24Z</time>
      </trkpt>
      <trkpt lat="44.82532" lon="5.39246">
        <ele>929</ele>
        <time>2018-05-23T11:19:31Z</time>
      </trkpt>
      <trkpt lat="44.82517" lon="5.39224">
        <ele>929</ele>
        <time>2018-05-23T11:19:33Z</time>
      </trkpt>
      <trkpt lat="44.82504" lon="5.39214">
        <ele>930</ele>
        <time>2018-05-23T11:19:53Z</time>
      </trkpt>
      <trkpt lat="44.82482" lon="5.39203">
        <ele>911</ele>
        <time>2018-05-23T11:20:12Z</time>
      </trkpt>
      <trkpt lat="44.82467" lon="5.39197">
        <ele>909</ele>
        <time>2018-05-23T11:20:32Z</time>
      </trkpt>
      <trkpt lat="44.82441" lon="5.39177">
        <ele>905</ele>
        <time>2018-05-23T11:20:40Z</time>
      </trkpt>
      <trkpt lat="44.82424" lon="5.3915">
        <ele>915</ele>
        <time>2018-05-23T11:21:00Z</time>
      </trkpt>
      <trkpt lat="44.82409" lon="5.39123">
        <ele>900</ele>
        <time>2018-05-23T11:21:16Z</time>
      </trkpt>
      <trkpt lat="44.82398" lon="5.39109">
        <ele>901</ele>
        <time>2018-05-23T11:21:36Z</time>
      </trkpt>
      <trkpt lat="44.82356" lon="5.39064">
        <ele>904</ele>
        <time>2018-05-23T11:21:50Z</time>
      </trkpt>
      <trkpt lat="44.82343" lon="5.39045">
        <ele>905</ele>
        <time>2018-05-23T11:22:01Z</time>
      </trkpt>
      <trkpt lat="44.82332" lon="5.3902">
        <ele>884</ele>
        <time>2018-05-23T11:22:06Z</time>
      </trkpt>
      <trkpt lat="44.82327" lon="5.38996">
        <ele>890</ele>
        <time>2018-05-23T11:22:20Z</time>
      </trkpt>
      <trkpt lat="44.82327" lon="5.3898">
        <ele>883</ele>
        <time>2018-05-23T11:22:31Z</time>
      </trkpt>
      <trkpt lat="44.82329" lon="5.38954">
        <ele>879</ele>
        <time>2018-05-23T11:22:42Z</time>
      </trkpt>
      <trkpt lat="44.82334" lon="5.38929">
        <ele>904</ele>
        <time>2018-05-23T11:22:54Z</time>
      </trkpt>
      <trkpt lat="44.82338" lon="5.38894">
        <ele>913</ele>
        <time>2018-05-23T11:23:06Z</time>
      </trkpt>
      <trkpt lat="44.82338" lon="5.38868">
        <ele>917</ele>
        <time>2018-05-23T11:23:25Z</time>
      </trkpt>
      <trkpt lat="44.8233" lon="5.38829">
        <ele>900</ele>
        <time>2018-05-23T11:23:31Z</time>
      </trkpt>
      <trkpt lat="44.82325" lon="5.38802">
        <ele>896</ele>
        <time>2018-05-23T11:23:50Z</time>
      </trkpt>
      <trkpt lat="44.82325" lon="5.38781">
        <ele>899</ele>
        <time>2018-05-23T11:23:53Z</time>
      </trkpt>
      <trkpt lat="44.82323" lon="5.38773">
        <ele>900</ele>
        <time>2018-05-23T11:23:59Z</time>
      </trkpt>
      <trkpt lat="44.82319" lon="5.38769">
        <ele>901</ele>
        <time>2018-05-23T11:24:18Z</time>
      </trkpt>
      <trkpt lat="44.82314" lon="5.38769">
        <ele>899</ele>
        <time>2018-05-23T11:24:31Z</time>
      </trkpt>
      <trkpt lat="44.82311" lon="5.38773">
        <ele>898</ele>
        <time>2018-05-23T11:24:45Z</time>
      </trkpt>
      <trkpt lat="44.82308" lon="5.3878">
        <ele>896</ele>
        <time>2018-05-23T11:25:03Z</time>
      </trkpt>
      <trkpt lat="44.82309" lon="5.38793">
        <ele>894</ele>
        <time>2018-05-23T11:25:19Z</time>
      </trkpt>
      <trkpt lat="44.8232" lon="5.38837">
        <ele>889</ele>
        <time>2018-05-23T11:25:25Z</time>
      </trkpt>
      <trkpt lat="44.82326" lon="5.38871">
        <ele>881</ele>
        <time>2018-05-23T11:25:28Z</time>
      </trkpt>
      <trkpt lat="44.82326" lon="5.38898">
        <ele>882</ele>
        <time>2018-05-23T11:25:34Z</time>
      </trkpt>
      <trkpt lat="44.82325" lon="5.3891">
        <ele>886</ele>
        <time>2018-05-23T11:25:41Z</time>
      </trkpt>
      <trkpt lat="44.82316" lon="5.38946">
        <ele>877</ele>
        <time>2018-05-23T11:25:43Z</time>
      </trkpt>
      <trkpt lat="44.82304" lon="5.38977">
        <ele>875</ele>
        <time>2018-05-23T11:25:50Z</time>
      </trkpt>
      <trkpt lat="44.82297" lon="5.39002">
        <ele>875</ele>
        <time>2018-05-23T11:26:02Z</time>
      </trkpt>
      <trkpt lat="44.82297" lon="5.39026">
        <ele>874</ele>
        <time>2018-05-23T11:26:11Z</time>
      </trkpt>
      <trkpt lat="44.82306" lon="5.3906">
        <ele>875</ele>
        <time>2018-05-23T11:26:13Z</time>
      </trkpt>
      <trkpt lat="44.82313" lon="5.39081">
        <ele>878</ele>
        <time>2018-05-23T11:26:15Z</time>
      </trkpt>
      <trkpt lat="44.8236" lon="5.39161">
        <ele>885</ele>
        <time>2018-05-23T11:26:21Z</time>
      </trkpt>
      <trkpt lat="44.82372" lon="5.39181">
        <ele>875</ele>
        <time>2018-05-23T11:26:29Z</time>
      </trkpt>
      <trkpt lat="44.82384" lon="5.39211">
        <ele>874</ele>
        <time>2018-05-23T11:26:43Z</time>
      </trkpt>
      <trkpt lat="44.824" lon="5.39245">
        <ele>874</ele>
        <time>2018-05-23T11:26:59Z</time>
      </trkpt>
      <trkpt lat="44.82412" lon="5.39262">
        <ele>866</ele>
        <time>2018-05-23T11:27:15Z</time>
      </trkpt>
      <trkpt lat="44.82419" lon="5.39269">
        <ele>876</ele>
        <time>2018-05-23T11:27:20Z</time>
      </trkpt>
      <trkpt lat="44.82449" lon="5.39292">
        <ele>876</ele>
        <time>2018-05-23T11:27:38Z</time>
      </trkpt>
      <trkpt lat="44.82461" lon="5.39303">
        <ele>876</ele>
        <time>2018-05-23T11:27:43Z</time>
      </trkpt>
      <trkpt lat="44.82475" lon="5.39318">
        <ele>876</ele>
        <time>2018-05-23T11:27:47Z</time>
      </trkpt>
      <trkpt lat="44.82512" lon="5.3937">
        <ele>871</ele>
        <time>2018-05-23T11:27:58Z</time>
      </trkpt>
      <trkpt lat="44.82526" lon="5.39386">
        <ele>869</ele>
        <time>2018-05-23T11:28:11Z</time>
      </trkpt>
      <trkpt lat="44.8256" lon="5.39412">
        <ele>871</ele>
        <time>2018-05-23T11:28:20Z</time>
      </trkpt>
      <trkpt lat="44.82596" lon="5.3944">
        <ele>855</ele>
        <time>2018-05-23T11:28:36Z</time>
      </trkpt>
      <trkpt lat="44.8261" lon="5.39446">
        <ele>852</ele>
        <time>2018-05-23T11:28:41Z</time>
      </trkpt>
      <trkpt lat="44.82668" lon="5.39452">
        <ele>863</ele>
        <time>2018-05-23T11:28:53Z</time>
      </trkpt>
      <trkpt lat="44.8268" lon="5.3946">
        <ele>859</ele>
        <time>2018-05-23T11:29:02Z</time>
      </trkpt>
      <trkpt lat="44.82693" lon="5.3947">
        <ele>857</ele>
        <time>2018-05-23T11:29:16Z</time>
      </trkpt>
      <trkpt lat="44.82739" lon="5.3948">
        <ele>856</ele>
        <time>2018-05-23T11:29:32Z</time>
      </trkpt>
      <trkpt lat="44.82796" lon="5.39502">
        <ele>850</ele>
        <time>2018-05-23T11:29:47Z</time>
      </trkpt>
      <trkpt lat="44.82806" lon="5.3951">
        <ele>852</ele>
        <time>2018-05-23T11:30:03Z</time>
      </trkpt>
      <trkpt lat="44.82812" lon="5.39519">
        <ele>852</ele>
        <time>2018-05-23T11:30:21Z</time>
      </trkpt>
      <trkpt lat="44.82816" lon="5.39527">
        <ele>852</ele>
        <time>2018-05-23T11:30:28Z</time>
      </trkpt>
      <trkpt lat="44.82818" lon="5.39537">
        <ele>851</ele>
        <time>2018-05-23T11:30:40Z</time>
      </trkpt>
      <trkpt lat="44.82818" lon="5.39546">
        <ele>850</ele>
        <time>2018-05-23T11:31:00Z</time>
      </trkpt>
      <trkpt lat="44.82814" lon="5.39559">
        <ele>849</ele>
        <time>2018-05-23T11:31:11Z</time>
      </trkpt>
      <trkpt lat="44.82805" lon="5.3957">
        <ele>848</ele>
        <time>2018-05-23T11:31:24Z</time>
      </trkpt>
      <trkpt lat="44.82782" lon="5.39588">
        <ele>847</ele>
        <time>2018-05-23T11:31:38Z</time>
      </trkpt>
      <trkpt lat="44.82735" lon="5.39633">
        <ele>832</ele>
        <time>2018-05-23T11:31:46Z</time>
      </trkpt>
      <trkpt lat="44.82697" lon="5.39661">
        <ele>828</ele>
        <time>2018-05-23T11:32:06Z</time>
      </trkpt>
      <trkpt lat="44.82659" lon="5.39689">
        <ele>823</ele>
        <time>2018-05-23T11:32:17Z</time>
      </trkpt>
      <trkpt lat="44.82644" lon="5.39705">
        <ele>823</ele>
        <time>2018-05-23T11:32:33Z</time>
      </trkpt>
      <trkpt lat="44.8262" lon="5.39741">
        <ele>823</ele>
        <time>2018-05-23T11:32:35Z</time>
      </trkpt>
      <trkpt lat="44.82599" lon="5.39756">
        <ele>826</ele>
        <time>2018-05-23T11:32:51Z</time>
      </trkpt>
      <trkpt lat="44.82582" lon="5.39776">
        <ele>808</ele>
        <time>2018-05-23T11:33:08Z</time>
      </trkpt>
      <trkpt lat="44.8257" lon="5.39787">
        <ele>806</ele>
        <time>2018-05-23T11:33:10Z</time>
      </trkpt>
      <trkpt lat="44.82563" lon="5.39786">
        <ele>805</ele>
        <time>2018-05-23T11:33:12Z</time>
      </trkpt>
      <trkpt lat="44.82559" lon="5.39776">
        <ele>805</ele>
        <time>2018-05-23T11:33:15Z</time>
      </trkpt>
      <trkpt lat="44.8256" lon="5.39764">
        <ele>806</ele>
        <time>2018-05-23T11:33:30Z</time>
      </trkpt>
      <trkpt lat="44.82563" lon="5.39758">
        <ele>807</ele>
        <time>2018-05-23T11:33:50Z</time>
      </trkpt>
      <trkpt lat="44.82575" lon="5.39751">
        <ele>812</ele>
        <time>2018-05-23T11:34:03Z</time>
      </trkpt>
      <trkpt lat="44.82592" lon="5.39745">
        <ele>818</ele>
        <time>2018-05-23T11:34:22Z</time>
      </trkpt>
      <trkpt lat="44.82605" lon="5.39734">
        <ele>820</ele>
        <time>2018-05-23T11:34:38Z</time>
      </trkpt>
      <trkpt lat="44.8262" lon="5.39712">
        <ele>820</ele>
        <time>2018-05-23T11:34:48Z</time>
      </trkpt>
      <trkpt lat="44.82636" lon="5.39681">
        <ele>819</ele>
        <time>2018-05-23T11:34:58Z</time>
      </trkpt>
      <trkpt lat="44.8266" lon="5.3965">
        <ele>811</ele>
        <time>2018-05-23T11:35:01Z</time>
      </trkpt>
      <trkpt lat="44.82667" lon="5.3964">
        <ele>824</ele>
        <time>2018-05-23T11:35:09Z</time>
      </trkpt>
      <trkpt lat="44.82676" lon="5.39633">
        <ele>824</ele>
        <time>2018-05-23T11:35:15Z</time>
      </trkpt>
      <trkpt lat="44.82702" lon="5.39612">
        <ele>824</ele>
        <time>2018-05-23T11:35:24Z</time>
      </trkpt>
      <trkpt lat="44.82721" lon="5.39588">
        <ele>826</ele>
        <time>2018-05-23T11:35:35Z</time>
      </trkpt>
      <trkpt lat="44.82726" lon="5.39567">
        <ele>826</ele>
        <time>2018-05-23T11:35:50Z</time>
      </trkpt>
      <trkpt lat="44.82721" lon="5.39552">
        <ele>826</ele>
        <time>2018-05-23T11:36:02Z</time>
      </trkpt>
      <trkpt lat="44.82715" lon="5.39543">
        <ele>827</ele>
        <time>2018-05-23T11:36:04Z</time>
      </trkpt>
      <trkpt lat="44.82708" lon="5.39535">
        <ele>826</ele>
        <time>2018-05-23T11:36:14Z</time>
      </trkpt>
      <trkpt lat="44.82694" lon="5.39526">
        <ele>826</ele>
        <time>2018-05-23T11:36:26Z</time>
      </trkpt>
      <trkpt lat="44.8267" lon="5.39516">
        <ele>825</ele>
        <time>2018-05-23T11:36:40Z</time>
      </trkpt>
      <trkpt lat="44.82618" lon="5.39509">
        <ele>809</ele>
        <time>2018-05-23T11:36:56Z</time>
      </trkpt>
      <trkpt lat="44.82583" lon="5.39504">
        <ele>809</ele>
        <time>2018-05-23T11:37:10Z</time>
      </trkpt>
      <trkpt lat="44.82567" lon="5.39499">
        <ele>821</ele>
        <time>2018-05-23T11:37:28Z</time>
      </trkpt>
      <trkpt lat="44.82525" lon="5.39501">
        <ele>792</ele>
        <time>2018-05-23T11:37:46Z</time>
      </trkpt>
      <trkpt lat="44.82503" lon="5.39499">
        <ele>803</ele>
        <time>2018-05-23T11:37:53Z</time>
      </trkpt>
      <trkpt lat="44.82466" lon="5.39486">
        <ele>804</ele>
        <time>2018-05-23T11:38:08Z</time>
      </trkpt>
      <trkpt lat="44.82453" lon="5.3948">
        <ele>803</ele>
        <time>2018-05-23T11:38:11Z</time>
      </trkpt>
      <trkpt lat="44.82439" lon="5.3947">
        <ele>803</ele>
        <time>2018-05-23T11:38:20Z</time>
      </trkpt>
      <trkpt lat="44.82412" lon="5.39448">
        <ele>795</ele>
        <time>2018-05-23T11:38:37Z</time>
      </trkpt>
      <trkpt lat="44.82357" lon="5.39437">
        <ele>791</ele>
        <time>2018-05-23T11:38:39Z</time>
      </trkpt>
      <trkpt lat="44.82326" lon="5.39429">
        <ele>784</ele>
        <time>2018-05-23T11:38:56Z</time>
      </trkpt>
      <trkpt lat="44.82301" lon="5.39417">
        <ele>778</ele>
        <time>2018-05-23T11:38:59Z</time>
      </trkpt>
      <trkpt lat="44.8229" lon="5.39408">
        <ele>792</ele>
        <time>2018-05-23T11:39:13Z</time>
      </trkpt>
      <trkpt lat="44.82279" lon="5.39397">
        <ele>791</ele>
        <time>2018-05-23T11:39:28Z</time>
      </trkpt>
      <trkpt lat="44.8226" lon="5.39372">
        <ele>792</ele>
        <time>2018-05-23T11:39:44Z</time>
      </trkpt>
      <trkpt lat="44.82237" lon="5.39352">
        <ele>778</ele>
        <time>2018-05-23T11:39:49Z</time>
      </trkpt>
      <trkpt lat="44.82219" lon="5.39334">
        <ele>774</ele>
        <time>2018-05-23T11:40:06Z</time>
      </trkpt>
      <trkpt lat="44.82201" lon="5.39299">
        <ele>781</ele>
        <time>2018-05-23T11:40:18Z</time>
      </trkpt>
      <trkpt lat="44.82168" lon="5.39212">
        <ele>796</ele>
        <time>2018-05-23T11:40:34Z</time>
      </trkpt>
      <trkpt lat="44.82156" lon="5.3917">
        <ele>785</ele>
        <time>2018-05-23T11:40:50Z</time>
      </trkpt>
      <trkpt lat="44.82151" lon="5.39167">
        <ele>782</ele>
        <time>2018-05-23T11:40:52Z</time>
      </trkpt>
      <trkpt lat="44.82147" lon="5.39169">
        <ele>779</ele>
        <time>2018-05-23T11:41:04Z</time>
      </trkpt>
      <trkpt lat="44.82144" lon="5.39174">
        <ele>776</ele>
        <time>2018-05-23T11:41:07Z</time>
      </trkpt>
      <trkpt lat="44.82144" lon="5.39186">
        <ele>773</ele>
        <time>2018-05-23T11:41:19Z</time>
      </trkpt>
      <trkpt lat="44.8215" lon="5.392">
        <ele>772</ele>
        <time>2018-05-23T11:41:28Z</time>
      </trkpt>
      <trkpt lat="44.82166" lon="5.39244">
        <ele>771</ele>
        <time>2018-05-23T11:41:37Z</time>
      </trkpt>
      <trkpt lat="44.82175" lon="5.39279">
        <ele>778</ele>
        <time>2018-05-23T11:41:44Z</time>
      </trkpt>
      <trkpt lat="44.82185" lon="5.39339">
        <ele>764</ele>
        <time>2018-05-23T11:41:52Z</time>
      </trkpt>
      <trkpt lat="44.82195" lon="5.39371">
        <ele>767</ele>
        <time>2018-05-23T11:41:54Z</time>
      </trkpt>
      <trkpt lat="44.82207" lon="5.39393">
        <ele>767</ele>
        <time>2018-05-23T11:42:04Z</time>
      </trkpt>
      <trkpt lat="44.82233" lon="5.39424">
        <ele>762</ele>
        <time>2018-05-23T11:42:23Z</time>
      </trkpt>
      <trkpt lat="44.82253" lon="5.39446">
        <ele>769</ele>
        <time>2018-05-23T11:42:32Z</time>
      </trkpt>
      <trkpt lat="44.82273" lon="5.39463">
        <ele>767</ele>
        <time>2018-05-23T11:42:41Z</time>
      </trkpt>
      <trkpt lat="44.82304" lon="5.39484">
        <ele>767</ele>
        <time>2018-05-23T11:42:57Z</time>
      </trkpt>
      <trkpt lat="44.82331" lon="5.39497">
        <ele>764</ele>
        <time>2018-05-23T11:43:12Z</time>
      </trkpt>
      <trkpt lat="44.82373" lon="5.39509">
        <ele>756</ele>
        <time>2018-05-23T11:43:20Z</time>
      </trkpt>
      <trkpt lat="44.82397" lon="5.39509">
        <ele>762</ele>
        <time>2018-05-23T11:43:31Z</time>
      </trkpt>
      <trkpt lat="44.82401" lon="5.39512">
        <ele>762</ele>
        <time>2018-05-23T11:43:45Z</time>
      </trkpt>
      <trkpt lat="44.82405" lon="5.39517">
        <ele>761</ele>
        <time>2018-05-23T11:43:50Z</time>
      </trkpt>
      <trkpt lat="44.82406" lon="5.39528">
        <ele>756</ele>
        <time>2018-05-23T11:44:03Z</time>
      </trkpt>
      <trkpt lat="44.82404" lon="5.39531">
        <ele>755</ele>
        <time>2018-05-23T11:44:13Z</time>
      </trkpt>
      <trkpt lat="44.82334" lon="5.39524">
        <ele>753</ele>
        <time>2018-05-23T11:44:17Z</time>
      </trkpt>
      <trkpt lat="44.8229" lon="5.39507">
        <ele>743</ele>
        <time>2018-05-23T11:44:21Z</time>
      </trkpt>
      <trkpt lat="44.82262" lon="5.39501">
        <ele>744</ele>
        <time>2018-05-23T11:44:27Z</time>
      </trkpt>
      <trkpt lat="44.82221" lon="5.39496">
        <ele>750</ele>
        <time>2018-05-23T11:44:32Z</time>
      </trkpt>
      <trkpt lat="44.82202" lon="5.39499">
        <ele>749</ele>
        <time>2018-05-23T11:44:39Z</time>
      </trkpt>
      <trkpt lat="44.82176" lon="5.39512">
        <ele>734</ele>
        <time>2018-05-23T11:44:58Z</time>
      </trkpt>
      <trkpt lat="44.8214" lon="5.39533">
        <ele>726</ele>
        <time>2018-05-23T11:45:13Z</time>
      </trkpt>
      <trkpt lat="44.82118" lon="5.39547">
        <ele>724</ele>
        <time>2018-05-23T11:45:32Z</time>
      </trkpt>
      <trkpt lat="44.82105" lon="5.39556">
        <ele>723</ele>
        <time>2018-05-23T11:45:34Z</time>
      </trkpt>
      <trkpt lat="44.82095" lon="5.3956">
        <ele>723</ele>
        <time>2018-05-23T11:45:47Z</time>
      </trkpt>
      <trkpt lat="44.82078" lon="5.39561">
        <ele>719</ele>
        <time>2018-05-23T11:45:55Z</time>
      </trkpt>
      <trkpt lat="44.82052" lon="5.39552">
        <ele>718</ele>
        <time>2018-05-23T11:46:10Z</time>
      </trkpt>
      <trkpt lat="44.82034" lon="5.39542">
        <ele>718</ele>
        <time>2018-05-23T11:46:29Z</time>
      </trkpt>
      <trkpt lat="44.82023" lon="5.3953">
        <ele>717</ele>
        <time>2018-05-23T11:46:36Z</time>
      </trkpt>
      <trkpt lat="44.82018" lon="5.39513">
        <ele>717</ele>
        <time>2018-05-23T11:46:39Z</time>
      </trkpt>
      <trkpt lat="44.82018" lon="5.39496">
        <ele>717</ele>
        <time>2018-05-23T11:46:56Z</time>
      </trkpt>
      <trkpt lat="44.82022" lon="5.39477">
        <ele>718</ele>
        <time>2018-05-23T11:47:12Z</time>
      </trkpt>
      <trkpt lat="44.82036" lon="5.39456">
        <ele>718</ele>
        <time>2018-05-23T11:47:16Z</time>
      </trkpt>
      <trkpt lat="44.82057" lon="5.39438">
        <ele>720</ele>
        <time>2018-05-23T11:47:36Z</time>
      </trkpt>
      <trkpt lat="44.82068" lon="5.39423">
        <ele>722</ele>
        <time>2018-05-23T11:47:47Z</time>
      </trkpt>
      <trkpt lat="44.82076" lon="5.39402">
        <ele>719</ele>
        <time>2018-05-23T11:48:01Z</time>
      </trkpt>
      <trkpt lat="44.82082" lon="5.39371">
        <ele>716</ele>
        <time>2018-05-23T11:48:21Z</time>
      </trkpt>
      <trkpt lat="44.8208" lon="5.39347">
        <ele>718</ele>
        <time>2018-05-23T11:48:32Z</time>
      </trkpt>
      <trkpt lat="44.82065" lon="5.39294">
        <ele>719</ele>
        <time>2018-05-23T11:48:37Z</time>
      </trkpt>
      <trkpt lat="44.82056" lon="5.39278">
        <ele>719</ele>
        <time>2018-05-23T11:48:42Z</time>
      </trkpt>
      <trkpt lat="44.82043" lon="5.39263">
        <ele>717</ele>
        <time>2018-05-23T11:49:00Z</time>
      </trkpt>
      <trkpt lat="44.82022" lon="5.3925">
        <ele>712</ele>
        <time>2018-05-23T11:49:17Z</time>
      </trkpt>
      <trkpt lat="44.82003" lon="5.39233">
        <ele>717</ele>
        <time>2018-05-23T11:49:34Z</time>
      </trkpt>
      <trkpt lat="44.81994" lon="5.39211">
        <ele>716</ele>
        <time>2018-05-23T11:49:54Z</time>
      </trkpt>
      <trkpt lat="44.8198" lon="5.39182">
        <ele>721</ele>
        <time>2018-05-23T11:50:12Z</time>
      </trkpt>
      <trkpt lat="44.81973" lon="5.39176">
        <ele>722</ele>
        <time>2018-05-23T11:50:31Z</time>
      </trkpt>
      <trkpt lat="44.81961" lon="5.39174">
        <ele>722</ele>
        <time>2018-05-23T11:50:36Z</time>
      </trkpt>
      <trkpt lat="44.81952" lon="5.39179">
        <ele>723</ele>
        <time>2018-05-23T11:50:53Z</time>
      </trkpt>
      <trkpt lat="44.81911" lon="5.39231">
        <ele>711</ele>
        <time>2018-05-23T11:51:03Z</time>
      </trkpt>
      <trkpt lat="44.81889" lon="5.39254">
        <ele>692</ele>
        <time>2018-05-23T11:51:09Z</time>
      </trkpt>
      <trkpt lat="44.81872" lon="5.39265">
        <ele>691</ele>
        <time>2018-05-23T11:51:11Z</time>
      </trkpt>
      <trkpt lat="44.81863" lon="5.39268">
        <ele>692</ele>
        <time>2018-05-23T11:51:14Z</time>
      </trkpt>
      <trkpt lat="44.8184" lon="5.39269">
        <ele>694</ele>
        <time>2018-05-23T11:51:31Z</time>
      </trkpt>
      <trkpt lat="44.81806" lon="5.39266">
        <ele>691</ele>
        <time>2018-05-23T11:51:33Z</time>
      </trkpt>
      <trkpt lat="44.81769" lon="5.39255">
        <ele>690</ele>
        <time>2018-05-23T11:51:37Z</time>
      </trkpt>
      <trkpt lat="44.8172" lon="5.39246">
        <ele>703</ele>
        <time>2018-05-23T11:51:55Z</time>
      </trkpt>
      <trkpt lat="44.81661" lon="5.39228">
        <ele>697</ele>
        <time>2018-05-23T11:51:58Z</time>
      </trkpt>
      <trkpt lat="44.81632" lon="5.3922">
        <ele>701</ele>
        <time>2018-05-23T11:52:00Z</time>
      </trkpt>
      <trkpt lat="44.81604" lon="5.39217">
        <ele>701</ele>
        <time>2018-05-23T11:52:03Z</time>
      </trkpt>
      <trkpt lat="44.81576" lon="5.39217">
        <ele>700</ele>
        <time>2018-05-23T11:52:19Z</time>
      </trkpt>
      <trkpt lat="44.8155" lon="5.39221">
        <ele>700</ele>
        <time>2018-05-23T11:52:24Z</time>
      </trkpt>
      <trkpt lat="44.81472" lon="5.39243">
        <ele>691</ele>
        <time>2018-05-23T11:52:26Z</time>
      </trkpt>
      <trkpt lat="44.814" lon="5.39262">
        <ele>665</ele>
        <time>2018-05-23T11:52:35Z</time>
      </trkpt>
      <trkpt lat="44.81382" lon="5.39261">
        <ele>661</ele>
        <time>2018-05-23T11:52:49Z</time>
      </trkpt>
      <trkpt lat="44.81373" lon="5.39255">
        <ele>660</ele>
        <time>2018-05-23T11:53:08Z</time>
      </trkpt>
      <trkpt lat="44.81365" lon="5.39244">
        <ele>677</ele>
        <time>2018-05-23T11:53:17Z</time>
      </trkpt>
      <trkpt lat="44.81358" lon="5.39226">
        <ele>678</ele>
        <time>2018-05-23T11:53:29Z</time>
      </trkpt>
      <trkpt lat="44.81349" lon="5.39214">
        <ele>679</ele>
        <time>2018-05-23T11:53:44Z</time>
      </trkpt>
      <trkpt lat="44.81343" lon="5.39212">
        <ele>679</ele>
        <time>2018-05-23T11:54:03Z</time>
      </trkpt>
      <trkpt lat="44.81331" lon="5.39211">
        <ele>683</ele>
        <time>2018-05-23T11:54:19Z</time>
      </trkpt>
      <trkpt lat="44.81326" lon="5.39215">
        <ele>683</ele>
        <time>2018-05-23T11:54:23Z</time>
      </trkpt>
      <trkpt lat="44.81319" lon="5.3922">
        <ele>682</ele>
        <time>2018-05-23T11:54:30Z</time>
      </trkpt>
      <trkpt lat="44.81273" lon="5.39287">
        <ele>665</ele>
        <time>2018-05-23T11:54:41Z</time>
      </trkpt>
      <trkpt lat="44.81247" lon="5.39331">
        <ele>661</ele>
        <time>2018-05-23T11:54:58Z</time>
      </trkpt>
      <trkpt lat="44.81239" lon="5.39357">
        <ele>658</ele>
        <time>2018-05-23T11:55:00Z</time>
      </trkpt>
      <trkpt lat="44.81228" lon="5.39406">
        <ele>653</ele>
        <time>2018-05-23T11:55:13Z</time>
      </trkpt>
      <trkpt lat="44.81216" lon="5.39427">
        <ele>644</ele>
        <time>2018-05-23T11:55:28Z</time>
      </trkpt>
      <trkpt lat="44.81199" lon="5.3944">
        <ele>644</ele>
        <time>2018-05-23T11:55:38Z</time>
      </trkpt>
      <trkpt lat="44.81182" lon="5.39442">
        <ele>645</ele>
        <time>2018-05-23T11:55:50Z</time>
      </trkpt>
      <trkpt lat="44.81167" lon="5.39439">
        <ele>647</ele>
        <time>2018-05-23T11:55:58Z</time>
      </trkpt>
      <trkpt lat="44.81129" lon="5.3942">
        <ele>641</ele>
        <time>2018-05-23T11:56:11Z</time>
      </trkpt>
      <trkpt lat="44.81076" lon="5.3939">
        <ele>651</ele>
        <time>2018-05-23T11:56:15Z</time>
      </trkpt>
      <trkpt lat="44.81057" lon="5.39379">
        <ele>654</ele>
        <time>2018-05-23T11:56:33Z</time>
      </trkpt>
      <trkpt lat="44.81041" lon="5.39375">
        <ele>654</ele>
        <time>2018-05-23T11:56:43Z</time>
      </trkpt>
      <trkpt lat="44.80965" lon="5.3937">
        <ele>645</ele>
        <time>2018-05-23T11:57:00Z</time>
      </trkpt>
      <trkpt lat="44.80949" lon="5.39366">
        <ele>645</ele>
        <time>2018-05-23T11:57:14Z</time>
      </trkpt>
      <trkpt lat="44.80892" lon="5.39344">
        <ele>640</ele>
        <time>2018-05-23T11:57:32Z</time>
      </trkpt>
      <trkpt lat="44.80868" lon="5.39339">
        <ele>636</ele>
        <time>2018-05-23T11:57:50Z</time>
      </trkpt>
      <trkpt lat="44.80854" lon="5.39339">
        <ele>636</ele>
        <time>2018-05-23T11:58:04Z</time>
      </trkpt>
      <trkpt lat="44.8083" lon="5.39339">
        <ele>636</ele>
        <time>2018-05-23T11:58:15Z</time>
      </trkpt>
      <trkpt lat="44.80814" lon="5.39333">
        <ele>649</ele>
        <time>2018-05-23T11:58:26Z</time>
      </trkpt>
      <trkpt lat="44.80797" lon="5.39321">
        <ele>650</ele>
        <time>2018-05-23T11:58:45Z</time>
      </trkpt>
      <trkpt lat="44.80773" lon="5.39305">
        <ele>650</ele>
        <time>2018-05-23T11:58:54Z</time>
      </trkpt>
      <trkpt lat="44.80754" lon="5.39298">
        <ele>650</ele>
        <time>2018-05-23T11:58:56Z</time>
      </trkpt>
      <trkpt lat="44.80731" lon="5.39296">
        <ele>631</ele>
        <time>2018-05-23T11:59:05Z</time>
      </trkpt>
      <trkpt lat="44.80703" lon="5.39298">
        <ele>625</ele>
        <time>2018-05-23T11:59:07Z</time>
      </trkpt>
      <trkpt lat="44.80696" lon="5.39296">
        <ele>624</ele>
        <time>2018-05-23T11:59:13Z</time>
      </trkpt>
      <trkpt lat="44.80684" lon="5.39283">
        <ele>625</ele>
        <time>2018-05-23T11:59:24Z</time>
      </trkpt>
      <trkpt lat="44.80672" lon="5.39252">
        <ele>624</ele>
        <time>2018-05-23T11:59:27Z</time>
      </trkpt>
      <trkpt lat="44.80657" lon="5.39215">
        <ele>612</ele>
        <time>2018-05-23T11:59:44Z</time>
      </trkpt>
      <trkpt lat="44.80653" lon="5.39202">
        <ele>612</ele>
        <time>2018-05-23T12:00:01Z</time>
      </trkpt>
      <trkpt lat="44.80646" lon="5.3915">
        <ele>619</ele>
        <time>2018-05-23T12:00:15Z</time>
      </trkpt>
      <trkpt lat="44.80642" lon="5.39124">
        <ele>618</ele>
        <time>2018-05-23T12:00:33Z</time>
      </trkpt>
      <trkpt lat="44.80644" lon="5.39107">
        <ele>619</ele>
        <time>2018-05-23T12:00:50Z</time>
      </trkpt>
      <trkpt lat="44.80656" lon="5.39074">
        <ele>629</ele>
        <time>2018-05-23T12:01:03Z</time>
      </trkpt>
      <trkpt lat="44.80659" lon="5.39052">
        <ele>631</ele>
        <time>2018-05-23T12:01:09Z</time>
      </trkpt>
      <trkpt lat="44.80656" lon="5.39037">
        <ele>633</ele>
        <time>2018-05-23T12:01:19Z</time>
      </trkpt>
      <trkpt lat="44.80652" lon="5.39033">
        <ele>633</ele>
        <time>2018-05-23T12:01:35Z</time>
      </trkpt>
      <trkpt lat="44.80646" lon="5.3903">
        <ele>633</ele>
        <time>2018-05-23T12:01:41Z</time>
      </trkpt>
      <trkpt lat="44.80623" lon="5.39036">
        <ele>632</ele>
        <time>2018-05-23T12:01:46Z</time>
      </trkpt>
      <trkpt lat="44.80581" lon="5.39059">
        <ele>623</ele>
        <time>2018-05-23T12:02:00Z</time>
      </trkpt>
      <trkpt lat="44.8054" lon="5.39091">
        <ele>606</ele>
        <time>2018-05-23T12:02:02Z</time>
      </trkpt>
      <trkpt lat="44.80521" lon="5.39102">
        <ele>606</ele>
        <time>2018-05-23T12:02:14Z</time>
      </trkpt>
      <trkpt lat="44.805" lon="5.39108">
        <ele>602</ele>
        <time>2018-05-23T12:02:20Z</time>
      </trkpt>
      <trkpt lat="44.80453" lon="5.39111">
        <ele>597</ele>
        <time>2018-05-23T12:02:30Z</time>
      </trkpt>
      <trkpt lat="44.80405" lon="5.39108">
        <ele>588</ele>
        <time>2018-05-23T12:02:32Z</time>
      </trkpt>
      <trkpt lat="44.80391" lon="5.39102">
        <ele>586</ele>
        <time>2018-05-23T12:02:35Z</time>
      </trkpt>
      <trkpt lat="44.8038" lon="5.39092">
        <ele>585</ele>
        <time>2018-05-23T12:02:55Z</time>
      </trkpt>
      <trkpt lat="44.8035" lon="5.39049">
        <ele>594</ele>
        <time>2018-05-23T12:02:57Z</time>
      </trkpt>
      <trkpt lat="44.80335" lon="5.39025">
        <ele>594</ele>
        <time>2018-05-23T12:03:09Z</time>
      </trkpt>
      <trkpt lat="44.80328" lon="5.39005">
        <ele>587</ele>
        <time>2018-05-23T12:03:12Z</time>
      </trkpt>
      <trkpt lat="44.8032" lon="5.3898">
        <ele>586</ele>
        <time>2018-05-23T12:03:23Z</time>
      </trkpt>
      <trkpt lat="44.80312" lon="5.38968">
        <ele>585</ele>
        <time>2018-05-23T12:03:29Z</time>
      </trkpt>
      <trkpt lat="44.80289" lon="5.38948">
        <ele>583</ele>
        <time>2018-05-23T12:03:31Z</time>
      </trkpt>
      <trkpt lat="44.8028" lon="5.38935">
        <ele>582</ele>
        <time>2018-05-23T12:03:41Z</time>
      </trkpt>
      <trkpt lat="44.80259" lon="5.3888">
        <ele>588</ele>
        <time>2018-05-23T12:03:50Z</time>
      </trkpt>
      <trkpt lat="44.80228" lon="5.38827">
        <ele>576</ele>
        <time>2018-05-23T12:04:02Z</time>
      </trkpt>
      <trkpt lat="44.80221" lon="5.38795">
        <ele>573</ele>
        <time>2018-05-23T12:04:17Z</time>
      </trkpt>
      <trkpt lat="44.80218" lon="5.38776">
        <ele>573</ele>
        <time>2018-05-23T12:04:34Z</time>
      </trkpt>
      <trkpt lat="44.80219" lon="5.38763">
        <ele>573</ele>
        <time>2018-05-23T12:04:38Z</time>
      </trkpt>
      <trkpt lat="44.80225" lon="5.38741">
        <ele>576</ele>
        <time>2018-05-23T12:04:48Z</time>
      </trkpt>
      <trkpt lat="44.80238" lon="5.38702">
        <ele>577</ele>
        <time>2018-05-23T12:05:07Z</time>
      </trkpt>
      <trkpt lat="44.80237" lon="5.38694">
        <ele>578</ele>
        <time>2018-05-23T12:05:20Z</time>
      </trkpt>
      <trkpt lat="44.80232" lon="5.38685">
        <ele>578</ele>
        <time>2018-05-23T12:05:40Z</time>
      </trkpt>
      <trkpt lat="44.80216" lon="5.38683">
        <ele>576</ele>
        <time>2018-05-23T12:05:47Z</time>
      </trkpt>
      <trkpt lat="44.80169" lon="5.38691">
        <ele>572</ele>
        <time>2018-05-23T12:05:49Z</time>
      </trkpt>
      <trkpt lat="44.8015" lon="5.38686">
        <ele>565</ele>
        <time>2018-05-23T12:06:02Z</time>
      </trkpt>
      <trkpt lat="44.80131" lon="5.38676">
        <ele>563</ele>
        <time>2018-05-23T12:06:05Z</time>
      </trkpt>
      <trkpt lat="44.8011" lon="5.38661">
        <ele>570</ele>
        <time>2018-05-23T12:06:13Z</time>
      </trkpt>
      <trkpt lat="44.80087" lon="5.38642">
        <ele>569</ele>
        <time>2018-05-23T12:06:31Z</time>
      </trkpt>
      <trkpt lat="44.80061" lon="5.38617">
        <ele>562</ele>
        <time>2018-05-23T12:06:38Z</time>
      </trkpt>
      <trkpt lat="44.80027" lon="5.38581">
        <ele>565</ele>
        <time>2018-05-23T12:06:55Z</time>
      </trkpt>
      <trkpt lat="44.79962" lon="5.38506">
        <ele>554</ele>
        <time>2018-05-23T12:07:07Z</time>
      </trkpt>
      <trkpt lat="44.79939" lon="5.3848">
        <ele>554</ele>
        <time>2018-05-23T12:07:23Z</time>
      </trkpt>
      <trkpt lat="44.79926" lon="5.38458">
        <ele>554</ele>
        <time>2018-05-23T12:07:43Z</time>
      </trkpt>
      <trkpt lat="44.79915" lon="5.38427">
        <ele>549</ele>
        <time>2018-05-23T12:07:45Z</time>
      </trkpt>
      <trkpt lat="44.79908" lon="5.38418">
        <ele>549</ele>
        <time>2018-05-23T12:07:56Z</time>
      </trkpt>
      <trkpt lat="44.79877" lon="5.38384">
        <ele>548</ele>
        <time>2018-05-23T12:08:11Z</time>
      </trkpt>
      <trkpt lat="44.79863" lon="5.38367">
        <ele>548</ele>
        <time>2018-05-23T12:08:20Z</time>
      </trkpt>
      <trkpt lat="44.79855" lon="5.38358">
        <ele>548</ele>
        <time>2018-05-23T12:08:22Z</time>
      </trkpt>
      <trkpt lat="44.79845" lon="5.38349">
        <ele>548</ele>
        <time>2018-05-23T12:08:27Z</time>
      </trkpt>
      <trkpt lat="44.79823" lon="5.3834">
        <ele>545</ele>
        <time>2018-05-23T12:08:44Z</time>
      </trkpt>
      <trkpt lat="44.79797" lon="5.38329">
        <ele>544</ele>
        <time>2018-05-23T12:08:58Z</time>
      </trkpt>
      <trkpt lat="44.79783" lon="5.38324">
        <ele>543</ele>
        <time>2018-05-23T12:09:15Z</time>
      </trkpt>
      <trkpt lat="44.79758" lon="5.38319">
        <ele>542</ele>
        <time>2018-05-23T12:09:33Z</time>
      </trkpt>
      <trkpt lat="44.79722" lon="5.38311">
        <ele>538</ele>
        <time>2018-05-23T12:09:45Z</time>
      </trkpt>
      <trkpt lat="44.797" lon="5.38305">
        <ele>537</ele>
        <time>2018-05-23T12:09:56Z</time>
      </trkpt>
      <trkpt lat="44.79667" lon="5.38298">
        <ele>536</ele>
        <time>2018-05-23T12:10:15Z</time>
      </trkpt>
      <trkpt lat="44.7963" lon="5.38293">
        <ele>532</ele>
        <time>2018-05-23T12:10:26Z</time>
      </trkpt>
      <trkpt lat="44.79584" lon="5.38296">
        <ele>531</ele>
        <time>2018-05-23T12:10:38Z</time>
      </trkpt>
      <trkpt lat="44.79561" lon="5.38299">
        <ele>532</ele>
        <time>2018-05-23T12:10:58Z</time>
      </trkpt>
      <trkpt lat="44.79537" lon="5.38299">
        <ele>534</ele>
        <time>2018-05-23T12:11:08Z</time>
      </trkpt>
      <trkpt lat="44.79524" lon="5.38291">
        <ele>534</ele>
        <time>2018-05-23T12:11:12Z</time>
      </trkpt>
      <trkpt lat="44.79516" lon="5.3828">
        <ele>535</ele>
        <time>2018-05-23T12:11:22Z</time>
      </trkpt>
      <trkpt lat="44.79505" lon="5.38247">
        <ele>536</ele>
        <time>2018-05-23T12:11:36Z</time>
      </trkpt>
      <trkpt lat="44.79493" lon="5.38211">
        <ele>540</ele>
        <time>2018-05-23T12:11:52Z</time>
      </trkpt>
      <trkpt lat="44.79468" lon="5.38154">
        <ele>535</ele>
        <time>2018-05-23T12:12:11Z</time>
      </trkpt>
      <trkpt lat="44.79438" lon="5.38054">
        <ele>531</ele>
        <time>2018-05-23T12:12:31Z</time>
      </trkpt>
      <trkpt lat="44.79426" lon="5.3801">
        <ele>531</ele>
        <time>2018-05-23T12:12:36Z</time>
      </trkpt>
      <trkpt lat="44.79418" lon="5.37964">
        <ele>529</ele>
        <time>2018-05-23T12:12:46Z</time>
      </trkpt>
      <trkpt lat="44.79417" lon="5.37918">
        <ele>533</ele>
        <time>2018-05-23T12:13:03Z</time>
      </trkpt>
      <trkpt lat="44.79418" lon="5.37872">
        <ele>530</ele>
        <time>2018-05-23T12:13:12Z</time>
      </trkpt>
      <trkpt lat="44.79418" lon="5.37825">
        <ele>533</ele>
        <time>2018-05-23T12:13:22Z</time>
      </trkpt>
      <trkpt lat="44.79415" lon="5.37779">
        <ele>539</ele>
        <time>2018-05-23T12:13:40Z</time>
      </trkpt>
      <trkpt lat="44.7941" lon="5.37737">
        <ele>536</ele>
        <time>2018-05-23T12:13:53Z</time>
      </trkpt>
      <trkpt lat="44.794" lon="5.37697">
        <ele>539</ele>
        <time>2018-05-23T12:14:10Z</time>
      </trkpt>
      <trkpt lat="44.79389" lon="5.37664">
        <ele>537</ele>
        <time>2018-05-23T12:14:20Z</time>
      </trkpt>
      <trkpt lat="44.79379" lon="5.37626">
        <ele>539</ele>
        <time>2018-05-23T12:14:40Z</time>
      </trkpt>
      <trkpt lat="44.79362" lon="5.37537">
        <ele>538</ele>
        <time>2018-05-23T12:14:46Z</time>
      </trkpt>
      <trkpt lat="44.79355" lon="5.37492">
        <ele>539</ele>
        <time>2018-05-23T12:14:52Z</time>
      </trkpt>
      <trkpt lat="44.79351" lon="5.37447">
        <ele>538</ele>
        <time>2018-05-23T12:15:12Z</time>
      </trkpt>
      <trkpt lat="44.7935" lon="5.37401">
        <ele>538</ele>
        <time>2018-05-23T12:15:16Z</time>
      </trkpt>
      <trkpt lat="44.79346" lon="5.37355">
        <ele>537</ele>
        <time>2018-05-23T12:15:27Z</time>
      </trkpt>
      <trkpt lat="44.7933" lon="5.37265">
        <ele>549</ele>
        <time>2018-05-23T12:15:43Z</time>
      </trkpt>
      <trkpt lat="44.7932" lon="5.37219">
        <ele>547</ele>
        <time>2018-05-23T12:15:53Z</time>
      </trkpt>
      <trkpt lat="44.7931" lon="5.37179">
        <ele>544</ele>
        <time>2018-05-23T12:16:10Z</time>
      </trkpt>
      <trkpt lat="44.79298" lon="5.37139">
        <ele>538</ele>
        <time>2018-05-23T12:16:17Z</time>
      </trkpt>
      <trkpt lat="44.79281" lon="5.37103">
        <ele>539</ele>
        <time>2018-05-23T12:16:34Z</time>
      </trkpt>
      <trkpt lat="44.79262" lon="5.37069">
        <ele>535</ele>
        <time>2018-05-23T12:16:37Z</time>
      </trkpt>
      <trkpt lat="44.7922" lon="5.37004">
        <ele>542</ele>
        <time>2018-05-23T12:16:39Z</time>
      </trkpt>
      <trkpt lat="44.79201" lon="5.3697">
        <ele>534</ele>
        <time>2018-05-23T12:16:52Z</time>
      </trkpt>
      <trkpt lat="44.79179" lon="5.36941">
        <ele>534</ele>
        <time>2018-05-23T12:16:56Z</time>
      </trkpt>
      <trkpt lat="44.79127" lon="5.3689">
        <ele>536</ele>
        <time>2018-05-23T12:17:07Z</time>
      </trkpt>
      <trkpt lat="44.79103" lon="5.36862">
        <ele>536</ele>
        <time>2018-05-23T12:17:18Z</time>
      </trkpt>
      <trkpt lat="44.79084" lon="5.36829">
        <ele>535</ele>
        <time>2018-05-23T12:17:38Z</time>
      </trkpt>
      <trkpt lat="44.79048" lon="5.36764">
        <ele>536</ele>
        <time>2018-05-23T12:17:52Z</time>
      </trkpt>
      <trkpt lat="44.79017" lon="5.36711">
        <ele>525</ele>
        <time>2018-05-23T12:18:04Z</time>
      </trkpt>
      <trkpt lat="44.79006" lon="5.36698">
        <ele>524</ele>
        <time>2018-05-23T12:18:08Z</time>
      </trkpt>
      <trkpt lat="44.78994" lon="5.36688">
        <ele>530</ele>
        <time>2018-05-23T12:18:10Z</time>
      </trkpt>
      <trkpt lat="44.78967" lon="5.36672">
        <ele>531</ele>
        <time>2018-05-23T12:18:20Z</time>
      </trkpt>
      <trkpt lat="44.7894" lon="5.36658">
        <ele>523</ele>
        <time>2018-05-23T12:18:24Z</time>
      </trkpt>
      <trkpt lat="44.78912" lon="5.36645">
        <ele>525</ele>
        <time>2018-05-23T12:18:37Z</time>
      </trkpt>
      <trkpt lat="44.78887" lon="5.36633">
        <ele>522</ele>
        <time>2018-05-23T12:18:40Z</time>
      </trkpt>
      <trkpt lat="44.78874" lon="5.36631">
        <ele>522</ele>
        <time>2018-05-23T12:18:45Z</time>
      </trkpt>
      <trkpt lat="44.78862" lon="5.36634">
        <ele>522</ele>
        <time>2018-05-23T12:18:53Z</time>
      </trkpt>
      <trkpt lat="44.78836" lon="5.36646">
        <ele>523</ele>
        <time>2018-05-23T12:19:06Z</time>
      </trkpt>
      <trkpt lat="44.78822" lon="5.36651">
        <ele>522</ele>
        <time>2018-05-23T12:19:08Z</time>
      </trkpt>
      <trkpt lat="44.78808" lon="5.36653">
        <ele>521</ele>
        <time>2018-05-23T12:19:22Z</time>
      </trkpt>
      <trkpt lat="44.78778" lon="5.36656">
        <ele>519</ele>
        <time>2018-05-23T12:19:32Z</time>
      </trkpt>
      <trkpt lat="44.78764" lon="5.36657">
        <ele>519</ele>
        <time>2018-05-23T12:19:52Z</time>
      </trkpt>
      <trkpt lat="44.7875" lon="5.36655">
        <ele>519</ele>
        <time>2018-05-23T12:20:11Z</time>
      </trkpt>
      <trkpt lat="44.78724" lon="5.36651">
        <ele>514</ele>
        <time>2018-05-23T12:20:22Z</time>
      </trkpt>
      <trkpt lat="44.78711" lon="5.36652">
        <ele>513</ele>
        <time>2018-05-23T12:20:25Z</time>
      </trkpt>
      <trkpt lat="44.787" lon="5.36657">
        <ele>513</ele>
        <time>2018-05-23T12:20:35Z</time>
      </trkpt>
      <trkpt lat="44.78689" lon="5.36666">
        <ele>512</ele>
        <time>2018-05-23T12:20:50Z</time>
      </trkpt>
      <trkpt lat="44.7868" lon="5.3668">
        <ele>517</ele>
        <time>2018-05-23T12:20:59Z</time>
      </trkpt>
      <trkpt lat="44.78662" lon="5.36712">
        <ele>509</ele>
        <time>2018-05-23T12:21:17Z</time>
      </trkpt>
      <trkpt lat="44.78642" lon="5.36745">
        <ele>512</ele>
        <time>2018-05-23T12:21:29Z</time>
      </trkpt>
      <trkpt lat="44.7863" lon="5.36759">
        <ele>521</ele>
        <time>2018-05-23T12:21:31Z</time>
      </trkpt>
      <trkpt lat="44.78616" lon="5.36771">
        <ele>519</ele>
        <time>2018-05-23T12:21:45Z</time>
      </trkpt>
      <trkpt lat="44.78587" lon="5.3679">
        <ele>518</ele>
        <time>2018-05-23T12:22:03Z</time>
      </trkpt>
      <trkpt lat="44.78557" lon="5.36806">
        <ele>504</ele>
        <time>2018-05-23T12:22:06Z</time>
      </trkpt>
      <trkpt lat="44.78543" lon="5.36814">
        <ele>502</ele>
        <time>2018-05-23T12:22:12Z</time>
      </trkpt>
      <trkpt lat="44.78532" lon="5.36827">
        <ele>501</ele>
        <time>2018-05-23T12:22:20Z</time>
      </trkpt>
      <trkpt lat="44.78515" lon="5.36856">
        <ele>515</ele>
        <time>2018-05-23T12:22:36Z</time>
      </trkpt>
      <trkpt lat="44.78506" lon="5.36868">
        <ele>517</ele>
        <time>2018-05-23T12:22:50Z</time>
      </trkpt>
      <trkpt lat="44.78495" lon="5.36875">
        <ele>513</ele>
        <time>2018-05-23T12:22:58Z</time>
      </trkpt>
      <trkpt lat="44.78484" lon="5.36876">
        <ele>514</ele>
        <time>2018-05-23T12:23:13Z</time>
      </trkpt>
      <trkpt lat="44.78473" lon="5.36871">
        <ele>514</ele>
        <time>2018-05-23T12:23:20Z</time>
      </trkpt>
      <trkpt lat="44.78464" lon="5.3686">
        <ele>513</ele>
        <time>2018-05-23T12:23:26Z</time>
      </trkpt>
      <trkpt lat="44.78457" lon="5.36846">
        <ele>512</ele>
        <time>2018-05-23T12:23:32Z</time>
      </trkpt>
      <trkpt lat="44.78443" lon="5.36814">
        <ele>497</ele>
        <time>2018-05-23T12:23:36Z</time>
      </trkpt>
      <trkpt lat="44.78427" lon="5.36784">
        <ele>492</ele>
        <time>2018-05-23T12:23:50Z</time>
      </trkpt>
      <trkpt lat="44.7841" lon="5.36762">
        <ele>493</ele>
        <time>2018-05-23T12:23:56Z</time>
      </trkpt>
      <trkpt lat="44.78401" lon="5.36756">
        <ele>494</ele>
        <time>2018-05-23T12:24:02Z</time>
      </trkpt>
      <trkpt lat="44.78391" lon="5.36754">
        <ele>497</ele>
        <time>2018-05-23T12:24:13Z</time>
      </trkpt>
      <trkpt lat="44.78381" lon="5.36757">
        <ele>499</ele>
        <time>2018-05-23T12:24:18Z</time>
      </trkpt>
      <trkpt lat="44.78371" lon="5.36764">
        <ele>501</ele>
        <time>2018-05-23T12:24:38Z</time>
      </trkpt>
      <trkpt lat="44.78351" lon="5.36778">
        <ele>505</ele>
        <time>2018-05-23T12:24:43Z</time>
      </trkpt>
      <trkpt lat="44.78339" lon="5.3678">
        <ele>505</ele>
        <time>2018-05-23T12:24:47Z</time>
      </trkpt>
      <trkpt lat="44.78327" lon="5.36778">
        <ele>514</ele>
        <time>2018-05-23T12:25:03Z</time>
      </trkpt>
      <trkpt lat="44.78315" lon="5.36773">
        <ele>514</ele>
        <time>2018-05-23T12:25:07Z</time>
      </trkpt>
      <trkpt lat="44.78303" lon="5.36765">
        <ele>514</ele>
        <time>2018-05-23T12:25:21Z</time>
      </trkpt>
      <trkpt lat="44.78279" lon="5.36749">
        <ele>488</ele>
        <time>2018-05-23T12:25:30Z</time>
      </trkpt>
      <trkpt lat="44.7825" lon="5.3674">
        <ele>494</ele>
        <time>2018-05-23T12:25:40Z</time>
      </trkpt>
      <trkpt lat="44.78237" lon="5.36734">
        <ele>491</ele>
        <time>2018-05-23T12:25:57Z</time>
      </trkpt>
      <trkpt lat="44.78223" lon="5.36726">
        <ele>487</ele>
        <time>2018-05-23T12:25:59Z</time>
      </trkpt>
      <trkpt lat="44.78196" lon="5.36711">
        <ele>485</ele>
        <time>2018-05-23T12:26:04Z</time>
      </trkpt>
      <trkpt lat="44.78181" lon="5.36706">
        <ele>484</ele>
        <time>2018-05-23T12:26:20Z</time>
      </trkpt>
      <trkpt lat="44.78166" lon="5.36704">
        <ele>485</ele>
        <time>2018-05-23T12:26:35Z</time>
      </trkpt>
      <trkpt lat="44.78143" lon="5.36702">
        <ele>484</ele>
        <time>2018-05-23T12:26:40Z</time>
      </trkpt>
      <trkpt lat="44.78113" lon="5.36695">
        <ele>482</ele>
        <time>2018-05-23T12:26:59Z</time>
      </trkpt>
      <trkpt lat="44.78055" lon="5.36676">
        <ele>480</ele>
        <time>2018-05-23T12:27:09Z</time>
      </trkpt>
      <trkpt lat="44.78025" lon="5.36671">
        <ele>482</ele>
        <time>2018-05-23T12:27:14Z</time>
      </trkpt>
      <trkpt lat="44.77995" lon="5.3667">
        <ele>480</ele>
        <time>2018-05-23T12:27:20Z</time>
      </trkpt>
      <trkpt lat="44.77966" lon="5.36668">
        <ele>490</ele>
        <time>2018-05-23T12:27:30Z</time>
      </trkpt>
      <trkpt lat="44.77953" lon="5.36663">
        <ele>471</ele>
        <time>2018-05-23T12:27:50Z</time>
      </trkpt>
      <trkpt lat="44.77941" lon="5.36655">
        <ele>472</ele>
        <time>2018-05-23T12:27:55Z</time>
      </trkpt>
      <trkpt lat="44.77916" lon="5.36632">
        <ele>477</ele>
        <time>2018-05-23T12:28:06Z</time>
      </trkpt>
      <trkpt lat="44.77875" lon="5.36591">
        <ele>473</ele>
        <time>2018-05-23T12:28:22Z</time>
      </trkpt>
      <trkpt lat="44.77848" lon="5.36562">
        <ele>458</ele>
        <time>2018-05-23T12:28:35Z</time>
      </trkpt>
      <trkpt lat="44.77834" lon="5.36549">
        <ele>456</ele>
        <time>2018-05-23T12:28:53Z</time>
      </trkpt>
      <trkpt lat="44.77818" lon="5.36538">
        <ele>458</ele>
        <time>2018-05-23T12:28:55Z</time>
      </trkpt>
      <trkpt lat="44.77802" lon="5.3653">
        <ele>457</ele>
        <time>2018-05-23T12:29:07Z</time>
      </trkpt>
      <trkpt lat="44.77785" lon="5.36526">
        <ele>457</ele>
        <time>2018-05-23T12:29:14Z</time>
      </trkpt>
      <trkpt lat="44.77751" lon="5.36521">
        <ele>456</ele>
        <time>2018-05-23T12:29:29Z</time>
      </trkpt>
      <trkpt lat="44.77731" lon="5.36514">
        <ele>457</ele>
        <time>2018-05-23T12:29:36Z</time>
      </trkpt>
      <trkpt lat="44.77705" lon="5.36496">
        <ele>446</ele>
        <time>2018-05-23T12:29:55Z</time>
      </trkpt>
      <trkpt lat="44.77675" lon="5.36474">
        <ele>446</ele>
        <time>2018-05-23T12:30:09Z</time>
      </trkpt>
      <trkpt lat="44.77659" lon="5.36467">
        <ele>448</ele>
        <time>2018-05-23T12:30:17Z</time>
      </trkpt>
      <trkpt lat="44.77643" lon="5.36463">
        <ele>447</ele>
        <time>2018-05-23T12:30:35Z</time>
      </trkpt>
      <trkpt lat="44.77614" lon="5.36453">
        <ele>447</ele>
        <time>2018-05-23T12:30:53Z</time>
      </trkpt>
      <trkpt lat="44.776" lon="5.36441">
        <ele>446</ele>
        <time>2018-05-23T12:31:02Z</time>
      </trkpt>
      <trkpt lat="44.77552" lon="5.36385">
        <ele>440</ele>
        <time>2018-05-23T12:31:21Z</time>
      </trkpt>
      <trkpt lat="44.77494" lon="5.36319">
        <ele>432</ele>
        <time>2018-05-23T12:31:31Z</time>
      </trkpt>
      <trkpt lat="44.77479" lon="5.36304">
        <ele>430</ele>
        <time>2018-05-23T12:31:42Z</time>
      </trkpt>
      <trkpt lat="44.77462" lon="5.36291">
        <ele>429</ele>
        <time>2018-05-23T12:32:02Z</time>
      </trkpt>
      <trkpt lat="44.77445" lon="5.36282">
        <ele>428</ele>
        <time>2018-05-23T12:32:16Z</time>
      </trkpt>
      <trkpt lat="44.77426" lon="5.36276">
        <ele>428</ele>
        <time>2018-05-23T12:32:25Z</time>
      </trkpt>
      <trkpt lat="44.7739" lon="5.36264">
        <ele>426</ele>
        <time>2018-05-23T12:32:37Z</time>
      </trkpt>
      <trkpt lat="44.77353" lon="5.36252">
        <ele>424</ele>
        <time>2018-05-23T12:32:49Z</time>
      </trkpt>
      <trkpt lat="44.77293" lon="5.3623">
        <ele>418</ele>
        <time>2018-05-23T12:32:59Z</time>
      </trkpt>
      <trkpt lat="44.77259" lon="5.36213">
        <ele>417</ele>
        <time>2018-05-23T12:33:14Z</time>
      </trkpt>
      <trkpt lat="44.77227" lon="5.36192">
        <ele>416</ele>
        <time>2018-05-23T12:33:22Z</time>
      </trkpt>
      <trkpt lat="44.77166" lon="5.36145">
        <ele>411</ele>
        <time>2018-05-23T12:33:28Z</time>
      </trkpt>
      <trkpt lat="44.77136" lon="5.36124">
        <ele>410</ele>
        <time>2018-05-23T12:33:44Z</time>
      </trkpt>
      <trkpt lat="44.77104" lon="5.3611">
        <ele>409</ele>
        <time>2018-05-23T12:33:56Z</time>
      </trkpt>
      <trkpt lat="44.77086" lon="5.36106">
        <ele>409</ele>
        <time>2018-05-23T12:34:07Z</time>
      </trkpt>
      <trkpt lat="44.77069" lon="5.36106">
        <ele>408</ele>
        <time>2018-05-23T12:34:13Z</time>
      </trkpt>
      <trkpt lat="44.77035" lon="5.36112">
        <ele>408</ele>
        <time>2018-05-23T12:34:24Z</time>
      </trkpt>
      <trkpt lat="44.77" lon="5.36119">
        <ele>408</ele>
        <time>2018-05-23T12:34:40Z</time>
      </trkpt>
      <trkpt lat="44.76966" lon="5.36129">
        <ele>407</ele>
        <time>2018-05-23T12:34:44Z</time>
      </trkpt>
      <trkpt lat="44.76891" lon="5.36148">
        <ele>407</ele>
        <time>2018-05-23T12:34:57Z</time>
      </trkpt>
      <trkpt lat="44.76859" lon="5.36158">
        <ele>407</ele>
        <time>2018-05-23T12:35:17Z</time>
      </trkpt>
      <trkpt lat="44.76829" lon="5.36173">
        <ele>409</ele>
        <time>2018-05-23T12:35:34Z</time>
      </trkpt>
      <trkpt lat="44.76769" lon="5.36208">
        <ele>412</ele>
        <time>2018-05-23T12:35:46Z</time>
      </trkpt>
      <trkpt lat="44.76702" lon="5.36248">
        <ele>412</ele>
        <time>2018-05-23T12:36:00Z</time>
      </trkpt>
      <trkpt lat="44.76685" lon="5.36255">
        <ele>412</ele>
        <time>2018-05-23T12:36:17Z</time>
      </trkpt>
      <trkpt lat="44.76668" lon="5.36258">
        <ele>412</ele>
        <time>2018-05-23T12:36:23Z</time>
      </trkpt>
      <trkpt lat="44.76633" lon="5.36257">
        <ele>411</ele>
        <time>2018-05-23T12:36:26Z</time>
      </trkpt>
      <trkpt lat="44.76563" lon="5.3625">
        <ele>409</ele>
        <time>2018-05-23T12:36:34Z</time>
      </trkpt>
      <trkpt lat="44.76414" lon="5.36236">
        <ele>407</ele>
        <time>2018-05-23T12:36:39Z</time>
      </trkpt>
      <trkpt lat="44.76391" lon="5.36234">
        <ele>406</ele>
        <time>2018-05-23T12:36:56Z</time>
      </trkpt>
      <trkpt lat="44.7637" lon="5.36229">
        <ele>406</ele>
        <time>2018-05-23T12:37:16Z</time>
      </trkpt>
      <trkpt lat="44.76357" lon="5.36224">
        <ele>405</ele>
        <time>2018-05-23T12:37:29Z</time>
      </trkpt>
      <trkpt lat="44.76334" lon="5.3621">
        <ele>405</ele>
        <time>2018-05-23T12:37:42Z</time>
      </trkpt>
      <trkpt lat="44.7631" lon="5.36194">
        <ele>403</ele>
        <time>2018-05-23T12:37:50Z</time>
      </trkpt>
      <trkpt lat="44.76255" lon="5.36159">
        <ele>401</ele>
        <time>2018-05-23T12:37:55Z</time>
      </trkpt>
      <trkpt lat="44.76241" lon="5.36151">
        <ele>400</ele>
        <time>2018-05-23T12:38:13Z</time>
      </trkpt>
      <trkpt lat="44.76146" lon="5.36065">
        <ele>398</ele>
        <time>2018-05-23T12:38:33Z</time>
      </trkpt>
      <trkpt lat="44.76127" lon="5.36039">
        <ele>398</ele>
        <time>2018-05-23T12:38:39Z</time>
      </trkpt>
      <trkpt lat="44.7611" lon="5.36021">
        <ele>398</ele>
        <time>2018-05-23T12:38:41Z</time>
      </trkpt>
      <trkpt lat="44.761" lon="5.36015">
        <ele>398</ele>
        <time>2018-05-23T12:38:46Z</time>
      </trkpt>
      <trkpt lat="44.76082" lon="5.36014">
        <ele>398</ele>
        <time>2018-05-23T12:38:50Z</time>
      </trkpt>
      <trkpt lat="44.76062" lon="5.36035">
        <ele>398</ele>
        <time>2018-05-23T12:38:52Z</time>
      </trkpt>
      <trkpt lat="44.76028" lon="5.36079">
        <ele>398</ele>
        <time>2018-05-23T12:38:58Z</time>
      </trkpt>
      <trkpt lat="44.76" lon="5.36114">
        <ele>397</ele>
        <time>2018-05-23T12:39:18Z</time>
      </trkpt>
      <trkpt lat="44.75965" lon="5.36156">
        <ele>397</ele>
        <time>2018-05-23T12:39:20Z</time>
      </trkpt>
      <trkpt lat="44.75957" lon="5.36158">
        <ele>397</ele>
        <time>2018-05-23T12:39:25Z</time>
      </trkpt>
      <trkpt lat="44.7595" lon="5.36152">
        <ele>397</ele>
        <time>2018-05-23T12:39:36Z</time>
      </trkpt>
      <trkpt lat="44.75939" lon="5.36181">
        <ele>397</ele>
        <time>2018-05-23T12:39:38Z</time>
      </trkpt>
      <trkpt lat="44.75913" lon="5.36244">
        <ele>397</ele>
        <time>2018-05-23T12:39:53Z</time>
      </trkpt>
      <trkpt lat="44.75893" lon="5.36288">
        <ele>397</ele>
        <time>2018-05-23T12:40:12Z</time>
      </trkpt>
      <trkpt lat="44.758" lon="5.36452">
        <ele>399</ele>
        <time>2018-05-23T12:40:31Z</time>
      </trkpt>
      <trkpt lat="44.75705" lon="5.36619">
        <ele>403</ele>
        <time>2018-05-23T12:40:43Z</time>
      </trkpt>
      <trkpt lat="44.75688" lon="5.36612">
        <ele>403</ele>
        <time>2018-05-23T12:40:51Z</time>
      </trkpt>
      <trkpt lat="44.75673" lon="5.36611">
        <ele>403</ele>
        <time>2018-05-23T12:40:53Z</time>
      </trkpt>
      <trkpt lat="44.75644" lon="5.36614">
        <ele>402</ele>
        <time>2018-05-23T12:41:11Z</time>
      </trkpt>
      <trkpt lat="44.75608" lon="5.36622">
        <ele>401</ele>
        <time>2018-05-23T12:41:21Z</time>
      </trkpt>
      <trkpt lat="44.75584" lon="5.36632">
        <ele>402</ele>
        <time>2018-05-23T12:41:35Z</time>
      </trkpt>
      <trkpt lat="44.75562" lon="5.36644">
        <ele>400</ele>
        <time>2018-05-23T12:41:48Z</time>
      </trkpt>
      <trkpt lat="44.75543" lon="5.36662">
        <ele>400</ele>
        <time>2018-05-23T12:42:03Z</time>
      </trkpt>
      <trkpt lat="44.75526" lon="5.36694">
        <ele>405</ele>
        <time>2018-05-23T12:42:07Z</time>
      </trkpt>
      <trkpt lat="44.75507" lon="5.36721">
        <ele>406</ele>
        <time>2018-05-23T12:42:17Z</time>
      </trkpt>
      <trkpt lat="44.75484" lon="5.36748">
        <ele>406</ele>
        <time>2018-05-23T12:42:32Z</time>
      </trkpt>
      <trkpt lat="44.75462" lon="5.36768">
        <ele>411</ele>
        <time>2018-05-23T12:42:45Z</time>
      </trkpt>
      <trkpt lat="44.75447" lon="5.36776">
        <ele>411</ele>
        <time>2018-05-23T12:42:55Z</time>
      </trkpt>
      <trkpt lat="44.75392" lon="5.36788">
        <ele>410</ele>
        <time>2018-05-23T12:43:02Z</time>
      </trkpt>
      <trkpt lat="44.75306" lon="5.36788">
        <ele>408</ele>
        <time>2018-05-23T12:43:16Z</time>
      </trkpt>
      <trkpt lat="44.75266" lon="5.36796">
        <ele>409</ele>
        <time>2018-05-23T12:43:35Z</time>
      </trkpt>
      <trkpt lat="44.75248" lon="5.36804">
        <ele>408</ele>
        <time>2018-05-23T12:43:49Z</time>
      </trkpt>
      <trkpt lat="44.75224" lon="5.36817">
        <ele>408</ele>
        <time>2018-05-23T12:43:59Z</time>
      </trkpt>
      <trkpt lat="44.75209" lon="5.36828">
        <ele>408</ele>
        <time>2018-05-23T12:44:17Z</time>
      </trkpt>
      <trkpt lat="44.75197" lon="5.36841">
        <ele>410</ele>
        <time>2018-05-23T12:44:22Z</time>
      </trkpt>
      <trkpt lat="44.75146" lon="5.36908">
        <ele>407</ele>
        <time>2018-05-23T12:44:42Z</time>
      </trkpt>
      <trkpt lat="44.75127" lon="5.36943">
        <ele>409</ele>
        <time>2018-05-23T12:44:48Z</time>
      </trkpt>
      <trkpt lat="44.75105" lon="5.36998">
        <ele>408</ele>
        <time>2018-05-23T12:44:54Z</time>
      </trkpt>
      <trkpt lat="44.75094" lon="5.37025">
        <ele>410</ele>
        <time>2018-05-23T12:45:07Z</time>
      </trkpt>
      <trkpt lat="44.75089" lon="5.37051">
        <ele>410</ele>
        <time>2018-05-23T12:45:22Z</time>
      </trkpt>
      <trkpt lat="44.75085" lon="5.37087">
        <ele>408</ele>
        <time>2018-05-23T12:45:29Z</time>
      </trkpt>
      <trkpt lat="44.75085" lon="5.37115">
        <ele>410</ele>
        <time>2018-05-23T12:45:47Z</time>
      </trkpt>
      <trkpt lat="44.75089" lon="5.37129">
        <ele>410</ele>
        <time>2018-05-23T12:46:07Z</time>
      </trkpt>
      <trkpt lat="44.75138" lon="5.37223">
        <ele>409</ele>
        <time>2018-05-23T12:46:15Z</time>
      </trkpt>
      <trkpt lat="44.75144" lon="5.3724">
        <ele>409</ele>
        <time>2018-05-23T12:46:30Z</time>
      </trkpt>
      <trkpt lat="44.75145" lon="5.37249">
        <ele>409</ele>
        <time>2018-05-23T12:46:48Z</time>
      </trkpt>
      <trkpt lat="44.75142" lon="5.37258">
        <ele>407</ele>
        <time>2018-05-23T12:46:53Z</time>
      </trkpt>
      <trkpt lat="44.75139" lon="5.37263">
        <ele>407</ele>
        <time>2018-05-23T12:46:59Z</time>
      </trkpt>
      <trkpt lat="44.75134" lon="5.37267">
        <ele>406</ele>
        <time>2018-05-23T12:47:10Z</time>
      </trkpt>
      <trkpt lat="44.75082" lon="5.3729">
        <ele>403</ele>
        <time>2018-05-23T12:47:22Z</time>
      </trkpt>
      <trkpt lat="44.75051" lon="5.37304">
        <ele>403</ele>
        <time>2018-05-23T12:47:39Z</time>
      </trkpt>
      <trkpt lat="44.7504" lon="5.37313">
        <ele>403</ele>
        <time>2018-05-23T12:47:45Z</time>
      </trkpt>
      <trkpt lat="44.75016" lon="5.37355">
        <ele>405</ele>
        <time>2018-05-23T12:48:02Z</time>
      </trkpt>
      <trkpt lat="44.74996" lon="5.37385">
        <ele>404</ele>
        <time>2018-05-23T12:48:11Z</time>
      </trkpt>
      <trkpt lat="44.74943" lon="5.37453">
        <ele>404</ele>
        <time>2018-05-23T12:48:30Z</time>
      </trkpt>
      <trkpt lat="44.74936" lon="5.37467">
        <ele>404</ele>
        <time>2018-05-23T12:48:45Z</time>
      </trkpt>
      <trkpt lat="44.74931" lon="5.3749">
        <ele>403</ele>
        <time>2018-05-23T12:49:03Z</time>
      </trkpt>
      <trkpt lat="44.74916" lon="5.37586">
        <ele>406</ele>
        <time>2018-05-23T12:49:14Z</time>
      </trkpt>
      <trkpt lat="44.74899" lon="5.37654">
        <ele>403</ele>
        <time>2018-05-23T12:49:30Z</time>
      </trkpt>
      <trkpt lat="44.74889" lon="5.37693">
        <ele>403</ele>
        <time>2018-05-23T12:49:50Z</time>
      </trkpt>
      <trkpt lat="44.74879" lon="5.37717">
        <ele>403</ele>
        <time>2018-05-23T12:50:10Z</time>
      </trkpt>
      <trkpt lat="44.74845" lon="5.37784">
        <ele>402</ele>
        <time>2018-05-23T12:50:20Z</time>
      </trkpt>
      <trkpt lat="44.74831" lon="5.37813">
        <ele>401</ele>
        <time>2018-05-23T12:50:33Z</time>
      </trkpt>
      <trkpt lat="44.74827" lon="5.37831">
        <ele>401</ele>
        <time>2018-05-23T12:50:47Z</time>
      </trkpt>
      <trkpt lat="44.74828" lon="5.37888">
        <ele>402</ele>
        <time>2018-05-23T12:51:05Z</time>
      </trkpt>
      <trkpt lat="44.74828" lon="5.37907">
        <ele>402</ele>
        <time>2018-05-23T12:51:13Z</time>
      </trkpt>
      <trkpt lat="44.7482" lon="5.37925">
        <ele>403</ele>
        <time>2018-05-23T12:51:15Z</time>
      </trkpt>
      <trkpt lat="44.74817" lon="5.37929">
        <ele>403</ele>
        <time>2018-05-23T12:51:31Z</time>
      </trkpt>
      <trkpt lat="44.74814" lon="5.37941">
        <ele>403</ele>
        <time>2018-05-23T12:51:33Z</time>
      </trkpt>
      <trkpt lat="44.74814" lon="5.37954">
        <ele>403</ele>
        <time>2018-05-23T12:51:48Z</time>
      </trkpt>
      <trkpt lat="44.74817" lon="5.37965">
        <ele>403</ele>
        <time>2018-05-23T12:52:02Z</time>
      </trkpt>
      <trkpt lat="44.74824" lon="5.37973">
        <ele>404</ele>
        <time>2018-05-23T12:52:12Z</time>
      </trkpt>
      <trkpt lat="44.74831" lon="5.38024">
        <ele>405</ele>
        <time>2018-05-23T12:52:25Z</time>
      </trkpt>
      <trkpt lat="44.74833" lon="5.38043">
        <ele>406</ele>
        <time>2018-05-23T12:52:39Z</time>
      </trkpt>
      <trkpt lat="44.74829" lon="5.38059">
        <ele>406</ele>
        <time>2018-05-23T12:52:53Z</time>
      </trkpt>
      <trkpt lat="44.7482" lon="5.38081">
        <ele>406</ele>
        <time>2018-05-23T12:53:05Z</time>
      </trkpt>
      <trkpt lat="44.74724" lon="5.38249">
        <ele>407</ele>
        <time>2018-05-23T12:53:09Z</time>
      </trkpt>
      <trkpt lat="44.74671" lon="5.38343">
        <ele>407</ele>
        <time>2018-05-23T12:53:23Z</time>
      </trkpt>
      <trkpt lat="44.74658" lon="5.38358">
        <ele>406</ele>
        <time>2018-05-23T12:53:42Z</time>
      </trkpt>
      <trkpt lat="44.74609" lon="5.38423">
        <ele>408</ele>
        <time>2018-05-23T12:53:47Z</time>
      </trkpt>
      <trkpt lat="44.74574" lon="5.38463">
        <ele>408</ele>
        <time>2018-05-23T12:53:49Z</time>
      </trkpt>
      <trkpt lat="44.74532" lon="5.38499">
        <ele>407</ele>
        <time>2018-05-23T12:53:59Z</time>
      </trkpt>
      <trkpt lat="44.74496" lon="5.38524">
        <ele>408</ele>
        <time>2018-05-23T12:54:02Z</time>
      </trkpt>
      <trkpt lat="44.74471" lon="5.3854">
        <ele>408</ele>
        <time>2018-05-23T12:54:07Z</time>
      </trkpt>
      <trkpt lat="44.74455" lon="5.38546">
        <ele>408</ele>
        <time>2018-05-23T12:54:20Z</time>
      </trkpt>
      <trkpt lat="44.74396" lon="5.38567">
        <ele>408</ele>
        <time>2018-05-23T12:54:29Z</time>
      </trkpt>
      <trkpt lat="44.74367" lon="5.38575">
        <ele>408</ele>
        <time>2018-05-23T12:54:49Z</time>
      </trkpt>
      <trkpt lat="44.74044" lon="5.38668">
        <ele>418</ele>
        <time>2018-05-23T12:55:05Z</time>
      </trkpt>
      <trkpt lat="44.74016" lon="5.3868">
        <ele>418</ele>
        <time>2018-05-23T12:55:13Z</time>
      </trkpt>
      <trkpt lat="44.73975" lon="5.38701">
        <ele>419</ele>
        <time>2018-05-23T12:55:29Z</time>
      </trkpt>
      <trkpt lat="44.7382" lon="5.38785">
        <ele>421</ele>
        <time>2018-05-23T12:55:48Z</time>
      </trkpt>
      <trkpt lat="44.73714" lon="5.3884">
        <ele>421</ele>
        <time>2018-05-23T12:56:00Z</time>
      </trkpt>
      <trkpt lat="44.73576" lon="5.38915">
        <ele>419</ele>
        <time>2018-05-23T12:56:03Z</time>
      </trkpt>
      <trkpt lat="44.73439" lon="5.38988">
        <ele>422</ele>
        <time>2018-05-23T12:56:12Z</time>
      </trkpt>
      <trkpt lat="44.73052" lon="5.39196">
        <ele>425</ele>
        <time>2018-05-23T12:56:30Z</time>
      </trkpt>
      <trkpt lat="44.7301" lon="5.39215">
        <ele>425</ele>
        <time>2018-05-23T12:56:46Z</time>
      </trkpt>
      <trkpt lat="44.72993" lon="5.39219">
        <ele>427</ele>
        <time>2018-05-23T12:56:54Z</time>
      </trkpt>
      <trkpt lat="44.72962" lon="5.39221">
        <ele>427</ele>
        <time>2018-05-23T12:56:59Z</time>
      </trkpt>
      <trkpt lat="44.72946" lon="5.39219">
        <ele>427</ele>
        <time>2018-05-23T12:57:13Z</time>
      </trkpt>
      <trkpt lat="44.72919" lon="5.39213">
        <ele>428</ele>
        <time>2018-05-23T12:57:28Z</time>
      </trkpt>
      <trkpt lat="44.72879" lon="5.39207">
        <ele>427</ele>
        <time>2018-05-23T12:57:44Z</time>
      </trkpt>
      <trkpt lat="44.72869" lon="5.39206">
        <ele>426</ele>
        <time>2018-05-23T12:57:59Z</time>
      </trkpt>
      <trkpt lat="44.72855" lon="5.39209">
        <ele>426</ele>
        <time>2018-05-23T12:58:01Z</time>
      </trkpt>
      <trkpt lat="44.72841" lon="5.39215">
        <ele>426</ele>
        <time>2018-05-23T12:58:17Z</time>
      </trkpt>
      <trkpt lat="44.72823" lon="5.39229">
        <ele>425</ele>
        <time>2018-05-23T12:58:31Z</time>
      </trkpt>
      <trkpt lat="44.72806" lon="5.39254">
        <ele>427</ele>
        <time>2018-05-23T12:58:47Z</time>
      </trkpt>
      <trkpt lat="44.72717" lon="5.39414">
        <ele>427</ele>
        <time>2018-05-23T12:58:55Z</time>
      </trkpt>
      <trkpt lat="44.72701" lon="5.39448">
        <ele>429</ele>
        <time>2018-05-23T12:59:05Z</time>
      </trkpt>
      <trkpt lat="44.72698" lon="5.39459">
        <ele>429</ele>
        <time>2018-05-23T12:59:11Z</time>
      </trkpt>
      <trkpt lat="44.72693" lon="5.39495">
        <ele>429</ele>
        <time>2018-05-23T12:59:25Z</time>
      </trkpt>
      <trkpt lat="44.72689" lon="5.3951">
        <ele>434</ele>
        <time>2018-05-23T12:59:36Z</time>
      </trkpt>
      <trkpt lat="44.72683" lon="5.39522">
        <ele>434</ele>
        <time>2018-05-23T12:59:49Z</time>
      </trkpt>
      <trkpt lat="44.72675" lon="5.3953">
        <ele>434</ele>
        <time>2018-05-23T12:59:59Z</time>
      </trkpt>
      <trkpt lat="44.72669" lon="5.39534">
        <ele>435</ele>
        <time>2018-05-23T13:00:04Z</time>
      </trkpt>
      <trkpt lat="44.72652" lon="5.39541">
        <ele>429</ele>
        <time>2018-05-23T13:00:13Z</time>
      </trkpt>
      <trkpt lat="44.72641" lon="5.39552">
        <ele>430</ele>
        <time>2018-05-23T13:00:23Z</time>
      </trkpt>
      <trkpt lat="44.72626" lon="5.39576">
        <ele>430</ele>
        <time>2018-05-23T13:00:27Z</time>
      </trkpt>
      <trkpt lat="44.72589" lon="5.39644">
        <ele>432</ele>
        <time>2018-05-23T13:00:38Z</time>
      </trkpt>
      <trkpt lat="44.7257" lon="5.39675">
        <ele>429</ele>
        <time>2018-05-23T13:00:49Z</time>
      </trkpt>
      <trkpt lat="44.72535" lon="5.39722">
        <ele>429</ele>
        <time>2018-05-23T13:01:04Z</time>
      </trkpt>
      <trkpt lat="44.72515" lon="5.39744">
        <ele>428</ele>
        <time>2018-05-23T13:01:10Z</time>
      </trkpt>
      <trkpt lat="44.72477" lon="5.39776">
        <ele>428</ele>
        <time>2018-05-23T13:01:24Z</time>
      </trkpt>
      <trkpt lat="44.72433" lon="5.39803">
        <ele>428</ele>
        <time>2018-05-23T13:01:26Z</time>
      </trkpt>
      <trkpt lat="44.72399" lon="5.39818">
        <ele>428</ele>
        <time>2018-05-23T13:01:33Z</time>
      </trkpt>
      <trkpt lat="44.72245" lon="5.3986">
        <ele>430</ele>
        <time>2018-05-23T13:01:40Z</time>
      </trkpt>
      <trkpt lat="44.72145" lon="5.39887">
        <ele>432</ele>
        <time>2018-05-23T13:01:44Z</time>
      </trkpt>
      <trkpt lat="44.72019" lon="5.3992">
        <ele>436</ele>
        <time>2018-05-23T13:01:59Z</time>
      </trkpt>
      <trkpt lat="44.71883" lon="5.39965">
        <ele>438</ele>
        <time>2018-05-23T13:02:13Z</time>
      </trkpt>
      <trkpt lat="44.71765" lon="5.40002">
        <ele>439</ele>
        <time>2018-05-23T13:02:16Z</time>
      </trkpt>
      <trkpt lat="44.71759" lon="5.40001">
        <ele>439</ele>
        <time>2018-05-23T13:02:32Z</time>
      </trkpt>
      <trkpt lat="44.71742" lon="5.40006">
        <ele>440</ele>
        <time>2018-05-23T13:02:46Z</time>
      </trkpt>
      <trkpt lat="44.71693" lon="5.40023">
        <ele>441</ele>
        <time>2018-05-23T13:02:50Z</time>
      </trkpt>
      <trkpt lat="44.71642" lon="5.40039">
        <ele>441</ele>
        <time>2018-05-23T13:02:52Z</time>
      </trkpt>
      <trkpt lat="44.71635" lon="5.40044">
        <ele>441</ele>
        <time>2018-05-23T13:03:08Z</time>
      </trkpt>
      <trkpt lat="44.7159" lon="5.40058">
        <ele>441</ele>
        <time>2018-05-23T13:03:23Z</time>
      </trkpt>
      <trkpt lat="44.71514" lon="5.40083">
        <ele>442</ele>
        <time>2018-05-23T13:03:35Z</time>
      </trkpt>
      <trkpt lat="44.71482" lon="5.40093">
        <ele>443</ele>
        <time>2018-05-23T13:03:51Z</time>
      </trkpt>
      <trkpt lat="44.71382" lon="5.40128">
        <ele>442</ele>
        <time>2018-05-23T13:03:59Z</time>
      </trkpt>
      <trkpt lat="44.7129" lon="5.40157">
        <ele>444</ele>
        <time>2018-05-23T13:04:10Z</time>
      </trkpt>
      <trkpt lat="44.71256" lon="5.40168">
        <ele>445</ele>
        <time>2018-05-23T13:04:29Z</time>
      </trkpt>
      <trkpt lat="44.71247" lon="5.40168">
        <ele>445</ele>
        <time>2018-05-23T13:04:47Z</time>
      </trkpt>
      <trkpt lat="44.71226" lon="5.4017">
        <ele>445</ele>
        <time>2018-05-23T13:05:01Z</time>
      </trkpt>
      <trkpt lat="44.7122" lon="5.40172">
        <ele>445</ele>
        <time>2018-05-23T13:05:07Z</time>
      </trkpt>
      <trkpt lat="44.71219" lon="5.4017">
        <ele>445</ele>
        <time>2018-05-23T13:05:26Z</time>
      </trkpt>
      <trkpt lat="44.71218" lon="5.40169">
        <ele>445</ele>
        <time>2018-05-23T13:05:37Z</time>
      </trkpt>
      <trkpt lat="44.71216" lon="5.40168">
        <ele>445</ele>
        <time>2018-05-23T13:05:48Z</time>
      </trkpt>
      <trkpt lat="44.71213" lon="5.40168">
        <ele>445</ele>
        <time>2018-05-23T13:05:59Z</time>
      </trkpt>
      <trkpt lat="44.7121" lon="5.40171">
        <ele>445</ele>
        <time>2018-05-23T13:06:06Z</time>
      </trkpt>
      <trkpt lat="44.7121" lon="5.40173">
        <ele>445</ele>
        <time>2018-05-23T13:06:25Z</time>
      </trkpt>
      <trkpt lat="44.71205" lon="5.40175">
        <ele>444</ele>
        <time>2018-05-23T13:06:41Z</time>
      </trkpt>
      <trkpt lat="44.7119" lon="5.40183">
        <ele>444</ele>
        <time>2018-05-23T13:06:45Z</time>
      </trkpt>
      <trkpt lat="44.71184" lon="5.40188">
        <ele>444</ele>
        <time>2018-05-23T13:06:54Z</time>
      </trkpt>
      <trkpt lat="44.7115" lon="5.40195">
        <ele>444</ele>
        <time>2018-05-23T13:07:00Z</time>
      </trkpt>
      <trkpt lat="44.71113" lon="5.40199">
        <ele>444</ele>
        <time>2018-05-23T13:07:02Z</time>
      </trkpt>
      <trkpt lat="44.71056" lon="5.40197">
        <ele>443</ele>
        <time>2018-05-23T13:07:04Z</time>
      </trkpt>
      <trkpt lat="44.71002" lon="5.40187">
        <ele>443</ele>
        <time>2018-05-23T13:07:23Z</time>
      </trkpt>
      <trkpt lat="44.70944" lon="5.40171">
        <ele>446</ele>
        <time>2018-05-23T13:07:39Z</time>
      </trkpt>
      <trkpt lat="44.70835" lon="5.40128">
        <ele>444</ele>
        <time>2018-05-23T13:07:41Z</time>
      </trkpt>
      <trkpt lat="44.70823" lon="5.40119">
        <ele>443</ele>
        <time>2018-05-23T13:07:58Z</time>
      </trkpt>
      <trkpt lat="44.70816" lon="5.4011">
        <ele>443</ele>
        <time>2018-05-23T13:08:03Z</time>
      </trkpt>
      <trkpt lat="44.70811" lon="5.401">
        <ele>442</ele>
        <time>2018-05-23T13:08:18Z</time>
      </trkpt>
      <trkpt lat="44.708" lon="5.40114">
        <ele>443</ele>
        <time>2018-05-23T13:08:25Z</time>
      </trkpt>
      <trkpt lat="44.70789" lon="5.40129">
        <ele>443</ele>
        <time>2018-05-23T13:08:28Z</time>
      </trkpt>
      <trkpt lat="44.70758" lon="5.40186">
        <ele>449</ele>
        <time>2018-05-23T13:08:30Z</time>
      </trkpt>
      <trkpt lat="44.7073" lon="5.40228">
        <ele>450</ele>
        <time>2018-05-23T13:08:49Z</time>
      </trkpt>
      <trkpt lat="44.70718" lon="5.40242">
        <ele>450</ele>
        <time>2018-05-23T13:09:05Z</time>
      </trkpt>
      <trkpt lat="44.70689" lon="5.40263">
        <ele>455</ele>
        <time>2018-05-23T13:09:11Z</time>
      </trkpt>
      <trkpt lat="44.70664" lon="5.40279">
        <ele>448</ele>
        <time>2018-05-23T13:09:27Z</time>
      </trkpt>
      <trkpt lat="44.70653" lon="5.40283">
        <ele>449</ele>
        <time>2018-05-23T13:09:40Z</time>
      </trkpt>
      <trkpt lat="44.70628" lon="5.40285">
        <ele>449</ele>
        <time>2018-05-23T13:09:53Z</time>
      </trkpt>
      <trkpt lat="44.70574" lon="5.40289">
        <ele>448</ele>
        <time>2018-05-23T13:10:13Z</time>
      </trkpt>
      <trkpt lat="44.70561" lon="5.40289">
        <ele>448</ele>
        <time>2018-05-23T13:10:17Z</time>
      </trkpt>
      <trkpt lat="44.70541" lon="5.40287">
        <ele>448</ele>
        <time>2018-05-23T13:10:21Z</time>
      </trkpt>
      <trkpt lat="44.70504" lon="5.40273">
        <ele>447</ele>
        <time>2018-05-23T13:10:28Z</time>
      </trkpt>
      <trkpt lat="44.7048" lon="5.40263">
        <ele>446</ele>
        <time>2018-05-23T13:10:33Z</time>
      </trkpt>
      <trkpt lat="44.70461" lon="5.40259">
        <ele>446</ele>
        <time>2018-05-23T13:10:42Z</time>
      </trkpt>
      <trkpt lat="44.70449" lon="5.40261">
        <ele>446</ele>
        <time>2018-05-23T13:10:59Z</time>
      </trkpt>
      <trkpt lat="44.70437" lon="5.40267">
        <ele>445</ele>
        <time>2018-05-23T13:11:16Z</time>
      </trkpt>
      <trkpt lat="44.70427" lon="5.40278">
        <ele>446</ele>
        <time>2018-05-23T13:11:30Z</time>
      </trkpt>
      <trkpt lat="44.7042" lon="5.40291">
        <ele>447</ele>
        <time>2018-05-23T13:11:33Z</time>
      </trkpt>
      <trkpt lat="44.70413" lon="5.40311">
        <ele>447</ele>
        <time>2018-05-23T13:11:43Z</time>
      </trkpt>
      <trkpt lat="44.70405" lon="5.40343">
        <ele>450</ele>
        <time>2018-05-23T13:12:02Z</time>
      </trkpt>
      <trkpt lat="44.70387" lon="5.40424">
        <ele>456</ele>
        <time>2018-05-23T13:12:15Z</time>
      </trkpt>
      <trkpt lat="44.70382" lon="5.40453">
        <ele>457</ele>
        <time>2018-05-23T13:12:22Z</time>
      </trkpt>
      <trkpt lat="44.70382" lon="5.40473">
        <ele>457</ele>
        <time>2018-05-23T13:12:41Z</time>
      </trkpt>
      <trkpt lat="44.70384" lon="5.40542">
        <ele>460</ele>
        <time>2018-05-23T13:12:43Z</time>
      </trkpt>
      <trkpt lat="44.70377" lon="5.40599">
        <ele>463</ele>
        <time>2018-05-23T13:12:58Z</time>
      </trkpt>
      <trkpt lat="44.70377" lon="5.40623">
        <ele>463</ele>
        <time>2018-05-23T13:13:04Z</time>
      </trkpt>
      <trkpt lat="44.70379" lon="5.40654">
        <ele>463</ele>
        <time>2018-05-23T13:13:21Z</time>
      </trkpt>
      <trkpt lat="44.70378" lon="5.40682">
        <ele>463</ele>
        <time>2018-05-23T13:13:26Z</time>
      </trkpt>
      <trkpt lat="44.70375" lon="5.4073">
        <ele>463</ele>
        <time>2018-05-23T13:13:45Z</time>
      </trkpt>
      <trkpt lat="44.70361" lon="5.40834">
        <ele>461</ele>
        <time>2018-05-23T13:13:54Z</time>
      </trkpt>
      <trkpt lat="44.70354" lon="5.4086">
        <ele>461</ele>
        <time>2018-05-23T13:14:05Z</time>
      </trkpt>
      <trkpt lat="44.7034" lon="5.40897">
        <ele>461</ele>
        <time>2018-05-23T13:14:16Z</time>
      </trkpt>
      <trkpt lat="44.70235" lon="5.41149">
        <ele>471</ele>
        <time>2018-05-23T13:14:32Z</time>
      </trkpt>
      <trkpt lat="44.7019" lon="5.41261">
        <ele>469</ele>
        <time>2018-05-23T13:14:37Z</time>
      </trkpt>
      <trkpt lat="44.70173" lon="5.41297">
        <ele>470</ele>
        <time>2018-05-23T13:14:54Z</time>
      </trkpt>
      <trkpt lat="44.70134" lon="5.41359">
        <ele>471</ele>
        <time>2018-05-23T13:15:12Z</time>
      </trkpt>
      <trkpt lat="44.70031" lon="5.41519">
        <ele>476</ele>
        <time>2018-05-23T13:15:28Z</time>
      </trkpt>
      <trkpt lat="44.69989" lon="5.41587">
        <ele>479</ele>
        <time>2018-05-23T13:15:43Z</time>
      </trkpt>
      <trkpt lat="44.69971" lon="5.41624">
        <ele>481</ele>
        <time>2018-05-23T13:15:55Z</time>
      </trkpt>
      <trkpt lat="44.69957" lon="5.41662">
        <ele>482</ele>
        <time>2018-05-23T13:16:02Z</time>
      </trkpt>
      <trkpt lat="44.69936" lon="5.41735">
        <ele>482</ele>
        <time>2018-05-23T13:16:06Z</time>
      </trkpt>
      <trkpt lat="44.69925" lon="5.41767">
        <ele>485</ele>
        <time>2018-05-23T13:16:22Z</time>
      </trkpt>
      <trkpt lat="44.69912" lon="5.4179">
        <ele>485</ele>
        <time>2018-05-23T13:16:24Z</time>
      </trkpt>
      <trkpt lat="44.69905" lon="5.41801">
        <ele>485</ele>
        <time>2018-05-23T13:16:41Z</time>
      </trkpt>
      <trkpt lat="44.69881" lon="5.41829">
        <ele>486</ele>
        <time>2018-05-23T13:16:48Z</time>
      </trkpt>
      <trkpt lat="44.69821" lon="5.41882">
        <ele>490</ele>
        <time>2018-05-23T13:17:07Z</time>
      </trkpt>
      <trkpt lat="44.69736" lon="5.41954">
        <ele>495</ele>
        <time>2018-05-23T13:17:24Z</time>
      </trkpt>
      <trkpt lat="44.69692" lon="5.41998">
        <ele>496</ele>
        <time>2018-05-23T13:17:31Z</time>
      </trkpt>
      <trkpt lat="44.69666" lon="5.42027">
        <ele>499</ele>
        <time>2018-05-23T13:17:49Z</time>
      </trkpt>
      <trkpt lat="44.69637" lon="5.42064">
        <ele>499</ele>
        <time>2018-05-23T13:17:54Z</time>
      </trkpt>
      <trkpt lat="44.69604" lon="5.42112">
        <ele>496</ele>
        <time>2018-05-23T13:18:07Z</time>
      </trkpt>
      <trkpt lat="44.69586" lon="5.42146">
        <ele>495</ele>
        <time>2018-05-23T13:18:12Z</time>
      </trkpt>
      <trkpt lat="44.69569" lon="5.42182">
        <ele>497</ele>
        <time>2018-05-23T13:18:31Z</time>
      </trkpt>
      <trkpt lat="44.6943" lon="5.42477">
        <ele>509</ele>
        <time>2018-05-23T13:18:44Z</time>
      </trkpt>
      <trkpt lat="44.69362" lon="5.42621">
        <ele>513</ele>
        <time>2018-05-23T13:18:46Z</time>
      </trkpt>
      <trkpt lat="44.69321" lon="5.42713">
        <ele>513</ele>
        <time>2018-05-23T13:18:56Z</time>
      </trkpt>
      <trkpt lat="44.69216" lon="5.42943">
        <ele>521</ele>
        <time>2018-05-23T13:19:02Z</time>
      </trkpt>
      <trkpt lat="44.69197" lon="5.42967">
        <ele>521</ele>
        <time>2018-05-23T13:19:15Z</time>
      </trkpt>
      <trkpt lat="44.69193" lon="5.42968">
        <ele>521</ele>
        <time>2018-05-23T13:19:28Z</time>
      </trkpt>
      <trkpt lat="44.69187" lon="5.42976">
        <ele>520</ele>
        <time>2018-05-23T13:19:44Z</time>
      </trkpt>
      <trkpt lat="44.69183" lon="5.43004">
        <ele>521</ele>
        <time>2018-05-23T13:19:46Z</time>
      </trkpt>
      <trkpt lat="44.69182" lon="5.43013">
        <ele>522</ele>
        <time>2018-05-23T13:19:51Z</time>
      </trkpt>
      <trkpt lat="44.69158" lon="5.43072">
        <ele>519</ele>
        <time>2018-05-23T13:19:56Z</time>
      </trkpt>
      <trkpt lat="44.6913" lon="5.43136">
        <ele>522</ele>
        <time>2018-05-23T13:20:15Z</time>
      </trkpt>
      <trkpt lat="44.69112" lon="5.43169">
        <ele>525</ele>
        <time>2018-05-23T13:20:31Z</time>
      </trkpt>
      <trkpt lat="44.69092" lon="5.43202">
        <ele>526</ele>
        <time>2018-05-23T13:20:49Z</time>
      </trkpt>
      <trkpt lat="44.69076" lon="5.43225">
        <ele>525</ele>
        <time>2018-05-23T13:20:51Z</time>
      </trkpt>
      <trkpt lat="44.69068" lon="5.43234">
        <ele>526</ele>
        <time>2018-05-23T13:21:04Z</time>
      </trkpt>
      <trkpt lat="44.69049" lon="5.43251">
        <ele>528</ele>
        <time>2018-05-23T13:21:14Z</time>
      </trkpt>
      <trkpt lat="44.69024" lon="5.43278">
        <ele>528</ele>
        <time>2018-05-23T13:21:24Z</time>
      </trkpt>
      <trkpt lat="44.69019" lon="5.43289">
        <ele>529</ele>
        <time>2018-05-23T13:21:34Z</time>
      </trkpt>
      <trkpt lat="44.68996" lon="5.43313">
        <ele>528</ele>
        <time>2018-05-23T13:21:46Z</time>
      </trkpt>
      <trkpt lat="44.68955" lon="5.43354">
        <ele>532</ele>
        <time>2018-05-23T13:21:57Z</time>
      </trkpt>
      <trkpt lat="44.68841" lon="5.43468">
        <ele>534</ele>
        <time>2018-05-23T13:22:12Z</time>
      </trkpt>
      <trkpt lat="44.68689" lon="5.43615">
        <ele>539</ele>
        <time>2018-05-23T13:22:27Z</time>
      </trkpt>
      <trkpt lat="44.68637" lon="5.4367">
        <ele>538</ele>
        <time>2018-05-23T13:22:36Z</time>
      </trkpt>
      <trkpt lat="44.68591" lon="5.43734">
        <ele>536</ele>
        <time>2018-05-23T13:22:53Z</time>
      </trkpt>
      <trkpt lat="44.68558" lon="5.43793">
        <ele>533</ele>
        <time>2018-05-23T13:22:59Z</time>
      </trkpt>
      <trkpt lat="44.68535" lon="5.43842">
        <ele>533</ele>
        <time>2018-05-23T13:23:15Z</time>
      </trkpt>
      <trkpt lat="44.6851" lon="5.43907">
        <ele>531</ele>
        <time>2018-05-23T13:23:35Z</time>
      </trkpt>
      <trkpt lat="44.68458" lon="5.44085">
        <ele>526</ele>
        <time>2018-05-23T13:23:55Z</time>
      </trkpt>
      <trkpt lat="44.68398" lon="5.44289">
        <ele>521</ele>
        <time>2018-05-23T13:24:02Z</time>
      </trkpt>
      <trkpt lat="44.68385" lon="5.44344">
        <ele>521</ele>
        <time>2018-05-23T13:24:14Z</time>
      </trkpt>
      <trkpt lat="44.68383" lon="5.44365">
        <ele>520</ele>
        <time>2018-05-23T13:24:21Z</time>
      </trkpt>
      <trkpt lat="44.68381" lon="5.44397">
        <ele>520</ele>
        <time>2018-05-23T13:24:37Z</time>
      </trkpt>
      <trkpt lat="44.68383" lon="5.44445">
        <ele>520</ele>
        <time>2018-05-23T13:24:55Z</time>
      </trkpt>
      <trkpt lat="44.68425" lon="5.44767">
        <ele>524</ele>
        <time>2018-05-23T13:25:13Z</time>
      </trkpt>
      <trkpt lat="44.68434" lon="5.44861">
        <ele>524</ele>
        <time>2018-05-23T13:25:22Z</time>
      </trkpt>
      <trkpt lat="44.68444" lon="5.45061">
        <ele>526</ele>
        <time>2018-05-23T13:25:35Z</time>
      </trkpt>
      <trkpt lat="44.68453" lon="5.45177">
        <ele>525</ele>
        <time>2018-05-23T13:25:49Z</time>
      </trkpt>
      <trkpt lat="44.68469" lon="5.45294">
        <ele>525</ele>
        <time>2018-05-23T13:26:04Z</time>
      </trkpt>
      <trkpt lat="44.68492" lon="5.45393">
        <ele>526</ele>
        <time>2018-05-23T13:26:24Z</time>
      </trkpt>
      <trkpt lat="44.68502" lon="5.4545">
        <ele>530</ele>
        <time>2018-05-23T13:26:41Z</time>
      </trkpt>
      <trkpt lat="44.68506" lon="5.45507">
        <ele>531</ele>
        <time>2018-05-23T13:26:54Z</time>
      </trkpt>
      <trkpt lat="44.6851" lon="5.45577">
        <ele>531</ele>
        <time>2018-05-23T13:27:00Z</time>
      </trkpt>
      <trkpt lat="44.68517" lon="5.45626">
        <ele>531</ele>
        <time>2018-05-23T13:27:17Z</time>
      </trkpt>
      <trkpt lat="44.68542" lon="5.4574">
        <ele>532</ele>
        <time>2018-05-23T13:27:33Z</time>
      </trkpt>
      <trkpt lat="44.68562" lon="5.45809">
        <ele>532</ele>
        <time>2018-05-23T13:27:46Z</time>
      </trkpt>
      <trkpt lat="44.68653" lon="5.46023">
        <ele>535</ele>
        <time>2018-05-23T13:27:54Z</time>
      </trkpt>
      <trkpt lat="44.68667" lon="5.46068">
        <ele>537</ele>
        <time>2018-05-23T13:28:08Z</time>
      </trkpt>
      <trkpt lat="44.6867" lon="5.4608">
        <ele>537</ele>
        <time>2018-05-23T13:28:23Z</time>
      </trkpt>
      <trkpt lat="44.68712" lon="5.46396">
        <ele>538</ele>
        <time>2018-05-23T13:28:39Z</time>
      </trkpt>
      <trkpt lat="44.68724" lon="5.46453">
        <ele>537</ele>
        <time>2018-05-23T13:28:42Z</time>
      </trkpt>
      <trkpt lat="44.68733" lon="5.46479">
        <ele>537</ele>
        <time>2018-05-23T13:29:01Z</time>
      </trkpt>
      <trkpt lat="44.6875" lon="5.46517">
        <ele>539</ele>
        <time>2018-05-23T13:29:16Z</time>
      </trkpt>
      <trkpt lat="44.68802" lon="5.46647">
        <ele>540</ele>
        <time>2018-05-23T13:29:22Z</time>
      </trkpt>
      <trkpt lat="44.68844" lon="5.46754">
        <ele>542</ele>
        <time>2018-05-23T13:29:37Z</time>
      </trkpt>
      <trkpt lat="44.68846" lon="5.46758">
        <ele>542</ele>
        <time>2018-05-23T13:29:43Z</time>
      </trkpt>
      <trkpt lat="44.6885" lon="5.46774">
        <ele>543</ele>
        <time>2018-05-23T13:30:01Z</time>
      </trkpt>
      <trkpt lat="44.68905" lon="5.46933">
        <ele>546</ele>
        <time>2018-05-23T13:30:03Z</time>
      </trkpt>
      <trkpt lat="44.68962" lon="5.47075">
        <ele>547</ele>
        <time>2018-05-23T13:30:21Z</time>
      </trkpt>
      <trkpt lat="44.68974" lon="5.47093">
        <ele>547</ele>
        <time>2018-05-23T13:30:23Z</time>
      </trkpt>
      <trkpt lat="44.6901" lon="5.47189">
        <ele>548</ele>
        <time>2018-05-23T13:30:34Z</time>
      </trkpt>
      <trkpt lat="44.69043" lon="5.47274">
        <ele>548</ele>
        <time>2018-05-23T13:30:36Z</time>
      </trkpt>
      <trkpt lat="44.69133" lon="5.47507">
        <ele>552</ele>
        <time>2018-05-23T13:30:42Z</time>
      </trkpt>
      <trkpt lat="44.69182" lon="5.47633">
        <ele>556</ele>
        <time>2018-05-23T13:30:54Z</time>
      </trkpt>
      <trkpt lat="44.69253" lon="5.47821">
        <ele>565</ele>
        <time>2018-05-23T13:31:13Z</time>
      </trkpt>
      <trkpt lat="44.69283" lon="5.47931">
        <ele>569</ele>
        <time>2018-05-23T13:31:28Z</time>
      </trkpt>
      <trkpt lat="44.69372" lon="5.48254">
        <ele>573</ele>
        <time>2018-05-23T13:31:47Z</time>
      </trkpt>
      <trkpt lat="44.69395" lon="5.48332">
        <ele>572</ele>
        <time>2018-05-23T13:31:57Z</time>
      </trkpt>
      <trkpt lat="44.69411" lon="5.484">
        <ele>571</ele>
        <time>2018-05-23T13:32:01Z</time>
      </trkpt>
      <trkpt lat="44.69419" lon="5.48433">
        <ele>578</ele>
        <time>2018-05-23T13:32:21Z</time>
      </trkpt>
      <trkpt lat="44.69422" lon="5.48458">
        <ele>579</ele>
        <time>2018-05-23T13:32:29Z</time>
      </trkpt>
      <trkpt lat="44.69426" lon="5.48508">
        <ele>575</ele>
        <time>2018-05-23T13:32:42Z</time>
      </trkpt>
      <trkpt lat="44.6943" lon="5.48539">
        <ele>576</ele>
        <time>2018-05-23T13:33:01Z</time>
      </trkpt>
      <trkpt lat="44.69445" lon="5.48744">
        <ele>568</ele>
        <time>2018-05-23T13:33:14Z</time>
      </trkpt>
      <trkpt lat="44.69449" lon="5.48852">
        <ele>568</ele>
        <time>2018-05-23T13:33:25Z</time>
      </trkpt>
      <trkpt lat="44.69449" lon="5.489">
        <ele>569</ele>
        <time>2018-05-23T13:33:42Z</time>
      </trkpt>
      <trkpt lat="44.69445" lon="5.48942">
        <ele>571</ele>
        <time>2018-05-23T13:33:56Z</time>
      </trkpt>
      <trkpt lat="44.69438" lon="5.48984">
        <ele>571</ele>
        <time>2018-05-23T13:34:11Z</time>
      </trkpt>
      <trkpt lat="44.69431" lon="5.4901">
        <ele>571</ele>
        <time>2018-05-23T13:34:15Z</time>
      </trkpt>
      <trkpt lat="44.69416" lon="5.49041">
        <ele>568</ele>
        <time>2018-05-23T13:34:19Z</time>
      </trkpt>
      <trkpt lat="44.69404" lon="5.49055">
        <ele>568</ele>
        <time>2018-05-23T13:34:36Z</time>
      </trkpt>
      <trkpt lat="44.69387" lon="5.49067">
        <ele>568</ele>
        <time>2018-05-23T13:34:47Z</time>
      </trkpt>
      <trkpt lat="44.69377" lon="5.49072">
        <ele>568</ele>
        <time>2018-05-23T13:35:03Z</time>
      </trkpt>
      <trkpt lat="44.69368" lon="5.49073">
        <ele>567</ele>
        <time>2018-05-23T13:35:14Z</time>
      </trkpt>
      <trkpt lat="44.69342" lon="5.49071">
        <ele>566</ele>
        <time>2018-05-23T13:35:21Z</time>
      </trkpt>
      <trkpt lat="44.69309" lon="5.49059">
        <ele>568</ele>
        <time>2018-05-23T13:35:35Z</time>
      </trkpt>
      <trkpt lat="44.69283" lon="5.49054">
        <ele>569</ele>
        <time>2018-05-23T13:35:49Z</time>
      </trkpt>
      <trkpt lat="44.69267" lon="5.49056">
        <ele>570</ele>
        <time>2018-05-23T13:35:55Z</time>
      </trkpt>
      <trkpt lat="44.69255" lon="5.49062">
        <ele>569</ele>
        <time>2018-05-23T13:36:04Z</time>
      </trkpt>
      <trkpt lat="44.69239" lon="5.49071">
        <ele>576</ele>
        <time>2018-05-23T13:36:12Z</time>
      </trkpt>
      <trkpt lat="44.69231" lon="5.49075">
        <ele>578</ele>
        <time>2018-05-23T13:36:26Z</time>
      </trkpt>
      <trkpt lat="44.69216" lon="5.491">
        <ele>571</ele>
        <time>2018-05-23T13:36:40Z</time>
      </trkpt>
      <trkpt lat="44.69204" lon="5.49125">
        <ele>570</ele>
        <time>2018-05-23T13:36:53Z</time>
      </trkpt>
      <trkpt lat="44.69194" lon="5.49153">
        <ele>569</ele>
        <time>2018-05-23T13:36:59Z</time>
      </trkpt>
      <trkpt lat="44.69184" lon="5.49203">
        <ele>565</ele>
        <time>2018-05-23T13:37:15Z</time>
      </trkpt>
      <trkpt lat="44.69162" lon="5.49372">
        <ele>570</ele>
        <time>2018-05-23T13:37:23Z</time>
      </trkpt>
      <trkpt lat="44.69153" lon="5.49428">
        <ele>570</ele>
        <time>2018-05-23T13:37:38Z</time>
      </trkpt>
      <trkpt lat="44.69145" lon="5.49459">
        <ele>571</ele>
        <time>2018-05-23T13:37:58Z</time>
      </trkpt>
      <trkpt lat="44.69116" lon="5.49535">
        <ele>570</ele>
        <time>2018-05-23T13:38:07Z</time>
      </trkpt>
      <trkpt lat="44.6908" lon="5.49635">
        <ele>573</ele>
        <time>2018-05-23T13:38:09Z</time>
      </trkpt>
      <trkpt lat="44.6906" lon="5.49699">
        <ele>574</ele>
        <time>2018-05-23T13:38:12Z</time>
      </trkpt>
      <trkpt lat="44.69038" lon="5.49773">
        <ele>575</ele>
        <time>2018-05-23T13:38:17Z</time>
      </trkpt>
      <trkpt lat="44.69" lon="5.49855">
        <ele>579</ele>
        <time>2018-05-23T13:38:34Z</time>
      </trkpt>
      <trkpt lat="44.68977" lon="5.49902">
        <ele>579</ele>
        <time>2018-05-23T13:38:36Z</time>
      </trkpt>
      <trkpt lat="44.68948" lon="5.49944">
        <ele>580</ele>
        <time>2018-05-23T13:38:44Z</time>
      </trkpt>
      <trkpt lat="44.68914" lon="5.49988">
        <ele>584</ele>
        <time>2018-05-23T13:39:01Z</time>
      </trkpt>
      <trkpt lat="44.68893" lon="5.50023">
        <ele>584</ele>
        <time>2018-05-23T13:39:14Z</time>
      </trkpt>
      <trkpt lat="44.68837" lon="5.5014">
        <ele>583</ele>
        <time>2018-05-23T13:39:28Z</time>
      </trkpt>
      <trkpt lat="44.68807" lon="5.50184">
        <ele>586</ele>
        <time>2018-05-23T13:39:32Z</time>
      </trkpt>
      <trkpt lat="44.68776" lon="5.50227">
        <ele>587</ele>
        <time>2018-05-23T13:39:35Z</time>
      </trkpt>
      <trkpt lat="44.68752" lon="5.50272">
        <ele>587</ele>
        <time>2018-05-23T13:39:38Z</time>
      </trkpt>
      <trkpt lat="44.68718" lon="5.50359">
        <ele>602</ele>
        <time>2018-05-23T13:39:41Z</time>
      </trkpt>
      <trkpt lat="44.68711" lon="5.50391">
        <ele>604</ele>
        <time>2018-05-23T13:39:44Z</time>
      </trkpt>
      <trkpt lat="44.68712" lon="5.50414">
        <ele>604</ele>
        <time>2018-05-23T13:39:49Z</time>
      </trkpt>
      <trkpt lat="44.68714" lon="5.50427">
        <ele>608</ele>
        <time>2018-05-23T13:39:51Z</time>
      </trkpt>
      <trkpt lat="44.68724" lon="5.50457">
        <ele>608</ele>
        <time>2018-05-23T13:39:57Z</time>
      </trkpt>
      <trkpt lat="44.68753" lon="5.50513">
        <ele>596</ele>
        <time>2018-05-23T13:40:00Z</time>
      </trkpt>
      <trkpt lat="44.68783" lon="5.50572">
        <ele>597</ele>
        <time>2018-05-23T13:40:08Z</time>
      </trkpt>
      <trkpt lat="44.68795" lon="5.50602">
        <ele>600</ele>
        <time>2018-05-23T13:40:10Z</time>
      </trkpt>
      <trkpt lat="44.68796" lon="5.50621">
        <ele>601</ele>
        <time>2018-05-23T13:40:13Z</time>
      </trkpt>
      <trkpt lat="44.6879" lon="5.50675">
        <ele>606</ele>
        <time>2018-05-23T13:40:21Z</time>
      </trkpt>
      <trkpt lat="44.6879" lon="5.50686">
        <ele>606</ele>
        <time>2018-05-23T13:40:39Z</time>
      </trkpt>
      <trkpt lat="44.68794" lon="5.5072">
        <ele>606</ele>
        <time>2018-05-23T13:40:53Z</time>
      </trkpt>
      <trkpt lat="44.68806" lon="5.50792">
        <ele>606</ele>
        <time>2018-05-23T13:41:07Z</time>
      </trkpt>
      <trkpt lat="44.68807" lon="5.5083">
        <ele>605</ele>
        <time>2018-05-23T13:41:20Z</time>
      </trkpt>
      <trkpt lat="44.68811" lon="5.50867">
        <ele>609</ele>
        <time>2018-05-23T13:41:30Z</time>
      </trkpt>
      <trkpt lat="44.68832" lon="5.50974">
        <ele>611</ele>
        <time>2018-05-23T13:41:45Z</time>
      </trkpt>
      <trkpt lat="44.68832" lon="5.50995">
        <ele>606</ele>
        <time>2018-05-23T13:41:58Z</time>
      </trkpt>
      <trkpt lat="44.68818" lon="5.51038">
        <ele>611</ele>
        <time>2018-05-23T13:42:12Z</time>
      </trkpt>
      <trkpt lat="44.68794" lon="5.51103">
        <ele>609</ele>
        <time>2018-05-23T13:42:22Z</time>
      </trkpt>
      <trkpt lat="44.68787" lon="5.51122">
        <ele>609</ele>
        <time>2018-05-23T13:42:38Z</time>
      </trkpt>
      <trkpt lat="44.68774" lon="5.51153">
        <ele>612</ele>
        <time>2018-05-23T13:42:51Z</time>
      </trkpt>
      <trkpt lat="44.68753" lon="5.51188">
        <ele>609</ele>
        <time>2018-05-23T13:43:05Z</time>
      </trkpt>
      <trkpt lat="44.68744" lon="5.51215">
        <ele>628</ele>
        <time>2018-05-23T13:43:13Z</time>
      </trkpt>
      <trkpt lat="44.68733" lon="5.51255">
        <ele>615</ele>
        <time>2018-05-23T13:43:20Z</time>
      </trkpt>
      <trkpt lat="44.68709" lon="5.51323">
        <ele>621</ele>
        <time>2018-05-23T13:43:27Z</time>
      </trkpt>
      <trkpt lat="44.68701" lon="5.5137">
        <ele>610</ele>
        <time>2018-05-23T13:43:32Z</time>
      </trkpt>
      <trkpt lat="44.68695" lon="5.51385">
        <ele>609</ele>
        <time>2018-05-23T13:43:35Z</time>
      </trkpt>
      <trkpt lat="44.68686" lon="5.51398">
        <ele>609</ele>
        <time>2018-05-23T13:43:55Z</time>
      </trkpt>
      <trkpt lat="44.68647" lon="5.51425">
        <ele>618</ele>
        <time>2018-05-23T13:44:08Z</time>
      </trkpt>
      <trkpt lat="44.68634" lon="5.51439">
        <ele>621</ele>
        <time>2018-05-23T13:44:12Z</time>
      </trkpt>
      <trkpt lat="44.68623" lon="5.51459">
        <ele>621</ele>
        <time>2018-05-23T13:44:14Z</time>
      </trkpt>
      <trkpt lat="44.68602" lon="5.51515">
        <ele>610</ele>
        <time>2018-05-23T13:44:33Z</time>
      </trkpt>
      <trkpt lat="44.68585" lon="5.5155">
        <ele>605</ele>
        <time>2018-05-23T13:44:35Z</time>
      </trkpt>
      <trkpt lat="44.6857" lon="5.51572">
        <ele>616</ele>
        <time>2018-05-23T13:44:55Z</time>
      </trkpt>
      <trkpt lat="44.68504" lon="5.51656">
        <ele>602</ele>
        <time>2018-05-23T13:45:07Z</time>
      </trkpt>
      <trkpt lat="44.68447" lon="5.51731">
        <ele>600</ele>
        <time>2018-05-23T13:45:20Z</time>
      </trkpt>
      <trkpt lat="44.68362" lon="5.51842">
        <ele>599</ele>
        <time>2018-05-23T13:45:35Z</time>
      </trkpt>
      <trkpt lat="44.68277" lon="5.51948">
        <ele>608</ele>
        <time>2018-05-23T13:45:37Z</time>
      </trkpt>
      <trkpt lat="44.68224" lon="5.51999">
        <ele>619</ele>
        <time>2018-05-23T13:45:56Z</time>
      </trkpt>
      <trkpt lat="44.68121" lon="5.52097">
        <ele>616</ele>
        <time>2018-05-23T13:45:59Z</time>
      </trkpt>
      <trkpt lat="44.6811" lon="5.52108">
        <ele>617</ele>
        <time>2018-05-23T13:46:14Z</time>
      </trkpt>
      <trkpt lat="44.68102" lon="5.52124">
        <ele>616</ele>
        <time>2018-05-23T13:46:21Z</time>
      </trkpt>
      <trkpt lat="44.68098" lon="5.52141">
        <ele>615</ele>
        <time>2018-05-23T13:46:25Z</time>
      </trkpt>
      <trkpt lat="44.68099" lon="5.52167">
        <ele>614</ele>
        <time>2018-05-23T13:46:45Z</time>
      </trkpt>
      <trkpt lat="44.68113" lon="5.52208">
        <ele>617</ele>
        <time>2018-05-23T13:46:57Z</time>
      </trkpt>
      <trkpt lat="44.68118" lon="5.52227">
        <ele>618</ele>
        <time>2018-05-23T13:47:00Z</time>
      </trkpt>
      <trkpt lat="44.68118" lon="5.52246">
        <ele>618</ele>
        <time>2018-05-23T13:47:04Z</time>
      </trkpt>
      <trkpt lat="44.68117" lon="5.52262">
        <ele>626</ele>
        <time>2018-05-23T13:47:19Z</time>
      </trkpt>
      <trkpt lat="44.68112" lon="5.52275">
        <ele>626</ele>
        <time>2018-05-23T13:47:36Z</time>
      </trkpt>
      <trkpt lat="44.6809" lon="5.52324">
        <ele>619</ele>
        <time>2018-05-23T13:47:38Z</time>
      </trkpt>
      <trkpt lat="44.68056" lon="5.52402">
        <ele>620</ele>
        <time>2018-05-23T13:47:49Z</time>
      </trkpt>
      <trkpt lat="44.68049" lon="5.52425">
        <ele>623</ele>
        <time>2018-05-23T13:47:56Z</time>
      </trkpt>
      <trkpt lat="44.68047" lon="5.52464">
        <ele>624</ele>
        <time>2018-05-23T13:48:14Z</time>
      </trkpt>
      <trkpt lat="44.68057" lon="5.52533">
        <ele>629</ele>
        <time>2018-05-23T13:48:24Z</time>
      </trkpt>
      <trkpt lat="44.68061" lon="5.52568">
        <ele>630</ele>
        <time>2018-05-23T13:48:33Z</time>
      </trkpt>
      <trkpt lat="44.68058" lon="5.52585">
        <ele>631</ele>
        <time>2018-05-23T13:48:42Z</time>
      </trkpt>
      <trkpt lat="44.68051" lon="5.52604">
        <ele>631</ele>
        <time>2018-05-23T13:49:01Z</time>
      </trkpt>
      <trkpt lat="44.67956" lon="5.5276">
        <ele>638</ele>
        <time>2018-05-23T13:49:17Z</time>
      </trkpt>
      <trkpt lat="44.67839" lon="5.52954">
        <ele>637</ele>
        <time>2018-05-23T13:49:22Z</time>
      </trkpt>
      <trkpt lat="44.67799" lon="5.53018">
        <ele>640</ele>
        <time>2018-05-23T13:49:32Z</time>
      </trkpt>
      <trkpt lat="44.67774" lon="5.53052">
        <ele>640</ele>
        <time>2018-05-23T13:49:44Z</time>
      </trkpt>
      <trkpt lat="44.67758" lon="5.53071">
        <ele>635</ele>
        <time>2018-05-23T13:49:52Z</time>
      </trkpt>
      <trkpt lat="44.67732" lon="5.53099">
        <ele>642</ele>
        <time>2018-05-23T13:50:00Z</time>
      </trkpt>
      <trkpt lat="44.67705" lon="5.5312">
        <ele>647</ele>
        <time>2018-05-23T13:50:16Z</time>
      </trkpt>
      <trkpt lat="44.67652" lon="5.53156">
        <ele>643</ele>
        <time>2018-05-23T13:50:22Z</time>
      </trkpt>
      <trkpt lat="44.67632" lon="5.53171">
        <ele>648</ele>
        <time>2018-05-23T13:50:30Z</time>
      </trkpt>
      <trkpt lat="44.67621" lon="5.53183">
        <ele>648</ele>
        <time>2018-05-23T13:50:41Z</time>
      </trkpt>
      <trkpt lat="44.67614" lon="5.53196">
        <ele>649</ele>
        <time>2018-05-23T13:50:53Z</time>
      </trkpt>
      <trkpt lat="44.6761" lon="5.5321">
        <ele>650</ele>
        <time>2018-05-23T13:51:11Z</time>
      </trkpt>
      <trkpt lat="44.67604" lon="5.53246">
        <ele>650</ele>
        <time>2018-05-23T13:51:22Z</time>
      </trkpt>
      <trkpt lat="44.67598" lon="5.53268">
        <ele>657</ele>
        <time>2018-05-23T13:51:32Z</time>
      </trkpt>
      <trkpt lat="44.67541" lon="5.53404">
        <ele>650</ele>
        <time>2018-05-23T13:51:39Z</time>
      </trkpt>
      <trkpt lat="44.67532" lon="5.53435">
        <ele>648</ele>
        <time>2018-05-23T13:51:47Z</time>
      </trkpt>
      <trkpt lat="44.67525" lon="5.5348">
        <ele>647</ele>
        <time>2018-05-23T13:51:55Z</time>
      </trkpt>
      <trkpt lat="44.67517" lon="5.53516">
        <ele>656</ele>
        <time>2018-05-23T13:52:11Z</time>
      </trkpt>
      <trkpt lat="44.67509" lon="5.53532">
        <ele>659</ele>
        <time>2018-05-23T13:52:17Z</time>
      </trkpt>
      <trkpt lat="44.67499" lon="5.53546">
        <ele>657</ele>
        <time>2018-05-23T13:52:23Z</time>
      </trkpt>
      <trkpt lat="44.67487" lon="5.53559">
        <ele>660</ele>
        <time>2018-05-23T13:52:37Z</time>
      </trkpt>
      <trkpt lat="44.6746" lon="5.53582">
        <ele>658</ele>
        <time>2018-05-23T13:52:43Z</time>
      </trkpt>
      <trkpt lat="44.67447" lon="5.53589">
        <ele>678</ele>
        <time>2018-05-23T13:53:01Z</time>
      </trkpt>
      <trkpt lat="44.67432" lon="5.53593">
        <ele>672</ele>
        <time>2018-05-23T13:53:08Z</time>
      </trkpt>
      <trkpt lat="44.67416" lon="5.53595">
        <ele>663</ele>
        <time>2018-05-23T13:53:15Z</time>
      </trkpt>
      <trkpt lat="44.674" lon="5.53593">
        <ele>666</ele>
        <time>2018-05-23T13:53:19Z</time>
      </trkpt>
      <trkpt lat="44.67376" lon="5.53584">
        <ele>667</ele>
        <time>2018-05-23T13:53:30Z</time>
      </trkpt>
      <trkpt lat="44.67316" lon="5.53544">
        <ele>648</ele>
        <time>2018-05-23T13:53:35Z</time>
      </trkpt>
      <trkpt lat="44.6729" lon="5.53531">
        <ele>648</ele>
        <time>2018-05-23T13:53:45Z</time>
      </trkpt>
      <trkpt lat="44.67265" lon="5.53527">
        <ele>648</ele>
        <time>2018-05-23T13:54:01Z</time>
      </trkpt>
      <trkpt lat="44.67256" lon="5.53529">
        <ele>648</ele>
        <time>2018-05-23T13:54:17Z</time>
      </trkpt>
      <trkpt lat="44.67248" lon="5.53534">
        <ele>656</ele>
        <time>2018-05-23T13:54:36Z</time>
      </trkpt>
      <trkpt lat="44.67242" lon="5.53544">
        <ele>656</ele>
        <time>2018-05-23T13:54:44Z</time>
      </trkpt>
      <trkpt lat="44.6724" lon="5.53557">
        <ele>655</ele>
        <time>2018-05-23T13:54:57Z</time>
      </trkpt>
      <trkpt lat="44.6724" lon="5.53598">
        <ele>651</ele>
        <time>2018-05-23T13:55:01Z</time>
      </trkpt>
      <trkpt lat="44.67239" lon="5.53618">
        <ele>655</ele>
        <time>2018-05-23T13:55:08Z</time>
      </trkpt>
      <trkpt lat="44.67234" lon="5.53642">
        <ele>658</ele>
        <time>2018-05-23T13:55:20Z</time>
      </trkpt>
      <trkpt lat="44.67222" lon="5.53675">
        <ele>664</ele>
        <time>2018-05-23T13:55:23Z</time>
      </trkpt>
      <trkpt lat="44.67171" lon="5.53788">
        <ele>669</ele>
        <time>2018-05-23T13:55:40Z</time>
      </trkpt>
      <trkpt lat="44.67148" lon="5.53839">
        <ele>659</ele>
        <time>2018-05-23T13:55:51Z</time>
      </trkpt>
      <trkpt lat="44.6707" lon="5.53944">
        <ele>660</ele>
        <time>2018-05-23T13:55:53Z</time>
      </trkpt>
      <trkpt lat="44.66935" lon="5.54114">
        <ele>668</ele>
        <time>2018-05-23T13:55:57Z</time>
      </trkpt>
      <trkpt lat="44.66866" lon="5.54202">
        <ele>674</ele>
        <time>2018-05-23T13:56:12Z</time>
      </trkpt>
      <trkpt lat="44.66839" lon="5.54238">
        <ele>668</ele>
        <time>2018-05-23T13:56:32Z</time>
      </trkpt>
      <trkpt lat="44.66823" lon="5.54269">
        <ele>672</ele>
        <time>2018-05-23T13:56:41Z</time>
      </trkpt>
      <trkpt lat="44.66814" lon="5.5429">
        <ele>675</ele>
        <time>2018-05-23T13:57:00Z</time>
      </trkpt>
      <trkpt lat="44.66805" lon="5.54317">
        <ele>676</ele>
        <time>2018-05-23T13:57:02Z</time>
      </trkpt>
      <trkpt lat="44.66799" lon="5.54345">
        <ele>675</ele>
        <time>2018-05-23T13:57:13Z</time>
      </trkpt>
      <trkpt lat="44.66799" lon="5.54357">
        <ele>675</ele>
        <time>2018-05-23T13:57:20Z</time>
      </trkpt>
      <trkpt lat="44.66803" lon="5.54369">
        <ele>675</ele>
        <time>2018-05-23T13:57:23Z</time>
      </trkpt>
      <trkpt lat="44.66809" lon="5.54379">
        <ele>674</ele>
        <time>2018-05-23T13:57:26Z</time>
      </trkpt>
      <trkpt lat="44.66818" lon="5.54387">
        <ele>673</ele>
        <time>2018-05-23T13:57:46Z</time>
      </trkpt>
      <trkpt lat="44.66829" lon="5.54399">
        <ele>671</ele>
        <time>2018-05-23T13:57:48Z</time>
      </trkpt>
      <trkpt lat="44.66836" lon="5.54413">
        <ele>671</ele>
        <time>2018-05-23T13:57:58Z</time>
      </trkpt>
      <trkpt lat="44.66839" lon="5.54428">
        <ele>680</ele>
        <time>2018-05-23T13:58:09Z</time>
      </trkpt>
      <trkpt lat="44.66838" lon="5.54445">
        <ele>689</ele>
        <time>2018-05-23T13:58:14Z</time>
      </trkpt>
      <trkpt lat="44.66834" lon="5.54463">
        <ele>693</ele>
        <time>2018-05-23T13:58:24Z</time>
      </trkpt>
      <trkpt lat="44.66825" lon="5.54483">
        <ele>684</ele>
        <time>2018-05-23T13:58:30Z</time>
      </trkpt>
      <trkpt lat="44.66812" lon="5.54502">
        <ele>696</ele>
        <time>2018-05-23T13:58:48Z</time>
      </trkpt>
      <trkpt lat="44.66788" lon="5.54527">
        <ele>698</ele>
        <time>2018-05-23T13:58:53Z</time>
      </trkpt>
      <trkpt lat="44.66717" lon="5.5459">
        <ele>700</ele>
        <time>2018-05-23T13:59:04Z</time>
      </trkpt>
      <trkpt lat="44.66691" lon="5.54619">
        <ele>703</ele>
        <time>2018-05-23T13:59:18Z</time>
      </trkpt>
      <trkpt lat="44.66673" lon="5.54632">
        <ele>703</ele>
        <time>2018-05-23T13:59:30Z</time>
      </trkpt>
      <trkpt lat="44.66647" lon="5.54642">
        <ele>691</ele>
        <time>2018-05-23T13:59:39Z</time>
      </trkpt>
      <trkpt lat="44.66628" lon="5.54651">
        <ele>688</ele>
        <time>2018-05-23T13:59:46Z</time>
      </trkpt>
      <trkpt lat="44.66616" lon="5.54658">
        <ele>686</ele>
        <time>2018-05-23T13:59:51Z</time>
      </trkpt>
      <trkpt lat="44.66609" lon="5.54665">
        <ele>685</ele>
        <time>2018-05-23T14:00:02Z</time>
      </trkpt>
      <trkpt lat="44.66606" lon="5.54674">
        <ele>688</ele>
        <time>2018-05-23T14:00:15Z</time>
      </trkpt>
      <trkpt lat="44.66607" lon="5.54691">
        <ele>690</ele>
        <time>2018-05-23T14:00:31Z</time>
      </trkpt>
      <trkpt lat="44.66624" lon="5.54766">
        <ele>695</ele>
        <time>2018-05-23T14:00:50Z</time>
      </trkpt>
      <trkpt lat="44.66625" lon="5.54776">
        <ele>696</ele>
        <time>2018-05-23T14:00:53Z</time>
      </trkpt>
      <trkpt lat="44.66625" lon="5.54785">
        <ele>696</ele>
        <time>2018-05-23T14:01:13Z</time>
      </trkpt>
      <trkpt lat="44.66644" lon="5.54836">
        <ele>699</ele>
        <time>2018-05-23T14:01:26Z</time>
      </trkpt>
      <trkpt lat="44.6667" lon="5.54901">
        <ele>700</ele>
        <time>2018-05-23T14:01:28Z</time>
      </trkpt>
      <trkpt lat="44.6674" lon="5.55087">
        <ele>691</ele>
        <time>2018-05-23T14:01:44Z</time>
      </trkpt>
      <trkpt lat="44.66789" lon="5.55204">
        <ele>703</ele>
        <time>2018-05-23T14:01:57Z</time>
      </trkpt>
      <trkpt lat="44.66812" lon="5.55258">
        <ele>702</ele>
        <time>2018-05-23T14:02:17Z</time>
      </trkpt>
      <trkpt lat="44.6683" lon="5.5529">
        <ele>701</ele>
        <time>2018-05-23T14:02:20Z</time>
      </trkpt>
      <trkpt lat="44.66873" lon="5.55355">
        <ele>706</ele>
        <time>2018-05-23T14:02:23Z</time>
      </trkpt>
      <trkpt lat="44.66927" lon="5.55434">
        <ele>705</ele>
        <time>2018-05-23T14:02:28Z</time>
      </trkpt>
      <trkpt lat="44.66992" lon="5.55516">
        <ele>704</ele>
        <time>2018-05-23T14:02:45Z</time>
      </trkpt>
      <trkpt lat="44.67042" lon="5.55581">
        <ele>716</ele>
        <time>2018-05-23T14:03:02Z</time>
      </trkpt>
      <trkpt lat="44.67053" lon="5.55593">
        <ele>710</ele>
        <time>2018-05-23T14:03:17Z</time>
      </trkpt>
      <trkpt lat="44.67065" lon="5.55603">
        <ele>711</ele>
        <time>2018-05-23T14:03:24Z</time>
      </trkpt>
      <trkpt lat="44.67079" lon="5.55612">
        <ele>711</ele>
        <time>2018-05-23T14:03:29Z</time>
      </trkpt>
      <trkpt lat="44.67097" lon="5.55618">
        <ele>719</ele>
        <time>2018-05-23T14:03:46Z</time>
      </trkpt>
      <trkpt lat="44.67133" lon="5.55626">
        <ele>722</ele>
        <time>2018-05-23T14:03:57Z</time>
      </trkpt>
      <trkpt lat="44.67155" lon="5.55634">
        <ele>720</ele>
        <time>2018-05-23T14:04:04Z</time>
      </trkpt>
      <trkpt lat="44.6717" lon="5.55645">
        <ele>730</ele>
        <time>2018-05-23T14:04:10Z</time>
      </trkpt>
      <trkpt lat="44.67181" lon="5.55663">
        <ele>722</ele>
        <time>2018-05-23T14:04:18Z</time>
      </trkpt>
      <trkpt lat="44.67189" lon="5.55695">
        <ele>713</ele>
        <time>2018-05-23T14:04:20Z</time>
      </trkpt>
      <trkpt lat="44.67194" lon="5.55728">
        <ele>711</ele>
        <time>2018-05-23T14:04:27Z</time>
      </trkpt>
      <trkpt lat="44.67198" lon="5.55762">
        <ele>707</ele>
        <time>2018-05-23T14:04:35Z</time>
      </trkpt>
      <trkpt lat="44.67201" lon="5.55779">
        <ele>708</ele>
        <time>2018-05-23T14:04:52Z</time>
      </trkpt>
      <trkpt lat="44.67209" lon="5.55792">
        <ele>710</ele>
        <time>2018-05-23T14:05:01Z</time>
      </trkpt>
      <trkpt lat="44.67219" lon="5.55804">
        <ele>710</ele>
        <time>2018-05-23T14:05:16Z</time>
      </trkpt>
      <trkpt lat="44.67239" lon="5.55817">
        <ele>709</ele>
        <time>2018-05-23T14:05:23Z</time>
      </trkpt>
      <trkpt lat="44.67281" lon="5.55838">
        <ele>720</ele>
        <time>2018-05-23T14:05:33Z</time>
      </trkpt>
      <trkpt lat="44.67294" lon="5.55847">
        <ele>724</ele>
        <time>2018-05-23T14:05:39Z</time>
      </trkpt>
      <trkpt lat="44.67302" lon="5.55858">
        <ele>725</ele>
        <time>2018-05-23T14:05:49Z</time>
      </trkpt>
      <trkpt lat="44.67316" lon="5.55886">
        <ele>720</ele>
        <time>2018-05-23T14:06:02Z</time>
      </trkpt>
      <trkpt lat="44.67337" lon="5.55936">
        <ele>719</ele>
        <time>2018-05-23T14:06:11Z</time>
      </trkpt>
      <trkpt lat="44.67348" lon="5.55946">
        <ele>722</ele>
        <time>2018-05-23T14:06:18Z</time>
      </trkpt>
      <trkpt lat="44.67363" lon="5.55955">
        <ele>725</ele>
        <time>2018-05-23T14:06:22Z</time>
      </trkpt>
      <trkpt lat="44.67372" lon="5.55963">
        <ele>726</ele>
        <time>2018-05-23T14:06:30Z</time>
      </trkpt>
      <trkpt lat="44.67383" lon="5.55977">
        <ele>728</ele>
        <time>2018-05-23T14:06:48Z</time>
      </trkpt>
      <trkpt lat="44.67389" lon="5.55991">
        <ele>728</ele>
        <time>2018-05-23T14:06:51Z</time>
      </trkpt>
      <trkpt lat="44.67392" lon="5.56007">
        <ele>724</ele>
        <time>2018-05-23T14:06:55Z</time>
      </trkpt>
      <trkpt lat="44.67393" lon="5.56121">
        <ele>733</ele>
        <time>2018-05-23T14:07:06Z</time>
      </trkpt>
      <trkpt lat="44.67395" lon="5.56137">
        <ele>733</ele>
        <time>2018-05-23T14:07:08Z</time>
      </trkpt>
      <trkpt lat="44.674" lon="5.56152">
        <ele>730</ele>
        <time>2018-05-23T14:07:12Z</time>
      </trkpt>
      <trkpt lat="44.67409" lon="5.56167">
        <ele>729</ele>
        <time>2018-05-23T14:07:15Z</time>
      </trkpt>
      <trkpt lat="44.67419" lon="5.56178">
        <ele>725</ele>
        <time>2018-05-23T14:07:22Z</time>
      </trkpt>
      <trkpt lat="44.67434" lon="5.56185">
        <ele>731</ele>
        <time>2018-05-23T14:07:29Z</time>
      </trkpt>
      <trkpt lat="44.67473" lon="5.56188">
        <ele>737</ele>
        <time>2018-05-23T14:07:36Z</time>
      </trkpt>
      <trkpt lat="44.67555" lon="5.56193">
        <ele>742</ele>
        <time>2018-05-23T14:07:52Z</time>
      </trkpt>
      <trkpt lat="44.6759" lon="5.56195">
        <ele>740</ele>
        <time>2018-05-23T14:08:07Z</time>
      </trkpt>
      <trkpt lat="44.67604" lon="5.56193">
        <ele>740</ele>
        <time>2018-05-23T14:08:15Z</time>
      </trkpt>
      <trkpt lat="44.67627" lon="5.56185">
        <ele>740</ele>
        <time>2018-05-23T14:08:28Z</time>
      </trkpt>
      <trkpt lat="44.67648" lon="5.5618">
        <ele>742</ele>
        <time>2018-05-23T14:08:38Z</time>
      </trkpt>
      <trkpt lat="44.67668" lon="5.56182">
        <ele>746</ele>
        <time>2018-05-23T14:08:44Z</time>
      </trkpt>
      <trkpt lat="44.67682" lon="5.56191">
        <ele>745</ele>
        <time>2018-05-23T14:08:47Z</time>
      </trkpt>
      <trkpt lat="44.67696" lon="5.56209">
        <ele>743</ele>
        <time>2018-05-23T14:09:00Z</time>
      </trkpt>
      <trkpt lat="44.67702" lon="5.56228">
        <ele>741</ele>
        <time>2018-05-23T14:09:03Z</time>
      </trkpt>
      <trkpt lat="44.67705" lon="5.56254">
        <ele>737</ele>
        <time>2018-05-23T14:09:12Z</time>
      </trkpt>
      <trkpt lat="44.67699" lon="5.56277">
        <ele>737</ele>
        <time>2018-05-23T14:09:20Z</time>
      </trkpt>
      <trkpt lat="44.67678" lon="5.56323">
        <ele>736</ele>
        <time>2018-05-23T14:09:30Z</time>
      </trkpt>
      <trkpt lat="44.67678" lon="5.56333">
        <ele>736</ele>
        <time>2018-05-23T14:09:39Z</time>
      </trkpt>
      <trkpt lat="44.67681" lon="5.56341">
        <ele>738</ele>
        <time>2018-05-23T14:09:48Z</time>
      </trkpt>
      <trkpt lat="44.67686" lon="5.56349">
        <ele>740</ele>
        <time>2018-05-23T14:10:07Z</time>
      </trkpt>
      <trkpt lat="44.67713" lon="5.5637">
        <ele>743</ele>
        <time>2018-05-23T14:10:27Z</time>
      </trkpt>
      <trkpt lat="44.6773" lon="5.56392">
        <ele>742</ele>
        <time>2018-05-23T14:10:33Z</time>
      </trkpt>
      <trkpt lat="44.67748" lon="5.56421">
        <ele>737</ele>
        <time>2018-05-23T14:10:50Z</time>
      </trkpt>
      <trkpt lat="44.67762" lon="5.56439">
        <ele>744</ele>
        <time>2018-05-23T14:11:04Z</time>
      </trkpt>
      <trkpt lat="44.67771" lon="5.56448">
        <ele>746</ele>
        <time>2018-05-23T14:11:20Z</time>
      </trkpt>
      <trkpt lat="44.67782" lon="5.56455">
        <ele>748</ele>
        <time>2018-05-23T14:11:30Z</time>
      </trkpt>
      <trkpt lat="44.67821" lon="5.56466">
        <ele>753</ele>
        <time>2018-05-23T14:11:32Z</time>
      </trkpt>
      <trkpt lat="44.67836" lon="5.56477">
        <ele>778</ele>
        <time>2018-05-23T14:11:39Z</time>
      </trkpt>
      <trkpt lat="44.67843" lon="5.56489">
        <ele>771</ele>
        <time>2018-05-23T14:11:49Z</time>
      </trkpt>
      <trkpt lat="44.67848" lon="5.56504">
        <ele>759</ele>
        <time>2018-05-23T14:12:07Z</time>
      </trkpt>
      <trkpt lat="44.67851" lon="5.5654">
        <ele>761</ele>
        <time>2018-05-23T14:12:20Z</time>
      </trkpt>
      <trkpt lat="44.6786" lon="5.56576">
        <ele>755</ele>
        <time>2018-05-23T14:12:32Z</time>
      </trkpt>
      <trkpt lat="44.67874" lon="5.56623">
        <ele>749</ele>
        <time>2018-05-23T14:12:45Z</time>
      </trkpt>
      <trkpt lat="44.67882" lon="5.56679">
        <ele>747</ele>
        <time>2018-05-23T14:13:04Z</time>
      </trkpt>
      <trkpt lat="44.67888" lon="5.56693">
        <ele>747</ele>
        <time>2018-05-23T14:13:24Z</time>
      </trkpt>
      <trkpt lat="44.67895" lon="5.56705">
        <ele>746</ele>
        <time>2018-05-23T14:13:34Z</time>
      </trkpt>
      <trkpt lat="44.67905" lon="5.56713">
        <ele>743</ele>
        <time>2018-05-23T14:13:52Z</time>
      </trkpt>
      <trkpt lat="44.67916" lon="5.56718">
        <ele>741</ele>
        <time>2018-05-23T14:14:11Z</time>
      </trkpt>
      <trkpt lat="44.67933" lon="5.56726">
        <ele>749</ele>
        <time>2018-05-23T14:14:28Z</time>
      </trkpt>
      <trkpt lat="44.67943" lon="5.56736">
        <ele>749</ele>
        <time>2018-05-23T14:14:38Z</time>
      </trkpt>
      <trkpt lat="44.67954" lon="5.56755">
        <ele>743</ele>
        <time>2018-05-23T14:14:42Z</time>
      </trkpt>
      <trkpt lat="44.6796" lon="5.56769">
        <ele>745</ele>
        <time>2018-05-23T14:14:51Z</time>
      </trkpt>
      <trkpt lat="44.6798" lon="5.56812">
        <ele>748</ele>
        <time>2018-05-23T14:15:08Z</time>
      </trkpt>
      <trkpt lat="44.67998" lon="5.56846">
        <ele>752</ele>
        <time>2018-05-23T14:15:13Z</time>
      </trkpt>
      <trkpt lat="44.6806" lon="5.56952">
        <ele>755</ele>
        <time>2018-05-23T14:15:33Z</time>
      </trkpt>
      <trkpt lat="44.68099" lon="5.57014">
        <ele>754</ele>
        <time>2018-05-23T14:15:53Z</time>
      </trkpt>
      <trkpt lat="44.6811" lon="5.57025">
        <ele>759</ele>
        <time>2018-05-23T14:16:13Z</time>
      </trkpt>
      <trkpt lat="44.68123" lon="5.57033">
        <ele>762</ele>
        <time>2018-05-23T14:16:18Z</time>
      </trkpt>
      <trkpt lat="44.68163" lon="5.57043">
        <ele>765</ele>
        <time>2018-05-23T14:16:22Z</time>
      </trkpt>
      <trkpt lat="44.68181" lon="5.57049">
        <ele>781</ele>
        <time>2018-05-23T14:16:32Z</time>
      </trkpt>
      <trkpt lat="44.68192" lon="5.57056">
        <ele>781</ele>
        <time>2018-05-23T14:16:45Z</time>
      </trkpt>
      <trkpt lat="44.68201" lon="5.57066">
        <ele>781</ele>
        <time>2018-05-23T14:17:00Z</time>
      </trkpt>
      <trkpt lat="44.68208" lon="5.57079">
        <ele>782</ele>
        <time>2018-05-23T14:17:18Z</time>
      </trkpt>
      <trkpt lat="44.68214" lon="5.57101">
        <ele>768</ele>
        <time>2018-05-23T14:17:26Z</time>
      </trkpt>
      <trkpt lat="44.68222" lon="5.57144">
        <ele>766</ele>
        <time>2018-05-23T14:17:44Z</time>
      </trkpt>
      <trkpt lat="44.68231" lon="5.5718">
        <ele>770</ele>
        <time>2018-05-23T14:17:54Z</time>
      </trkpt>
      <trkpt lat="44.68245" lon="5.57215">
        <ele>768</ele>
        <time>2018-05-23T14:18:13Z</time>
      </trkpt>
      <trkpt lat="44.68275" lon="5.57264">
        <ele>768</ele>
        <time>2018-05-23T14:18:25Z</time>
      </trkpt>
      <trkpt lat="44.68299" lon="5.57301">
        <ele>774</ele>
        <time>2018-05-23T14:18:34Z</time>
      </trkpt>
      <trkpt lat="44.6831" lon="5.57324">
        <ele>772</ele>
        <time>2018-05-23T14:18:46Z</time>
      </trkpt>
      <trkpt lat="44.68322" lon="5.57351">
        <ele>777</ele>
        <time>2018-05-23T14:19:01Z</time>
      </trkpt>
      <trkpt lat="44.6833" lon="5.57364">
        <ele>778</ele>
        <time>2018-05-23T14:19:16Z</time>
      </trkpt>
      <trkpt lat="44.68339" lon="5.57374">
        <ele>774</ele>
        <time>2018-05-23T14:19:33Z</time>
      </trkpt>
      <trkpt lat="44.68349" lon="5.57381">
        <ele>774</ele>
        <time>2018-05-23T14:19:50Z</time>
      </trkpt>
      <trkpt lat="44.68372" lon="5.57389">
        <ele>775</ele>
        <time>2018-05-23T14:20:03Z</time>
      </trkpt>
      <trkpt lat="44.68391" lon="5.57395">
        <ele>774</ele>
        <time>2018-05-23T14:20:08Z</time>
      </trkpt>
      <trkpt lat="44.68411" lon="5.57404">
        <ele>768</ele>
        <time>2018-05-23T14:20:24Z</time>
      </trkpt>
      <trkpt lat="44.68469" lon="5.57446">
        <ele>787</ele>
        <time>2018-05-23T14:20:44Z</time>
      </trkpt>
      <trkpt lat="44.6852" lon="5.57487">
        <ele>810</ele>
        <time>2018-05-23T14:20:57Z</time>
      </trkpt>
      <trkpt lat="44.68547" lon="5.5751">
        <ele>855</ele>
        <time>2018-05-23T14:21:06Z</time>
      </trkpt>
      <trkpt lat="44.6856" lon="5.57518">
        <ele>859</ele>
        <time>2018-05-23T14:21:24Z</time>
      </trkpt>
      <trkpt lat="44.68573" lon="5.57523">
        <ele>860</ele>
        <time>2018-05-23T14:21:40Z</time>
      </trkpt>
      <trkpt lat="44.68587" lon="5.57526">
        <ele>856</ele>
        <time>2018-05-23T14:21:59Z</time>
      </trkpt>
      <trkpt lat="44.68614" lon="5.57525">
        <ele>855</ele>
        <time>2018-05-23T14:22:11Z</time>
      </trkpt>
      <trkpt lat="44.68641" lon="5.57519">
        <ele>845</ele>
        <time>2018-05-23T14:22:15Z</time>
      </trkpt>
      <trkpt lat="44.68666" lon="5.57514">
        <ele>830</ele>
        <time>2018-05-23T14:22:33Z</time>
      </trkpt>
      <trkpt lat="44.68685" lon="5.57515">
        <ele>825</ele>
        <time>2018-05-23T14:22:49Z</time>
      </trkpt>
      <trkpt lat="44.68703" lon="5.57522">
        <ele>831</ele>
        <time>2018-05-23T14:23:04Z</time>
      </trkpt>
      <trkpt lat="44.68716" lon="5.57531">
        <ele>832</ele>
        <time>2018-05-23T14:23:12Z</time>
      </trkpt>
      <trkpt lat="44.68736" lon="5.57555">
        <ele>828</ele>
        <time>2018-05-23T14:23:30Z</time>
      </trkpt>
      <trkpt lat="44.68745" lon="5.5757">
        <ele>819</ele>
        <time>2018-05-23T14:23:50Z</time>
      </trkpt>
      <trkpt lat="44.68761" lon="5.57607">
        <ele>857</ele>
        <time>2018-05-23T14:24:07Z</time>
      </trkpt>
      <trkpt lat="44.68804" lon="5.57717">
        <ele>939</ele>
        <time>2018-05-23T14:24:27Z</time>
      </trkpt>
      <trkpt lat="44.68815" lon="5.57742">
        <ele>932</ele>
        <time>2018-05-23T14:24:47Z</time>
      </trkpt>
      <trkpt lat="44.68825" lon="5.57757">
        <ele>913</ele>
        <time>2018-05-23T14:25:02Z</time>
      </trkpt>
      <trkpt lat="44.68858" lon="5.57794">
        <ele>858</ele>
        <time>2018-05-23T14:25:04Z</time>
      </trkpt>
      <trkpt lat="44.68867" lon="5.57809">
        <ele>849</ele>
        <time>2018-05-23T14:25:12Z</time>
      </trkpt>
      <trkpt lat="44.68873" lon="5.57825">
        <ele>843</ele>
        <time>2018-05-23T14:25:15Z</time>
      </trkpt>
      <trkpt lat="44.68877" lon="5.57843">
        <ele>794</ele>
        <time>2018-05-23T14:25:18Z</time>
      </trkpt>
      <trkpt lat="44.68878" lon="5.57871">
        <ele>791</ele>
        <time>2018-05-23T14:25:24Z</time>
      </trkpt>
      <trkpt lat="44.68875" lon="5.57931">
        <ele>782</ele>
        <time>2018-05-23T14:25:37Z</time>
      </trkpt>
      <trkpt lat="44.68877" lon="5.57942">
        <ele>782</ele>
        <time>2018-05-23T14:25:40Z</time>
      </trkpt>
      <trkpt lat="44.68882" lon="5.57949">
        <ele>783</ele>
        <time>2018-05-23T14:25:49Z</time>
      </trkpt>
      <trkpt lat="44.6889" lon="5.57953">
        <ele>783</ele>
        <time>2018-05-23T14:25:54Z</time>
      </trkpt>
      <trkpt lat="44.68899" lon="5.57954">
        <ele>783</ele>
        <time>2018-05-23T14:26:06Z</time>
      </trkpt>
      <trkpt lat="44.6893" lon="5.57955">
        <ele>809</ele>
        <time>2018-05-23T14:26:24Z</time>
      </trkpt>
      <trkpt lat="44.6896" lon="5.57962">
        <ele>820</ele>
        <time>2018-05-23T14:26:31Z</time>
      </trkpt>
      <trkpt lat="44.68978" lon="5.57971">
        <ele>823</ele>
        <time>2018-05-23T14:26:44Z</time>
      </trkpt>
      <trkpt lat="44.68989" lon="5.57981">
        <ele>820</ele>
        <time>2018-05-23T14:26:59Z</time>
      </trkpt>
      <trkpt lat="44.68995" lon="5.57998">
        <ele>813</ele>
        <time>2018-05-23T14:27:12Z</time>
      </trkpt>
      <trkpt lat="44.68998" lon="5.58027">
        <ele>800</ele>
        <time>2018-05-23T14:27:24Z</time>
      </trkpt>
      <trkpt lat="44.69002" lon="5.58062">
        <ele>817</ele>
        <time>2018-05-23T14:27:27Z</time>
      </trkpt>
      <trkpt lat="44.69" lon="5.58065">
        <ele>791</ele>
        <time>2018-05-23T14:27:44Z</time>
      </trkpt>
      <trkpt lat="44.68996" lon="5.58066">
        <ele>791</ele>
        <time>2018-05-23T14:28:03Z</time>
      </trkpt>
      <trkpt lat="44.68993" lon="5.58063">
        <ele>792</ele>
        <time>2018-05-23T14:28:20Z</time>
      </trkpt>
      <trkpt lat="44.68992" lon="5.58056">
        <ele>794</ele>
        <time>2018-05-23T14:28:25Z</time>
      </trkpt>
      <trkpt lat="44.6899" lon="5.58021">
        <ele>801</ele>
        <time>2018-05-23T14:28:27Z</time>
      </trkpt>
      <trkpt lat="44.68985" lon="5.57998">
        <ele>815</ele>
        <time>2018-05-23T14:28:45Z</time>
      </trkpt>
      <trkpt lat="44.68979" lon="5.57988">
        <ele>817</ele>
        <time>2018-05-23T14:28:54Z</time>
      </trkpt>
      <trkpt lat="44.6897" lon="5.57983">
        <ele>817</ele>
        <time>2018-05-23T14:29:07Z</time>
      </trkpt>
      <trkpt lat="44.6896" lon="5.5798">
        <ele>815</ele>
        <time>2018-05-23T14:29:16Z</time>
      </trkpt>
      <trkpt lat="44.68936" lon="5.57977">
        <ele>807</ele>
        <time>2018-05-23T14:29:27Z</time>
      </trkpt>
      <trkpt lat="44.68913" lon="5.5798">
        <ele>783</ele>
        <time>2018-05-23T14:29:47Z</time>
      </trkpt>
      <trkpt lat="44.68888" lon="5.5798">
        <ele>784</ele>
        <time>2018-05-23T14:30:00Z</time>
      </trkpt>
      <trkpt lat="44.68864" lon="5.57974">
        <ele>785</ele>
        <time>2018-05-23T14:30:10Z</time>
      </trkpt>
      <trkpt lat="44.68852" lon="5.57974">
        <ele>785</ele>
        <time>2018-05-23T14:30:13Z</time>
      </trkpt>
      <trkpt lat="44.68842" lon="5.57979">
        <ele>787</ele>
        <time>2018-05-23T14:30:23Z</time>
      </trkpt>
      <trkpt lat="44.68819" lon="5.58002">
        <ele>796</ele>
        <time>2018-05-23T14:30:36Z</time>
      </trkpt>
      <trkpt lat="44.68801" lon="5.58025">
        <ele>798</ele>
        <time>2018-05-23T14:30:47Z</time>
      </trkpt>
      <trkpt lat="44.68791" lon="5.58048">
        <ele>801</ele>
        <time>2018-05-23T14:30:52Z</time>
      </trkpt>
      <trkpt lat="44.68771" lon="5.58106">
        <ele>807</ele>
        <time>2018-05-23T14:31:03Z</time>
      </trkpt>
      <trkpt lat="44.68766" lon="5.58134">
        <ele>804</ele>
        <time>2018-05-23T14:31:16Z</time>
      </trkpt>
      <trkpt lat="44.68761" lon="5.58192">
        <ele>799</ele>
        <time>2018-05-23T14:31:33Z</time>
      </trkpt>
      <trkpt lat="44.68763" lon="5.58239">
        <ele>796</ele>
        <time>2018-05-23T14:31:45Z</time>
      </trkpt>
      <trkpt lat="44.68763" lon="5.58282">
        <ele>797</ele>
        <time>2018-05-23T14:31:49Z</time>
      </trkpt>
      <trkpt lat="44.68766" lon="5.58299">
        <ele>797</ele>
        <time>2018-05-23T14:32:06Z</time>
      </trkpt>
      <trkpt lat="44.68772" lon="5.58313">
        <ele>797</ele>
        <time>2018-05-23T14:32:22Z</time>
      </trkpt>
      <trkpt lat="44.68781" lon="5.58326">
        <ele>798</ele>
        <time>2018-05-23T14:32:39Z</time>
      </trkpt>
      <trkpt lat="44.68798" lon="5.58351">
        <ele>800</ele>
        <time>2018-05-23T14:32:45Z</time>
      </trkpt>
      <trkpt lat="44.68811" lon="5.58381">
        <ele>801</ele>
        <time>2018-05-23T14:32:52Z</time>
      </trkpt>
      <trkpt lat="44.68821" lon="5.58408">
        <ele>805</ele>
        <time>2018-05-23T14:33:08Z</time>
      </trkpt>
      <trkpt lat="44.68829" lon="5.5843">
        <ele>811</ele>
        <time>2018-05-23T14:33:19Z</time>
      </trkpt>
      <trkpt lat="44.68829" lon="5.58442">
        <ele>812</ele>
        <time>2018-05-23T14:33:30Z</time>
      </trkpt>
      <trkpt lat="44.68825" lon="5.58452">
        <ele>813</ele>
        <time>2018-05-23T14:33:34Z</time>
      </trkpt>
      <trkpt lat="44.68819" lon="5.5846">
        <ele>814</ele>
        <time>2018-05-23T14:33:53Z</time>
      </trkpt>
      <trkpt lat="44.68806" lon="5.58468">
        <ele>813</ele>
        <time>2018-05-23T14:34:03Z</time>
      </trkpt>
      <trkpt lat="44.68792" lon="5.58478">
        <ele>812</ele>
        <time>2018-05-23T14:34:15Z</time>
      </trkpt>
      <trkpt lat="44.68779" lon="5.58491">
        <ele>811</ele>
        <time>2018-05-23T14:34:27Z</time>
      </trkpt>
      <trkpt lat="44.68761" lon="5.5851">
        <ele>820</ele>
        <time>2018-05-23T14:34:39Z</time>
      </trkpt>
      <trkpt lat="44.68745" lon="5.5853">
        <ele>821</ele>
        <time>2018-05-23T14:34:42Z</time>
      </trkpt>
      <trkpt lat="44.68732" lon="5.5856">
        <ele>826</ele>
        <time>2018-05-23T14:34:49Z</time>
      </trkpt>
      <trkpt lat="44.68715" lon="5.58597">
        <ele>836</ele>
        <time>2018-05-23T14:35:09Z</time>
      </trkpt>
      <trkpt lat="44.68707" lon="5.58612">
        <ele>837</ele>
        <time>2018-05-23T14:35:22Z</time>
      </trkpt>
      <trkpt lat="44.68702" lon="5.58618">
        <ele>838</ele>
        <time>2018-05-23T14:35:35Z</time>
      </trkpt>
      <trkpt lat="44.68681" lon="5.58636">
        <ele>837</ele>
        <time>2018-05-23T14:35:39Z</time>
      </trkpt>
      <trkpt lat="44.68674" lon="5.58659">
        <ele>835</ele>
        <time>2018-05-23T14:35:48Z</time>
      </trkpt>
      <trkpt lat="44.68668" lon="5.58676">
        <ele>842</ele>
        <time>2018-05-23T14:35:52Z</time>
      </trkpt>
      <trkpt lat="44.68663" lon="5.58683">
        <ele>849</ele>
        <time>2018-05-23T14:36:03Z</time>
      </trkpt>
      <trkpt lat="44.68632" lon="5.5871">
        <ele>863</ele>
        <time>2018-05-23T14:36:14Z</time>
      </trkpt>
      <trkpt lat="44.68613" lon="5.58734">
        <ele>864</ele>
        <time>2018-05-23T14:36:16Z</time>
      </trkpt>
      <trkpt lat="44.68607" lon="5.58744">
        <ele>863</ele>
        <time>2018-05-23T14:36:19Z</time>
      </trkpt>
      <trkpt lat="44.68595" lon="5.58759">
        <ele>865</ele>
        <time>2018-05-23T14:36:21Z</time>
      </trkpt>
      <trkpt lat="44.68578" lon="5.58776">
        <ele>897</ele>
        <time>2018-05-23T14:36:40Z</time>
      </trkpt>
      <trkpt lat="44.68536" lon="5.58815">
        <ele>916</ele>
        <time>2018-05-23T14:36:43Z</time>
      </trkpt>
      <trkpt lat="44.68517" lon="5.58839">
        <ele>904</ele>
        <time>2018-05-23T14:36:47Z</time>
      </trkpt>
      <trkpt lat="44.68509" lon="5.58865">
        <ele>898</ele>
        <time>2018-05-23T14:37:07Z</time>
      </trkpt>
      <trkpt lat="44.68502" lon="5.58903">
        <ele>888</ele>
        <time>2018-05-23T14:37:24Z</time>
      </trkpt>
      <trkpt lat="44.68484" lon="5.58961">
        <ele>883</ele>
        <time>2018-05-23T14:37:34Z</time>
      </trkpt>
      <trkpt lat="44.68474" lon="5.59005">
        <ele>880</ele>
        <time>2018-05-23T14:37:52Z</time>
      </trkpt>
      <trkpt lat="44.68469" lon="5.5904">
        <ele>884</ele>
        <time>2018-05-23T14:37:56Z</time>
      </trkpt>
      <trkpt lat="44.68464" lon="5.59083">
        <ele>885</ele>
        <time>2018-05-23T14:38:05Z</time>
      </trkpt>
      <trkpt lat="44.68453" lon="5.59176">
        <ele>867</ele>
        <time>2018-05-23T14:38:07Z</time>
      </trkpt>
      <trkpt lat="44.68446" lon="5.59211">
        <ele>864</ele>
        <time>2018-05-23T14:38:19Z</time>
      </trkpt>
      <trkpt lat="44.68439" lon="5.59236">
        <ele>862</ele>
        <time>2018-05-23T14:38:27Z</time>
      </trkpt>
      <trkpt lat="44.68421" lon="5.59281">
        <ele>859</ele>
        <time>2018-05-23T14:38:29Z</time>
      </trkpt>
      <trkpt lat="44.68409" lon="5.59317">
        <ele>875</ele>
        <time>2018-05-23T14:38:32Z</time>
      </trkpt>
      <trkpt lat="44.68403" lon="5.59355">
        <ele>871</ele>
        <time>2018-05-23T14:38:50Z</time>
      </trkpt>
      <trkpt lat="44.68402" lon="5.59388">
        <ele>871</ele>
        <time>2018-05-23T14:39:07Z</time>
      </trkpt>
      <trkpt lat="44.68402" lon="5.59407">
        <ele>868</ele>
        <time>2018-05-23T14:39:18Z</time>
      </trkpt>
      <trkpt lat="44.68406" lon="5.59423">
        <ele>865</ele>
        <time>2018-05-23T14:39:35Z</time>
      </trkpt>
      <trkpt lat="44.68412" lon="5.59435">
        <ele>867</ele>
        <time>2018-05-23T14:39:50Z</time>
      </trkpt>
      <trkpt lat="44.68426" lon="5.59448">
        <ele>859</ele>
        <time>2018-05-23T14:39:53Z</time>
      </trkpt>
      <trkpt lat="44.6847" lon="5.59472">
        <ele>859</ele>
        <time>2018-05-23T14:40:07Z</time>
      </trkpt>
      <trkpt lat="44.68482" lon="5.59482">
        <ele>857</ele>
        <time>2018-05-23T14:40:14Z</time>
      </trkpt>
      <trkpt lat="44.68534" lon="5.59534">
        <ele>854</ele>
        <time>2018-05-23T14:40:23Z</time>
      </trkpt>
      <trkpt lat="44.68586" lon="5.59586">
        <ele>855</ele>
        <time>2018-05-23T14:40:26Z</time>
      </trkpt>
      <trkpt lat="44.68609" lon="5.59599">
        <ele>857</ele>
        <time>2018-05-23T14:40:41Z</time>
      </trkpt>
      <trkpt lat="44.68688" lon="5.59635">
        <ele>862</ele>
        <time>2018-05-23T14:40:44Z</time>
      </trkpt>
      <trkpt lat="44.68734" lon="5.5966">
        <ele>863</ele>
        <time>2018-05-23T14:41:02Z</time>
      </trkpt>
      <trkpt lat="44.68752" lon="5.59675">
        <ele>864</ele>
        <time>2018-05-23T14:41:21Z</time>
      </trkpt>
      <trkpt lat="44.68759" lon="5.59684">
        <ele>864</ele>
        <time>2018-05-23T14:41:25Z</time>
      </trkpt>
      <trkpt lat="44.68771" lon="5.5972">
        <ele>865</ele>
        <time>2018-05-23T14:41:30Z</time>
      </trkpt>
      <trkpt lat="44.68782" lon="5.59773">
        <ele>868</ele>
        <time>2018-05-23T14:41:45Z</time>
      </trkpt>
      <trkpt lat="44.68787" lon="5.59787">
        <ele>869</ele>
        <time>2018-05-23T14:41:50Z</time>
      </trkpt>
      <trkpt lat="44.68791" lon="5.5979">
        <ele>870</ele>
        <time>2018-05-23T14:42:01Z</time>
      </trkpt>
      <trkpt lat="44.68796" lon="5.59792">
        <ele>870</ele>
        <time>2018-05-23T14:42:08Z</time>
      </trkpt>
      <trkpt lat="44.68831" lon="5.59789">
        <ele>870</ele>
        <time>2018-05-23T14:42:17Z</time>
      </trkpt>
      <trkpt lat="44.68845" lon="5.59784">
        <ele>877</ele>
        <time>2018-05-23T14:42:19Z</time>
      </trkpt>
      <trkpt lat="44.68859" lon="5.59774">
        <ele>877</ele>
        <time>2018-05-23T14:42:24Z</time>
      </trkpt>
      <trkpt lat="44.68918" lon="5.59708">
        <ele>877</ele>
        <time>2018-05-23T14:42:44Z</time>
      </trkpt>
      <trkpt lat="44.68932" lon="5.59698">
        <ele>876</ele>
        <time>2018-05-23T14:42:53Z</time>
      </trkpt>
      <trkpt lat="44.68948" lon="5.59697">
        <ele>877</ele>
        <time>2018-05-23T14:43:03Z</time>
      </trkpt>
      <trkpt lat="44.6897" lon="5.59701">
        <ele>878</ele>
        <time>2018-05-23T14:43:17Z</time>
      </trkpt>
      <trkpt lat="44.68994" lon="5.59709">
        <ele>880</ele>
        <time>2018-05-23T14:43:37Z</time>
      </trkpt>
      <trkpt lat="44.69042" lon="5.59727">
        <ele>886</ele>
        <time>2018-05-23T14:43:41Z</time>
      </trkpt>
      <trkpt lat="44.69062" lon="5.59739">
        <ele>886</ele>
        <time>2018-05-23T14:43:45Z</time>
      </trkpt>
      <trkpt lat="44.69073" lon="5.59751">
        <ele>888</ele>
        <time>2018-05-23T14:43:59Z</time>
      </trkpt>
      <trkpt lat="44.69082" lon="5.59768">
        <ele>890</ele>
        <time>2018-05-23T14:44:18Z</time>
      </trkpt>
      <trkpt lat="44.6909" lon="5.59787">
        <ele>896</ele>
        <time>2018-05-23T14:44:23Z</time>
      </trkpt>
      <trkpt lat="44.691" lon="5.5983">
        <ele>897</ele>
        <time>2018-05-23T14:44:38Z</time>
      </trkpt>
      <trkpt lat="44.69108" lon="5.59885">
        <ele>902</ele>
        <time>2018-05-23T14:44:54Z</time>
      </trkpt>
      <trkpt lat="44.69113" lon="5.59904">
        <ele>903</ele>
        <time>2018-05-23T14:45:05Z</time>
      </trkpt>
      <trkpt lat="44.69121" lon="5.5992">
        <ele>907</ele>
        <time>2018-05-23T14:45:18Z</time>
      </trkpt>
      <trkpt lat="44.69132" lon="5.59933">
        <ele>905</ele>
        <time>2018-05-23T14:45:25Z</time>
      </trkpt>
      <trkpt lat="44.69146" lon="5.59942">
        <ele>902</ele>
        <time>2018-05-23T14:45:27Z</time>
      </trkpt>
      <trkpt lat="44.69191" lon="5.59953">
        <ele>899</ele>
        <time>2018-05-23T14:45:40Z</time>
      </trkpt>
      <trkpt lat="44.6923" lon="5.59962">
        <ele>904</ele>
        <time>2018-05-23T14:45:46Z</time>
      </trkpt>
      <trkpt lat="44.69237" lon="5.59968">
        <ele>903</ele>
        <time>2018-05-23T14:45:48Z</time>
      </trkpt>
      <trkpt lat="44.69241" lon="5.59977">
        <ele>903</ele>
        <time>2018-05-23T14:46:07Z</time>
      </trkpt>
      <trkpt lat="44.6924" lon="5.60038">
        <ele>899</ele>
        <time>2018-05-23T14:46:19Z</time>
      </trkpt>
      <trkpt lat="44.6924" lon="5.60065">
        <ele>898</ele>
        <time>2018-05-23T14:46:25Z</time>
      </trkpt>
      <trkpt lat="44.69246" lon="5.60104">
        <ele>899</ele>
        <time>2018-05-23T14:46:29Z</time>
      </trkpt>
      <trkpt lat="44.69254" lon="5.60128">
        <ele>904</ele>
        <time>2018-05-23T14:46:35Z</time>
      </trkpt>
      <trkpt lat="44.69267" lon="5.60156">
        <ele>903</ele>
        <time>2018-05-23T14:46:51Z</time>
      </trkpt>
      <trkpt lat="44.69284" lon="5.6018">
        <ele>904</ele>
        <time>2018-05-23T14:47:00Z</time>
      </trkpt>
      <trkpt lat="44.69302" lon="5.60205">
        <ele>907</ele>
        <time>2018-05-23T14:47:04Z</time>
      </trkpt>
      <trkpt lat="44.69314" lon="5.60227">
        <ele>909</ele>
        <time>2018-05-23T14:47:16Z</time>
      </trkpt>
      <trkpt lat="44.69318" lon="5.60245">
        <ele>911</ele>
        <time>2018-05-23T14:47:21Z</time>
      </trkpt>
      <trkpt lat="44.69319" lon="5.60262">
        <ele>910</ele>
        <time>2018-05-23T14:47:34Z</time>
      </trkpt>
      <trkpt lat="44.69315" lon="5.60295">
        <ele>907</ele>
        <time>2018-05-23T14:47:40Z</time>
      </trkpt>
      <trkpt lat="44.69316" lon="5.60309">
        <ele>907</ele>
        <time>2018-05-23T14:47:56Z</time>
      </trkpt>
      <trkpt lat="44.69321" lon="5.60323">
        <ele>908</ele>
        <time>2018-05-23T14:48:04Z</time>
      </trkpt>
      <trkpt lat="44.6934" lon="5.6037">
        <ele>926</ele>
        <time>2018-05-23T14:48:18Z</time>
      </trkpt>
      <trkpt lat="44.69341" lon="5.60378">
        <ele>926</ele>
        <time>2018-05-23T14:48:37Z</time>
      </trkpt>
      <trkpt lat="44.69345" lon="5.60409">
        <ele>919</ele>
        <time>2018-05-23T14:48:51Z</time>
      </trkpt>
      <trkpt lat="44.69346" lon="5.60469">
        <ele>923</ele>
        <time>2018-05-23T14:48:55Z</time>
      </trkpt>
      <trkpt lat="44.69354" lon="5.60531">
        <ele>919</ele>
        <time>2018-05-23T14:49:12Z</time>
      </trkpt>
      <trkpt lat="44.69353" lon="5.60556">
        <ele>917</ele>
        <time>2018-05-23T14:49:28Z</time>
      </trkpt>
      <trkpt lat="44.69354" lon="5.6058">
        <ele>914</ele>
        <time>2018-05-23T14:49:44Z</time>
      </trkpt>
      <trkpt lat="44.69359" lon="5.60595">
        <ele>913</ele>
        <time>2018-05-23T14:49:55Z</time>
      </trkpt>
      <trkpt lat="44.69374" lon="5.60622">
        <ele>915</ele>
        <time>2018-05-23T14:50:02Z</time>
      </trkpt>
      <trkpt lat="44.69415" lon="5.60683">
        <ele>917</ele>
        <time>2018-05-23T14:50:10Z</time>
      </trkpt>
      <trkpt lat="44.69429" lon="5.60719">
        <ele>933</ele>
        <time>2018-05-23T14:50:12Z</time>
      </trkpt>
      <trkpt lat="44.69436" lon="5.60781">
        <ele>932</ele>
        <time>2018-05-23T14:50:16Z</time>
      </trkpt>
      <trkpt lat="44.6944" lon="5.60836">
        <ele>935</ele>
        <time>2018-05-23T14:50:21Z</time>
      </trkpt>
      <trkpt lat="44.69439" lon="5.60858">
        <ele>939</ele>
        <time>2018-05-23T14:50:29Z</time>
      </trkpt>
      <trkpt lat="44.69426" lon="5.60944">
        <ele>944</ele>
        <time>2018-05-23T14:50:46Z</time>
      </trkpt>
      <trkpt lat="44.69423" lon="5.60974">
        <ele>943</ele>
        <time>2018-05-23T14:51:00Z</time>
      </trkpt>
      <trkpt lat="44.69423" lon="5.60994">
        <ele>936</ele>
        <time>2018-05-23T14:51:13Z</time>
      </trkpt>
      <trkpt lat="44.69436" lon="5.61062">
        <ele>939</ele>
        <time>2018-05-23T14:51:25Z</time>
      </trkpt>
      <trkpt lat="44.69464" lon="5.6114">
        <ele>935</ele>
        <time>2018-05-23T14:51:29Z</time>
      </trkpt>
      <trkpt lat="44.69482" lon="5.61193">
        <ele>935</ele>
        <time>2018-05-23T14:51:46Z</time>
      </trkpt>
      <trkpt lat="44.69498" lon="5.61231">
        <ele>933</ele>
        <time>2018-05-23T14:51:50Z</time>
      </trkpt>
      <trkpt lat="44.69509" lon="5.61247">
        <ele>932</ele>
        <time>2018-05-23T14:51:59Z</time>
      </trkpt>
      <trkpt lat="44.6952" lon="5.6126">
        <ele>933</ele>
        <time>2018-05-23T14:52:11Z</time>
      </trkpt>
      <trkpt lat="44.69538" lon="5.61276">
        <ele>935</ele>
        <time>2018-05-23T14:52:30Z</time>
      </trkpt>
      <trkpt lat="44.69555" lon="5.61285">
        <ele>935</ele>
        <time>2018-05-23T14:52:43Z</time>
      </trkpt>
      <trkpt lat="44.69583" lon="5.61296">
        <ele>935</ele>
        <time>2018-05-23T14:52:59Z</time>
      </trkpt>
      <trkpt lat="44.69603" lon="5.61304">
        <ele>946</ele>
        <time>2018-05-23T14:53:14Z</time>
      </trkpt>
      <trkpt lat="44.69616" lon="5.61312">
        <ele>948</ele>
        <time>2018-05-23T14:53:18Z</time>
      </trkpt>
      <trkpt lat="44.69627" lon="5.61324">
        <ele>950</ele>
        <time>2018-05-23T14:53:22Z</time>
      </trkpt>
      <trkpt lat="44.69636" lon="5.61339">
        <ele>946</ele>
        <time>2018-05-23T14:53:34Z</time>
      </trkpt>
      <trkpt lat="44.69645" lon="5.61361">
        <ele>947</ele>
        <time>2018-05-23T14:53:38Z</time>
      </trkpt>
      <trkpt lat="44.69651" lon="5.61383">
        <ele>946</ele>
        <time>2018-05-23T14:53:41Z</time>
      </trkpt>
      <trkpt lat="44.69703" lon="5.6157">
        <ele>959</ele>
        <time>2018-05-23T14:53:53Z</time>
      </trkpt>
      <trkpt lat="44.69711" lon="5.61591">
        <ele>952</ele>
        <time>2018-05-23T14:54:03Z</time>
      </trkpt>
      <trkpt lat="44.69718" lon="5.61603">
        <ele>953</ele>
        <time>2018-05-23T14:54:14Z</time>
      </trkpt>
      <trkpt lat="44.69737" lon="5.61624">
        <ele>953</ele>
        <time>2018-05-23T14:54:21Z</time>
      </trkpt>
      <trkpt lat="44.69749" lon="5.6163">
        <ele>953</ele>
        <time>2018-05-23T14:54:35Z</time>
      </trkpt>
      <trkpt lat="44.69774" lon="5.61638">
        <ele>965</ele>
        <time>2018-05-23T14:54:49Z</time>
      </trkpt>
      <trkpt lat="44.69815" lon="5.61648">
        <ele>967</ele>
        <time>2018-05-23T14:54:53Z</time>
      </trkpt>
      <trkpt lat="44.69843" lon="5.61652">
        <ele>972</ele>
        <time>2018-05-23T14:54:58Z</time>
      </trkpt>
      <trkpt lat="44.69871" lon="5.61653">
        <ele>977</ele>
        <time>2018-05-23T14:55:18Z</time>
      </trkpt>
      <trkpt lat="44.69893" lon="5.61657">
        <ele>977</ele>
        <time>2018-05-23T14:55:23Z</time>
      </trkpt>
      <trkpt lat="44.69922" lon="5.61662">
        <ele>976</ele>
        <time>2018-05-23T14:55:40Z</time>
      </trkpt>
      <trkpt lat="44.69966" lon="5.61667">
        <ele>977</ele>
        <time>2018-05-23T14:55:45Z</time>
      </trkpt>
      <trkpt lat="44.69979" lon="5.61671">
        <ele>978</ele>
        <time>2018-05-23T14:56:00Z</time>
      </trkpt>
      <trkpt lat="44.69996" lon="5.61682">
        <ele>979</ele>
        <time>2018-05-23T14:56:17Z</time>
      </trkpt>
      <trkpt lat="44.70014" lon="5.61694">
        <ele>985</ele>
        <time>2018-05-23T14:56:35Z</time>
      </trkpt>
      <trkpt lat="44.70027" lon="5.61697">
        <ele>986</ele>
        <time>2018-05-23T14:56:44Z</time>
      </trkpt>
      <trkpt lat="44.7004" lon="5.61695">
        <ele>987</ele>
        <time>2018-05-23T14:56:53Z</time>
      </trkpt>
      <trkpt lat="44.7007" lon="5.61682">
        <ele>992</ele>
        <time>2018-05-23T14:57:06Z</time>
      </trkpt>
      <trkpt lat="44.70081" lon="5.6168">
        <ele>994</ele>
        <time>2018-05-23T14:57:21Z</time>
      </trkpt>
      <trkpt lat="44.70092" lon="5.61682">
        <ele>1001</ele>
        <time>2018-05-23T14:57:37Z</time>
      </trkpt>
      <trkpt lat="44.70102" lon="5.6169">
        <ele>1001</ele>
        <time>2018-05-23T14:57:52Z</time>
      </trkpt>
      <trkpt lat="44.70111" lon="5.61701">
        <ele>1001</ele>
        <time>2018-05-23T14:58:11Z</time>
      </trkpt>
      <trkpt lat="44.70119" lon="5.61715">
        <ele>1000</ele>
        <time>2018-05-23T14:58:14Z</time>
      </trkpt>
      <trkpt lat="44.70133" lon="5.61752">
        <ele>995</ele>
        <time>2018-05-23T14:58:22Z</time>
      </trkpt>
      <trkpt lat="44.70155" lon="5.6181">
        <ele>996</ele>
        <time>2018-05-23T14:58:39Z</time>
      </trkpt>
      <trkpt lat="44.70158" lon="5.61828">
        <ele>996</ele>
        <time>2018-05-23T14:58:42Z</time>
      </trkpt>
      <trkpt lat="44.70157" lon="5.61843">
        <ele>1002</ele>
        <time>2018-05-23T14:58:46Z</time>
      </trkpt>
      <trkpt lat="44.70153" lon="5.61857">
        <ele>1006</ele>
        <time>2018-05-23T14:59:05Z</time>
      </trkpt>
      <trkpt lat="44.70146" lon="5.61867">
        <ele>1009</ele>
        <time>2018-05-23T14:59:18Z</time>
      </trkpt>
      <trkpt lat="44.70138" lon="5.61873">
        <ele>1011</ele>
        <time>2018-05-23T14:59:26Z</time>
      </trkpt>
      <trkpt lat="44.70129" lon="5.61872">
        <ele>1011</ele>
        <time>2018-05-23T14:59:31Z</time>
      </trkpt>
      <trkpt lat="44.70117" lon="5.61862">
        <ele>1011</ele>
        <time>2018-05-23T14:59:47Z</time>
      </trkpt>
      <trkpt lat="44.70108" lon="5.61847">
        <ele>1009</ele>
        <time>2018-05-23T15:00:01Z</time>
      </trkpt>
      <trkpt lat="44.70099" lon="5.61822">
        <ele>1000</ele>
        <time>2018-05-23T15:00:11Z</time>
      </trkpt>
      <trkpt lat="44.70096" lon="5.61803">
        <ele>997</ele>
        <time>2018-05-23T15:00:17Z</time>
      </trkpt>
      <trkpt lat="44.70092" lon="5.61794">
        <ele>996</ele>
        <time>2018-05-23T15:00:22Z</time>
      </trkpt>
      <trkpt lat="44.70087" lon="5.61789">
        <ele>995</ele>
        <time>2018-05-23T15:00:37Z</time>
      </trkpt>
      <trkpt lat="44.7008" lon="5.61787">
        <ele>997</ele>
        <time>2018-05-23T15:00:54Z</time>
      </trkpt>
      <trkpt lat="44.70058" lon="5.61789">
        <ele>998</ele>
        <time>2018-05-23T15:00:58Z</time>
      </trkpt>
      <trkpt lat="44.70017" lon="5.61795">
        <ele>1002</ele>
        <time>2018-05-23T15:01:08Z</time>
      </trkpt>
      <trkpt lat="44.69999" lon="5.6179">
        <ele>999</ele>
        <time>2018-05-23T15:01:15Z</time>
      </trkpt>
      <trkpt lat="44.69986" lon="5.61785">
        <ele>997</ele>
        <time>2018-05-23T15:01:34Z</time>
      </trkpt>
      <trkpt lat="44.69977" lon="5.61784">
        <ele>997</ele>
        <time>2018-05-23T15:01:47Z</time>
      </trkpt>
      <trkpt lat="44.69968" lon="5.61787">
        <ele>997</ele>
        <time>2018-05-23T15:02:05Z</time>
      </trkpt>
      <trkpt lat="44.69959" lon="5.61794">
        <ele>998</ele>
        <time>2018-05-23T15:02:10Z</time>
      </trkpt>
      <trkpt lat="44.69944" lon="5.61813">
        <ele>1002</ele>
        <time>2018-05-23T15:02:13Z</time>
      </trkpt>
      <trkpt lat="44.69923" lon="5.61829">
        <ele>1008</ele>
        <time>2018-05-23T15:02:23Z</time>
      </trkpt>
      <trkpt lat="44.69829" lon="5.61891">
        <ele>1013</ele>
        <time>2018-05-23T15:02:39Z</time>
      </trkpt>
      <trkpt lat="44.69797" lon="5.61906">
        <ele>1008</ele>
        <time>2018-05-23T15:02:44Z</time>
      </trkpt>
      <trkpt lat="44.6978" lon="5.61917">
        <ele>1025</ele>
        <time>2018-05-23T15:03:00Z</time>
      </trkpt>
      <trkpt lat="44.69772" lon="5.61926">
        <ele>1023</ele>
        <time>2018-05-23T15:03:10Z</time>
      </trkpt>
      <trkpt lat="44.69767" lon="5.61938">
        <ele>1024</ele>
        <time>2018-05-23T15:03:29Z</time>
      </trkpt>
      <trkpt lat="44.69755" lon="5.61984">
        <ele>1031</ele>
        <time>2018-05-23T15:03:47Z</time>
      </trkpt>
      <trkpt lat="44.69745" lon="5.62009">
        <ele>1026</ele>
        <time>2018-05-23T15:03:55Z</time>
      </trkpt>
      <trkpt lat="44.6972" lon="5.62048">
        <ele>1026</ele>
        <time>2018-05-23T15:04:14Z</time>
      </trkpt>
      <trkpt lat="44.6965" lon="5.62125">
        <ele>1020</ele>
        <time>2018-05-23T15:04:27Z</time>
      </trkpt>
      <trkpt lat="44.69625" lon="5.62152">
        <ele>1020</ele>
        <time>2018-05-23T15:04:44Z</time>
      </trkpt>
      <trkpt lat="44.69617" lon="5.62164">
        <ele>1018</ele>
        <time>2018-05-23T15:04:49Z</time>
      </trkpt>
      <trkpt lat="44.69606" lon="5.62194">
        <ele>1044</ele>
        <time>2018-05-23T15:05:08Z</time>
      </trkpt>
      <trkpt lat="44.69575" lon="5.62247">
        <ele>1029</ele>
        <time>2018-05-23T15:05:27Z</time>
      </trkpt>
      <trkpt lat="44.69564" lon="5.62271">
        <ele>1029</ele>
        <time>2018-05-23T15:05:38Z</time>
      </trkpt>
      <trkpt lat="44.69561" lon="5.62285">
        <ele>1028</ele>
        <time>2018-05-23T15:05:49Z</time>
      </trkpt>
      <trkpt lat="44.6956" lon="5.62306">
        <ele>1031</ele>
        <time>2018-05-23T15:05:55Z</time>
      </trkpt>
      <trkpt lat="44.69557" lon="5.62319">
        <ele>1033</ele>
        <time>2018-05-23T15:05:57Z</time>
      </trkpt>
      <trkpt lat="44.69546" lon="5.62336">
        <ele>1033</ele>
        <time>2018-05-23T15:06:09Z</time>
      </trkpt>
      <trkpt lat="44.69543" lon="5.62345">
        <ele>1031</ele>
        <time>2018-05-23T15:06:19Z</time>
      </trkpt>
      <trkpt lat="44.69544" lon="5.62353">
        <ele>1031</ele>
        <time>2018-05-23T15:06:36Z</time>
      </trkpt>
      <trkpt lat="44.69549" lon="5.62358">
        <ele>1032</ele>
        <time>2018-05-23T15:06:38Z</time>
      </trkpt>
      <trkpt lat="44.69559" lon="5.6236">
        <ele>1035</ele>
        <time>2018-05-23T15:06:53Z</time>
      </trkpt>
      <trkpt lat="44.69571" lon="5.62364">
        <ele>1037</ele>
        <time>2018-05-23T15:06:56Z</time>
      </trkpt>
      <trkpt lat="44.6958" lon="5.62372">
        <ele>1037</ele>
        <time>2018-05-23T15:06:59Z</time>
      </trkpt>
      <trkpt lat="44.69625" lon="5.62427">
        <ele>1061</ele>
        <time>2018-05-23T15:07:15Z</time>
      </trkpt>
      <trkpt lat="44.69631" lon="5.6244">
        <ele>1063</ele>
        <time>2018-05-23T15:07:35Z</time>
      </trkpt>
      <trkpt lat="44.69635" lon="5.62455">
        <ele>1062</ele>
        <time>2018-05-23T15:07:45Z</time>
      </trkpt>
      <trkpt lat="44.6964" lon="5.625">
        <ele>1063</ele>
        <time>2018-05-23T15:07:53Z</time>
      </trkpt>
      <trkpt lat="44.69641" lon="5.62557">
        <ele>1060</ele>
        <time>2018-05-23T15:08:05Z</time>
      </trkpt>
      <trkpt lat="44.69639" lon="5.626">
        <ele>1065</ele>
        <time>2018-05-23T15:08:21Z</time>
      </trkpt>
      <trkpt lat="44.6964" lon="5.62615">
        <ele>1066</ele>
        <time>2018-05-23T15:08:37Z</time>
      </trkpt>
      <trkpt lat="44.69644" lon="5.62634">
        <ele>1069</ele>
        <time>2018-05-23T15:08:55Z</time>
      </trkpt>
      <trkpt lat="44.69644" lon="5.62647">
        <ele>1072</ele>
        <time>2018-05-23T15:09:13Z</time>
      </trkpt>
      <trkpt lat="44.6964" lon="5.62659">
        <ele>1072</ele>
        <time>2018-05-23T15:09:26Z</time>
      </trkpt>
      <trkpt lat="44.6963" lon="5.62674">
        <ele>1080</ele>
        <time>2018-05-23T15:09:32Z</time>
      </trkpt>
      <trkpt lat="44.69603" lon="5.62704">
        <ele>1074</ele>
        <time>2018-05-23T15:09:51Z</time>
      </trkpt>
      <trkpt lat="44.69596" lon="5.62717">
        <ele>1075</ele>
        <time>2018-05-23T15:09:58Z</time>
      </trkpt>
      <trkpt lat="44.69588" lon="5.62741">
        <ele>1072</ele>
        <time>2018-05-23T15:10:04Z</time>
      </trkpt>
      <trkpt lat="44.69579" lon="5.62789">
        <ele>1060</ele>
        <time>2018-05-23T15:10:06Z</time>
      </trkpt>
      <trkpt lat="44.69558" lon="5.62868">
        <ele>1069</ele>
        <time>2018-05-23T15:10:20Z</time>
      </trkpt>
      <trkpt lat="44.69549" lon="5.62919">
        <ele>1074</ele>
        <time>2018-05-23T15:10:25Z</time>
      </trkpt>
      <trkpt lat="44.69547" lon="5.62955">
        <ele>1072</ele>
        <time>2018-05-23T15:10:34Z</time>
      </trkpt>
      <trkpt lat="44.69548" lon="5.62971">
        <ele>1072</ele>
        <time>2018-05-23T15:10:50Z</time>
      </trkpt>
      <trkpt lat="44.69552" lon="5.62985">
        <ele>1074</ele>
        <time>2018-05-23T15:10:55Z</time>
      </trkpt>
      <trkpt lat="44.69561" lon="5.62997">
        <ele>1077</ele>
        <time>2018-05-23T15:11:15Z</time>
      </trkpt>
      <trkpt lat="44.69572" lon="5.63011">
        <ele>1078</ele>
        <time>2018-05-23T15:11:23Z</time>
      </trkpt>
      <trkpt lat="44.69587" lon="5.63049">
        <ele>1090</ele>
        <time>2018-05-23T15:11:34Z</time>
      </trkpt>
      <trkpt lat="44.69596" lon="5.63058">
        <ele>1089</ele>
        <time>2018-05-23T15:11:52Z</time>
      </trkpt>
      <trkpt lat="44.69606" lon="5.63063">
        <ele>1090</ele>
        <time>2018-05-23T15:12:00Z</time>
      </trkpt>
      <trkpt lat="44.69617" lon="5.63063">
        <ele>1092</ele>
        <time>2018-05-23T15:12:06Z</time>
      </trkpt>
      <trkpt lat="44.69632" lon="5.63058">
        <ele>1096</ele>
        <time>2018-05-23T15:12:15Z</time>
      </trkpt>
      <trkpt lat="44.69641" lon="5.63055">
        <ele>1098</ele>
        <time>2018-05-23T15:12:30Z</time>
      </trkpt>
      <trkpt lat="44.69648" lon="5.63057">
        <ele>1099</ele>
        <time>2018-05-23T15:12:46Z</time>
      </trkpt>
      <trkpt lat="44.69653" lon="5.63063">
        <ele>1099</ele>
        <time>2018-05-23T15:13:06Z</time>
      </trkpt>
      <trkpt lat="44.69655" lon="5.63073">
        <ele>1100</ele>
        <time>2018-05-23T15:13:12Z</time>
      </trkpt>
      <trkpt lat="44.69654" lon="5.63091">
        <ele>1096</ele>
        <time>2018-05-23T15:13:14Z</time>
      </trkpt>
      <trkpt lat="44.69649" lon="5.63127">
        <ele>1093</ele>
        <time>2018-05-23T15:13:24Z</time>
      </trkpt>
      <trkpt lat="44.6965" lon="5.63164">
        <ele>1098</ele>
        <time>2018-05-23T15:13:31Z</time>
      </trkpt>
      <trkpt lat="44.69648" lon="5.63185">
        <ele>1097</ele>
        <time>2018-05-23T15:13:40Z</time>
      </trkpt>
      <trkpt lat="44.69634" lon="5.63249">
        <ele>1096</ele>
        <time>2018-05-23T15:13:56Z</time>
      </trkpt>
      <trkpt lat="44.69629" lon="5.63279">
        <ele>1098</ele>
        <time>2018-05-23T15:14:09Z</time>
      </trkpt>
      <trkpt lat="44.69629" lon="5.63299">
        <ele>1099</ele>
        <time>2018-05-23T15:14:28Z</time>
      </trkpt>
      <trkpt lat="44.69638" lon="5.63346">
        <ele>1106</ele>
        <time>2018-05-23T15:14:31Z</time>
      </trkpt>
      <trkpt lat="44.69649" lon="5.6339">
        <ele>1108</ele>
        <time>2018-05-23T15:14:35Z</time>
      </trkpt>
      <trkpt lat="44.6965" lon="5.63405">
        <ele>1110</ele>
        <time>2018-05-23T15:14:44Z</time>
      </trkpt>
      <trkpt lat="44.69648" lon="5.63421">
        <ele>1115</ele>
        <time>2018-05-23T15:14:57Z</time>
      </trkpt>
      <trkpt lat="44.69643" lon="5.63435">
        <ele>1114</ele>
        <time>2018-05-23T15:15:13Z</time>
      </trkpt>
      <trkpt lat="44.69637" lon="5.63447">
        <ele>1114</ele>
        <time>2018-05-23T15:15:17Z</time>
      </trkpt>
      <trkpt lat="44.69611" lon="5.63469">
        <ele>1113</ele>
        <time>2018-05-23T15:15:37Z</time>
      </trkpt>
      <trkpt lat="44.69578" lon="5.63497">
        <ele>1107</ele>
        <time>2018-05-23T15:15:43Z</time>
      </trkpt>
      <trkpt lat="44.69567" lon="5.63514">
        <ele>1105</ele>
        <time>2018-05-23T15:16:00Z</time>
      </trkpt>
      <trkpt lat="44.69566" lon="5.63528">
        <ele>1104</ele>
        <time>2018-05-23T15:16:14Z</time>
      </trkpt>
      <trkpt lat="44.6957" lon="5.63542">
        <ele>1104</ele>
        <time>2018-05-23T15:16:32Z</time>
      </trkpt>
      <trkpt lat="44.69595" lon="5.6362">
        <ele>1121</ele>
        <time>2018-05-23T15:16:43Z</time>
      </trkpt>
      <trkpt lat="44.69618" lon="5.63703">
        <ele>1121</ele>
        <time>2018-05-23T15:16:52Z</time>
      </trkpt>
      <trkpt lat="44.69643" lon="5.63789">
        <ele>1125</ele>
        <time>2018-05-23T15:17:05Z</time>
      </trkpt>
      <trkpt lat="44.69648" lon="5.63822">
        <ele>1128</ele>
        <time>2018-05-23T15:17:17Z</time>
      </trkpt>
      <trkpt lat="44.69649" lon="5.6385">
        <ele>1130</ele>
        <time>2018-05-23T15:17:29Z</time>
      </trkpt>
      <trkpt lat="44.69646" lon="5.63915">
        <ele>1132</ele>
        <time>2018-05-23T15:17:41Z</time>
      </trkpt>
      <trkpt lat="44.69645" lon="5.63994">
        <ele>1136</ele>
        <time>2018-05-23T15:17:47Z</time>
      </trkpt>
      <trkpt lat="44.6965" lon="5.64077">
        <ele>1141</ele>
        <time>2018-05-23T15:18:05Z</time>
      </trkpt>
      <trkpt lat="44.69661" lon="5.64157">
        <ele>1144</ele>
        <time>2018-05-23T15:18:08Z</time>
      </trkpt>
      <trkpt lat="44.69672" lon="5.64206">
        <ele>1155</ele>
        <time>2018-05-23T15:18:20Z</time>
      </trkpt>
      <trkpt lat="44.69674" lon="5.64231">
        <ele>1153</ele>
        <time>2018-05-23T15:18:26Z</time>
      </trkpt>
      <trkpt lat="44.69662" lon="5.64385">
        <ele>1158</ele>
        <time>2018-05-23T15:18:42Z</time>
      </trkpt>
      <trkpt lat="44.6966" lon="5.64419">
        <ele>1162</ele>
        <time>2018-05-23T15:18:51Z</time>
      </trkpt>
      <trkpt lat="44.69662" lon="5.64459">
        <ele>1164</ele>
        <time>2018-05-23T15:18:53Z</time>
      </trkpt>
      <trkpt lat="44.69668" lon="5.64505">
        <ele>1167</ele>
        <time>2018-05-23T15:19:12Z</time>
      </trkpt>
      <trkpt lat="44.69672" lon="5.6451">
        <ele>1169</ele>
        <time>2018-05-23T15:19:26Z</time>
      </trkpt>
      <trkpt lat="44.69676" lon="5.6451">
        <ele>1170</ele>
        <time>2018-05-23T15:19:30Z</time>
      </trkpt>
      <trkpt lat="44.6968" lon="5.64504">
        <ele>1170</ele>
        <time>2018-05-23T15:19:33Z</time>
      </trkpt>
      <trkpt lat="44.69681" lon="5.64495">
        <ele>1171</ele>
        <time>2018-05-23T15:19:48Z</time>
      </trkpt>
      <trkpt lat="44.69675" lon="5.64448">
        <ele>1172</ele>
        <time>2018-05-23T15:19:52Z</time>
      </trkpt>
      <trkpt lat="44.69675" lon="5.64431">
        <ele>1169</ele>
        <time>2018-05-23T15:20:07Z</time>
      </trkpt>
      <trkpt lat="44.69679" lon="5.64402">
        <ele>1167</ele>
        <time>2018-05-23T15:20:15Z</time>
      </trkpt>
      <trkpt lat="44.69689" lon="5.64354">
        <ele>1167</ele>
        <time>2018-05-23T15:20:17Z</time>
      </trkpt>
      <trkpt lat="44.69699" lon="5.64319">
        <ele>1163</ele>
        <time>2018-05-23T15:20:20Z</time>
      </trkpt>
      <trkpt lat="44.69707" lon="5.64304">
        <ele>1164</ele>
        <time>2018-05-23T15:20:30Z</time>
      </trkpt>
      <trkpt lat="44.69722" lon="5.64289">
        <ele>1166</ele>
        <time>2018-05-23T15:20:41Z</time>
      </trkpt>
      <trkpt lat="44.69737" lon="5.64272">
        <ele>1168</ele>
        <time>2018-05-23T15:20:45Z</time>
      </trkpt>
      <trkpt lat="44.69742" lon="5.64257">
        <ele>1170</ele>
        <time>2018-05-23T15:21:00Z</time>
      </trkpt>
      <trkpt lat="44.69744" lon="5.64241">
        <ele>1169</ele>
        <time>2018-05-23T15:21:02Z</time>
      </trkpt>
      <trkpt lat="44.69741" lon="5.64223">
        <ele>1166</ele>
        <time>2018-05-23T15:21:13Z</time>
      </trkpt>
      <trkpt lat="44.69724" lon="5.64173">
        <ele>1166</ele>
        <time>2018-05-23T15:21:24Z</time>
      </trkpt>
      <trkpt lat="44.69719" lon="5.64155">
        <ele>1166</ele>
        <time>2018-05-23T15:21:39Z</time>
      </trkpt>
      <trkpt lat="44.69714" lon="5.64117">
        <ele>1164</ele>
        <time>2018-05-23T15:21:45Z</time>
      </trkpt>
      <trkpt lat="44.69714" lon="5.64067">
        <ele>1165</ele>
        <time>2018-05-23T15:22:02Z</time>
      </trkpt>
      <trkpt lat="44.69718" lon="5.64018">
        <ele>1166</ele>
        <time>2018-05-23T15:22:04Z</time>
      </trkpt>
      <trkpt lat="44.69724" lon="5.63969">
        <ele>1165</ele>
        <time>2018-05-23T15:22:15Z</time>
      </trkpt>
      <trkpt lat="44.69729" lon="5.63946">
        <ele>1166</ele>
        <time>2018-05-23T15:22:32Z</time>
      </trkpt>
      <trkpt lat="44.69741" lon="5.63909">
        <ele>1170</ele>
        <time>2018-05-23T15:22:51Z</time>
      </trkpt>
      <trkpt lat="44.69749" lon="5.63879">
        <ele>1165</ele>
        <time>2018-05-23T15:23:00Z</time>
      </trkpt>
      <trkpt lat="44.69752" lon="5.63819">
        <ele>1181</ele>
        <time>2018-05-23T15:23:06Z</time>
      </trkpt>
      <trkpt lat="44.69757" lon="5.638">
        <ele>1183</ele>
        <time>2018-05-23T15:23:16Z</time>
      </trkpt>
      <trkpt lat="44.69763" lon="5.63789">
        <ele>1184</ele>
        <time>2018-05-23T15:23:26Z</time>
      </trkpt>
      <trkpt lat="44.69771" lon="5.63779">
        <ele>1184</ele>
        <time>2018-05-23T15:23:34Z</time>
      </trkpt>
      <trkpt lat="44.6979" lon="5.63764">
        <ele>1187</ele>
        <time>2018-05-23T15:23:51Z</time>
      </trkpt>
      <trkpt lat="44.69802" lon="5.63751">
        <ele>1190</ele>
        <time>2018-05-23T15:24:08Z</time>
      </trkpt>
      <trkpt lat="44.69817" lon="5.63727">
        <ele>1190</ele>
        <time>2018-05-23T15:24:10Z</time>
      </trkpt>
      <trkpt lat="44.69824" lon="5.63709">
        <ele>1190</ele>
        <time>2018-05-23T15:24:26Z</time>
      </trkpt>
      <trkpt lat="44.69826" lon="5.63699">
        <ele>1191</ele>
        <time>2018-05-23T15:24:38Z</time>
      </trkpt>
      <trkpt lat="44.69824" lon="5.63618">
        <ele>1187</ele>
        <time>2018-05-23T15:24:43Z</time>
      </trkpt>
      <trkpt lat="44.69826" lon="5.636">
        <ele>1189</ele>
        <time>2018-05-23T15:24:50Z</time>
      </trkpt>
      <trkpt lat="44.69831" lon="5.63584">
        <ele>1194</ele>
        <time>2018-05-23T15:24:56Z</time>
      </trkpt>
      <trkpt lat="44.69839" lon="5.63569">
        <ele>1201</ele>
        <time>2018-05-23T15:25:10Z</time>
      </trkpt>
      <trkpt lat="44.6986" lon="5.63546">
        <ele>1205</ele>
        <time>2018-05-23T15:25:29Z</time>
      </trkpt>
      <trkpt lat="44.69875" lon="5.63525">
        <ele>1207</ele>
        <time>2018-05-23T15:25:49Z</time>
      </trkpt>
      <trkpt lat="44.69889" lon="5.6349">
        <ele>1206</ele>
        <time>2018-05-23T15:25:54Z</time>
      </trkpt>
      <trkpt lat="44.69893" lon="5.6347">
        <ele>1206</ele>
        <time>2018-05-23T15:26:05Z</time>
      </trkpt>
      <trkpt lat="44.69894" lon="5.63449">
        <ele>1206</ele>
        <time>2018-05-23T15:26:14Z</time>
      </trkpt>
      <trkpt lat="44.69887" lon="5.63356">
        <ele>1206</ele>
        <time>2018-05-23T15:26:27Z</time>
      </trkpt>
      <trkpt lat="44.69889" lon="5.63337">
        <ele>1207</ele>
        <time>2018-05-23T15:26:29Z</time>
      </trkpt>
      <trkpt lat="44.69892" lon="5.63331">
        <ele>1207</ele>
        <time>2018-05-23T15:26:39Z</time>
      </trkpt>
      <trkpt lat="44.69897" lon="5.6333">
        <ele>1208</ele>
        <time>2018-05-23T15:26:43Z</time>
      </trkpt>
      <trkpt lat="44.699" lon="5.63333">
        <ele>1210</ele>
        <time>2018-05-23T15:26:56Z</time>
      </trkpt>
      <trkpt lat="44.69899" lon="5.63363">
        <ele>1208</ele>
        <time>2018-05-23T15:26:58Z</time>
      </trkpt>
      <trkpt lat="44.699" lon="5.63383">
        <ele>1208</ele>
        <time>2018-05-23T15:27:06Z</time>
      </trkpt>
      <trkpt lat="44.69909" lon="5.63413">
        <ele>1215</ele>
        <time>2018-05-23T15:27:10Z</time>
      </trkpt>
      <trkpt lat="44.69925" lon="5.6346">
        <ele>1231</ele>
        <time>2018-05-23T15:27:13Z</time>
      </trkpt>
      <trkpt lat="44.69928" lon="5.63477">
        <ele>1230</ele>
        <time>2018-05-23T15:27:18Z</time>
      </trkpt>
      <trkpt lat="44.69927" lon="5.63495">
        <ele>1226</ele>
        <time>2018-05-23T15:27:31Z</time>
      </trkpt>
      <trkpt lat="44.69922" lon="5.63513">
        <ele>1230</ele>
        <time>2018-05-23T15:27:37Z</time>
      </trkpt>
      <trkpt lat="44.69914" lon="5.63529">
        <ele>1214</ele>
        <time>2018-05-23T15:27:53Z</time>
      </trkpt>
      <trkpt lat="44.69897" lon="5.63559">
        <ele>1215</ele>
        <time>2018-05-23T15:28:12Z</time>
      </trkpt>
      <trkpt lat="44.69889" lon="5.63574">
        <ele>1215</ele>
        <time>2018-05-23T15:28:24Z</time>
      </trkpt>
      <trkpt lat="44.6988" lon="5.63598">
        <ele>1219</ele>
        <time>2018-05-23T15:28:41Z</time>
      </trkpt>
      <trkpt lat="44.69878" lon="5.63616">
        <ele>1219</ele>
        <time>2018-05-23T15:28:56Z</time>
      </trkpt>
      <trkpt lat="44.69877" lon="5.63644">
        <ele>1220</ele>
        <time>2018-05-23T15:29:10Z</time>
      </trkpt>
      <trkpt lat="44.69879" lon="5.63664">
        <ele>1222</ele>
        <time>2018-05-23T15:29:22Z</time>
      </trkpt>
      <trkpt lat="44.69884" lon="5.63682">
        <ele>1224</ele>
        <time>2018-05-23T15:29:34Z</time>
      </trkpt>
      <trkpt lat="44.69911" lon="5.63747">
        <ele>1234</ele>
        <time>2018-05-23T15:29:52Z</time>
      </trkpt>
      <trkpt lat="44.69928" lon="5.63799">
        <ele>1245</ele>
        <time>2018-05-23T15:30:04Z</time>
      </trkpt>
      <trkpt lat="44.69939" lon="5.63841">
        <ele>1241</ele>
        <time>2018-05-23T15:30:18Z</time>
      </trkpt>
      <trkpt lat="44.69957" lon="5.64009">
        <ele>1246</ele>
        <time>2018-05-23T15:30:37Z</time>
      </trkpt>
      <trkpt lat="44.69964" lon="5.64058">
        <ele>1247</ele>
        <time>2018-05-23T15:30:50Z</time>
      </trkpt>
      <trkpt lat="44.69981" lon="5.6413">
        <ele>1248</ele>
        <time>2018-05-23T15:30:54Z</time>
      </trkpt>
      <trkpt lat="44.69996" lon="5.64183">
        <ele>1251</ele>
        <time>2018-05-23T15:30:57Z</time>
      </trkpt>
      <trkpt lat="44.70008" lon="5.64213">
        <ele>1263</ele>
        <time>2018-05-23T15:31:03Z</time>
      </trkpt>
      <trkpt lat="44.70015" lon="5.64235">
        <ele>1261</ele>
        <time>2018-05-23T15:31:08Z</time>
      </trkpt>
      <trkpt lat="44.7002" lon="5.64257">
        <ele>1260</ele>
        <time>2018-05-23T15:31:15Z</time>
      </trkpt>
      <trkpt lat="44.70026" lon="5.64314">
        <ele>1262</ele>
        <time>2018-05-23T15:31:32Z</time>
      </trkpt>
      <trkpt lat="44.70032" lon="5.64352">
        <ele>1263</ele>
        <time>2018-05-23T15:31:40Z</time>
      </trkpt>
      <trkpt lat="44.70034" lon="5.64399">
        <ele>1264</ele>
        <time>2018-05-23T15:32:00Z</time>
      </trkpt>
      <trkpt lat="44.70037" lon="5.64442">
        <ele>1266</ele>
        <time>2018-05-23T15:32:06Z</time>
      </trkpt>
      <trkpt lat="44.70047" lon="5.64472">
        <ele>1268</ele>
        <time>2018-05-23T15:32:16Z</time>
      </trkpt>
      <trkpt lat="44.7007" lon="5.64523">
        <ele>1271</ele>
        <time>2018-05-23T15:32:29Z</time>
      </trkpt>
      <trkpt lat="44.70074" lon="5.6454">
        <ele>1271</ele>
        <time>2018-05-23T15:32:33Z</time>
      </trkpt>
      <trkpt lat="44.70074" lon="5.64556">
        <ele>1271</ele>
        <time>2018-05-23T15:32:51Z</time>
      </trkpt>
      <trkpt lat="44.70072" lon="5.64571">
        <ele>1272</ele>
        <time>2018-05-23T15:32:55Z</time>
      </trkpt>
      <trkpt lat="44.7006" lon="5.64615">
        <ele>1272</ele>
        <time>2018-05-23T15:33:03Z</time>
      </trkpt>
      <trkpt lat="44.70056" lon="5.6465">
        <ele>1274</ele>
        <time>2018-05-23T15:33:11Z</time>
      </trkpt>
      <trkpt lat="44.70052" lon="5.64722">
        <ele>1276</ele>
        <time>2018-05-23T15:33:24Z</time>
      </trkpt>
      <trkpt lat="44.70056" lon="5.6475">
        <ele>1278</ele>
        <time>2018-05-23T15:33:42Z</time>
      </trkpt>
      <trkpt lat="44.70063" lon="5.6477">
        <ele>1277</ele>
        <time>2018-05-23T15:34:02Z</time>
      </trkpt>
      <trkpt lat="44.70072" lon="5.64786">
        <ele>1277</ele>
        <time>2018-05-23T15:34:22Z</time>
      </trkpt>
      <trkpt lat="44.70088" lon="5.64802">
        <ele>1288</ele>
        <time>2018-05-23T15:34:40Z</time>
      </trkpt>
      <trkpt lat="44.7012" lon="5.64823">
        <ele>1291</ele>
        <time>2018-05-23T15:34:52Z</time>
      </trkpt>
      <trkpt lat="44.70133" lon="5.64834">
        <ele>1294</ele>
        <time>2018-05-23T15:34:55Z</time>
      </trkpt>
      <trkpt lat="44.70138" lon="5.64848">
        <ele>1295</ele>
        <time>2018-05-23T15:35:05Z</time>
      </trkpt>
      <trkpt lat="44.70142" lon="5.64866">
        <ele>1295</ele>
        <time>2018-05-23T15:35:10Z</time>
      </trkpt>
      <trkpt lat="44.7014" lon="5.64889">
        <ele>1296</ele>
        <time>2018-05-23T15:35:26Z</time>
      </trkpt>
      <trkpt lat="44.70135" lon="5.64902">
        <ele>1296</ele>
        <time>2018-05-23T15:35:46Z</time>
      </trkpt>
      <trkpt lat="44.70123" lon="5.64909">
        <ele>1294</ele>
        <time>2018-05-23T15:35:57Z</time>
      </trkpt>
      <trkpt lat="44.70094" lon="5.64915">
        <ele>1291</ele>
        <time>2018-05-23T15:36:06Z</time>
      </trkpt>
      <trkpt lat="44.70073" lon="5.64923">
        <ele>1290</ele>
        <time>2018-05-23T15:36:26Z</time>
      </trkpt>
      <trkpt lat="44.70064" lon="5.64933">
        <ele>1291</ele>
        <time>2018-05-23T15:36:42Z</time>
      </trkpt>
      <trkpt lat="44.7005" lon="5.64961">
        <ele>1294</ele>
        <time>2018-05-23T15:36:50Z</time>
      </trkpt>
      <trkpt lat="44.70026" lon="5.65001">
        <ele>1305</ele>
        <time>2018-05-23T15:37:02Z</time>
      </trkpt>
      <trkpt lat="44.70009" lon="5.65013">
        <ele>1303</ele>
        <time>2018-05-23T15:37:19Z</time>
      </trkpt>
      <trkpt lat="44.6999" lon="5.65013">
        <ele>1299</ele>
        <time>2018-05-23T15:37:25Z</time>
      </trkpt>
      <trkpt lat="44.69971" lon="5.65009">
        <ele>1300</ele>
        <time>2018-05-23T15:37:30Z</time>
      </trkpt>
      <trkpt lat="44.69961" lon="5.6501">
        <ele>1300</ele>
        <time>2018-05-23T15:37:41Z</time>
      </trkpt>
      <trkpt lat="44.69952" lon="5.65013">
        <ele>1299</ele>
        <time>2018-05-23T15:37:49Z</time>
      </trkpt>
      <trkpt lat="44.6994" lon="5.65021">
        <ele>1299</ele>
        <time>2018-05-23T15:38:00Z</time>
      </trkpt>
      <trkpt lat="44.69918" lon="5.65039">
        <ele>1301</ele>
        <time>2018-05-23T15:38:02Z</time>
      </trkpt>
      <trkpt lat="44.69893" lon="5.65051">
        <ele>1299</ele>
        <time>2018-05-23T15:38:20Z</time>
      </trkpt>
      <trkpt lat="44.69862" lon="5.65056">
        <ele>1298</ele>
        <time>2018-05-23T15:38:34Z</time>
      </trkpt>
      <trkpt lat="44.69844" lon="5.65062">
        <ele>1299</ele>
        <time>2018-05-23T15:38:52Z</time>
      </trkpt>
      <trkpt lat="44.69822" lon="5.6507">
        <ele>1298</ele>
        <time>2018-05-23T15:38:57Z</time>
      </trkpt>
      <trkpt lat="44.69805" lon="5.65075">
        <ele>1297</ele>
        <time>2018-05-23T15:39:05Z</time>
      </trkpt>
      <trkpt lat="44.69781" lon="5.65079">
        <ele>1297</ele>
        <time>2018-05-23T15:39:11Z</time>
      </trkpt>
      <trkpt lat="44.69754" lon="5.65081">
        <ele>1304</ele>
        <time>2018-05-23T15:39:26Z</time>
      </trkpt>
      <trkpt lat="44.69723" lon="5.65079">
        <ele>1294</ele>
        <time>2018-05-23T15:39:42Z</time>
      </trkpt>
      <trkpt lat="44.69702" lon="5.65079">
        <ele>1292</ele>
        <time>2018-05-23T15:39:46Z</time>
      </trkpt>
      <trkpt lat="44.69682" lon="5.65086">
        <ele>1304</ele>
        <time>2018-05-23T15:39:50Z</time>
      </trkpt>
      <trkpt lat="44.69672" lon="5.65092">
        <ele>1302</ele>
        <time>2018-05-23T15:40:06Z</time>
      </trkpt>
      <trkpt lat="44.6966" lon="5.65104">
        <ele>1302</ele>
        <time>2018-05-23T15:40:13Z</time>
      </trkpt>
      <trkpt lat="44.69646" lon="5.65127">
        <ele>1305</ele>
        <time>2018-05-23T15:40:24Z</time>
      </trkpt>
      <trkpt lat="44.69621" lon="5.65174">
        <ele>1320</ele>
        <time>2018-05-23T15:40:36Z</time>
      </trkpt>
      <trkpt lat="44.69605" lon="5.65192">
        <ele>1320</ele>
        <time>2018-05-23T15:40:55Z</time>
      </trkpt>
      <trkpt lat="44.69591" lon="5.65203">
        <ele>1321</ele>
        <time>2018-05-23T15:41:00Z</time>
      </trkpt>
      <trkpt lat="44.69574" lon="5.65213">
        <ele>1314</ele>
        <time>2018-05-23T15:41:08Z</time>
      </trkpt>
      <trkpt lat="44.69543" lon="5.65223">
        <ele>1313</ele>
        <time>2018-05-23T15:41:24Z</time>
      </trkpt>
      <trkpt lat="44.69483" lon="5.65253">
        <ele>1317</ele>
        <time>2018-05-23T15:41:38Z</time>
      </trkpt>
      <trkpt lat="44.69448" lon="5.65276">
        <ele>1319</ele>
        <time>2018-05-23T15:41:50Z</time>
      </trkpt>
      <trkpt lat="44.69406" lon="5.65299">
        <ele>1315</ele>
        <time>2018-05-23T15:42:09Z</time>
      </trkpt>
      <trkpt lat="44.69348" lon="5.65327">
        <ele>1316</ele>
        <time>2018-05-23T15:42:13Z</time>
      </trkpt>
      <trkpt lat="44.69285" lon="5.65347">
        <ele>1322</ele>
        <time>2018-05-23T15:42:30Z</time>
      </trkpt>
      <trkpt lat="44.69223" lon="5.65363">
        <ele>1319</ele>
        <time>2018-05-23T15:42:43Z</time>
      </trkpt>
      <trkpt lat="44.69171" lon="5.65375">
        <ele>1319</ele>
        <time>2018-05-23T15:42:48Z</time>
      </trkpt>
      <trkpt lat="44.69149" lon="5.6539">
        <ele>1321</ele>
        <time>2018-05-23T15:42:59Z</time>
      </trkpt>
      <trkpt lat="44.69138" lon="5.65402">
        <ele>1321</ele>
        <time>2018-05-23T15:43:15Z</time>
      </trkpt>
      <trkpt lat="44.69131" lon="5.65413">
        <ele>1320</ele>
        <time>2018-05-23T15:43:22Z</time>
      </trkpt>
      <trkpt lat="44.69126" lon="5.65427">
        <ele>1318</ele>
        <time>2018-05-23T15:43:30Z</time>
      </trkpt>
      <trkpt lat="44.69122" lon="5.65454">
        <ele>1317</ele>
        <time>2018-05-23T15:43:45Z</time>
      </trkpt>
      <trkpt lat="44.69119" lon="5.65498">
        <ele>1316</ele>
        <time>2018-05-23T15:44:02Z</time>
      </trkpt>
      <trkpt lat="44.69111" lon="5.65526">
        <ele>1318</ele>
        <time>2018-05-23T15:44:21Z</time>
      </trkpt>
      <trkpt lat="44.69082" lon="5.65603">
        <ele>1306</ele>
        <time>2018-05-23T15:44:36Z</time>
      </trkpt>
      <trkpt lat="44.69073" lon="5.65623">
        <ele>1306</ele>
        <time>2018-05-23T15:44:46Z</time>
      </trkpt>
      <trkpt lat="44.69057" lon="5.65648">
        <ele>1306</ele>
        <time>2018-05-23T15:44:53Z</time>
      </trkpt>
      <trkpt lat="44.68991" lon="5.65744">
        <ele>1296</ele>
        <time>2018-05-23T15:45:09Z</time>
      </trkpt>
      <trkpt lat="44.68962" lon="5.65795">
        <ele>1294</ele>
        <time>2018-05-23T15:45:20Z</time>
      </trkpt>
      <trkpt lat="44.68943" lon="5.65838">
        <ele>1300</ele>
        <time>2018-05-23T15:45:31Z</time>
      </trkpt>
      <trkpt lat="44.68927" lon="5.65878">
        <ele>1303</ele>
        <time>2018-05-23T15:45:51Z</time>
      </trkpt>
      <trkpt lat="44.68909" lon="5.65914">
        <ele>1286</ele>
        <time>2018-05-23T15:46:06Z</time>
      </trkpt>
      <trkpt lat="44.68887" lon="5.65954">
        <ele>1281</ele>
        <time>2018-05-23T15:46:21Z</time>
      </trkpt>
      <trkpt lat="44.68876" lon="5.65975">
        <ele>1280</ele>
        <time>2018-05-23T15:46:25Z</time>
      </trkpt>
      <trkpt lat="44.6887" lon="5.65994">
        <ele>1278</ele>
        <time>2018-05-23T15:46:30Z</time>
      </trkpt>
      <trkpt lat="44.68854" lon="5.66049">
        <ele>1289</ele>
        <time>2018-05-23T15:46:34Z</time>
      </trkpt>
      <trkpt lat="44.6884" lon="5.66105">
        <ele>1292</ele>
        <time>2018-05-23T15:46:38Z</time>
      </trkpt>
      <trkpt lat="44.68827" lon="5.66162">
        <ele>1273</ele>
        <time>2018-05-23T15:46:49Z</time>
      </trkpt>
      <trkpt lat="44.68823" lon="5.66196">
        <ele>1265</ele>
        <time>2018-05-23T15:46:57Z</time>
      </trkpt>
      <trkpt lat="44.68825" lon="5.66233">
        <ele>1267</ele>
        <time>2018-05-23T15:47:03Z</time>
      </trkpt>
      <trkpt lat="44.68833" lon="5.6627">
        <ele>1262</ele>
        <time>2018-05-23T15:47:16Z</time>
      </trkpt>
      <trkpt lat="44.68845" lon="5.66315">
        <ele>1278</ele>
        <time>2018-05-23T15:47:27Z</time>
      </trkpt>
      <trkpt lat="44.68854" lon="5.6633">
        <ele>1278</ele>
        <time>2018-05-23T15:47:42Z</time>
      </trkpt>
      <trkpt lat="44.68868" lon="5.66339">
        <ele>1271</ele>
        <time>2018-05-23T15:47:45Z</time>
      </trkpt>
      <trkpt lat="44.6889" lon="5.66358">
        <ele>1276</ele>
        <time>2018-05-23T15:48:00Z</time>
      </trkpt>
      <trkpt lat="44.68907" lon="5.66393">
        <ele>1273</ele>
        <time>2018-05-23T15:48:18Z</time>
      </trkpt>
      <trkpt lat="44.68914" lon="5.66437">
        <ele>1263</ele>
        <time>2018-05-23T15:48:35Z</time>
      </trkpt>
      <trkpt lat="44.68916" lon="5.66465">
        <ele>1259</ele>
        <time>2018-05-23T15:48:55Z</time>
      </trkpt>
      <trkpt lat="44.6891" lon="5.66494">
        <ele>1265</ele>
        <time>2018-05-23T15:49:10Z</time>
      </trkpt>
      <trkpt lat="44.68872" lon="5.66615">
        <ele>1251</ele>
        <time>2018-05-23T15:49:26Z</time>
      </trkpt>
      <trkpt lat="44.68843" lon="5.66681">
        <ele>1239</ele>
        <time>2018-05-23T15:49:29Z</time>
      </trkpt>
      <trkpt lat="44.68836" lon="5.66702">
        <ele>1241</ele>
        <time>2018-05-23T15:49:31Z</time>
      </trkpt>
      <trkpt lat="44.68832" lon="5.66722">
        <ele>1211</ele>
        <time>2018-05-23T15:49:45Z</time>
      </trkpt>
      <trkpt lat="44.68832" lon="5.66732">
        <ele>1213</ele>
        <time>2018-05-23T15:49:50Z</time>
      </trkpt>
      <trkpt lat="44.68834" lon="5.66744">
        <ele>1230</ele>
        <time>2018-05-23T15:50:06Z</time>
      </trkpt>
      <trkpt lat="44.6884" lon="5.66755">
        <ele>1225</ele>
        <time>2018-05-23T15:50:21Z</time>
      </trkpt>
      <trkpt lat="44.68846" lon="5.66759">
        <ele>1225</ele>
        <time>2018-05-23T15:50:33Z</time>
      </trkpt>
      <trkpt lat="44.68854" lon="5.66763">
        <ele>1225</ele>
        <time>2018-05-23T15:50:42Z</time>
      </trkpt>
      <trkpt lat="44.68872" lon="5.66761">
        <ele>1228</ele>
        <time>2018-05-23T15:50:51Z</time>
      </trkpt>
      <trkpt lat="44.68897" lon="5.66757">
        <ele>1237</ele>
        <time>2018-05-23T15:50:56Z</time>
      </trkpt>
      <trkpt lat="44.68914" lon="5.66759">
        <ele>1244</ele>
        <time>2018-05-23T15:51:11Z</time>
      </trkpt>
      <trkpt lat="44.6893" lon="5.66767">
        <ele>1255</ele>
        <time>2018-05-23T15:51:27Z</time>
      </trkpt>
      <trkpt lat="44.68939" lon="5.66775">
        <ele>1256</ele>
        <time>2018-05-23T15:51:33Z</time>
      </trkpt>
      <trkpt lat="44.68944" lon="5.6678">
        <ele>1256</ele>
        <time>2018-05-23T15:51:48Z</time>
      </trkpt>
      <trkpt lat="44.68953" lon="5.66796">
        <ele>1256</ele>
        <time>2018-05-23T15:52:04Z</time>
      </trkpt>
      <trkpt lat="44.68955" lon="5.66808">
        <ele>1254</ele>
        <time>2018-05-23T15:52:17Z</time>
      </trkpt>
      <trkpt lat="44.68956" lon="5.66827">
        <ele>1253</ele>
        <time>2018-05-23T15:52:27Z</time>
      </trkpt>
      <trkpt lat="44.68952" lon="5.66851">
        <ele>1244</ele>
        <time>2018-05-23T15:52:30Z</time>
      </trkpt>
      <trkpt lat="44.6894" lon="5.66901">
        <ele>1237</ele>
        <time>2018-05-23T15:52:48Z</time>
      </trkpt>
      <trkpt lat="44.68926" lon="5.66948">
        <ele>1237</ele>
        <time>2018-05-23T15:53:08Z</time>
      </trkpt>
      <trkpt lat="44.68909" lon="5.66999">
        <ele>1216</ele>
        <time>2018-05-23T15:53:13Z</time>
      </trkpt>
      <trkpt lat="44.68896" lon="5.67047">
        <ele>1202</ele>
        <time>2018-05-23T15:53:28Z</time>
      </trkpt>
      <trkpt lat="44.68883" lon="5.67103">
        <ele>1194</ele>
        <time>2018-05-23T15:53:46Z</time>
      </trkpt>
      <trkpt lat="44.68882" lon="5.67121">
        <ele>1191</ele>
        <time>2018-05-23T15:53:56Z</time>
      </trkpt>
      <trkpt lat="44.68888" lon="5.67137">
        <ele>1191</ele>
        <time>2018-05-23T15:54:05Z</time>
      </trkpt>
      <trkpt lat="44.68894" lon="5.67144">
        <ele>1193</ele>
        <time>2018-05-23T15:54:22Z</time>
      </trkpt>
      <trkpt lat="44.68903" lon="5.67147">
        <ele>1195</ele>
        <time>2018-05-23T15:54:30Z</time>
      </trkpt>
      <trkpt lat="44.68928" lon="5.67144">
        <ele>1213</ele>
        <time>2018-05-23T15:54:39Z</time>
      </trkpt>
      <trkpt lat="44.68957" lon="5.67136">
        <ele>1216</ele>
        <time>2018-05-23T15:54:42Z</time>
      </trkpt>
      <trkpt lat="44.68989" lon="5.67131">
        <ele>1217</ele>
        <time>2018-05-23T15:54:50Z</time>
      </trkpt>
      <trkpt lat="44.69043" lon="5.67118">
        <ele>1215</ele>
        <time>2018-05-23T15:55:10Z</time>
      </trkpt>
      <trkpt lat="44.69117" lon="5.67107">
        <ele>1206</ele>
        <time>2018-05-23T15:55:28Z</time>
      </trkpt>
      <trkpt lat="44.69141" lon="5.67104">
        <ele>1205</ele>
        <time>2018-05-23T15:55:30Z</time>
      </trkpt>
      <trkpt lat="44.69165" lon="5.67109">
        <ele>1204</ele>
        <time>2018-05-23T15:55:35Z</time>
      </trkpt>
      <trkpt lat="44.69191" lon="5.67119">
        <ele>1205</ele>
        <time>2018-05-23T15:55:46Z</time>
      </trkpt>
      <trkpt lat="44.69214" lon="5.67118">
        <ele>1206</ele>
        <time>2018-05-23T15:55:53Z</time>
      </trkpt>
      <trkpt lat="44.69225" lon="5.6712">
        <ele>1207</ele>
        <time>2018-05-23T15:56:13Z</time>
      </trkpt>
      <trkpt lat="44.69232" lon="5.67124">
        <ele>1207</ele>
        <time>2018-05-23T15:56:31Z</time>
      </trkpt>
      <trkpt lat="44.69236" lon="5.67129">
        <ele>1207</ele>
        <time>2018-05-23T15:56:35Z</time>
      </trkpt>
      <trkpt lat="44.69239" lon="5.67143">
        <ele>1207</ele>
        <time>2018-05-23T15:56:48Z</time>
      </trkpt>
      <trkpt lat="44.69236" lon="5.67156">
        <ele>1207</ele>
        <time>2018-05-23T15:57:00Z</time>
      </trkpt>
      <trkpt lat="44.69221" lon="5.67187">
        <ele>1202</ele>
        <time>2018-05-23T15:57:16Z</time>
      </trkpt>
      <trkpt lat="44.69195" lon="5.67255">
        <ele>1200</ele>
        <time>2018-05-23T15:57:34Z</time>
      </trkpt>
      <trkpt lat="44.69154" lon="5.67349">
        <ele>1183</ele>
        <time>2018-05-23T15:57:44Z</time>
      </trkpt>
      <trkpt lat="44.69128" lon="5.67411">
        <ele>1180</ele>
        <time>2018-05-23T15:58:00Z</time>
      </trkpt>
      <trkpt lat="44.69114" lon="5.67449">
        <ele>1185</ele>
        <time>2018-05-23T15:58:17Z</time>
      </trkpt>
      <trkpt lat="44.69099" lon="5.6749">
        <ele>1181</ele>
        <time>2018-05-23T15:58:24Z</time>
      </trkpt>
      <trkpt lat="44.69085" lon="5.67519">
        <ele>1189</ele>
        <time>2018-05-23T15:58:32Z</time>
      </trkpt>
      <trkpt lat="44.69043" lon="5.67574">
        <ele>1165</ele>
        <time>2018-05-23T15:58:41Z</time>
      </trkpt>
      <trkpt lat="44.6903" lon="5.67596">
        <ele>1175</ele>
        <time>2018-05-23T15:58:50Z</time>
      </trkpt>
      <trkpt lat="44.6901" lon="5.67623">
        <ele>1177</ele>
        <time>2018-05-23T15:59:04Z</time>
      </trkpt>
      <trkpt lat="44.6898" lon="5.67652">
        <ele>1159</ele>
        <time>2018-05-23T15:59:19Z</time>
      </trkpt>
      <trkpt lat="44.68965" lon="5.67664">
        <ele>1155</ele>
        <time>2018-05-23T15:59:26Z</time>
      </trkpt>
      <trkpt lat="44.68943" lon="5.67677">
        <ele>1164</ele>
        <time>2018-05-23T15:59:45Z</time>
      </trkpt>
      <trkpt lat="44.68925" lon="5.67684">
        <ele>1160</ele>
        <time>2018-05-23T15:59:56Z</time>
      </trkpt>
      <trkpt lat="44.68923" lon="5.67686">
        <ele>1160</ele>
        <time>2018-05-23T16:00:04Z</time>
      </trkpt>
      <trkpt lat="44.68913" lon="5.67696">
        <ele>1138</ele>
        <time>2018-05-23T16:00:10Z</time>
      </trkpt>
      <trkpt lat="44.68905" lon="5.67708">
        <ele>1138</ele>
        <time>2018-05-23T16:00:19Z</time>
      </trkpt>
      <trkpt lat="44.68895" lon="5.67733">
        <ele>1142</ele>
        <time>2018-05-23T16:00:38Z</time>
      </trkpt>
      <trkpt lat="44.68885" lon="5.67779">
        <ele>1146</ele>
        <time>2018-05-23T16:00:44Z</time>
      </trkpt>
      <trkpt lat="44.6888" lon="5.67827">
        <ele>1147</ele>
        <time>2018-05-23T16:01:02Z</time>
      </trkpt>
      <trkpt lat="44.68865" lon="5.67891">
        <ele>1149</ele>
        <time>2018-05-23T16:01:04Z</time>
      </trkpt>
      <trkpt lat="44.68852" lon="5.67931">
        <ele>1145</ele>
        <time>2018-05-23T16:01:18Z</time>
      </trkpt>
      <trkpt lat="44.68835" lon="5.67965">
        <ele>1147</ele>
        <time>2018-05-23T16:01:35Z</time>
      </trkpt>
      <trkpt lat="44.688" lon="5.68017">
        <ele>1114</ele>
        <time>2018-05-23T16:01:44Z</time>
      </trkpt>
      <trkpt lat="44.6879" lon="5.68037">
        <ele>1110</ele>
        <time>2018-05-23T16:01:54Z</time>
      </trkpt>
      <trkpt lat="44.68788" lon="5.68056">
        <ele>1109</ele>
        <time>2018-05-23T16:02:14Z</time>
      </trkpt>
      <trkpt lat="44.6879" lon="5.68061">
        <ele>1109</ele>
        <time>2018-05-23T16:02:27Z</time>
      </trkpt>
      <trkpt lat="44.68797" lon="5.68068">
        <ele>1110</ele>
        <time>2018-05-23T16:02:39Z</time>
      </trkpt>
      <trkpt lat="44.68805" lon="5.68068">
        <ele>1112</ele>
        <time>2018-05-23T16:02:58Z</time>
      </trkpt>
      <trkpt lat="44.68817" lon="5.68062">
        <ele>1115</ele>
        <time>2018-05-23T16:03:18Z</time>
      </trkpt>
      <trkpt lat="44.68835" lon="5.68059">
        <ele>1131</ele>
        <time>2018-05-23T16:03:30Z</time>
      </trkpt>
      <trkpt lat="44.68855" lon="5.68057">
        <ele>1134</ele>
        <time>2018-05-23T16:03:48Z</time>
      </trkpt>
      <trkpt lat="44.68875" lon="5.6806">
        <ele>1136</ele>
        <time>2018-05-23T16:03:54Z</time>
      </trkpt>
      <trkpt lat="44.68912" lon="5.68074">
        <ele>1134</ele>
        <time>2018-05-23T16:03:58Z</time>
      </trkpt>
      <trkpt lat="44.68925" lon="5.68078">
        <ele>1135</ele>
        <time>2018-05-23T16:04:03Z</time>
      </trkpt>
      <trkpt lat="44.6894" lon="5.68079">
        <ele>1137</ele>
        <time>2018-05-23T16:04:15Z</time>
      </trkpt>
      <trkpt lat="44.68951" lon="5.68078">
        <ele>1138</ele>
        <time>2018-05-23T16:04:33Z</time>
      </trkpt>
      <trkpt lat="44.68969" lon="5.6807">
        <ele>1137</ele>
        <time>2018-05-23T16:04:50Z</time>
      </trkpt>
      <trkpt lat="44.69017" lon="5.68041">
        <ele>1132</ele>
        <time>2018-05-23T16:05:00Z</time>
      </trkpt>
      <trkpt lat="44.69031" lon="5.68035">
        <ele>1131</ele>
        <time>2018-05-23T16:05:04Z</time>
      </trkpt>
      <trkpt lat="44.69049" lon="5.68029">
        <ele>1130</ele>
        <time>2018-05-23T16:05:11Z</time>
      </trkpt>
      <trkpt lat="44.6907" lon="5.68027">
        <ele>1128</ele>
        <time>2018-05-23T16:05:16Z</time>
      </trkpt>
      <trkpt lat="44.69092" lon="5.68028">
        <ele>1121</ele>
        <time>2018-05-23T16:05:36Z</time>
      </trkpt>
      <trkpt lat="44.69136" lon="5.68027">
        <ele>1119</ele>
        <time>2018-05-23T16:05:56Z</time>
      </trkpt>
      <trkpt lat="44.69149" lon="5.68027">
        <ele>1119</ele>
        <time>2018-05-23T16:06:11Z</time>
      </trkpt>
      <trkpt lat="44.69162" lon="5.68032">
        <ele>1118</ele>
        <time>2018-05-23T16:06:27Z</time>
      </trkpt>
      <trkpt lat="44.69173" lon="5.68042">
        <ele>1115</ele>
        <time>2018-05-23T16:06:42Z</time>
      </trkpt>
      <trkpt lat="44.69182" lon="5.68059">
        <ele>1113</ele>
        <time>2018-05-23T16:06:51Z</time>
      </trkpt>
      <trkpt lat="44.69192" lon="5.6809">
        <ele>1105</ele>
        <time>2018-05-23T16:07:03Z</time>
      </trkpt>
      <trkpt lat="44.69205" lon="5.68112">
        <ele>1104</ele>
        <time>2018-05-23T16:07:15Z</time>
      </trkpt>
      <trkpt lat="44.69247" lon="5.68142">
        <ele>1103</ele>
        <time>2018-05-23T16:07:33Z</time>
      </trkpt>
      <trkpt lat="44.69264" lon="5.68162">
        <ele>1106</ele>
        <time>2018-05-23T16:07:49Z</time>
      </trkpt>
      <trkpt lat="44.69279" lon="5.68188">
        <ele>1098</ele>
        <time>2018-05-23T16:07:55Z</time>
      </trkpt>
      <trkpt lat="44.69293" lon="5.68209">
        <ele>1097</ele>
        <time>2018-05-23T16:08:14Z</time>
      </trkpt>
      <trkpt lat="44.69303" lon="5.68216">
        <ele>1096</ele>
        <time>2018-05-23T16:08:25Z</time>
      </trkpt>
      <trkpt lat="44.69316" lon="5.68221">
        <ele>1096</ele>
        <time>2018-05-23T16:08:42Z</time>
      </trkpt>
      <trkpt lat="44.69345" lon="5.68225">
        <ele>1096</ele>
        <time>2018-05-23T16:08:50Z</time>
      </trkpt>
      <trkpt lat="44.69392" lon="5.6823">
        <ele>1096</ele>
        <time>2018-05-23T16:09:10Z</time>
      </trkpt>
      <trkpt lat="44.69434" lon="5.68231">
        <ele>1094</ele>
        <time>2018-05-23T16:09:16Z</time>
      </trkpt>
      <trkpt lat="44.69453" lon="5.68235">
        <ele>1094</ele>
        <time>2018-05-23T16:09:20Z</time>
      </trkpt>
      <trkpt lat="44.69464" lon="5.68243">
        <ele>1093</ele>
        <time>2018-05-23T16:09:36Z</time>
      </trkpt>
      <trkpt lat="44.69478" lon="5.68258">
        <ele>1081</ele>
        <time>2018-05-23T16:09:50Z</time>
      </trkpt>
      <trkpt lat="44.69487" lon="5.68264">
        <ele>1081</ele>
        <time>2018-05-23T16:10:10Z</time>
      </trkpt>
      <trkpt lat="44.69507" lon="5.68269">
        <ele>1079</ele>
        <time>2018-05-23T16:10:24Z</time>
      </trkpt>
      <trkpt lat="44.69539" lon="5.68266">
        <ele>1078</ele>
        <time>2018-05-23T16:10:34Z</time>
      </trkpt>
      <trkpt lat="44.69574" lon="5.68267">
        <ele>1079</ele>
        <time>2018-05-23T16:10:48Z</time>
      </trkpt>
      <trkpt lat="44.69617" lon="5.68274">
        <ele>1076</ele>
        <time>2018-05-23T16:11:08Z</time>
      </trkpt>
      <trkpt lat="44.6966" lon="5.68278">
        <ele>1076</ele>
        <time>2018-05-23T16:11:15Z</time>
      </trkpt>
      <trkpt lat="44.69697" lon="5.68278">
        <ele>1073</ele>
        <time>2018-05-23T16:11:26Z</time>
      </trkpt>
      <trkpt lat="44.69726" lon="5.68272">
        <ele>1072</ele>
        <time>2018-05-23T16:11:41Z</time>
      </trkpt>
      <trkpt lat="44.69734" lon="5.68269">
        <ele>1072</ele>
        <time>2018-05-23T16:11:54Z</time>
      </trkpt>
      <trkpt lat="44.69745" lon="5.68265">
        <ele>1072</ele>
        <time>2018-05-23T16:12:09Z</time>
      </trkpt>
      <trkpt lat="44.69758" lon="5.68268">
        <ele>1071</ele>
        <time>2018-05-23T16:12:18Z</time>
      </trkpt>
      <trkpt lat="44.69763" lon="5.68272">
        <ele>1071</ele>
        <time>2018-05-23T16:12:31Z</time>
      </trkpt>
      <trkpt lat="44.69767" lon="5.68287">
        <ele>1070</ele>
        <time>2018-05-23T16:12:48Z</time>
      </trkpt>
      <trkpt lat="44.69765" lon="5.68301">
        <ele>1069</ele>
        <time>2018-05-23T16:13:01Z</time>
      </trkpt>
      <trkpt lat="44.698" lon="5.68289">
        <ele>1070</ele>
        <time>2018-05-23T16:13:14Z</time>
      </trkpt>
      <trkpt lat="44.69859" lon="5.68267">
        <ele>1072</ele>
        <time>2018-05-23T16:13:34Z</time>
      </trkpt>
      <trkpt lat="44.69875" lon="5.68258">
        <ele>1073</ele>
        <time>2018-05-23T16:13:42Z</time>
      </trkpt>
      <trkpt lat="44.69968" lon="5.68228">
        <ele>1081</ele>
        <time>2018-05-23T16:13:59Z</time>
      </trkpt>
      <trkpt lat="44.70078" lon="5.68193">
        <ele>1086</ele>
        <time>2018-05-23T16:14:04Z</time>
      </trkpt>
      <trkpt lat="44.70165" lon="5.68162">
        <ele>1093</ele>
        <time>2018-05-23T16:14:08Z</time>
      </trkpt>
      <trkpt lat="44.70211" lon="5.68145">
        <ele>1095</ele>
        <time>2018-05-23T16:14:14Z</time>
      </trkpt>
      <trkpt lat="44.70248" lon="5.68125">
        <ele>1096</ele>
        <time>2018-05-23T16:14:17Z</time>
      </trkpt>
      <trkpt lat="44.70281" lon="5.68103">
        <ele>1094</ele>
        <time>2018-05-23T16:14:22Z</time>
      </trkpt>
      <trkpt lat="44.70315" lon="5.68075">
        <ele>1100</ele>
        <time>2018-05-23T16:14:32Z</time>
      </trkpt>
      <trkpt lat="44.70366" lon="5.68028">
        <ele>1099</ele>
        <time>2018-05-23T16:14:39Z</time>
      </trkpt>
      <trkpt lat="44.70439" lon="5.67963">
        <ele>1105</ele>
        <time>2018-05-23T16:14:41Z</time>
      </trkpt>
      <trkpt lat="44.70535" lon="5.679">
        <ele>1109</ele>
        <time>2018-05-23T16:14:50Z</time>
      </trkpt>
      <trkpt lat="44.7067" lon="5.67817">
        <ele>1110</ele>
        <time>2018-05-23T16:14:57Z</time>
      </trkpt>
      <trkpt lat="44.70707" lon="5.67799">
        <ele>1113</ele>
        <time>2018-05-23T16:15:00Z</time>
      </trkpt>
      <trkpt lat="44.70762" lon="5.67777">
        <ele>1115</ele>
        <time>2018-05-23T16:15:13Z</time>
      </trkpt>
      <trkpt lat="44.7081" lon="5.67757">
        <ele>1115</ele>
        <time>2018-05-23T16:15:30Z</time>
      </trkpt>
      <trkpt lat="44.7085" lon="5.67746">
        <ele>1122</ele>
        <time>2018-05-23T16:15:41Z</time>
      </trkpt>
      <trkpt lat="44.70917" lon="5.67734">
        <ele>1123</ele>
        <time>2018-05-23T16:15:48Z</time>
      </trkpt>
      <trkpt lat="44.70973" lon="5.67727">
        <ele>1127</ele>
        <time>2018-05-23T16:15:54Z</time>
      </trkpt>
      <trkpt lat="44.70999" lon="5.67727">
        <ele>1126</ele>
        <time>2018-05-23T16:16:13Z</time>
      </trkpt>
      <trkpt lat="44.71057" lon="5.67733">
        <ele>1130</ele>
        <time>2018-05-23T16:16:25Z</time>
      </trkpt>
      <trkpt lat="44.71147" lon="5.67746">
        <ele>1135</ele>
        <time>2018-05-23T16:16:36Z</time>
      </trkpt>
      <trkpt lat="44.7116" lon="5.67745">
        <ele>1135</ele>
        <time>2018-05-23T16:16:46Z</time>
      </trkpt>
      <trkpt lat="44.71172" lon="5.67741">
        <ele>1137</ele>
        <time>2018-05-23T16:16:48Z</time>
      </trkpt>
      <trkpt lat="44.71185" lon="5.67732">
        <ele>1138</ele>
        <time>2018-05-23T16:16:53Z</time>
      </trkpt>
      <trkpt lat="44.71197" lon="5.67723">
        <ele>1139</ele>
        <time>2018-05-23T16:16:56Z</time>
      </trkpt>
      <trkpt lat="44.71216" lon="5.67712">
        <ele>1140</ele>
        <time>2018-05-23T16:17:12Z</time>
      </trkpt>
      <trkpt lat="44.71227" lon="5.6771">
        <ele>1140</ele>
        <time>2018-05-23T16:17:27Z</time>
      </trkpt>
      <trkpt lat="44.71246" lon="5.6771">
        <ele>1140</ele>
        <time>2018-05-23T16:17:45Z</time>
      </trkpt>
      <trkpt lat="44.71325" lon="5.67727">
        <ele>1142</ele>
        <time>2018-05-23T16:17:50Z</time>
      </trkpt>
      <trkpt lat="44.71354" lon="5.67732">
        <ele>1144</ele>
        <time>2018-05-23T16:18:08Z</time>
      </trkpt>
      <trkpt lat="44.7137" lon="5.67731">
        <ele>1145</ele>
        <time>2018-05-23T16:18:23Z</time>
      </trkpt>
      <trkpt lat="44.71384" lon="5.67725">
        <ele>1145</ele>
        <time>2018-05-23T16:18:40Z</time>
      </trkpt>
      <trkpt lat="44.714" lon="5.67718">
        <ele>1146</ele>
        <time>2018-05-23T16:18:50Z</time>
      </trkpt>
      <trkpt lat="44.71428" lon="5.67695">
        <ele>1148</ele>
        <time>2018-05-23T16:19:02Z</time>
      </trkpt>
      <trkpt lat="44.71445" lon="5.67683">
        <ele>1148</ele>
        <time>2018-05-23T16:19:22Z</time>
      </trkpt>
      <trkpt lat="44.71455" lon="5.67679">
        <ele>1148</ele>
        <time>2018-05-23T16:19:24Z</time>
      </trkpt>
      <trkpt lat="44.71471" lon="5.67676">
        <ele>1148</ele>
        <time>2018-05-23T16:19:27Z</time>
      </trkpt>
      <trkpt lat="44.71514" lon="5.67679">
        <ele>1149</ele>
        <time>2018-05-23T16:19:47Z</time>
      </trkpt>
      <trkpt lat="44.71552" lon="5.67679">
        <ele>1150</ele>
        <time>2018-05-23T16:20:07Z</time>
      </trkpt>
      <trkpt lat="44.71615" lon="5.67667">
        <ele>1152</ele>
        <time>2018-05-23T16:20:17Z</time>
      </trkpt>
      <trkpt lat="44.71668" lon="5.67657">
        <ele>1153</ele>
        <time>2018-05-23T16:20:37Z</time>
      </trkpt>
      <trkpt lat="44.71709" lon="5.6765">
        <ele>1155</ele>
        <time>2018-05-23T16:20:54Z</time>
      </trkpt>
      <trkpt lat="44.71803" lon="5.6764">
        <ele>1156</ele>
        <time>2018-05-23T16:21:02Z</time>
      </trkpt>
      <trkpt lat="44.71835" lon="5.6764">
        <ele>1158</ele>
        <time>2018-05-23T16:21:18Z</time>
      </trkpt>
      <trkpt lat="44.71908" lon="5.67644">
        <ele>1159</ele>
        <time>2018-05-23T16:21:32Z</time>
      </trkpt>
      <trkpt lat="44.72085" lon="5.67658">
        <ele>1164</ele>
        <time>2018-05-23T16:21:52Z</time>
      </trkpt>
      <trkpt lat="44.72117" lon="5.67663">
        <ele>1166</ele>
        <time>2018-05-23T16:22:01Z</time>
      </trkpt>
      <trkpt lat="44.72154" lon="5.67673">
        <ele>1166</ele>
        <time>2018-05-23T16:22:12Z</time>
      </trkpt>
      <trkpt lat="44.72296" lon="5.67716">
        <ele>1172</ele>
        <time>2018-05-23T16:22:26Z</time>
      </trkpt>
      <trkpt lat="44.72401" lon="5.6775">
        <ele>1176</ele>
        <time>2018-05-23T16:22:34Z</time>
      </trkpt>
      <trkpt lat="44.72454" lon="5.67765">
        <ele>1175</ele>
        <time>2018-05-23T16:22:54Z</time>
      </trkpt>
      <trkpt lat="44.72477" lon="5.6777">
        <ele>1175</ele>
        <time>2018-05-23T16:23:04Z</time>
      </trkpt>
      <trkpt lat="44.72614" lon="5.67778">
        <ele>1169</ele>
        <time>2018-05-23T16:23:13Z</time>
      </trkpt>
      <trkpt lat="44.72654" lon="5.67781">
        <ele>1168</ele>
        <time>2018-05-23T16:23:16Z</time>
      </trkpt>
      <trkpt lat="44.72682" lon="5.67785">
        <ele>1165</ele>
        <time>2018-05-23T16:23:36Z</time>
      </trkpt>
      <trkpt lat="44.72777" lon="5.67801">
        <ele>1161</ele>
        <time>2018-05-23T16:23:41Z</time>
      </trkpt>
      <trkpt lat="44.72804" lon="5.67809">
        <ele>1160</ele>
        <time>2018-05-23T16:23:57Z</time>
      </trkpt>
      <trkpt lat="44.72828" lon="5.67822">
        <ele>1157</ele>
        <time>2018-05-23T16:24:14Z</time>
      </trkpt>
      <trkpt lat="44.7288" lon="5.67852">
        <ele>1152</ele>
        <time>2018-05-23T16:24:27Z</time>
      </trkpt>
      <trkpt lat="44.729" lon="5.6786">
        <ele>1152</ele>
        <time>2018-05-23T16:24:40Z</time>
      </trkpt>
      <trkpt lat="44.72931" lon="5.67868">
        <ele>1154</ele>
        <time>2018-05-23T16:24:46Z</time>
      </trkpt>
      <trkpt lat="44.7294" lon="5.67872">
        <ele>1154</ele>
        <time>2018-05-23T16:25:01Z</time>
      </trkpt>
      <trkpt lat="44.72948" lon="5.67879">
        <ele>1154</ele>
        <time>2018-05-23T16:25:09Z</time>
      </trkpt>
      <trkpt lat="44.72959" lon="5.67895">
        <ele>1153</ele>
        <time>2018-05-23T16:25:12Z</time>
      </trkpt>
      <trkpt lat="44.72975" lon="5.67926">
        <ele>1147</ele>
        <time>2018-05-23T16:25:31Z</time>
      </trkpt>
      <trkpt lat="44.72988" lon="5.67939">
        <ele>1147</ele>
        <time>2018-05-23T16:25:41Z</time>
      </trkpt>
      <trkpt lat="44.72994" lon="5.67943">
        <ele>1147</ele>
        <time>2018-05-23T16:25:48Z</time>
      </trkpt>
      <trkpt lat="44.73007" lon="5.67948">
        <ele>1148</ele>
        <time>2018-05-23T16:25:50Z</time>
      </trkpt>
      <trkpt lat="44.73039" lon="5.67958">
        <ele>1148</ele>
        <time>2018-05-23T16:26:10Z</time>
      </trkpt>
      <trkpt lat="44.7305" lon="5.67964">
        <ele>1148</ele>
        <time>2018-05-23T16:26:18Z</time>
      </trkpt>
      <trkpt lat="44.7307" lon="5.67981">
        <ele>1146</ele>
        <time>2018-05-23T16:26:35Z</time>
      </trkpt>
      <trkpt lat="44.7314" lon="5.68047">
        <ele>1137</ele>
        <time>2018-05-23T16:26:44Z</time>
      </trkpt>
      <trkpt lat="44.7315" lon="5.68051">
        <ele>1136</ele>
        <time>2018-05-23T16:27:02Z</time>
      </trkpt>
      <trkpt lat="44.73158" lon="5.6805">
        <ele>1136</ele>
        <time>2018-05-23T16:27:08Z</time>
      </trkpt>
      <trkpt lat="44.73171" lon="5.6804">
        <ele>1130</ele>
        <time>2018-05-23T16:27:28Z</time>
      </trkpt>
      <trkpt lat="44.73195" lon="5.68004">
        <ele>1131</ele>
        <time>2018-05-23T16:27:35Z</time>
      </trkpt>
      <trkpt lat="44.7322" lon="5.67974">
        <ele>1148</ele>
        <time>2018-05-23T16:27:51Z</time>
      </trkpt>
      <trkpt lat="44.73229" lon="5.67967">
        <ele>1149</ele>
        <time>2018-05-23T16:27:58Z</time>
      </trkpt>
      <trkpt lat="44.73235" lon="5.67966">
        <ele>1149</ele>
        <time>2018-05-23T16:28:01Z</time>
      </trkpt>
      <trkpt lat="44.73248" lon="5.67969">
        <ele>1148</ele>
        <time>2018-05-23T16:28:03Z</time>
      </trkpt>
      <trkpt lat="44.73255" lon="5.67978">
        <ele>1153</ele>
        <time>2018-05-23T16:28:21Z</time>
      </trkpt>
      <trkpt lat="44.73269" lon="5.68031">
        <ele>1132</ele>
        <time>2018-05-23T16:28:30Z</time>
      </trkpt>
      <trkpt lat="44.73285" lon="5.68053">
        <ele>1129</ele>
        <time>2018-05-23T16:28:47Z</time>
      </trkpt>
      <trkpt lat="44.73294" lon="5.68061">
        <ele>1129</ele>
        <time>2018-05-23T16:29:04Z</time>
      </trkpt>
      <trkpt lat="44.73306" lon="5.68066">
        <ele>1128</ele>
        <time>2018-05-23T16:29:13Z</time>
      </trkpt>
      <trkpt lat="44.7333" lon="5.68075">
        <ele>1122</ele>
        <time>2018-05-23T16:29:21Z</time>
      </trkpt>
      <trkpt lat="44.73352" lon="5.68089">
        <ele>1113</ele>
        <time>2018-05-23T16:29:35Z</time>
      </trkpt>
      <trkpt lat="44.73362" lon="5.68091">
        <ele>1113</ele>
        <time>2018-05-23T16:29:44Z</time>
      </trkpt>
      <trkpt lat="44.73373" lon="5.68091">
        <ele>1113</ele>
        <time>2018-05-23T16:29:51Z</time>
      </trkpt>
      <trkpt lat="44.73395" lon="5.68091">
        <ele>1117</ele>
        <time>2018-05-23T16:30:05Z</time>
      </trkpt>
      <trkpt lat="44.73418" lon="5.68097">
        <ele>1121</ele>
        <time>2018-05-23T16:30:07Z</time>
      </trkpt>
      <trkpt lat="44.73438" lon="5.68108">
        <ele>1114</ele>
        <time>2018-05-23T16:30:20Z</time>
      </trkpt>
      <trkpt lat="44.73462" lon="5.68118">
        <ele>1111</ele>
        <time>2018-05-23T16:30:25Z</time>
      </trkpt>
      <trkpt lat="44.73483" lon="5.68124">
        <ele>1110</ele>
        <time>2018-05-23T16:30:33Z</time>
      </trkpt>
      <trkpt lat="44.73507" lon="5.68124">
        <ele>1107</ele>
        <time>2018-05-23T16:30:46Z</time>
      </trkpt>
      <trkpt lat="44.73534" lon="5.68117">
        <ele>1107</ele>
        <time>2018-05-23T16:31:02Z</time>
      </trkpt>
      <trkpt lat="44.73573" lon="5.68098">
        <ele>1109</ele>
        <time>2018-05-23T16:31:18Z</time>
      </trkpt>
      <trkpt lat="44.73599" lon="5.68081">
        <ele>1114</ele>
        <time>2018-05-23T16:31:35Z</time>
      </trkpt>
      <trkpt lat="44.73634" lon="5.68049">
        <ele>1113</ele>
        <time>2018-05-23T16:31:45Z</time>
      </trkpt>
      <trkpt lat="44.7365" lon="5.68035">
        <ele>1113</ele>
        <time>2018-05-23T16:31:57Z</time>
      </trkpt>
      <trkpt lat="44.73664" lon="5.68026">
        <ele>1114</ele>
        <time>2018-05-23T16:32:03Z</time>
      </trkpt>
      <trkpt lat="44.73681" lon="5.68022">
        <ele>1101</ele>
        <time>2018-05-23T16:32:09Z</time>
      </trkpt>
      <trkpt lat="44.73703" lon="5.68021">
        <ele>1096</ele>
        <time>2018-05-23T16:32:22Z</time>
      </trkpt>
      <trkpt lat="44.73733" lon="5.68021">
        <ele>1094</ele>
        <time>2018-05-23T16:32:39Z</time>
      </trkpt>
      <trkpt lat="44.73751" lon="5.68021">
        <ele>1083</ele>
        <time>2018-05-23T16:32:50Z</time>
      </trkpt>
      <trkpt lat="44.73763" lon="5.68018">
        <ele>1082</ele>
        <time>2018-05-23T16:33:04Z</time>
      </trkpt>
      <trkpt lat="44.73774" lon="5.68012">
        <ele>1080</ele>
        <time>2018-05-23T16:33:08Z</time>
      </trkpt>
      <trkpt lat="44.73783" lon="5.67997">
        <ele>1092</ele>
        <time>2018-05-23T16:33:17Z</time>
      </trkpt>
      <trkpt lat="44.73793" lon="5.67972">
        <ele>1091</ele>
        <time>2018-05-23T16:33:37Z</time>
      </trkpt>
      <trkpt lat="44.73795" lon="5.67956">
        <ele>1092</ele>
        <time>2018-05-23T16:33:53Z</time>
      </trkpt>
      <trkpt lat="44.73794" lon="5.67939">
        <ele>1093</ele>
        <time>2018-05-23T16:34:11Z</time>
      </trkpt>
      <trkpt lat="44.73792" lon="5.6791">
        <ele>1102</ele>
        <time>2018-05-23T16:34:25Z</time>
      </trkpt>
      <trkpt lat="44.738" lon="5.67885">
        <ele>1101</ele>
        <time>2018-05-23T16:34:35Z</time>
      </trkpt>
      <trkpt lat="44.73809" lon="5.67872">
        <ele>1100</ele>
        <time>2018-05-23T16:34:46Z</time>
      </trkpt>
      <trkpt lat="44.73824" lon="5.67858">
        <ele>1098</ele>
        <time>2018-05-23T16:34:59Z</time>
      </trkpt>
      <trkpt lat="44.73848" lon="5.67835">
        <ele>1085</ele>
        <time>2018-05-23T16:35:17Z</time>
      </trkpt>
      <trkpt lat="44.73857" lon="5.6782">
        <ele>1090</ele>
        <time>2018-05-23T16:35:20Z</time>
      </trkpt>
      <trkpt lat="44.73865" lon="5.67797">
        <ele>1090</ele>
        <time>2018-05-23T16:35:26Z</time>
      </trkpt>
      <trkpt lat="44.73874" lon="5.67774">
        <ele>1092</ele>
        <time>2018-05-23T16:35:38Z</time>
      </trkpt>
      <trkpt lat="44.7388" lon="5.67768">
        <ele>1091</ele>
        <time>2018-05-23T16:35:53Z</time>
      </trkpt>
      <trkpt lat="44.73888" lon="5.67766">
        <ele>1091</ele>
        <time>2018-05-23T16:36:11Z</time>
      </trkpt>
      <trkpt lat="44.73898" lon="5.67768">
        <ele>1090</ele>
        <time>2018-05-23T16:36:26Z</time>
      </trkpt>
      <trkpt lat="44.73908" lon="5.67775">
        <ele>1089</ele>
        <time>2018-05-23T16:36:41Z</time>
      </trkpt>
      <trkpt lat="44.73915" lon="5.67787">
        <ele>1088</ele>
        <time>2018-05-23T16:36:58Z</time>
      </trkpt>
      <trkpt lat="44.73919" lon="5.67796">
        <ele>1094</ele>
        <time>2018-05-23T16:37:09Z</time>
      </trkpt>
      <trkpt lat="44.73946" lon="5.67886">
        <ele>1079</ele>
        <time>2018-05-23T16:37:20Z</time>
      </trkpt>
      <trkpt lat="44.73956" lon="5.67923">
        <ele>1067</ele>
        <time>2018-05-23T16:37:33Z</time>
      </trkpt>
      <trkpt lat="44.73963" lon="5.67965">
        <ele>1063</ele>
        <time>2018-05-23T16:37:50Z</time>
      </trkpt>
      <trkpt lat="44.73968" lon="5.67987">
        <ele>1062</ele>
        <time>2018-05-23T16:38:00Z</time>
      </trkpt>
      <trkpt lat="44.73976" lon="5.68001">
        <ele>1046</ele>
        <time>2018-05-23T16:38:03Z</time>
      </trkpt>
      <trkpt lat="44.73989" lon="5.68015">
        <ele>1047</ele>
        <time>2018-05-23T16:38:13Z</time>
      </trkpt>
      <trkpt lat="44.74003" lon="5.68026">
        <ele>1055</ele>
        <time>2018-05-23T16:38:22Z</time>
      </trkpt>
      <trkpt lat="44.74098" lon="5.68073">
        <ele>1056</ele>
        <time>2018-05-23T16:38:34Z</time>
      </trkpt>
      <trkpt lat="44.74107" lon="5.68077">
        <ele>1058</ele>
        <time>2018-05-23T16:38:52Z</time>
      </trkpt>
      <trkpt lat="44.74142" lon="5.68089">
        <ele>1040</ele>
        <time>2018-05-23T16:39:07Z</time>
      </trkpt>
      <trkpt lat="44.74182" lon="5.68097">
        <ele>1041</ele>
        <time>2018-05-23T16:39:18Z</time>
      </trkpt>
      <trkpt lat="44.7426" lon="5.68108">
        <ele>1038</ele>
        <time>2018-05-23T16:39:38Z</time>
      </trkpt>
      <trkpt lat="44.74292" lon="5.68113">
        <ele>1036</ele>
        <time>2018-05-23T16:39:57Z</time>
      </trkpt>
      <trkpt lat="44.74316" lon="5.68118">
        <ele>1035</ele>
        <time>2018-05-23T16:40:03Z</time>
      </trkpt>
      <trkpt lat="44.74342" lon="5.68129">
        <ele>1032</ele>
        <time>2018-05-23T16:40:08Z</time>
      </trkpt>
      <trkpt lat="44.74367" lon="5.68142">
        <ele>1029</ele>
        <time>2018-05-23T16:40:10Z</time>
      </trkpt>
      <trkpt lat="44.74384" lon="5.68145">
        <ele>1028</ele>
        <time>2018-05-23T16:40:19Z</time>
      </trkpt>
      <trkpt lat="44.74399" lon="5.68145">
        <ele>1027</ele>
        <time>2018-05-23T16:40:28Z</time>
      </trkpt>
      <trkpt lat="44.74411" lon="5.68141">
        <ele>1027</ele>
        <time>2018-05-23T16:40:32Z</time>
      </trkpt>
      <trkpt lat="44.74421" lon="5.68136">
        <ele>1018</ele>
        <time>2018-05-23T16:40:40Z</time>
      </trkpt>
      <trkpt lat="44.74433" lon="5.68127">
        <ele>1019</ele>
        <time>2018-05-23T16:40:55Z</time>
      </trkpt>
      <trkpt lat="44.74446" lon="5.68113">
        <ele>1020</ele>
        <time>2018-05-23T16:41:00Z</time>
      </trkpt>
      <trkpt lat="44.74471" lon="5.68081">
        <ele>1034</ele>
        <time>2018-05-23T16:41:03Z</time>
      </trkpt>
      <trkpt lat="44.74492" lon="5.68059">
        <ele>1033</ele>
        <time>2018-05-23T16:41:18Z</time>
      </trkpt>
      <trkpt lat="44.74528" lon="5.68032">
        <ele>1016</ele>
        <time>2018-05-23T16:41:20Z</time>
      </trkpt>
      <trkpt lat="44.74544" lon="5.68019">
        <ele>1014</ele>
        <time>2018-05-23T16:41:26Z</time>
      </trkpt>
      <trkpt lat="44.74554" lon="5.68007">
        <ele>1013</ele>
        <time>2018-05-23T16:41:40Z</time>
      </trkpt>
      <trkpt lat="44.7459" lon="5.67952">
        <ele>1013</ele>
        <time>2018-05-23T16:41:56Z</time>
      </trkpt>
      <trkpt lat="44.74632" lon="5.67887">
        <ele>1032</ele>
        <time>2018-05-23T16:42:05Z</time>
      </trkpt>
      <trkpt lat="44.74644" lon="5.67879">
        <ele>1032</ele>
        <time>2018-05-23T16:42:11Z</time>
      </trkpt>
      <trkpt lat="44.74655" lon="5.67875">
        <ele>1031</ele>
        <time>2018-05-23T16:42:20Z</time>
      </trkpt>
      <trkpt lat="44.74685" lon="5.67871">
        <ele>1010</ele>
        <time>2018-05-23T16:42:39Z</time>
      </trkpt>
      <trkpt lat="44.74709" lon="5.67866">
        <ele>1007</ele>
        <time>2018-05-23T16:42:44Z</time>
      </trkpt>
      <trkpt lat="44.74729" lon="5.67857">
        <ele>1006</ele>
        <time>2018-05-23T16:42:59Z</time>
      </trkpt>
      <trkpt lat="44.74747" lon="5.67846">
        <ele>1008</ele>
        <time>2018-05-23T16:43:10Z</time>
      </trkpt>
      <trkpt lat="44.74763" lon="5.67831">
        <ele>1009</ele>
        <time>2018-05-23T16:43:20Z</time>
      </trkpt>
      <trkpt lat="44.74792" lon="5.67796">
        <ele>1009</ele>
        <time>2018-05-23T16:43:37Z</time>
      </trkpt>
      <trkpt lat="44.74838" lon="5.67735">
        <ele>998</ele>
        <time>2018-05-23T16:43:47Z</time>
      </trkpt>
      <trkpt lat="44.74868" lon="5.67689">
        <ele>998</ele>
        <time>2018-05-23T16:44:03Z</time>
      </trkpt>
      <trkpt lat="44.74904" lon="5.67623">
        <ele>1011</ele>
        <time>2018-05-23T16:44:13Z</time>
      </trkpt>
      <trkpt lat="44.7493" lon="5.67566">
        <ele>995</ele>
        <time>2018-05-23T16:44:16Z</time>
      </trkpt>
      <trkpt lat="44.74952" lon="5.67519">
        <ele>995</ele>
        <time>2018-05-23T16:44:22Z</time>
      </trkpt>
      <trkpt lat="44.74975" lon="5.67483">
        <ele>1000</ele>
        <time>2018-05-23T16:44:29Z</time>
      </trkpt>
      <trkpt lat="44.75045" lon="5.67407">
        <ele>981</ele>
        <time>2018-05-23T16:44:40Z</time>
      </trkpt>
      <trkpt lat="44.75071" lon="5.67368">
        <ele>979</ele>
        <time>2018-05-23T16:44:59Z</time>
      </trkpt>
      <trkpt lat="44.75099" lon="5.6732">
        <ele>967</ele>
        <time>2018-05-23T16:45:07Z</time>
      </trkpt>
      <trkpt lat="44.75151" lon="5.67253">
        <ele>963</ele>
        <time>2018-05-23T16:45:27Z</time>
      </trkpt>
      <trkpt lat="44.75323" lon="5.67041">
        <ele>952</ele>
        <time>2018-05-23T16:45:34Z</time>
      </trkpt>
      <trkpt lat="44.7535" lon="5.67001">
        <ele>942</ele>
        <time>2018-05-23T16:45:54Z</time>
      </trkpt>
      <trkpt lat="44.75365" lon="5.66963">
        <ele>940</ele>
        <time>2018-05-23T16:46:05Z</time>
      </trkpt>
      <trkpt lat="44.75369" lon="5.66946">
        <ele>940</ele>
        <time>2018-05-23T16:46:21Z</time>
      </trkpt>
      <trkpt lat="44.75373" lon="5.66918">
        <ele>940</ele>
        <time>2018-05-23T16:46:30Z</time>
      </trkpt>
      <trkpt lat="44.75374" lon="5.66897">
        <ele>940</ele>
        <time>2018-05-23T16:46:43Z</time>
      </trkpt>
      <trkpt lat="44.75381" lon="5.66907">
        <ele>938</ele>
        <time>2018-05-23T16:46:46Z</time>
      </trkpt>
      <trkpt lat="44.75389" lon="5.66935">
        <ele>937</ele>
        <time>2018-05-23T16:46:59Z</time>
      </trkpt>
      <trkpt lat="44.75389" lon="5.66999">
        <ele>935</ele>
        <time>2018-05-23T16:47:09Z</time>
      </trkpt>
      <trkpt lat="44.75382" lon="5.67087">
        <ele>926</ele>
        <time>2018-05-23T16:47:21Z</time>
      </trkpt>
      <trkpt lat="44.75365" lon="5.6716">
        <ele>925</ele>
        <time>2018-05-23T16:47:38Z</time>
      </trkpt>
      <trkpt lat="44.75341" lon="5.67242">
        <ele>921</ele>
        <time>2018-05-23T16:47:41Z</time>
      </trkpt>
      <trkpt lat="44.75313" lon="5.67312">
        <ele>923</ele>
        <time>2018-05-23T16:47:45Z</time>
      </trkpt>
      <trkpt lat="44.75287" lon="5.67386">
        <ele>917</ele>
        <time>2018-05-23T16:48:00Z</time>
      </trkpt>
      <trkpt lat="44.75234" lon="5.67536">
        <ele>910</ele>
        <time>2018-05-23T16:48:05Z</time>
      </trkpt>
      <trkpt lat="44.75212" lon="5.67594">
        <ele>902</ele>
        <time>2018-05-23T16:48:07Z</time>
      </trkpt>
      <trkpt lat="44.75198" lon="5.67624">
        <ele>901</ele>
        <time>2018-05-23T16:48:27Z</time>
      </trkpt>
      <trkpt lat="44.75185" lon="5.67641">
        <ele>900</ele>
        <time>2018-05-23T16:48:38Z</time>
      </trkpt>
      <trkpt lat="44.75167" lon="5.67658">
        <ele>899</ele>
        <time>2018-05-23T16:48:48Z</time>
      </trkpt>
      <trkpt lat="44.75135" lon="5.67679">
        <ele>898</ele>
        <time>2018-05-23T16:49:07Z</time>
      </trkpt>
      <trkpt lat="44.75129" lon="5.67689">
        <ele>897</ele>
        <time>2018-05-23T16:49:14Z</time>
      </trkpt>
      <trkpt lat="44.7513" lon="5.67699">
        <ele>896</ele>
        <time>2018-05-23T16:49:22Z</time>
      </trkpt>
      <trkpt lat="44.75138" lon="5.67705">
        <ele>895</ele>
        <time>2018-05-23T16:49:41Z</time>
      </trkpt>
      <trkpt lat="44.75152" lon="5.67703">
        <ele>895</ele>
        <time>2018-05-23T16:49:53Z</time>
      </trkpt>
      <trkpt lat="44.75181" lon="5.67691">
        <ele>889</ele>
        <time>2018-05-23T16:50:07Z</time>
      </trkpt>
      <trkpt lat="44.75239" lon="5.67672">
        <ele>886</ele>
        <time>2018-05-23T16:50:24Z</time>
      </trkpt>
      <trkpt lat="44.75287" lon="5.67656">
        <ele>884</ele>
        <time>2018-05-23T16:50:43Z</time>
      </trkpt>
      <trkpt lat="44.75317" lon="5.67643">
        <ele>881</ele>
        <time>2018-05-23T16:50:52Z</time>
      </trkpt>
      <trkpt lat="44.75351" lon="5.67623">
        <ele>874</ele>
        <time>2018-05-23T16:51:08Z</time>
      </trkpt>
      <trkpt lat="44.75397" lon="5.67594">
        <ele>873</ele>
        <time>2018-05-23T16:51:23Z</time>
      </trkpt>
      <trkpt lat="44.75428" lon="5.67573">
        <ele>870</ele>
        <time>2018-05-23T16:51:34Z</time>
      </trkpt>
      <trkpt lat="44.75442" lon="5.67546">
        <ele>869</ele>
        <time>2018-05-23T16:51:39Z</time>
      </trkpt>
      <trkpt lat="44.75467" lon="5.67491">
        <ele>876</ele>
        <time>2018-05-23T16:51:42Z</time>
      </trkpt>
      <trkpt lat="44.75478" lon="5.67478">
        <ele>876</ele>
        <time>2018-05-23T16:51:51Z</time>
      </trkpt>
      <trkpt lat="44.7549" lon="5.67468">
        <ele>876</ele>
        <time>2018-05-23T16:51:53Z</time>
      </trkpt>
      <trkpt lat="44.75504" lon="5.67465">
        <ele>870</ele>
        <time>2018-05-23T16:52:00Z</time>
      </trkpt>
      <trkpt lat="44.75514" lon="5.67464">
        <ele>870</ele>
        <time>2018-05-23T16:52:03Z</time>
      </trkpt>
      <trkpt lat="44.75525" lon="5.67468">
        <ele>870</ele>
        <time>2018-05-23T16:52:14Z</time>
      </trkpt>
      <trkpt lat="44.75538" lon="5.67477">
        <ele>869</ele>
        <time>2018-05-23T16:52:27Z</time>
      </trkpt>
      <trkpt lat="44.75581" lon="5.6753">
        <ele>858</ele>
        <time>2018-05-23T16:52:34Z</time>
      </trkpt>
      <trkpt lat="44.75627" lon="5.67587">
        <ele>850</ele>
        <time>2018-05-23T16:52:44Z</time>
      </trkpt>
      <trkpt lat="44.75654" lon="5.67603">
        <ele>851</ele>
        <time>2018-05-23T16:52:50Z</time>
      </trkpt>
      <trkpt lat="44.75674" lon="5.67609">
        <ele>851</ele>
        <time>2018-05-23T16:53:03Z</time>
      </trkpt>
      <trkpt lat="44.75723" lon="5.67619">
        <ele>849</ele>
        <time>2018-05-23T16:53:17Z</time>
      </trkpt>
      <trkpt lat="44.7574" lon="5.6762">
        <ele>849</ele>
        <time>2018-05-23T16:53:23Z</time>
      </trkpt>
      <trkpt lat="44.75765" lon="5.67611">
        <ele>846</ele>
        <time>2018-05-23T16:53:31Z</time>
      </trkpt>
      <trkpt lat="44.75768" lon="5.67609">
        <ele>846</ele>
        <time>2018-05-23T16:53:40Z</time>
      </trkpt>
      <trkpt lat="44.75777" lon="5.67605">
        <ele>846</ele>
        <time>2018-05-23T16:53:51Z</time>
      </trkpt>
      <trkpt lat="44.75784" lon="5.67605">
        <ele>846</ele>
        <time>2018-05-23T16:53:56Z</time>
      </trkpt>
      <trkpt lat="44.75791" lon="5.67608">
        <ele>846</ele>
        <time>2018-05-23T16:54:09Z</time>
      </trkpt>
      <trkpt lat="44.75798" lon="5.67616">
        <ele>845</ele>
        <time>2018-05-23T16:54:12Z</time>
      </trkpt>
      <trkpt lat="44.75801" lon="5.67631">
        <ele>845</ele>
        <time>2018-05-23T16:54:22Z</time>
      </trkpt>
      <trkpt lat="44.75799" lon="5.67653">
        <ele>844</ele>
        <time>2018-05-23T16:54:26Z</time>
      </trkpt>
      <trkpt lat="44.75794" lon="5.67676">
        <ele>841</ele>
        <time>2018-05-23T16:54:42Z</time>
      </trkpt>
      <trkpt lat="44.75791" lon="5.67693">
        <ele>841</ele>
        <time>2018-05-23T16:55:01Z</time>
      </trkpt>
      <trkpt lat="44.75788" lon="5.67713">
        <ele>840</ele>
        <time>2018-05-23T16:55:21Z</time>
      </trkpt>
      <trkpt lat="44.75785" lon="5.67767">
        <ele>836</ele>
        <time>2018-05-23T16:55:31Z</time>
      </trkpt>
      <trkpt lat="44.75783" lon="5.67831">
        <ele>835</ele>
        <time>2018-05-23T16:55:41Z</time>
      </trkpt>
      <trkpt lat="44.75779" lon="5.67845">
        <ele>832</ele>
        <time>2018-05-23T16:55:51Z</time>
      </trkpt>
      <trkpt lat="44.75761" lon="5.67884">
        <ele>831</ele>
        <time>2018-05-23T16:55:59Z</time>
      </trkpt>
      <trkpt lat="44.75744" lon="5.67921">
        <ele>831</ele>
        <time>2018-05-23T16:56:07Z</time>
      </trkpt>
      <trkpt lat="44.75709" lon="5.67996">
        <ele>829</ele>
        <time>2018-05-23T16:56:12Z</time>
      </trkpt>
      <trkpt lat="44.75687" lon="5.68029">
        <ele>823</ele>
        <time>2018-05-23T16:56:26Z</time>
      </trkpt>
      <trkpt lat="44.75679" lon="5.68034">
        <ele>823</ele>
        <time>2018-05-23T16:56:36Z</time>
      </trkpt>
      <trkpt lat="44.75653" lon="5.68041">
        <ele>819</ele>
        <time>2018-05-23T16:56:54Z</time>
      </trkpt>
      <trkpt lat="44.75618" lon="5.68033">
        <ele>819</ele>
        <time>2018-05-23T16:57:09Z</time>
      </trkpt>
      <trkpt lat="44.75581" lon="5.68022">
        <ele>817</ele>
        <time>2018-05-23T16:57:12Z</time>
      </trkpt>
      <trkpt lat="44.7556" lon="5.68021">
        <ele>816</ele>
        <time>2018-05-23T16:57:30Z</time>
      </trkpt>
      <trkpt lat="44.75544" lon="5.68025">
        <ele>815</ele>
        <time>2018-05-23T16:57:49Z</time>
      </trkpt>
      <trkpt lat="44.75514" lon="5.68033">
        <ele>815</ele>
        <time>2018-05-23T16:58:00Z</time>
      </trkpt>
      <trkpt lat="44.75506" lon="5.68032">
        <ele>815</ele>
        <time>2018-05-23T16:58:18Z</time>
      </trkpt>
      <trkpt lat="44.75492" lon="5.68026">
        <ele>815</ele>
        <time>2018-05-23T16:58:28Z</time>
      </trkpt>
      <trkpt lat="44.7546" lon="5.68003">
        <ele>815</ele>
        <time>2018-05-23T16:58:39Z</time>
      </trkpt>
      <trkpt lat="44.75443" lon="5.67993">
        <ele>822</ele>
        <time>2018-05-23T16:58:46Z</time>
      </trkpt>
      <trkpt lat="44.75427" lon="5.67991">
        <ele>820</ele>
        <time>2018-05-23T16:59:00Z</time>
      </trkpt>
      <trkpt lat="44.75417" lon="5.67994">
        <ele>817</ele>
        <time>2018-05-23T16:59:11Z</time>
      </trkpt>
      <trkpt lat="44.7541" lon="5.68001">
        <ele>815</ele>
        <time>2018-05-23T16:59:23Z</time>
      </trkpt>
      <trkpt lat="44.75404" lon="5.6801">
        <ele>815</ele>
        <time>2018-05-23T16:59:33Z</time>
      </trkpt>
      <trkpt lat="44.75399" lon="5.6802">
        <ele>815</ele>
        <time>2018-05-23T16:59:37Z</time>
      </trkpt>
      <trkpt lat="44.75398" lon="5.68035">
        <ele>815</ele>
        <time>2018-05-23T16:59:51Z</time>
      </trkpt>
      <trkpt lat="44.754" lon="5.68051">
        <ele>815</ele>
        <time>2018-05-23T17:00:09Z</time>
      </trkpt>
      <trkpt lat="44.75408" lon="5.6807">
        <ele>814</ele>
        <time>2018-05-23T17:00:17Z</time>
      </trkpt>
      <trkpt lat="44.75428" lon="5.68093">
        <ele>814</ele>
        <time>2018-05-23T17:00:19Z</time>
      </trkpt>
      <trkpt lat="44.75462" lon="5.68129">
        <ele>817</ele>
        <time>2018-05-23T17:00:23Z</time>
      </trkpt>
      <trkpt lat="44.75493" lon="5.68157">
        <ele>817</ele>
        <time>2018-05-23T17:00:28Z</time>
      </trkpt>
      <trkpt lat="44.75528" lon="5.68178">
        <ele>820</ele>
        <time>2018-05-23T17:00:43Z</time>
      </trkpt>
      <trkpt lat="44.75569" lon="5.68201">
        <ele>819</ele>
        <time>2018-05-23T17:00:51Z</time>
      </trkpt>
      <trkpt lat="44.75617" lon="5.68228">
        <ele>813</ele>
        <time>2018-05-23T17:00:55Z</time>
      </trkpt>
      <trkpt lat="44.75657" lon="5.68253">
        <ele>815</ele>
        <time>2018-05-23T17:01:10Z</time>
      </trkpt>
      <trkpt lat="44.75669" lon="5.68266">
        <ele>809</ele>
        <time>2018-05-23T17:01:16Z</time>
      </trkpt>
      <trkpt lat="44.75677" lon="5.68276">
        <ele>810</ele>
        <time>2018-05-23T17:01:35Z</time>
      </trkpt>
      <trkpt lat="44.75685" lon="5.68296">
        <ele>812</ele>
        <time>2018-05-23T17:01:44Z</time>
      </trkpt>
      <trkpt lat="44.75697" lon="5.68326">
        <ele>814</ele>
        <time>2018-05-23T17:01:56Z</time>
      </trkpt>
      <trkpt lat="44.75716" lon="5.68356">
        <ele>823</ele>
        <time>2018-05-23T17:02:10Z</time>
      </trkpt>
      <trkpt lat="44.75727" lon="5.6837">
        <ele>823</ele>
        <time>2018-05-23T17:02:21Z</time>
      </trkpt>
      <trkpt lat="44.75738" lon="5.68376">
        <ele>823</ele>
        <time>2018-05-23T17:02:34Z</time>
      </trkpt>
      <trkpt lat="44.75766" lon="5.68391">
        <ele>812</ele>
        <time>2018-05-23T17:02:42Z</time>
      </trkpt>
      <trkpt lat="44.75794" lon="5.68402">
        <ele>809</ele>
        <time>2018-05-23T17:02:49Z</time>
      </trkpt>
      <trkpt lat="44.7582" lon="5.6842">
        <ele>815</ele>
        <time>2018-05-23T17:03:04Z</time>
      </trkpt>
      <trkpt lat="44.75834" lon="5.68434">
        <ele>805</ele>
        <time>2018-05-23T17:03:17Z</time>
      </trkpt>
      <trkpt lat="44.7586" lon="5.68472">
        <ele>806</ele>
        <time>2018-05-23T17:03:20Z</time>
      </trkpt>
      <trkpt lat="44.75909" lon="5.68591">
        <ele>811</ele>
        <time>2018-05-23T17:03:38Z</time>
      </trkpt>
      <trkpt lat="44.75917" lon="5.68636">
        <ele>802</ele>
        <time>2018-05-23T17:03:52Z</time>
      </trkpt>
      <trkpt lat="44.75918" lon="5.68695">
        <ele>806</ele>
        <time>2018-05-23T17:04:03Z</time>
      </trkpt>
      <trkpt lat="44.75916" lon="5.68753">
        <ele>815</ele>
        <time>2018-05-23T17:04:15Z</time>
      </trkpt>
      <trkpt lat="44.75926" lon="5.68806">
        <ele>810</ele>
        <time>2018-05-23T17:04:35Z</time>
      </trkpt>
      <trkpt lat="44.75942" lon="5.68865">
        <ele>809</ele>
        <time>2018-05-23T17:04:48Z</time>
      </trkpt>
      <trkpt lat="44.75946" lon="5.68888">
        <ele>809</ele>
        <time>2018-05-23T17:05:08Z</time>
      </trkpt>
      <trkpt lat="44.75956" lon="5.6895">
        <ele>809</ele>
        <time>2018-05-23T17:05:23Z</time>
      </trkpt>
      <trkpt lat="44.75988" lon="5.69049">
        <ele>810</ele>
        <time>2018-05-23T17:05:29Z</time>
      </trkpt>
      <trkpt lat="44.75999" lon="5.69078">
        <ele>807</ele>
        <time>2018-05-23T17:05:32Z</time>
      </trkpt>
      <trkpt lat="44.76019" lon="5.69123">
        <ele>807</ele>
        <time>2018-05-23T17:05:47Z</time>
      </trkpt>
      <trkpt lat="44.76042" lon="5.69151">
        <ele>806</ele>
        <time>2018-05-23T17:05:56Z</time>
      </trkpt>
      <trkpt lat="44.76063" lon="5.69174">
        <ele>809</ele>
        <time>2018-05-23T17:06:16Z</time>
      </trkpt>
      <trkpt lat="44.76092" lon="5.6922">
        <ele>804</ele>
        <time>2018-05-23T17:06:32Z</time>
      </trkpt>
      <trkpt lat="44.76096" lon="5.69228">
        <ele>805</ele>
        <time>2018-05-23T17:06:43Z</time>
      </trkpt>
      <trkpt lat="44.76112" lon="5.69276">
        <ele>808</ele>
        <time>2018-05-23T17:07:02Z</time>
      </trkpt>
      <trkpt lat="44.76141" lon="5.69366">
        <ele>812</ele>
        <time>2018-05-23T17:07:14Z</time>
      </trkpt>
      <trkpt lat="44.7615" lon="5.69392">
        <ele>812</ele>
        <time>2018-05-23T17:07:18Z</time>
      </trkpt>
      <trkpt lat="44.76161" lon="5.69415">
        <ele>810</ele>
        <time>2018-05-23T17:07:31Z</time>
      </trkpt>
      <trkpt lat="44.76175" lon="5.69436">
        <ele>808</ele>
        <time>2018-05-23T17:07:42Z</time>
      </trkpt>
      <trkpt lat="44.7623" lon="5.69496">
        <ele>807</ele>
        <time>2018-05-23T17:07:59Z</time>
      </trkpt>
      <trkpt lat="44.76268" lon="5.69535">
        <ele>807</ele>
        <time>2018-05-23T17:08:05Z</time>
      </trkpt>
      <trkpt lat="44.76304" lon="5.6957">
        <ele>806</ele>
        <time>2018-05-23T17:08:11Z</time>
      </trkpt>
      <trkpt lat="44.76327" lon="5.69589">
        <ele>808</ele>
        <time>2018-05-23T17:08:20Z</time>
      </trkpt>
      <trkpt lat="44.76357" lon="5.69616">
        <ele>805</ele>
        <time>2018-05-23T17:08:31Z</time>
      </trkpt>
      <trkpt lat="44.76367" lon="5.6963">
        <ele>806</ele>
        <time>2018-05-23T17:08:48Z</time>
      </trkpt>
      <trkpt lat="44.76381" lon="5.69654">
        <ele>806</ele>
        <time>2018-05-23T17:08:58Z</time>
      </trkpt>
      <trkpt lat="44.76403" lon="5.69696">
        <ele>810</ele>
        <time>2018-05-23T17:09:14Z</time>
      </trkpt>
      <trkpt lat="44.76423" lon="5.69725">
        <ele>805</ele>
        <time>2018-05-23T17:09:34Z</time>
      </trkpt>
      <trkpt lat="44.76451" lon="5.69755">
        <ele>806</ele>
        <time>2018-05-23T17:09:49Z</time>
      </trkpt>
      <trkpt lat="44.76469" lon="5.69767">
        <ele>805</ele>
        <time>2018-05-23T17:10:07Z</time>
      </trkpt>
      <trkpt lat="44.76482" lon="5.69776">
        <ele>805</ele>
        <time>2018-05-23T17:10:20Z</time>
      </trkpt>
      <trkpt lat="44.76496" lon="5.69781">
        <ele>805</ele>
        <time>2018-05-23T17:10:30Z</time>
      </trkpt>
      <trkpt lat="44.76524" lon="5.69788">
        <ele>801</ele>
        <time>2018-05-23T17:10:48Z</time>
      </trkpt>
      <trkpt lat="44.76551" lon="5.6979">
        <ele>800</ele>
        <time>2018-05-23T17:10:52Z</time>
      </trkpt>
      <trkpt lat="44.76579" lon="5.69784">
        <ele>798</ele>
        <time>2018-05-23T17:11:10Z</time>
      </trkpt>
      <trkpt lat="44.7661" lon="5.69778">
        <ele>796</ele>
        <time>2018-05-23T17:11:20Z</time>
      </trkpt>
      <trkpt lat="44.76641" lon="5.69776">
        <ele>796</ele>
        <time>2018-05-23T17:11:35Z</time>
      </trkpt>
      <trkpt lat="44.76783" lon="5.6978">
        <ele>794</ele>
        <time>2018-05-23T17:11:41Z</time>
      </trkpt>
      <trkpt lat="44.76801" lon="5.69781">
        <ele>794</ele>
        <time>2018-05-23T17:11:43Z</time>
      </trkpt>
      <trkpt lat="44.76842" lon="5.698">
        <ele>793</ele>
        <time>2018-05-23T17:11:54Z</time>
      </trkpt>
      <trkpt lat="44.76903" lon="5.69832">
        <ele>793</ele>
        <time>2018-05-23T17:12:01Z</time>
      </trkpt>
      <trkpt lat="44.76946" lon="5.69856">
        <ele>791</ele>
        <time>2018-05-23T17:12:04Z</time>
      </trkpt>
      <trkpt lat="44.76966" lon="5.69876">
        <ele>790</ele>
        <time>2018-05-23T17:12:13Z</time>
      </trkpt>
      <trkpt lat="44.76972" lon="5.69885">
        <ele>790</ele>
        <time>2018-05-23T17:12:32Z</time>
      </trkpt>
      <trkpt lat="44.76977" lon="5.69897">
        <ele>790</ele>
        <time>2018-05-23T17:12:34Z</time>
      </trkpt>
      <trkpt lat="44.76983" lon="5.6993">
        <ele>790</ele>
        <time>2018-05-23T17:12:36Z</time>
      </trkpt>
      <trkpt lat="44.76988" lon="5.69983">
        <ele>789</ele>
        <time>2018-05-23T17:12:43Z</time>
      </trkpt>
      <trkpt lat="44.76989" lon="5.70034">
        <ele>790</ele>
        <time>2018-05-23T17:12:57Z</time>
      </trkpt>
      <trkpt lat="44.76991" lon="5.70075">
        <ele>789</ele>
        <time>2018-05-23T17:13:00Z</time>
      </trkpt>
      <trkpt lat="44.77012" lon="5.7021">
        <ele>787</ele>
        <time>2018-05-23T17:13:19Z</time>
      </trkpt>
      <trkpt lat="44.77025" lon="5.703">
        <ele>789</ele>
        <time>2018-05-23T17:13:24Z</time>
      </trkpt>
      <trkpt lat="44.77028" lon="5.7034">
        <ele>789</ele>
        <time>2018-05-23T17:13:36Z</time>
      </trkpt>
      <trkpt lat="44.77026" lon="5.70379">
        <ele>788</ele>
        <time>2018-05-23T17:13:40Z</time>
      </trkpt>
      <trkpt lat="44.7702" lon="5.70429">
        <ele>787</ele>
        <time>2018-05-23T17:14:00Z</time>
      </trkpt>
      <trkpt lat="44.77017" lon="5.70448">
        <ele>786</ele>
        <time>2018-05-23T17:14:02Z</time>
      </trkpt>
      <trkpt lat="44.77017" lon="5.70468">
        <ele>785</ele>
        <time>2018-05-23T17:14:19Z</time>
      </trkpt>
      <trkpt lat="44.77019" lon="5.70514">
        <ele>782</ele>
        <time>2018-05-23T17:14:39Z</time>
      </trkpt>
      <trkpt lat="44.77023" lon="5.7061">
        <ele>780</ele>
        <time>2018-05-23T17:14:42Z</time>
      </trkpt>
      <trkpt lat="44.77023" lon="5.70655">
        <ele>780</ele>
        <time>2018-05-23T17:15:02Z</time>
      </trkpt>
      <trkpt lat="44.7702" lon="5.70673">
        <ele>779</ele>
        <time>2018-05-23T17:15:19Z</time>
      </trkpt>
      <trkpt lat="44.77015" lon="5.70691">
        <ele>778</ele>
        <time>2018-05-23T17:15:35Z</time>
      </trkpt>
      <trkpt lat="44.76999" lon="5.70743">
        <ele>780</ele>
        <time>2018-05-23T17:15:50Z</time>
      </trkpt>
      <trkpt lat="44.7699" lon="5.70781">
        <ele>780</ele>
        <time>2018-05-23T17:16:07Z</time>
      </trkpt>
      <trkpt lat="44.7699" lon="5.70819">
        <ele>778</ele>
        <time>2018-05-23T17:16:26Z</time>
      </trkpt>
      <trkpt lat="44.76995" lon="5.70856">
        <ele>775</ele>
        <time>2018-05-23T17:16:39Z</time>
      </trkpt>
      <trkpt lat="44.77001" lon="5.71009">
        <ele>757</ele>
        <time>2018-05-23T17:16:44Z</time>
      </trkpt>
      <trkpt lat="44.77001" lon="5.71052">
        <ele>753</ele>
        <time>2018-05-23T17:17:01Z</time>
      </trkpt>
      <trkpt lat="44.76998" lon="5.71106">
        <ele>761</ele>
        <time>2018-05-23T17:17:18Z</time>
      </trkpt>
      <trkpt lat="44.76998" lon="5.71145">
        <ele>759</ele>
        <time>2018-05-23T17:17:25Z</time>
      </trkpt>
      <trkpt lat="44.77003" lon="5.71158">
        <ele>750</ele>
        <time>2018-05-23T17:17:44Z</time>
      </trkpt>
      <trkpt lat="44.7701" lon="5.7117">
        <ele>748</ele>
        <time>2018-05-23T17:17:54Z</time>
      </trkpt>
      <trkpt lat="44.77021" lon="5.71177">
        <ele>746</ele>
        <time>2018-05-23T17:18:01Z</time>
      </trkpt>
      <trkpt lat="44.77032" lon="5.7118">
        <ele>744</ele>
        <time>2018-05-23T17:18:03Z</time>
      </trkpt>
      <trkpt lat="44.77044" lon="5.71178">
        <ele>743</ele>
        <time>2018-05-23T17:18:23Z</time>
      </trkpt>
      <trkpt lat="44.77056" lon="5.71173">
        <ele>742</ele>
        <time>2018-05-23T17:18:41Z</time>
      </trkpt>
      <trkpt lat="44.77115" lon="5.71131">
        <ele>737</ele>
        <time>2018-05-23T17:18:47Z</time>
      </trkpt>
      <trkpt lat="44.77142" lon="5.71113">
        <ele>736</ele>
        <time>2018-05-23T17:18:53Z</time>
      </trkpt>
      <trkpt lat="44.77158" lon="5.71105">
        <ele>736</ele>
        <time>2018-05-23T17:19:12Z</time>
      </trkpt>
      <trkpt lat="44.77173" lon="5.71105">
        <ele>733</ele>
        <time>2018-05-23T17:19:30Z</time>
      </trkpt>
      <trkpt lat="44.77185" lon="5.7111">
        <ele>733</ele>
        <time>2018-05-23T17:19:38Z</time>
      </trkpt>
      <trkpt lat="44.77194" lon="5.71119">
        <ele>733</ele>
        <time>2018-05-23T17:19:54Z</time>
      </trkpt>
      <trkpt lat="44.77206" lon="5.71137">
        <ele>733</ele>
        <time>2018-05-23T17:20:03Z</time>
      </trkpt>
      <trkpt lat="44.77217" lon="5.71155">
        <ele>734</ele>
        <time>2018-05-23T17:20:08Z</time>
      </trkpt>
      <trkpt lat="44.77223" lon="5.71164">
        <ele>735</ele>
        <time>2018-05-23T17:20:28Z</time>
      </trkpt>
      <trkpt lat="44.77232" lon="5.71175">
        <ele>739</ele>
        <time>2018-05-23T17:20:38Z</time>
      </trkpt>
      <trkpt lat="44.77227" lon="5.71185">
        <ele>739</ele>
        <time>2018-05-23T17:20:53Z</time>
      </trkpt>
      <trkpt lat="44.7722" lon="5.71203">
        <ele>740</ele>
        <time>2018-05-23T17:21:04Z</time>
      </trkpt>
      <trkpt lat="44.77204" lon="5.71241">
        <ele>740</ele>
        <time>2018-05-23T17:21:08Z</time>
      </trkpt>
      <trkpt lat="44.77195" lon="5.71256">
        <ele>746</ele>
        <time>2018-05-23T17:21:24Z</time>
      </trkpt>
      <trkpt lat="44.77183" lon="5.7127">
        <ele>745</ele>
        <time>2018-05-23T17:21:27Z</time>
      </trkpt>
      <trkpt lat="44.77157" lon="5.71293">
        <ele>739</ele>
        <time>2018-05-23T17:21:32Z</time>
      </trkpt>
      <trkpt lat="44.77145" lon="5.71308">
        <ele>740</ele>
        <time>2018-05-23T17:21:43Z</time>
      </trkpt>
      <trkpt lat="44.77135" lon="5.7133">
        <ele>740</ele>
        <time>2018-05-23T17:22:03Z</time>
      </trkpt>
      <trkpt lat="44.77129" lon="5.71353">
        <ele>745</ele>
        <time>2018-05-23T17:22:14Z</time>
      </trkpt>
      <trkpt lat="44.77127" lon="5.71371">
        <ele>746</ele>
        <time>2018-05-23T17:22:17Z</time>
      </trkpt>
      <trkpt lat="44.77127" lon="5.7141">
        <ele>749</ele>
        <time>2018-05-23T17:22:36Z</time>
      </trkpt>
      <trkpt lat="44.77121" lon="5.71457">
        <ele>755</ele>
        <time>2018-05-23T17:22:43Z</time>
      </trkpt>
      <trkpt lat="44.77102" lon="5.71571">
        <ele>761</ele>
        <time>2018-05-23T17:22:59Z</time>
      </trkpt>
      <trkpt lat="44.77091" lon="5.71607">
        <ele>765</ele>
        <time>2018-05-23T17:23:07Z</time>
      </trkpt>
      <trkpt lat="44.77087" lon="5.71627">
        <ele>767</ele>
        <time>2018-05-23T17:23:13Z</time>
      </trkpt>
      <trkpt lat="44.77084" lon="5.71647">
        <ele>766</ele>
        <time>2018-05-23T17:23:33Z</time>
      </trkpt>
      <trkpt lat="44.77082" lon="5.71711">
        <ele>758</ele>
        <time>2018-05-23T17:23:39Z</time>
      </trkpt>
      <trkpt lat="44.77081" lon="5.71747">
        <ele>764</ele>
        <time>2018-05-23T17:23:49Z</time>
      </trkpt>
      <trkpt lat="44.77082" lon="5.71759">
        <ele>764</ele>
        <time>2018-05-23T17:24:06Z</time>
      </trkpt>
      <trkpt lat="44.77088" lon="5.71764">
        <ele>771</ele>
        <time>2018-05-23T17:24:21Z</time>
      </trkpt>
      <trkpt lat="44.77093" lon="5.7176">
        <ele>771</ele>
        <time>2018-05-23T17:24:35Z</time>
      </trkpt>
      <trkpt lat="44.77094" lon="5.7175">
        <ele>770</ele>
        <time>2018-05-23T17:24:44Z</time>
      </trkpt>
      <trkpt lat="44.77096" lon="5.71714">
        <ele>772</ele>
        <time>2018-05-23T17:24:49Z</time>
      </trkpt>
      <trkpt lat="44.77097" lon="5.71694">
        <ele>771</ele>
        <time>2018-05-23T17:24:58Z</time>
      </trkpt>
      <trkpt lat="44.77101" lon="5.7167">
        <ele>770</ele>
        <time>2018-05-23T17:25:11Z</time>
      </trkpt>
      <trkpt lat="44.77112" lon="5.71634">
        <ele>770</ele>
        <time>2018-05-23T17:25:20Z</time>
      </trkpt>
      <trkpt lat="44.77119" lon="5.71619">
        <ele>770</ele>
        <time>2018-05-23T17:25:31Z</time>
      </trkpt>
      <trkpt lat="44.77129" lon="5.71606">
        <ele>771</ele>
        <time>2018-05-23T17:25:33Z</time>
      </trkpt>
      <trkpt lat="44.77152" lon="5.71584">
        <ele>776</ele>
        <time>2018-05-23T17:25:48Z</time>
      </trkpt>
      <trkpt lat="44.77162" lon="5.71568">
        <ele>773</ele>
        <time>2018-05-23T17:26:01Z</time>
      </trkpt>
      <trkpt lat="44.77173" lon="5.71545">
        <ele>784</ele>
        <time>2018-05-23T17:26:04Z</time>
      </trkpt>
      <trkpt lat="44.7719" lon="5.71506">
        <ele>782</ele>
        <time>2018-05-23T17:26:16Z</time>
      </trkpt>
      <trkpt lat="44.77197" lon="5.71495">
        <ele>778</ele>
        <time>2018-05-23T17:26:27Z</time>
      </trkpt>
      <trkpt lat="44.77204" lon="5.7149">
        <ele>779</ele>
        <time>2018-05-23T17:26:47Z</time>
      </trkpt>
      <trkpt lat="44.77211" lon="5.71488">
        <ele>780</ele>
        <time>2018-05-23T17:27:03Z</time>
      </trkpt>
      <trkpt lat="44.77215" lon="5.7149">
        <ele>781</ele>
        <time>2018-05-23T17:27:10Z</time>
      </trkpt>
      <trkpt lat="44.77217" lon="5.71497">
        <ele>781</ele>
        <time>2018-05-23T17:27:12Z</time>
      </trkpt>
      <trkpt lat="44.77215" lon="5.71507">
        <ele>786</ele>
        <time>2018-05-23T17:27:32Z</time>
      </trkpt>
      <trkpt lat="44.77211" lon="5.71521">
        <ele>786</ele>
        <time>2018-05-23T17:27:38Z</time>
      </trkpt>
      <trkpt lat="44.77206" lon="5.71557">
        <ele>787</ele>
        <time>2018-05-23T17:27:46Z</time>
      </trkpt>
      <trkpt lat="44.77204" lon="5.71635">
        <ele>794</ele>
        <time>2018-05-23T17:27:48Z</time>
      </trkpt>
      <trkpt lat="44.77202" lon="5.71701">
        <ele>799</ele>
        <time>2018-05-23T17:27:58Z</time>
      </trkpt>
      <trkpt lat="44.77205" lon="5.71741">
        <ele>799</ele>
        <time>2018-05-23T17:28:17Z</time>
      </trkpt>
      <trkpt lat="44.77217" lon="5.71784">
        <ele>799</ele>
        <time>2018-05-23T17:28:36Z</time>
      </trkpt>
      <trkpt lat="44.77223" lon="5.71795">
        <ele>800</ele>
        <time>2018-05-23T17:28:48Z</time>
      </trkpt>
      <trkpt lat="44.7723" lon="5.71803">
        <ele>800</ele>
        <time>2018-05-23T17:28:59Z</time>
      </trkpt>
      <trkpt lat="44.77245" lon="5.71813">
        <ele>802</ele>
        <time>2018-05-23T17:29:12Z</time>
      </trkpt>
      <trkpt lat="44.77252" lon="5.7182">
        <ele>811</ele>
        <time>2018-05-23T17:29:29Z</time>
      </trkpt>
      <trkpt lat="44.77259" lon="5.7183">
        <ele>810</ele>
        <time>2018-05-23T17:29:35Z</time>
      </trkpt>
      <trkpt lat="44.77268" lon="5.71859">
        <ele>813</ele>
        <time>2018-05-23T17:29:54Z</time>
      </trkpt>
      <trkpt lat="44.77275" lon="5.7189">
        <ele>814</ele>
        <time>2018-05-23T17:29:57Z</time>
      </trkpt>
      <trkpt lat="44.77275" lon="5.71926">
        <ele>814</ele>
        <time>2018-05-23T17:30:11Z</time>
      </trkpt>
      <trkpt lat="44.77271" lon="5.7197">
        <ele>817</ele>
        <time>2018-05-23T17:30:17Z</time>
      </trkpt>
      <trkpt lat="44.77262" lon="5.7202">
        <ele>820</ele>
        <time>2018-05-23T17:30:24Z</time>
      </trkpt>
      <trkpt lat="44.77253" lon="5.72055">
        <ele>822</ele>
        <time>2018-05-23T17:30:33Z</time>
      </trkpt>
      <trkpt lat="44.77244" lon="5.7208">
        <ele>815</ele>
        <time>2018-05-23T17:30:39Z</time>
      </trkpt>
      <trkpt lat="44.77215" lon="5.72155">
        <ele>817</ele>
        <time>2018-05-23T17:30:44Z</time>
      </trkpt>
      <trkpt lat="44.77207" lon="5.72188">
        <ele>820</ele>
        <time>2018-05-23T17:30:51Z</time>
      </trkpt>
      <trkpt lat="44.77207" lon="5.7222">
        <ele>821</ele>
        <time>2018-05-23T17:31:06Z</time>
      </trkpt>
      <trkpt lat="44.77211" lon="5.72279">
        <ele>826</ele>
        <time>2018-05-23T17:31:19Z</time>
      </trkpt>
      <trkpt lat="44.7721" lon="5.72317">
        <ele>827</ele>
        <time>2018-05-23T17:31:32Z</time>
      </trkpt>
      <trkpt lat="44.77203" lon="5.72353">
        <ele>829</ele>
        <time>2018-05-23T17:31:36Z</time>
      </trkpt>
      <trkpt lat="44.772" lon="5.72368">
        <ele>829</ele>
        <time>2018-05-23T17:31:52Z</time>
      </trkpt>
      <trkpt lat="44.772" lon="5.72381">
        <ele>830</ele>
        <time>2018-05-23T17:32:06Z</time>
      </trkpt>
      <trkpt lat="44.77208" lon="5.72402">
        <ele>831</ele>
        <time>2018-05-23T17:32:13Z</time>
      </trkpt>
      <trkpt lat="44.77221" lon="5.72424">
        <ele>835</ele>
        <time>2018-05-23T17:32:27Z</time>
      </trkpt>
      <trkpt lat="44.77231" lon="5.72448">
        <ele>835</ele>
        <time>2018-05-23T17:32:45Z</time>
      </trkpt>
      <trkpt lat="44.77261" lon="5.7253">
        <ele>850</ele>
        <time>2018-05-23T17:32:58Z</time>
      </trkpt>
      <trkpt lat="44.77278" lon="5.72579">
        <ele>850</ele>
        <time>2018-05-23T17:33:17Z</time>
      </trkpt>
      <trkpt lat="44.77293" lon="5.72639">
        <ele>851</ele>
        <time>2018-05-23T17:33:32Z</time>
      </trkpt>
      <trkpt lat="44.77304" lon="5.72697">
        <ele>852</ele>
        <time>2018-05-23T17:33:35Z</time>
      </trkpt>
      <trkpt lat="44.77316" lon="5.72778">
        <ele>857</ele>
        <time>2018-05-23T17:33:55Z</time>
      </trkpt>
      <trkpt lat="44.77318" lon="5.72809">
        <ele>859</ele>
        <time>2018-05-23T17:34:14Z</time>
      </trkpt>
      <trkpt lat="44.77315" lon="5.72855">
        <ele>863</ele>
        <time>2018-05-23T17:34:34Z</time>
      </trkpt>
      <trkpt lat="44.77309" lon="5.72903">
        <ele>864</ele>
        <time>2018-05-23T17:34:39Z</time>
      </trkpt>
      <trkpt lat="44.77303" lon="5.72934">
        <ele>869</ele>
        <time>2018-05-23T17:34:52Z</time>
      </trkpt>
      <trkpt lat="44.77284" lon="5.7299">
        <ele>871</ele>
        <time>2018-05-23T17:35:12Z</time>
      </trkpt>
      <trkpt lat="44.77261" lon="5.73031">
        <ele>879</ele>
        <time>2018-05-23T17:35:25Z</time>
      </trkpt>
      <trkpt lat="44.77242" lon="5.73053">
        <ele>875</ele>
        <time>2018-05-23T17:35:32Z</time>
      </trkpt>
      <trkpt lat="44.77217" lon="5.73071">
        <ele>876</ele>
        <time>2018-05-23T17:35:45Z</time>
      </trkpt>
      <trkpt lat="44.77196" lon="5.73085">
        <ele>883</ele>
        <time>2018-05-23T17:35:51Z</time>
      </trkpt>
      <trkpt lat="44.77187" lon="5.73095">
        <ele>883</ele>
        <time>2018-05-23T17:36:03Z</time>
      </trkpt>
      <trkpt lat="44.77185" lon="5.73104">
        <ele>884</ele>
        <time>2018-05-23T17:36:06Z</time>
      </trkpt>
      <trkpt lat="44.77191" lon="5.7311">
        <ele>885</ele>
        <time>2018-05-23T17:36:16Z</time>
      </trkpt>
      <trkpt lat="44.77205" lon="5.73104">
        <ele>885</ele>
        <time>2018-05-23T17:36:24Z</time>
      </trkpt>
      <trkpt lat="44.77229" lon="5.73096">
        <ele>885</ele>
        <time>2018-05-23T17:36:30Z</time>
      </trkpt>
      <trkpt lat="44.77251" lon="5.73094">
        <ele>887</ele>
        <time>2018-05-23T17:36:41Z</time>
      </trkpt>
      <trkpt lat="44.7728" lon="5.73087">
        <ele>892</ele>
        <time>2018-05-23T17:36:44Z</time>
      </trkpt>
      <trkpt lat="44.77299" lon="5.73079">
        <ele>886</ele>
        <time>2018-05-23T17:36:58Z</time>
      </trkpt>
      <trkpt lat="44.77317" lon="5.7307">
        <ele>888</ele>
        <time>2018-05-23T17:37:03Z</time>
      </trkpt>
      <trkpt lat="44.77333" lon="5.73058">
        <ele>888</ele>
        <time>2018-05-23T17:37:21Z</time>
      </trkpt>
      <trkpt lat="44.77372" lon="5.7302">
        <ele>894</ele>
        <time>2018-05-23T17:37:40Z</time>
      </trkpt>
      <trkpt lat="44.77394" lon="5.72998">
        <ele>892</ele>
        <time>2018-05-23T17:37:46Z</time>
      </trkpt>
      <trkpt lat="44.77449" lon="5.72949">
        <ele>897</ele>
        <time>2018-05-23T17:37:50Z</time>
      </trkpt>
      <trkpt lat="44.77455" lon="5.7295">
        <ele>897</ele>
        <time>2018-05-23T17:38:09Z</time>
      </trkpt>
      <trkpt lat="44.77462" lon="5.72953">
        <ele>897</ele>
        <time>2018-05-23T17:38:21Z</time>
      </trkpt>
      <trkpt lat="44.77467" lon="5.72961">
        <ele>897</ele>
        <time>2018-05-23T17:38:26Z</time>
      </trkpt>
      <trkpt lat="44.77472" lon="5.72989">
        <ele>897</ele>
        <time>2018-05-23T17:38:38Z</time>
      </trkpt>
      <trkpt lat="44.77478" lon="5.73051">
        <ele>897</ele>
        <time>2018-05-23T17:38:55Z</time>
      </trkpt>
      <trkpt lat="44.77489" lon="5.73092">
        <ele>896</ele>
        <time>2018-05-23T17:39:09Z</time>
      </trkpt>
      <trkpt lat="44.77504" lon="5.73133">
        <ele>889</ele>
        <time>2018-05-23T17:39:23Z</time>
      </trkpt>
      <trkpt lat="44.77523" lon="5.73166">
        <ele>889</ele>
        <time>2018-05-23T17:39:27Z</time>
      </trkpt>
      <trkpt lat="44.77548" lon="5.7321">
        <ele>885</ele>
        <time>2018-05-23T17:39:38Z</time>
      </trkpt>
      <trkpt lat="44.77567" lon="5.73258">
        <ele>881</ele>
        <time>2018-05-23T17:39:49Z</time>
      </trkpt>
      <trkpt lat="44.77571" lon="5.73279">
        <ele>882</ele>
        <time>2018-05-23T17:40:07Z</time>
      </trkpt>
      <trkpt lat="44.77572" lon="5.73299">
        <ele>882</ele>
        <time>2018-05-23T17:40:20Z</time>
      </trkpt>
      <trkpt lat="44.77568" lon="5.73329">
        <ele>879</ele>
        <time>2018-05-23T17:40:33Z</time>
      </trkpt>
      <trkpt lat="44.77558" lon="5.73378">
        <ele>881</ele>
        <time>2018-05-23T17:40:35Z</time>
      </trkpt>
      <trkpt lat="44.77555" lon="5.73407">
        <ele>880</ele>
        <time>2018-05-23T17:40:45Z</time>
      </trkpt>
      <trkpt lat="44.77558" lon="5.73427">
        <ele>878</ele>
        <time>2018-05-23T17:40:47Z</time>
      </trkpt>
      <trkpt lat="44.77576" lon="5.73482">
        <ele>877</ele>
        <time>2018-05-23T17:41:02Z</time>
      </trkpt>
      <trkpt lat="44.77605" lon="5.73558">
        <ele>867</ele>
        <time>2018-05-23T17:41:06Z</time>
      </trkpt>
      <trkpt lat="44.7763" lon="5.73618">
        <ele>864</ele>
        <time>2018-05-23T17:41:25Z</time>
      </trkpt>
      <trkpt lat="44.77652" lon="5.73666">
        <ele>860</ele>
        <time>2018-05-23T17:41:28Z</time>
      </trkpt>
      <trkpt lat="44.77675" lon="5.73709">
        <ele>852</ele>
        <time>2018-05-23T17:41:33Z</time>
      </trkpt>
      <trkpt lat="44.77704" lon="5.73758">
        <ele>851</ele>
        <time>2018-05-23T17:41:46Z</time>
      </trkpt>
      <trkpt lat="44.77737" lon="5.73801">
        <ele>848</ele>
        <time>2018-05-23T17:42:00Z</time>
      </trkpt>
      <trkpt lat="44.7775" lon="5.73822">
        <ele>843</ele>
        <time>2018-05-23T17:42:04Z</time>
      </trkpt>
      <trkpt lat="44.77753" lon="5.73832">
        <ele>844</ele>
        <time>2018-05-23T17:42:13Z</time>
      </trkpt>
      <trkpt lat="44.77754" lon="5.73844">
        <ele>843</ele>
        <time>2018-05-23T17:42:27Z</time>
      </trkpt>
      <trkpt lat="44.77752" lon="5.73874">
        <ele>842</ele>
        <time>2018-05-23T17:42:35Z</time>
      </trkpt>
      <trkpt lat="44.77753" lon="5.73888">
        <ele>843</ele>
        <time>2018-05-23T17:42:43Z</time>
      </trkpt>
      <trkpt lat="44.77761" lon="5.73907">
        <ele>844</ele>
        <time>2018-05-23T17:42:46Z</time>
      </trkpt>
      <trkpt lat="44.77804" lon="5.73949">
        <ele>840</ele>
        <time>2018-05-23T17:42:51Z</time>
      </trkpt>
      <trkpt lat="44.7785" lon="5.73996">
        <ele>832</ele>
        <time>2018-05-23T17:42:58Z</time>
      </trkpt>
      <trkpt lat="44.77872" lon="5.74023">
        <ele>830</ele>
        <time>2018-05-23T17:43:00Z</time>
      </trkpt>
      <trkpt lat="44.7789" lon="5.74056">
        <ele>829</ele>
        <time>2018-05-23T17:43:15Z</time>
      </trkpt>
      <trkpt lat="44.77899" lon="5.74077">
        <ele>829</ele>
        <time>2018-05-23T17:43:32Z</time>
      </trkpt>
      <trkpt lat="44.77919" lon="5.74114">
        <ele>830</ele>
        <time>2018-05-23T17:43:49Z</time>
      </trkpt>
      <trkpt lat="44.7793" lon="5.74125">
        <ele>830</ele>
        <time>2018-05-23T17:44:06Z</time>
      </trkpt>
      <trkpt lat="44.77942" lon="5.74131">
        <ele>830</ele>
        <time>2018-05-23T17:44:13Z</time>
      </trkpt>
      <trkpt lat="44.77956" lon="5.74135">
        <ele>830</ele>
        <time>2018-05-23T17:44:22Z</time>
      </trkpt>
      <trkpt lat="44.77972" lon="5.74136">
        <ele>830</ele>
        <time>2018-05-23T17:44:33Z</time>
      </trkpt>
      <trkpt lat="44.78008" lon="5.74144">
        <ele>833</ele>
        <time>2018-05-23T17:44:51Z</time>
      </trkpt>
      <trkpt lat="44.78069" lon="5.74164">
        <ele>837</ele>
        <time>2018-05-23T17:45:09Z</time>
      </trkpt>
      <trkpt lat="44.78088" lon="5.74165">
        <ele>840</ele>
        <time>2018-05-23T17:45:11Z</time>
      </trkpt>
      <trkpt lat="44.78103" lon="5.74162">
        <ele>841</ele>
        <time>2018-05-23T17:45:26Z</time>
      </trkpt>
      <trkpt lat="44.7812" lon="5.74155">
        <ele>842</ele>
        <time>2018-05-23T17:45:30Z</time>
      </trkpt>
      <trkpt lat="44.78136" lon="5.74146">
        <ele>843</ele>
        <time>2018-05-23T17:45:41Z</time>
      </trkpt>
      <trkpt lat="44.78145" lon="5.7414">
        <ele>844</ele>
        <time>2018-05-23T17:45:45Z</time>
      </trkpt>
      <trkpt lat="44.78178" lon="5.74114">
        <ele>848</ele>
        <time>2018-05-23T17:46:02Z</time>
      </trkpt>
      <trkpt lat="44.78236" lon="5.74063">
        <ele>847</ele>
        <time>2018-05-23T17:46:21Z</time>
      </trkpt>
      <trkpt lat="44.78251" lon="5.74042">
        <ele>850</ele>
        <time>2018-05-23T17:46:41Z</time>
      </trkpt>
      <trkpt lat="44.78263" lon="5.74018">
        <ele>849</ele>
        <time>2018-05-23T17:46:58Z</time>
      </trkpt>
      <trkpt lat="44.78269" lon="5.74012">
        <ele>849</ele>
        <time>2018-05-23T17:47:10Z</time>
      </trkpt>
      <trkpt lat="44.78275" lon="5.74011">
        <ele>849</ele>
        <time>2018-05-23T17:47:29Z</time>
      </trkpt>
      <trkpt lat="44.78281" lon="5.74016">
        <ele>849</ele>
        <time>2018-05-23T17:47:36Z</time>
      </trkpt>
      <trkpt lat="44.78285" lon="5.74023">
        <ele>850</ele>
        <time>2018-05-23T17:47:54Z</time>
      </trkpt>
      <trkpt lat="44.78288" lon="5.74035">
        <ele>850</ele>
        <time>2018-05-23T17:48:11Z</time>
      </trkpt>
      <trkpt lat="44.78298" lon="5.74118">
        <ele>853</ele>
        <time>2018-05-23T17:48:20Z</time>
      </trkpt>
      <trkpt lat="44.78339" lon="5.74449">
        <ele>851</ele>
        <time>2018-05-23T17:48:29Z</time>
      </trkpt>
      <trkpt lat="44.78352" lon="5.7455">
        <ele>851</ele>
        <time>2018-05-23T17:48:45Z</time>
      </trkpt>
      <trkpt lat="44.78354" lon="5.74594">
        <ele>850</ele>
        <time>2018-05-23T17:49:02Z</time>
      </trkpt>
      <trkpt lat="44.78354" lon="5.74597">
        <ele>850</ele>
        <time>2018-05-23T17:49:22Z</time>
      </trkpt>
      <trkpt lat="44.78349" lon="5.74646">
        <ele>850</ele>
        <time>2018-05-23T17:49:32Z</time>
      </trkpt>
      <trkpt lat="44.78335" lon="5.74696">
        <ele>847</ele>
        <time>2018-05-23T17:49:35Z</time>
      </trkpt>
      <trkpt lat="44.78314" lon="5.74743">
        <ele>849</ele>
        <time>2018-05-23T17:49:43Z</time>
      </trkpt>
      <trkpt lat="44.78288" lon="5.74782">
        <ele>849</ele>
        <time>2018-05-23T17:49:49Z</time>
      </trkpt>
      <trkpt lat="44.78225" lon="5.74865">
        <ele>852</ele>
        <time>2018-05-23T17:49:54Z</time>
      </trkpt>
      <trkpt lat="44.7821" lon="5.7489">
        <ele>852</ele>
        <time>2018-05-23T17:49:57Z</time>
      </trkpt>
      <trkpt lat="44.78204" lon="5.74914">
        <ele>852</ele>
        <time>2018-05-23T17:50:00Z</time>
      </trkpt>
      <trkpt lat="44.78205" lon="5.7494">
        <ele>851</ele>
        <time>2018-05-23T17:50:06Z</time>
      </trkpt>
      <trkpt lat="44.78211" lon="5.74963">
        <ele>851</ele>
        <time>2018-05-23T17:50:10Z</time>
      </trkpt>
      <trkpt lat="44.78231" lon="5.75018">
        <ele>850</ele>
        <time>2018-05-23T17:50:18Z</time>
      </trkpt>
      <trkpt lat="44.78256" lon="5.75084">
        <ele>847</ele>
        <time>2018-05-23T17:50:38Z</time>
      </trkpt>
      <trkpt lat="44.78278" lon="5.75134">
        <ele>845</ele>
        <time>2018-05-23T17:50:53Z</time>
      </trkpt>
      <trkpt lat="44.78322" lon="5.75219">
        <ele>846</ele>
        <time>2018-05-23T17:51:08Z</time>
      </trkpt>
      <trkpt lat="44.78326" lon="5.75235">
        <ele>846</ele>
        <time>2018-05-23T17:51:24Z</time>
      </trkpt>
      <trkpt lat="44.78327" lon="5.75252">
        <ele>846</ele>
        <time>2018-05-23T17:51:38Z</time>
      </trkpt>
      <trkpt lat="44.78322" lon="5.75281">
        <ele>848</ele>
        <time>2018-05-23T17:51:47Z</time>
      </trkpt>
      <trkpt lat="44.78322" lon="5.753">
        <ele>849</ele>
        <time>2018-05-23T17:52:03Z</time>
      </trkpt>
      <trkpt lat="44.78329" lon="5.75312">
        <ele>849</ele>
        <time>2018-05-23T17:52:11Z</time>
      </trkpt>
      <trkpt lat="44.78342" lon="5.75317">
        <ele>847</ele>
        <time>2018-05-23T17:52:15Z</time>
      </trkpt>
      <trkpt lat="44.78378" lon="5.75319">
        <ele>846</ele>
        <time>2018-05-23T17:52:20Z</time>
      </trkpt>
      <trkpt lat="44.78409" lon="5.75317">
        <ele>845</ele>
        <time>2018-05-23T17:52:31Z</time>
      </trkpt>
      <trkpt lat="44.78422" lon="5.75313">
        <ele>844</ele>
        <time>2018-05-23T17:52:35Z</time>
      </trkpt>
      <trkpt lat="44.78437" lon="5.75304">
        <ele>843</ele>
        <time>2018-05-23T17:52:50Z</time>
      </trkpt>
      <trkpt lat="44.78463" lon="5.75286">
        <ele>842</ele>
        <time>2018-05-23T17:52:56Z</time>
      </trkpt>
      <trkpt lat="44.78482" lon="5.75275">
        <ele>841</ele>
        <time>2018-05-23T17:52:59Z</time>
      </trkpt>
      <trkpt lat="44.78508" lon="5.75265">
        <ele>838</ele>
        <time>2018-05-23T17:53:05Z</time>
      </trkpt>
      <trkpt lat="44.7852" lon="5.75264">
        <ele>838</ele>
        <time>2018-05-23T17:53:18Z</time>
      </trkpt>
      <trkpt lat="44.78532" lon="5.75267">
        <ele>839</ele>
        <time>2018-05-23T17:53:38Z</time>
      </trkpt>
      <trkpt lat="44.78544" lon="5.75274">
        <ele>839</ele>
        <time>2018-05-23T17:53:54Z</time>
      </trkpt>
      <trkpt lat="44.78551" lon="5.75282">
        <ele>839</ele>
        <time>2018-05-23T17:54:10Z</time>
      </trkpt>
      <trkpt lat="44.78561" lon="5.753">
        <ele>839</ele>
        <time>2018-05-23T17:54:17Z</time>
      </trkpt>
      <trkpt lat="44.7858" lon="5.7535">
        <ele>842</ele>
        <time>2018-05-23T17:54:35Z</time>
      </trkpt>
      <trkpt lat="44.78599" lon="5.75389">
        <ele>838</ele>
        <time>2018-05-23T17:54:52Z</time>
      </trkpt>
      <trkpt lat="44.78611" lon="5.75406">
        <ele>838</ele>
        <time>2018-05-23T17:55:01Z</time>
      </trkpt>
      <trkpt lat="44.78632" lon="5.75426">
        <ele>839</ele>
        <time>2018-05-23T17:55:09Z</time>
      </trkpt>
      <trkpt lat="44.78676" lon="5.75459">
        <ele>831</ele>
        <time>2018-05-23T17:55:17Z</time>
      </trkpt>
      <trkpt lat="44.78739" lon="5.75522">
        <ele>832</ele>
        <time>2018-05-23T17:55:37Z</time>
      </trkpt>
      <trkpt lat="44.78752" lon="5.7553">
        <ele>827</ele>
        <time>2018-05-23T17:55:39Z</time>
      </trkpt>
      <trkpt lat="44.78773" lon="5.75539">
        <ele>827</ele>
        <time>2018-05-23T17:55:45Z</time>
      </trkpt>
      <trkpt lat="44.7879" lon="5.75547">
        <ele>827</ele>
        <time>2018-05-23T17:55:48Z</time>
      </trkpt>
      <trkpt lat="44.78802" lon="5.75556">
        <ele>826</ele>
        <time>2018-05-23T17:55:51Z</time>
      </trkpt>
      <trkpt lat="44.78809" lon="5.75565">
        <ele>826</ele>
        <time>2018-05-23T17:56:04Z</time>
      </trkpt>
      <trkpt lat="44.78812" lon="5.75578">
        <ele>826</ele>
        <time>2018-05-23T17:56:12Z</time>
      </trkpt>
      <trkpt lat="44.78812" lon="5.75597">
        <ele>827</ele>
        <time>2018-05-23T17:56:32Z</time>
      </trkpt>
      <trkpt lat="44.78804" lon="5.75635">
        <ele>828</ele>
        <time>2018-05-23T17:56:49Z</time>
      </trkpt>
      <trkpt lat="44.78787" lon="5.75696">
        <ele>827</ele>
        <time>2018-05-23T17:57:06Z</time>
      </trkpt>
      <trkpt lat="44.78766" lon="5.75745">
        <ele>829</ele>
        <time>2018-05-23T17:57:24Z</time>
      </trkpt>
      <trkpt lat="44.78734" lon="5.7581">
        <ele>831</ele>
        <time>2018-05-23T17:57:28Z</time>
      </trkpt>
      <trkpt lat="44.7873" lon="5.7582">
        <ele>830</ele>
        <time>2018-05-23T17:57:30Z</time>
      </trkpt>
      <trkpt lat="44.7873" lon="5.7583">
        <ele>829</ele>
        <time>2018-05-23T17:57:46Z</time>
      </trkpt>
      <trkpt lat="44.78732" lon="5.75834">
        <ele>823</ele>
        <time>2018-05-23T17:57:48Z</time>
      </trkpt>
      <trkpt lat="44.78738" lon="5.75836">
        <ele>822</ele>
        <time>2018-05-23T17:57:57Z</time>
      </trkpt>
      <trkpt lat="44.78746" lon="5.75836">
        <ele>821</ele>
        <time>2018-05-23T17:58:00Z</time>
      </trkpt>
      <trkpt lat="44.78758" lon="5.75831">
        <ele>820</ele>
        <time>2018-05-23T17:58:05Z</time>
      </trkpt>
      <trkpt lat="44.78786" lon="5.75817">
        <ele>818</ele>
        <time>2018-05-23T17:58:08Z</time>
      </trkpt>
      <trkpt lat="44.78807" lon="5.75808">
        <ele>816</ele>
        <time>2018-05-23T17:58:16Z</time>
      </trkpt>
      <trkpt lat="44.7882" lon="5.75798">
        <ele>816</ele>
        <time>2018-05-23T17:58:33Z</time>
      </trkpt>
      <trkpt lat="44.78844" lon="5.75769">
        <ele>811</ele>
        <time>2018-05-23T17:58:39Z</time>
      </trkpt>
      <trkpt lat="44.78867" lon="5.75751">
        <ele>808</ele>
        <time>2018-05-23T17:58:48Z</time>
      </trkpt>
      <trkpt lat="44.78909" lon="5.75721">
        <ele>811</ele>
        <time>2018-05-23T17:58:53Z</time>
      </trkpt>
      <trkpt lat="44.78915" lon="5.75721">
        <ele>810</ele>
        <time>2018-05-23T17:59:10Z</time>
      </trkpt>
      <trkpt lat="44.7892" lon="5.75725">
        <ele>803</ele>
        <time>2018-05-23T17:59:27Z</time>
      </trkpt>
      <trkpt lat="44.78921" lon="5.75732">
        <ele>803</ele>
        <time>2018-05-23T17:59:33Z</time>
      </trkpt>
      <trkpt lat="44.78918" lon="5.7574">
        <ele>802</ele>
        <time>2018-05-23T17:59:41Z</time>
      </trkpt>
      <trkpt lat="44.7889" lon="5.75763">
        <ele>805</ele>
        <time>2018-05-23T17:59:55Z</time>
      </trkpt>
      <trkpt lat="44.78862" lon="5.75792">
        <ele>806</ele>
        <time>2018-05-23T18:00:13Z</time>
      </trkpt>
      <trkpt lat="44.78843" lon="5.75819">
        <ele>805</ele>
        <time>2018-05-23T18:00:26Z</time>
      </trkpt>
      <trkpt lat="44.7883" lon="5.75846">
        <ele>806</ele>
        <time>2018-05-23T18:00:34Z</time>
      </trkpt>
      <trkpt lat="44.78826" lon="5.7586">
        <ele>807</ele>
        <time>2018-05-23T18:00:45Z</time>
      </trkpt>
      <trkpt lat="44.78826" lon="5.75874">
        <ele>806</ele>
        <time>2018-05-23T18:01:02Z</time>
      </trkpt>
      <trkpt lat="44.78829" lon="5.75888">
        <ele>806</ele>
        <time>2018-05-23T18:01:20Z</time>
      </trkpt>
      <trkpt lat="44.78834" lon="5.75899">
        <ele>801</ele>
        <time>2018-05-23T18:01:27Z</time>
      </trkpt>
      <trkpt lat="44.78842" lon="5.75907">
        <ele>801</ele>
        <time>2018-05-23T18:01:38Z</time>
      </trkpt>
      <trkpt lat="44.78852" lon="5.75912">
        <ele>801</ele>
        <time>2018-05-23T18:01:42Z</time>
      </trkpt>
      <trkpt lat="44.78866" lon="5.75912">
        <ele>800</ele>
        <time>2018-05-23T18:02:02Z</time>
      </trkpt>
      <trkpt lat="44.78877" lon="5.7591">
        <ele>800</ele>
        <time>2018-05-23T18:02:09Z</time>
      </trkpt>
      <trkpt lat="44.78907" lon="5.7591">
        <ele>800</ele>
        <time>2018-05-23T18:02:16Z</time>
      </trkpt>
      <trkpt lat="44.78988" lon="5.7593">
        <ele>804</ele>
        <time>2018-05-23T18:02:24Z</time>
      </trkpt>
      <trkpt lat="44.79004" lon="5.75931">
        <ele>805</ele>
        <time>2018-05-23T18:02:32Z</time>
      </trkpt>
      <trkpt lat="44.7902" lon="5.75926">
        <ele>805</ele>
        <time>2018-05-23T18:02:45Z</time>
      </trkpt>
      <trkpt lat="44.79048" lon="5.75915">
        <ele>800</ele>
        <time>2018-05-23T18:02:56Z</time>
      </trkpt>
      <trkpt lat="44.79066" lon="5.75914">
        <ele>801</ele>
        <time>2018-05-23T18:03:01Z</time>
      </trkpt>
      <trkpt lat="44.79097" lon="5.75923">
        <ele>807</ele>
        <time>2018-05-23T18:03:19Z</time>
      </trkpt>
      <trkpt lat="44.79129" lon="5.75936">
        <ele>809</ele>
        <time>2018-05-23T18:03:39Z</time>
      </trkpt>
      <trkpt lat="44.79194" lon="5.75959">
        <ele>813</ele>
        <time>2018-05-23T18:03:50Z</time>
      </trkpt>
      <trkpt lat="44.79224" lon="5.75967">
        <ele>816</ele>
        <time>2018-05-23T18:04:08Z</time>
      </trkpt>
      <trkpt lat="44.79243" lon="5.75967">
        <ele>817</ele>
        <time>2018-05-23T18:04:25Z</time>
      </trkpt>
      <trkpt lat="44.79262" lon="5.75964">
        <ele>825</ele>
        <time>2018-05-23T18:04:37Z</time>
      </trkpt>
      <trkpt lat="44.7928" lon="5.75956">
        <ele>826</ele>
        <time>2018-05-23T18:04:45Z</time>
      </trkpt>
      <trkpt lat="44.79317" lon="5.75935">
        <ele>827</ele>
        <time>2018-05-23T18:05:05Z</time>
      </trkpt>
      <trkpt lat="44.79348" lon="5.7591">
        <ele>826</ele>
        <time>2018-05-23T18:05:13Z</time>
      </trkpt>
      <trkpt lat="44.79396" lon="5.75866">
        <ele>825</ele>
        <time>2018-05-23T18:05:33Z</time>
      </trkpt>
      <trkpt lat="44.79414" lon="5.75844">
        <ele>823</ele>
        <time>2018-05-23T18:05:42Z</time>
      </trkpt>
      <trkpt lat="44.79447" lon="5.75796">
        <ele>824</ele>
        <time>2018-05-23T18:05:56Z</time>
      </trkpt>
      <trkpt lat="44.79459" lon="5.7578">
        <ele>824</ele>
        <time>2018-05-23T18:06:03Z</time>
      </trkpt>
      <trkpt lat="44.79497" lon="5.75732">
        <ele>816</ele>
        <time>2018-05-23T18:06:15Z</time>
      </trkpt>
      <trkpt lat="44.79529" lon="5.75699">
        <ele>818</ele>
        <time>2018-05-23T18:06:34Z</time>
      </trkpt>
      <trkpt lat="44.79545" lon="5.75686">
        <ele>818</ele>
        <time>2018-05-23T18:06:42Z</time>
      </trkpt>
      <trkpt lat="44.79562" lon="5.75675">
        <ele>819</ele>
        <time>2018-05-23T18:06:50Z</time>
      </trkpt>
      <trkpt lat="44.79599" lon="5.75659">
        <ele>815</ele>
        <time>2018-05-23T18:07:03Z</time>
      </trkpt>
      <trkpt lat="44.79612" lon="5.75651">
        <ele>814</ele>
        <time>2018-05-23T18:07:11Z</time>
      </trkpt>
      <trkpt lat="44.79625" lon="5.75639">
        <ele>813</ele>
        <time>2018-05-23T18:07:24Z</time>
      </trkpt>
      <trkpt lat="44.79653" lon="5.75601">
        <ele>812</ele>
        <time>2018-05-23T18:07:32Z</time>
      </trkpt>
      <trkpt lat="44.79667" lon="5.75584">
        <ele>813</ele>
        <time>2018-05-23T18:07:44Z</time>
      </trkpt>
      <trkpt lat="44.79683" lon="5.7557">
        <ele>808</ele>
        <time>2018-05-23T18:07:55Z</time>
      </trkpt>
      <trkpt lat="44.7972" lon="5.75545">
        <ele>806</ele>
        <time>2018-05-23T18:08:10Z</time>
      </trkpt>
      <trkpt lat="44.79764" lon="5.7551">
        <ele>805</ele>
        <time>2018-05-23T18:08:27Z</time>
      </trkpt>
      <trkpt lat="44.79781" lon="5.75501">
        <ele>806</ele>
        <time>2018-05-23T18:08:31Z</time>
      </trkpt>
      <trkpt lat="44.79799" lon="5.75495">
        <ele>807</ele>
        <time>2018-05-23T18:08:48Z</time>
      </trkpt>
      <trkpt lat="44.79838" lon="5.7549">
        <ele>810</ele>
        <time>2018-05-23T18:08:55Z</time>
      </trkpt>
      <trkpt lat="44.79922" lon="5.75477">
        <ele>809</ele>
        <time>2018-05-23T18:08:57Z</time>
      </trkpt>
      <trkpt lat="44.79977" lon="5.7547">
        <ele>808</ele>
        <time>2018-05-23T18:09:07Z</time>
      </trkpt>
      <trkpt lat="44.80029" lon="5.75455">
        <ele>802</ele>
        <time>2018-05-23T18:09:25Z</time>
      </trkpt>
      <trkpt lat="44.80051" lon="5.75454">
        <ele>802</ele>
        <time>2018-05-23T18:09:44Z</time>
      </trkpt>
      <trkpt lat="44.80071" lon="5.75457">
        <ele>801</ele>
        <time>2018-05-23T18:09:55Z</time>
      </trkpt>
      <trkpt lat="44.80091" lon="5.75461">
        <ele>798</ele>
        <time>2018-05-23T18:10:06Z</time>
      </trkpt>
      <trkpt lat="44.8011" lon="5.75463">
        <ele>797</ele>
        <time>2018-05-23T18:10:12Z</time>
      </trkpt>
      <trkpt lat="44.80132" lon="5.75461">
        <ele>797</ele>
        <time>2018-05-23T18:10:31Z</time>
      </trkpt>
      <trkpt lat="44.80152" lon="5.75458">
        <ele>796</ele>
        <time>2018-05-23T18:10:39Z</time>
      </trkpt>
      <trkpt lat="44.80182" lon="5.75448">
        <ele>794</ele>
        <time>2018-05-23T18:10:42Z</time>
      </trkpt>
      <trkpt lat="44.80201" lon="5.75438">
        <ele>795</ele>
        <time>2018-05-23T18:10:50Z</time>
      </trkpt>
      <trkpt lat="44.80218" lon="5.75423">
        <ele>795</ele>
        <time>2018-05-23T18:11:06Z</time>
      </trkpt>
      <trkpt lat="44.8026" lon="5.75381">
        <ele>801</ele>
        <time>2018-05-23T18:11:22Z</time>
      </trkpt>
      <trkpt lat="44.8028" lon="5.75351">
        <ele>802</ele>
        <time>2018-05-23T18:11:29Z</time>
      </trkpt>
      <trkpt lat="44.80318" lon="5.7526">
        <ele>803</ele>
        <time>2018-05-23T18:11:33Z</time>
      </trkpt>
      <trkpt lat="44.80339" lon="5.75205">
        <ele>810</ele>
        <time>2018-05-23T18:11:53Z</time>
      </trkpt>
      <trkpt lat="44.8035" lon="5.7518">
        <ele>807</ele>
        <time>2018-05-23T18:12:10Z</time>
      </trkpt>
      <trkpt lat="44.80363" lon="5.75157">
        <ele>804</ele>
        <time>2018-05-23T18:12:13Z</time>
      </trkpt>
      <trkpt lat="44.80394" lon="5.7512">
        <ele>807</ele>
        <time>2018-05-23T18:12:31Z</time>
      </trkpt>
      <trkpt lat="44.80407" lon="5.75099">
        <ele>808</ele>
        <time>2018-05-23T18:12:39Z</time>
      </trkpt>
      <trkpt lat="44.80419" lon="5.75075">
        <ele>811</ele>
        <time>2018-05-23T18:12:45Z</time>
      </trkpt>
      <trkpt lat="44.80432" lon="5.75042">
        <ele>811</ele>
        <time>2018-05-23T18:12:52Z</time>
      </trkpt>
      <trkpt lat="44.80443" lon="5.75022">
        <ele>810</ele>
        <time>2018-05-23T18:13:06Z</time>
      </trkpt>
      <trkpt lat="44.80455" lon="5.75007">
        <ele>811</ele>
        <time>2018-05-23T18:13:25Z</time>
      </trkpt>
      <trkpt lat="44.80469" lon="5.74993">
        <ele>807</ele>
        <time>2018-05-23T18:13:45Z</time>
      </trkpt>
      <trkpt lat="44.80497" lon="5.74973">
        <ele>809</ele>
        <time>2018-05-23T18:14:03Z</time>
      </trkpt>
      <trkpt lat="44.80511" lon="5.74967">
        <ele>815</ele>
        <time>2018-05-23T18:14:11Z</time>
      </trkpt>
      <trkpt lat="44.80524" lon="5.74966">
        <ele>815</ele>
        <time>2018-05-23T18:14:30Z</time>
      </trkpt>
      <trkpt lat="44.80537" lon="5.74967">
        <ele>815</ele>
        <time>2018-05-23T18:14:44Z</time>
      </trkpt>
      <trkpt lat="44.80551" lon="5.74972">
        <ele>816</ele>
        <time>2018-05-23T18:14:57Z</time>
      </trkpt>
      <trkpt lat="44.80576" lon="5.74983">
        <ele>817</ele>
        <time>2018-05-23T18:15:13Z</time>
      </trkpt>
      <trkpt lat="44.80586" lon="5.74987">
        <ele>818</ele>
        <time>2018-05-23T18:15:32Z</time>
      </trkpt>
      <trkpt lat="44.80594" lon="5.74987">
        <ele>818</ele>
        <time>2018-05-23T18:15:34Z</time>
      </trkpt>
      <trkpt lat="44.80607" lon="5.74982">
        <ele>818</ele>
        <time>2018-05-23T18:15:41Z</time>
      </trkpt>
      <trkpt lat="44.80618" lon="5.74974">
        <ele>818</ele>
        <time>2018-05-23T18:15:58Z</time>
      </trkpt>
      <trkpt lat="44.80637" lon="5.74956">
        <ele>818</ele>
        <time>2018-05-23T18:16:15Z</time>
      </trkpt>
      <trkpt lat="44.80678" lon="5.74911">
        <ele>817</ele>
        <time>2018-05-23T18:16:21Z</time>
      </trkpt>
      <trkpt lat="44.80723" lon="5.74871">
        <ele>816</ele>
        <time>2018-05-23T18:16:41Z</time>
      </trkpt>
      <trkpt lat="44.80759" lon="5.74844">
        <ele>815</ele>
        <time>2018-05-23T18:17:01Z</time>
      </trkpt>
      <trkpt lat="44.80762" lon="5.74843">
        <ele>815</ele>
        <time>2018-05-23T18:17:07Z</time>
      </trkpt>
      <trkpt lat="44.80793" lon="5.74829">
        <ele>810</ele>
        <time>2018-05-23T18:17:09Z</time>
      </trkpt>
      <trkpt lat="44.80821" lon="5.7482">
        <ele>810</ele>
        <time>2018-05-23T18:17:21Z</time>
      </trkpt>
      <trkpt lat="44.80857" lon="5.74811">
        <ele>807</ele>
        <time>2018-05-23T18:17:40Z</time>
      </trkpt>
      <trkpt lat="44.80872" lon="5.74809">
        <ele>806</ele>
        <time>2018-05-23T18:17:59Z</time>
      </trkpt>
      <trkpt lat="44.80907" lon="5.74808">
        <ele>806</ele>
        <time>2018-05-23T18:18:15Z</time>
      </trkpt>
      <trkpt lat="44.80923" lon="5.74813">
        <ele>802</ele>
        <time>2018-05-23T18:18:23Z</time>
      </trkpt>
      <trkpt lat="44.80938" lon="5.74822">
        <ele>802</ele>
        <time>2018-05-23T18:18:41Z</time>
      </trkpt>
      <trkpt lat="44.81022" lon="5.74881">
        <ele>799</ele>
        <time>2018-05-23T18:19:00Z</time>
      </trkpt>
      <trkpt lat="44.81049" lon="5.74902">
        <ele>798</ele>
        <time>2018-05-23T18:19:14Z</time>
      </trkpt>
      <trkpt lat="44.81063" lon="5.74909">
        <ele>798</ele>
        <time>2018-05-23T18:19:31Z</time>
      </trkpt>
      <trkpt lat="44.81077" lon="5.7491">
        <ele>797</ele>
        <time>2018-05-23T18:19:48Z</time>
      </trkpt>
      <trkpt lat="44.81092" lon="5.74905">
        <ele>795</ele>
        <time>2018-05-23T18:19:56Z</time>
      </trkpt>
      <trkpt lat="44.81106" lon="5.74893">
        <ele>794</ele>
        <time>2018-05-23T18:20:10Z</time>
      </trkpt>
      <trkpt lat="44.8113" lon="5.74875">
        <ele>793</ele>
        <time>2018-05-23T18:20:20Z</time>
      </trkpt>
      <trkpt lat="44.81166" lon="5.74856">
        <ele>791</ele>
        <time>2018-05-23T18:20:23Z</time>
      </trkpt>
      <trkpt lat="44.812" lon="5.74841">
        <ele>791</ele>
        <time>2018-05-23T18:20:43Z</time>
      </trkpt>
      <trkpt lat="44.81235" lon="5.74821">
        <ele>787</ele>
        <time>2018-05-23T18:20:45Z</time>
      </trkpt>
      <trkpt lat="44.81247" lon="5.74816">
        <ele>787</ele>
        <time>2018-05-23T18:20:56Z</time>
      </trkpt>
      <trkpt lat="44.81253" lon="5.74815">
        <ele>785</ele>
        <time>2018-05-23T18:21:15Z</time>
      </trkpt>
      <trkpt lat="44.81264" lon="5.74818">
        <ele>785</ele>
        <time>2018-05-23T18:21:30Z</time>
      </trkpt>
      <trkpt lat="44.81273" lon="5.74825">
        <ele>785</ele>
        <time>2018-05-23T18:21:41Z</time>
      </trkpt>
      <trkpt lat="44.81288" lon="5.74845">
        <ele>786</ele>
        <time>2018-05-23T18:21:59Z</time>
      </trkpt>
      <trkpt lat="44.81304" lon="5.74875">
        <ele>786</ele>
        <time>2018-05-23T18:22:15Z</time>
      </trkpt>
      <trkpt lat="44.81314" lon="5.74899">
        <ele>785</ele>
        <time>2018-05-23T18:22:28Z</time>
      </trkpt>
      <trkpt lat="44.81362" lon="5.75056">
        <ele>779</ele>
        <time>2018-05-23T18:22:40Z</time>
      </trkpt>
      <trkpt lat="44.81368" lon="5.75072">
        <ele>779</ele>
        <time>2018-05-23T18:22:57Z</time>
      </trkpt>
      <trkpt lat="44.81376" lon="5.75085">
        <ele>779</ele>
        <time>2018-05-23T18:23:11Z</time>
      </trkpt>
      <trkpt lat="44.81387" lon="5.75095">
        <ele>778</ele>
        <time>2018-05-23T18:23:31Z</time>
      </trkpt>
      <trkpt lat="44.814" lon="5.75102">
        <ele>777</ele>
        <time>2018-05-23T18:23:39Z</time>
      </trkpt>
      <trkpt lat="44.81422" lon="5.75105">
        <ele>775</ele>
        <time>2018-05-23T18:23:50Z</time>
      </trkpt>
      <trkpt lat="44.81486" lon="5.75098">
        <ele>775</ele>
        <time>2018-05-23T18:23:54Z</time>
      </trkpt>
      <trkpt lat="44.81532" lon="5.7509">
        <ele>775</ele>
        <time>2018-05-23T18:23:59Z</time>
      </trkpt>
      <trkpt lat="44.81593" lon="5.75078">
        <ele>775</ele>
        <time>2018-05-23T18:24:03Z</time>
      </trkpt>
      <trkpt lat="44.81647" lon="5.75065">
        <ele>776</ele>
        <time>2018-05-23T18:24:09Z</time>
      </trkpt>
      <trkpt lat="44.81681" lon="5.75056">
        <ele>778</ele>
        <time>2018-05-23T18:24:22Z</time>
      </trkpt>
    </trkseg>
  </trk>
</gpx>